<?xml version="1.0" encoding="UTF-8" standalone="no" ?>
<gpx xmlns="http://www.topografix.com/GPX/1/1" xmlns:xsi="http://www.w3.org/2001/XMLSchema-instance" xsi:schemaLocation="http://www.topografix.com/GPX/1/1 http://www.topografix.com/GPX/1/1/gpx.xsd" version="1.1" creator="VisuGPX - https://www.visugpx.com">
  <metadata>
    <name>Rando ROC Noire</name>
    <desc><![CDATA[Fréjus - Rando Roc noire 8 octobre 2016 (24° - soleil)]]></desc>
  </metadata>
  <wpt lat="43.41797" lon="6.73713">
    <ele>1</ele>
    <name><![CDATA[Start]]></name>
    <desc><![CDATA[2016-10-08 10:15:48]]></desc>
  </wpt>
  <wpt lat="43.41606" lon="6.73871">
    <ele>1</ele>
    <name><![CDATA[Lap 1]]></name>
    <desc><![CDATA[47.43km, 199:01, 14.3kph]]></desc>
  </wpt>
  <trk>
    <name><![CDATA[08_10_2016 12_15_48_history]]></name>
    <desc><![CDATA[199:01 - 47.4km]]></desc>
    <trkseg>
      <trkpt lat="43.41797" lon="6.73713">
        <ele>1</ele>
        <time>2016-10-08T10:15:48Z</time>
      </trkpt>
      <trkpt lat="43.41737" lon="6.73694">
        <ele>1</ele>
        <time>2016-10-08T10:15:58Z</time>
      </trkpt>
      <trkpt lat="43.41687" lon="6.73675">
        <ele>1</ele>
        <time>2016-10-08T10:16:06Z</time>
      </trkpt>
      <trkpt lat="43.41677" lon="6.73666">
        <ele>1</ele>
        <time>2016-10-08T10:16:08Z</time>
      </trkpt>
      <trkpt lat="43.41653" lon="6.73637">
        <ele>1</ele>
        <time>2016-10-08T10:16:13Z</time>
      </trkpt>
      <trkpt lat="43.41623" lon="6.73579">
        <ele>1.1</ele>
        <time>2016-10-08T10:16:21Z</time>
      </trkpt>
      <trkpt lat="43.41621" lon="6.73571">
        <ele>1.2</ele>
        <time>2016-10-08T10:16:22Z</time>
      </trkpt>
      <trkpt lat="43.41618" lon="6.73545">
        <ele>1.5</ele>
        <time>2016-10-08T10:16:25Z</time>
      </trkpt>
      <trkpt lat="43.41626" lon="6.73512">
        <ele>1.8</ele>
        <time>2016-10-08T10:16:29Z</time>
      </trkpt>
      <trkpt lat="43.41646" lon="6.73489">
        <ele>1</ele>
        <time>2016-10-08T10:16:33Z</time>
      </trkpt>
      <trkpt lat="43.41679" lon="6.73463">
        <ele>1</ele>
        <time>2016-10-08T10:16:39Z</time>
      </trkpt>
      <trkpt lat="43.41704" lon="6.73441">
        <ele>1</ele>
        <time>2016-10-08T10:16:44Z</time>
      </trkpt>
      <trkpt lat="43.41712" lon="6.73429">
        <ele>1</ele>
        <time>2016-10-08T10:16:46Z</time>
      </trkpt>
      <trkpt lat="43.41723" lon="6.73399">
        <ele>1</ele>
        <time>2016-10-08T10:16:50Z</time>
      </trkpt>
      <trkpt lat="43.41725" lon="6.73391">
        <ele>1</ele>
        <time>2016-10-08T10:16:51Z</time>
      </trkpt>
      <trkpt lat="43.41741" lon="6.73316">
        <ele>1</ele>
        <time>2016-10-08T10:17:00Z</time>
      </trkpt>
      <trkpt lat="43.41743" lon="6.73248">
        <ele>1</ele>
        <time>2016-10-08T10:17:08Z</time>
      </trkpt>
      <trkpt lat="43.41739" lon="6.73173">
        <ele>1</ele>
        <time>2016-10-08T10:17:17Z</time>
      </trkpt>
      <trkpt lat="43.41728" lon="6.73104">
        <ele>1</ele>
        <time>2016-10-08T10:17:26Z</time>
      </trkpt>
      <trkpt lat="43.41705" lon="6.72988">
        <ele>3</ele>
        <time>2016-10-08T10:17:43Z</time>
      </trkpt>
      <trkpt lat="43.41688" lon="6.72929">
        <ele>3</ele>
        <time>2016-10-08T10:17:52Z</time>
      </trkpt>
      <trkpt lat="43.41664" lon="6.7286">
        <ele>4</ele>
        <time>2016-10-08T10:18:02Z</time>
      </trkpt>
      <trkpt lat="43.41647" lon="6.72829">
        <ele>4</ele>
        <time>2016-10-08T10:18:07Z</time>
      </trkpt>
      <trkpt lat="43.41643" lon="6.72824">
        <ele>4</ele>
        <time>2016-10-08T10:18:08Z</time>
      </trkpt>
      <trkpt lat="43.41638" lon="6.7282">
        <ele>4</ele>
        <time>2016-10-08T10:18:09Z</time>
      </trkpt>
      <trkpt lat="43.41623" lon="6.72814">
        <ele>5</ele>
        <time>2016-10-08T10:18:12Z</time>
      </trkpt>
      <trkpt lat="43.4161" lon="6.72813">
        <ele>5</ele>
        <time>2016-10-08T10:18:14Z</time>
      </trkpt>
      <trkpt lat="43.41593" lon="6.72816">
        <ele>5</ele>
        <time>2016-10-08T10:18:17Z</time>
      </trkpt>
      <trkpt lat="43.41577" lon="6.72823">
        <ele>6</ele>
        <time>2016-10-08T10:18:20Z</time>
      </trkpt>
      <trkpt lat="43.41563" lon="6.72836">
        <ele>6</ele>
        <time>2016-10-08T10:18:23Z</time>
      </trkpt>
      <trkpt lat="43.41525" lon="6.7286">
        <ele>6</ele>
        <time>2016-10-08T10:18:31Z</time>
      </trkpt>
      <trkpt lat="43.41492" lon="6.72904">
        <ele>7</ele>
        <time>2016-10-08T10:18:40Z</time>
      </trkpt>
      <trkpt lat="43.41473" lon="6.72934">
        <ele>6</ele>
        <time>2016-10-08T10:18:46Z</time>
      </trkpt>
      <trkpt lat="43.4145" lon="6.72967">
        <ele>6</ele>
        <time>2016-10-08T10:18:52Z</time>
      </trkpt>
      <trkpt lat="43.41444" lon="6.72972">
        <ele>6</ele>
        <time>2016-10-08T10:18:53Z</time>
      </trkpt>
      <trkpt lat="43.41416" lon="6.73007">
        <ele>5</ele>
        <time>2016-10-08T10:18:58Z</time>
      </trkpt>
      <trkpt lat="43.41357" lon="6.73085">
        <ele>4</ele>
        <time>2016-10-08T10:19:09Z</time>
      </trkpt>
      <trkpt lat="43.41349" lon="6.73099">
        <ele>4</ele>
        <time>2016-10-08T10:19:11Z</time>
      </trkpt>
      <trkpt lat="43.41337" lon="6.7312">
        <ele>4</ele>
        <time>2016-10-08T10:19:14Z</time>
      </trkpt>
      <trkpt lat="43.41335" lon="6.73129">
        <ele>4</ele>
        <time>2016-10-08T10:19:15Z</time>
      </trkpt>
      <trkpt lat="43.41331" lon="6.73154">
        <ele>3</ele>
        <time>2016-10-08T10:19:18Z</time>
      </trkpt>
      <trkpt lat="43.41326" lon="6.73168">
        <ele>3</ele>
        <time>2016-10-08T10:19:20Z</time>
      </trkpt>
      <trkpt lat="43.41317" lon="6.73174">
        <ele>3</ele>
        <time>2016-10-08T10:19:22Z</time>
      </trkpt>
      <trkpt lat="43.41305" lon="6.73176">
        <ele>4</ele>
        <time>2016-10-08T10:19:24Z</time>
      </trkpt>
      <trkpt lat="43.41295" lon="6.73183">
        <ele>4</ele>
        <time>2016-10-08T10:19:26Z</time>
      </trkpt>
      <trkpt lat="43.41257" lon="6.73203">
        <ele>4</ele>
        <time>2016-10-08T10:19:33Z</time>
      </trkpt>
      <trkpt lat="43.41231" lon="6.73198">
        <ele>4</ele>
        <time>2016-10-08T10:19:38Z</time>
      </trkpt>
      <trkpt lat="43.41212" lon="6.73182">
        <ele>4</ele>
        <time>2016-10-08T10:19:43Z</time>
      </trkpt>
      <trkpt lat="43.4119" lon="6.73153">
        <ele>3</ele>
        <time>2016-10-08T10:19:48Z</time>
      </trkpt>
      <trkpt lat="43.41176" lon="6.73131">
        <ele>3</ele>
        <time>2016-10-08T10:19:52Z</time>
      </trkpt>
      <trkpt lat="43.41174" lon="6.73125">
        <ele>2</ele>
        <time>2016-10-08T10:19:53Z</time>
      </trkpt>
      <trkpt lat="43.41182" lon="6.73111">
        <ele>2</ele>
        <time>2016-10-08T10:19:56Z</time>
      </trkpt>
      <trkpt lat="43.41197" lon="6.73107">
        <ele>2</ele>
        <time>2016-10-08T10:20:00Z</time>
      </trkpt>
      <trkpt lat="43.41207" lon="6.73097">
        <ele>2</ele>
        <time>2016-10-08T10:20:03Z</time>
      </trkpt>
      <trkpt lat="43.4122" lon="6.73079">
        <ele>2</ele>
        <time>2016-10-08T10:20:07Z</time>
      </trkpt>
      <trkpt lat="43.41262" lon="6.73024">
        <ele>3</ele>
        <time>2016-10-08T10:20:19Z</time>
      </trkpt>
      <trkpt lat="43.41289" lon="6.72987">
        <ele>3</ele>
        <time>2016-10-08T10:20:26Z</time>
      </trkpt>
      <trkpt lat="43.41365" lon="6.72889">
        <ele>3</ele>
        <time>2016-10-08T10:20:43Z</time>
      </trkpt>
      <trkpt lat="43.41406" lon="6.72835">
        <ele>4</ele>
        <time>2016-10-08T10:20:52Z</time>
      </trkpt>
      <trkpt lat="43.4145" lon="6.72778">
        <ele>5</ele>
        <time>2016-10-08T10:21:01Z</time>
      </trkpt>
      <trkpt lat="43.41463" lon="6.72761">
        <ele>5</ele>
        <time>2016-10-08T10:21:04Z</time>
      </trkpt>
      <trkpt lat="43.41485" lon="6.72726">
        <ele>5</ele>
        <time>2016-10-08T10:21:10Z</time>
      </trkpt>
      <trkpt lat="43.41494" lon="6.72688">
        <ele>5</ele>
        <time>2016-10-08T10:21:15Z</time>
      </trkpt>
      <trkpt lat="43.41515" lon="6.72666">
        <ele>4</ele>
        <time>2016-10-08T10:21:20Z</time>
      </trkpt>
      <trkpt lat="43.41515" lon="6.72652">
        <ele>4</ele>
        <time>2016-10-08T10:21:23Z</time>
      </trkpt>
      <trkpt lat="43.41506" lon="6.72647">
        <ele>4</ele>
        <time>2016-10-08T10:21:25Z</time>
      </trkpt>
      <trkpt lat="43.41478" lon="6.72635">
        <ele>4</ele>
        <time>2016-10-08T10:21:30Z</time>
      </trkpt>
      <trkpt lat="43.4144" lon="6.7261">
        <ele>4</ele>
        <time>2016-10-08T10:21:37Z</time>
      </trkpt>
      <trkpt lat="43.41429" lon="6.72584">
        <ele>3</ele>
        <time>2016-10-08T10:21:41Z</time>
      </trkpt>
      <trkpt lat="43.41413" lon="6.72554">
        <ele>3</ele>
        <time>2016-10-08T10:21:46Z</time>
      </trkpt>
      <trkpt lat="43.41405" lon="6.72535">
        <ele>3</ele>
        <time>2016-10-08T10:21:49Z</time>
      </trkpt>
      <trkpt lat="43.41395" lon="6.72517">
        <ele>3</ele>
        <time>2016-10-08T10:21:52Z</time>
      </trkpt>
      <trkpt lat="43.41371" lon="6.72476">
        <ele>2</ele>
        <time>2016-10-08T10:21:58Z</time>
      </trkpt>
      <trkpt lat="43.41365" lon="6.72471">
        <ele>2</ele>
        <time>2016-10-08T10:21:59Z</time>
      </trkpt>
      <trkpt lat="43.41348" lon="6.7246">
        <ele>2</ele>
        <time>2016-10-08T10:22:02Z</time>
      </trkpt>
      <trkpt lat="43.41337" lon="6.72454">
        <ele>2</ele>
        <time>2016-10-08T10:22:04Z</time>
      </trkpt>
      <trkpt lat="43.41332" lon="6.72453">
        <ele>2</ele>
        <time>2016-10-08T10:22:05Z</time>
      </trkpt>
      <trkpt lat="43.41309" lon="6.72459">
        <ele>3</ele>
        <time>2016-10-08T10:22:09Z</time>
      </trkpt>
      <trkpt lat="43.41297" lon="6.72463">
        <ele>3</ele>
        <time>2016-10-08T10:22:11Z</time>
      </trkpt>
      <trkpt lat="43.41281" lon="6.72473">
        <ele>3</ele>
        <time>2016-10-08T10:22:14Z</time>
      </trkpt>
      <trkpt lat="43.41276" lon="6.72475">
        <ele>3</ele>
        <time>2016-10-08T10:22:15Z</time>
      </trkpt>
      <trkpt lat="43.41258" lon="6.72477">
        <ele>4</ele>
        <time>2016-10-08T10:22:18Z</time>
      </trkpt>
      <trkpt lat="43.41214" lon="6.72477">
        <ele>4</ele>
        <time>2016-10-08T10:22:25Z</time>
      </trkpt>
      <trkpt lat="43.41191" lon="6.72468">
        <ele>3</ele>
        <time>2016-10-08T10:22:29Z</time>
      </trkpt>
      <trkpt lat="43.41185" lon="6.72464">
        <ele>3</ele>
        <time>2016-10-08T10:22:30Z</time>
      </trkpt>
      <trkpt lat="43.41171" lon="6.72458">
        <ele>3</ele>
        <time>2016-10-08T10:22:33Z</time>
      </trkpt>
      <trkpt lat="43.41152" lon="6.72465">
        <ele>3</ele>
        <time>2016-10-08T10:22:38Z</time>
      </trkpt>
      <trkpt lat="43.41128" lon="6.72454">
        <ele>3</ele>
        <time>2016-10-08T10:22:42Z</time>
      </trkpt>
      <trkpt lat="43.41101" lon="6.72437">
        <ele>3</ele>
        <time>2016-10-08T10:22:48Z</time>
      </trkpt>
      <trkpt lat="43.41097" lon="6.7243">
        <ele>3</ele>
        <time>2016-10-08T10:22:52Z</time>
      </trkpt>
      <trkpt lat="43.41095" lon="6.72435">
        <ele>3</ele>
        <time>2016-10-08T10:22:53Z</time>
      </trkpt>
      <trkpt lat="43.41093" lon="6.72437">
        <ele>3</ele>
        <time>2016-10-08T10:22:54Z</time>
      </trkpt>
      <trkpt lat="43.41089" lon="6.72438">
        <ele>3</ele>
        <time>2016-10-08T10:22:56Z</time>
      </trkpt>
      <trkpt lat="43.41079" lon="6.72433">
        <ele>3</ele>
        <time>2016-10-08T10:23:00Z</time>
      </trkpt>
      <trkpt lat="43.41061" lon="6.72431">
        <ele>3</ele>
        <time>2016-10-08T10:23:07Z</time>
      </trkpt>
      <trkpt lat="43.41037" lon="6.72416">
        <ele>3</ele>
        <time>2016-10-08T10:23:12Z</time>
      </trkpt>
      <trkpt lat="43.40995" lon="6.72408">
        <ele>3</ele>
        <time>2016-10-08T10:23:19Z</time>
      </trkpt>
      <trkpt lat="43.4095" lon="6.72412">
        <ele>3</ele>
        <time>2016-10-08T10:23:26Z</time>
      </trkpt>
      <trkpt lat="43.40921" lon="6.7242">
        <ele>3</ele>
        <time>2016-10-08T10:23:31Z</time>
      </trkpt>
      <trkpt lat="43.40915" lon="6.72418">
        <ele>3</ele>
        <time>2016-10-08T10:23:32Z</time>
      </trkpt>
      <trkpt lat="43.40907" lon="6.72401">
        <ele>3</ele>
        <time>2016-10-08T10:23:35Z</time>
      </trkpt>
      <trkpt lat="43.40903" lon="6.72376">
        <ele>2</ele>
        <time>2016-10-08T10:23:38Z</time>
      </trkpt>
      <trkpt lat="43.409" lon="6.72369">
        <ele>2</ele>
        <time>2016-10-08T10:23:39Z</time>
      </trkpt>
      <trkpt lat="43.40895" lon="6.72363">
        <ele>2</ele>
        <time>2016-10-08T10:23:40Z</time>
      </trkpt>
      <trkpt lat="43.40885" lon="6.72354">
        <ele>2</ele>
        <time>2016-10-08T10:23:42Z</time>
      </trkpt>
      <trkpt lat="43.40873" lon="6.72346">
        <ele>2</ele>
        <time>2016-10-08T10:23:44Z</time>
      </trkpt>
      <trkpt lat="43.4086" lon="6.72339">
        <ele>2</ele>
        <time>2016-10-08T10:23:46Z</time>
      </trkpt>
      <trkpt lat="43.40854" lon="6.72337">
        <ele>2</ele>
        <time>2016-10-08T10:23:47Z</time>
      </trkpt>
      <trkpt lat="43.40835" lon="6.72335">
        <ele>2</ele>
        <time>2016-10-08T10:23:50Z</time>
      </trkpt>
      <trkpt lat="43.40824" lon="6.72333">
        <ele>2</ele>
        <time>2016-10-08T10:23:52Z</time>
      </trkpt>
      <trkpt lat="43.40795" lon="6.72319">
        <ele>2</ele>
        <time>2016-10-08T10:23:57Z</time>
      </trkpt>
      <trkpt lat="43.40747" lon="6.723">
        <ele>1</ele>
        <time>2016-10-08T10:24:05Z</time>
      </trkpt>
      <trkpt lat="43.40742" lon="6.72295">
        <ele>1</ele>
        <time>2016-10-08T10:24:06Z</time>
      </trkpt>
      <trkpt lat="43.4073" lon="6.7227">
        <ele>1</ele>
        <time>2016-10-08T10:24:10Z</time>
      </trkpt>
      <trkpt lat="43.40734" lon="6.72246">
        <ele>2</ele>
        <time>2016-10-08T10:24:13Z</time>
      </trkpt>
      <trkpt lat="43.40775" lon="6.72154">
        <ele>2</ele>
        <time>2016-10-08T10:24:26Z</time>
      </trkpt>
      <trkpt lat="43.40787" lon="6.72119">
        <ele>2</ele>
        <time>2016-10-08T10:24:31Z</time>
      </trkpt>
      <trkpt lat="43.40789" lon="6.72104">
        <ele>2</ele>
        <time>2016-10-08T10:24:33Z</time>
      </trkpt>
      <trkpt lat="43.40788" lon="6.72088">
        <ele>2</ele>
        <time>2016-10-08T10:24:35Z</time>
      </trkpt>
      <trkpt lat="43.4079" lon="6.72061">
        <ele>2</ele>
        <time>2016-10-08T10:24:38Z</time>
      </trkpt>
      <trkpt lat="43.40802" lon="6.71996">
        <ele>1</ele>
        <time>2016-10-08T10:24:46Z</time>
      </trkpt>
      <trkpt lat="43.40822" lon="6.71932">
        <ele>1</ele>
        <time>2016-10-08T10:24:54Z</time>
      </trkpt>
      <trkpt lat="43.40847" lon="6.7187">
        <ele>1</ele>
        <time>2016-10-08T10:25:02Z</time>
      </trkpt>
      <trkpt lat="43.40895" lon="6.71789">
        <ele>2</ele>
        <time>2016-10-08T10:25:14Z</time>
      </trkpt>
      <trkpt lat="43.409" lon="6.71774">
        <ele>2</ele>
        <time>2016-10-08T10:25:16Z</time>
      </trkpt>
      <trkpt lat="43.4092" lon="6.71674">
        <ele>2</ele>
        <time>2016-10-08T10:25:29Z</time>
      </trkpt>
      <trkpt lat="43.40939" lon="6.71609">
        <ele>2</ele>
        <time>2016-10-08T10:25:37Z</time>
      </trkpt>
      <trkpt lat="43.40948" lon="6.71542">
        <ele>2</ele>
        <time>2016-10-08T10:25:45Z</time>
      </trkpt>
      <trkpt lat="43.40949" lon="6.71526">
        <ele>2</ele>
        <time>2016-10-08T10:25:47Z</time>
      </trkpt>
      <trkpt lat="43.40947" lon="6.71501">
        <ele>2</ele>
        <time>2016-10-08T10:25:50Z</time>
      </trkpt>
      <trkpt lat="43.40939" lon="6.71487">
        <ele>2</ele>
        <time>2016-10-08T10:25:53Z</time>
      </trkpt>
      <trkpt lat="43.40954" lon="6.71446">
        <ele>3</ele>
        <time>2016-10-08T10:26:02Z</time>
      </trkpt>
      <trkpt lat="43.40958" lon="6.71439">
        <ele>3</ele>
        <time>2016-10-08T10:26:04Z</time>
      </trkpt>
      <trkpt lat="43.40963" lon="6.71435">
        <ele>2</ele>
        <time>2016-10-08T10:26:06Z</time>
      </trkpt>
      <trkpt lat="43.40972" lon="6.71435">
        <ele>2</ele>
        <time>2016-10-08T10:26:09Z</time>
      </trkpt>
      <trkpt lat="43.40974" lon="6.71432">
        <ele>2</ele>
        <time>2016-10-08T10:26:10Z</time>
      </trkpt>
      <trkpt lat="43.40978" lon="6.7141">
        <ele>2</ele>
        <time>2016-10-08T10:26:15Z</time>
      </trkpt>
      <trkpt lat="43.41003" lon="6.71393">
        <ele>2</ele>
        <time>2016-10-08T10:26:21Z</time>
      </trkpt>
      <trkpt lat="43.41023" lon="6.71382">
        <ele>2</ele>
        <time>2016-10-08T10:26:25Z</time>
      </trkpt>
      <trkpt lat="43.41033" lon="6.7137">
        <ele>2</ele>
        <time>2016-10-08T10:26:27Z</time>
      </trkpt>
      <trkpt lat="43.41083" lon="6.71289">
        <ele>2</ele>
        <time>2016-10-08T10:26:40Z</time>
      </trkpt>
      <trkpt lat="43.41104" lon="6.7126">
        <ele>3</ele>
        <time>2016-10-08T10:26:45Z</time>
      </trkpt>
      <trkpt lat="43.41106" lon="6.71253">
        <ele>3</ele>
        <time>2016-10-08T10:26:46Z</time>
      </trkpt>
      <trkpt lat="43.41104" lon="6.71231">
        <ele>3</ele>
        <time>2016-10-08T10:26:49Z</time>
      </trkpt>
      <trkpt lat="43.411" lon="6.71216">
        <ele>3</ele>
        <time>2016-10-08T10:26:51Z</time>
      </trkpt>
      <trkpt lat="43.41092" lon="6.71193">
        <ele>3</ele>
        <time>2016-10-08T10:26:54Z</time>
      </trkpt>
      <trkpt lat="43.41069" lon="6.71122">
        <ele>3</ele>
        <time>2016-10-08T10:27:03Z</time>
      </trkpt>
      <trkpt lat="43.41055" lon="6.7109">
        <ele>3</ele>
        <time>2016-10-08T10:27:07Z</time>
      </trkpt>
      <trkpt lat="43.4105" lon="6.71071">
        <ele>3</ele>
        <time>2016-10-08T10:27:09Z</time>
      </trkpt>
      <trkpt lat="43.4104" lon="6.71032">
        <ele>3</ele>
        <time>2016-10-08T10:27:14Z</time>
      </trkpt>
      <trkpt lat="43.41028" lon="6.70981">
        <ele>4</ele>
        <time>2016-10-08T10:27:21Z</time>
      </trkpt>
      <trkpt lat="43.41006" lon="6.7091">
        <ele>4</ele>
        <time>2016-10-08T10:27:32Z</time>
      </trkpt>
      <trkpt lat="43.40997" lon="6.70885">
        <ele>4</ele>
        <time>2016-10-08T10:27:36Z</time>
      </trkpt>
      <trkpt lat="43.40982" lon="6.7088">
        <ele>4</ele>
        <time>2016-10-08T10:27:38Z</time>
      </trkpt>
      <trkpt lat="43.40971" lon="6.70871">
        <ele>4</ele>
        <time>2016-10-08T10:27:40Z</time>
      </trkpt>
      <trkpt lat="43.40967" lon="6.70865">
        <ele>4</ele>
        <time>2016-10-08T10:27:41Z</time>
      </trkpt>
      <trkpt lat="43.40968" lon="6.70838">
        <ele>4</ele>
        <time>2016-10-08T10:27:44Z</time>
      </trkpt>
      <trkpt lat="43.40971" lon="6.70833">
        <ele>6</ele>
        <time>2016-10-08T10:27:45Z</time>
      </trkpt>
      <trkpt lat="43.40977" lon="6.70821">
        <ele>6</ele>
        <time>2016-10-08T10:27:47Z</time>
      </trkpt>
      <trkpt lat="43.40982" lon="6.70816">
        <ele>6</ele>
        <time>2016-10-08T10:27:48Z</time>
      </trkpt>
      <trkpt lat="43.41003" lon="6.70804">
        <ele>7</ele>
        <time>2016-10-08T10:27:52Z</time>
      </trkpt>
      <trkpt lat="43.41048" lon="6.7078">
        <ele>8</ele>
        <time>2016-10-08T10:28:00Z</time>
      </trkpt>
      <trkpt lat="43.41054" lon="6.70779">
        <ele>8</ele>
        <time>2016-10-08T10:28:01Z</time>
      </trkpt>
      <trkpt lat="43.4106" lon="6.70779">
        <ele>9</ele>
        <time>2016-10-08T10:28:02Z</time>
      </trkpt>
      <trkpt lat="43.41072" lon="6.70785">
        <ele>8</ele>
        <time>2016-10-08T10:28:04Z</time>
      </trkpt>
      <trkpt lat="43.41118" lon="6.70792">
        <ele>7</ele>
        <time>2016-10-08T10:28:11Z</time>
      </trkpt>
      <trkpt lat="43.41137" lon="6.70794">
        <ele>6</ele>
        <time>2016-10-08T10:28:14Z</time>
      </trkpt>
      <trkpt lat="43.41144" lon="6.70793">
        <ele>6</ele>
        <time>2016-10-08T10:28:15Z</time>
      </trkpt>
      <trkpt lat="43.41155" lon="6.70787">
        <ele>6</ele>
        <time>2016-10-08T10:28:17Z</time>
      </trkpt>
      <trkpt lat="43.41168" lon="6.70768">
        <ele>5</ele>
        <time>2016-10-08T10:28:20Z</time>
      </trkpt>
      <trkpt lat="43.41218" lon="6.70651">
        <ele>11</ele>
        <time>2016-10-08T10:28:37Z</time>
      </trkpt>
      <trkpt lat="43.41231" lon="6.70617">
        <ele>11</ele>
        <time>2016-10-08T10:28:42Z</time>
      </trkpt>
      <trkpt lat="43.41237" lon="6.70602">
        <ele>10</ele>
        <time>2016-10-08T10:28:44Z</time>
      </trkpt>
      <trkpt lat="43.41255" lon="6.70558">
        <ele>5</ele>
        <time>2016-10-08T10:28:50Z</time>
      </trkpt>
      <trkpt lat="43.41258" lon="6.70541">
        <ele>5</ele>
        <time>2016-10-08T10:28:52Z</time>
      </trkpt>
      <trkpt lat="43.41279" lon="6.70485">
        <ele>8</ele>
        <time>2016-10-08T10:28:59Z</time>
      </trkpt>
      <trkpt lat="43.41308" lon="6.70418">
        <ele>8</ele>
        <time>2016-10-08T10:29:08Z</time>
      </trkpt>
      <trkpt lat="43.4133" lon="6.70354">
        <ele>14</ele>
        <time>2016-10-08T10:29:16Z</time>
      </trkpt>
      <trkpt lat="43.41334" lon="6.70327">
        <ele>10</ele>
        <time>2016-10-08T10:29:19Z</time>
      </trkpt>
      <trkpt lat="43.41335" lon="6.70317">
        <ele>9</ele>
        <time>2016-10-08T10:29:20Z</time>
      </trkpt>
      <trkpt lat="43.41333" lon="6.70261">
        <ele>10</ele>
        <time>2016-10-08T10:29:26Z</time>
      </trkpt>
      <trkpt lat="43.41322" lon="6.70201">
        <ele>17</ele>
        <time>2016-10-08T10:29:33Z</time>
      </trkpt>
      <trkpt lat="43.41306" lon="6.70155">
        <ele>15</ele>
        <time>2016-10-08T10:29:39Z</time>
      </trkpt>
      <trkpt lat="43.41302" lon="6.7015">
        <ele>16</ele>
        <time>2016-10-08T10:29:40Z</time>
      </trkpt>
      <trkpt lat="43.41286" lon="6.70115">
        <ele>18</ele>
        <time>2016-10-08T10:29:45Z</time>
      </trkpt>
      <trkpt lat="43.41278" lon="6.70081">
        <ele>19</ele>
        <time>2016-10-08T10:29:50Z</time>
      </trkpt>
      <trkpt lat="43.4128" lon="6.70067">
        <ele>18</ele>
        <time>2016-10-08T10:29:53Z</time>
      </trkpt>
      <trkpt lat="43.4128" lon="6.70043">
        <ele>17</ele>
        <time>2016-10-08T10:29:56Z</time>
      </trkpt>
      <trkpt lat="43.4128" lon="6.70033">
        <ele>17</ele>
        <time>2016-10-08T10:29:57Z</time>
      </trkpt>
      <trkpt lat="43.41272" lon="6.69973">
        <ele>17</ele>
        <time>2016-10-08T10:30:04Z</time>
      </trkpt>
      <trkpt lat="43.41259" lon="6.699">
        <ele>15</ele>
        <time>2016-10-08T10:30:13Z</time>
      </trkpt>
      <trkpt lat="43.41248" lon="6.69862">
        <ele>20</ele>
        <time>2016-10-08T10:30:18Z</time>
      </trkpt>
      <trkpt lat="43.41241" lon="6.69847">
        <ele>17</ele>
        <time>2016-10-08T10:30:20Z</time>
      </trkpt>
      <trkpt lat="43.41229" lon="6.69829">
        <ele>14</ele>
        <time>2016-10-08T10:30:23Z</time>
      </trkpt>
      <trkpt lat="43.41221" lon="6.69817">
        <ele>15</ele>
        <time>2016-10-08T10:30:25Z</time>
      </trkpt>
      <trkpt lat="43.41216" lon="6.69804">
        <ele>15</ele>
        <time>2016-10-08T10:30:27Z</time>
      </trkpt>
      <trkpt lat="43.41209" lon="6.69783">
        <ele>15</ele>
        <time>2016-10-08T10:30:30Z</time>
      </trkpt>
      <trkpt lat="43.41194" lon="6.69739">
        <ele>10</ele>
        <time>2016-10-08T10:30:36Z</time>
      </trkpt>
      <trkpt lat="43.41186" lon="6.69724">
        <ele>10</ele>
        <time>2016-10-08T10:30:38Z</time>
      </trkpt>
      <trkpt lat="43.41164" lon="6.69692">
        <ele>10</ele>
        <time>2016-10-08T10:30:43Z</time>
      </trkpt>
      <trkpt lat="43.41158" lon="6.69688">
        <ele>9</ele>
        <time>2016-10-08T10:30:44Z</time>
      </trkpt>
      <trkpt lat="43.41137" lon="6.69676">
        <ele>9</ele>
        <time>2016-10-08T10:30:48Z</time>
      </trkpt>
      <trkpt lat="43.41131" lon="6.69664">
        <ele>6</ele>
        <time>2016-10-08T10:30:51Z</time>
      </trkpt>
      <trkpt lat="43.41138" lon="6.69655">
        <ele>6</ele>
        <time>2016-10-08T10:30:53Z</time>
      </trkpt>
      <trkpt lat="43.41142" lon="6.69652">
        <ele>6</ele>
        <time>2016-10-08T10:30:54Z</time>
      </trkpt>
      <trkpt lat="43.41178" lon="6.6965">
        <ele>6</ele>
        <time>2016-10-08T10:31:01Z</time>
      </trkpt>
      <trkpt lat="43.41186" lon="6.69636">
        <ele>6</ele>
        <time>2016-10-08T10:31:04Z</time>
      </trkpt>
      <trkpt lat="43.41188" lon="6.69631">
        <ele>5</ele>
        <time>2016-10-08T10:31:05Z</time>
      </trkpt>
      <trkpt lat="43.4119" lon="6.69624">
        <ele>5</ele>
        <time>2016-10-08T10:31:06Z</time>
      </trkpt>
      <trkpt lat="43.41193" lon="6.69603">
        <ele>5</ele>
        <time>2016-10-08T10:31:09Z</time>
      </trkpt>
      <trkpt lat="43.41193" lon="6.69588">
        <ele>5</ele>
        <time>2016-10-08T10:31:11Z</time>
      </trkpt>
      <trkpt lat="43.41186" lon="6.69567">
        <ele>4</ele>
        <time>2016-10-08T10:31:14Z</time>
      </trkpt>
      <trkpt lat="43.41181" lon="6.69557">
        <ele>4</ele>
        <time>2016-10-08T10:31:16Z</time>
      </trkpt>
      <trkpt lat="43.41181" lon="6.69544">
        <ele>4</ele>
        <time>2016-10-08T10:31:18Z</time>
      </trkpt>
      <trkpt lat="43.41185" lon="6.6952">
        <ele>4</ele>
        <time>2016-10-08T10:31:21Z</time>
      </trkpt>
      <trkpt lat="43.41189" lon="6.69503">
        <ele>4</ele>
        <time>2016-10-08T10:31:23Z</time>
      </trkpt>
      <trkpt lat="43.41204" lon="6.69452">
        <ele>5</ele>
        <time>2016-10-08T10:31:30Z</time>
      </trkpt>
      <trkpt lat="43.412" lon="6.69429">
        <ele>6</ele>
        <time>2016-10-08T10:31:33Z</time>
      </trkpt>
      <trkpt lat="43.41191" lon="6.69406">
        <ele>7</ele>
        <time>2016-10-08T10:31:36Z</time>
      </trkpt>
      <trkpt lat="43.41184" lon="6.69393">
        <ele>7</ele>
        <time>2016-10-08T10:31:38Z</time>
      </trkpt>
      <trkpt lat="43.41164" lon="6.69376">
        <ele>7</ele>
        <time>2016-10-08T10:31:42Z</time>
      </trkpt>
      <trkpt lat="43.41124" lon="6.69344">
        <ele>7</ele>
        <time>2016-10-08T10:31:50Z</time>
      </trkpt>
      <trkpt lat="43.41084" lon="6.69314">
        <ele>8</ele>
        <time>2016-10-08T10:31:58Z</time>
      </trkpt>
      <trkpt lat="43.41034" lon="6.69279">
        <ele>7</ele>
        <time>2016-10-08T10:32:08Z</time>
      </trkpt>
      <trkpt lat="43.40986" lon="6.69242">
        <ele>8</ele>
        <time>2016-10-08T10:32:18Z</time>
      </trkpt>
      <trkpt lat="43.4095" lon="6.69215">
        <ele>7</ele>
        <time>2016-10-08T10:32:26Z</time>
      </trkpt>
      <trkpt lat="43.40954" lon="6.69199">
        <ele>7</ele>
        <time>2016-10-08T10:32:29Z</time>
      </trkpt>
      <trkpt lat="43.40957" lon="6.69194">
        <ele>7</ele>
        <time>2016-10-08T10:32:30Z</time>
      </trkpt>
      <trkpt lat="43.40974" lon="6.69158">
        <ele>7</ele>
        <time>2016-10-08T10:32:36Z</time>
      </trkpt>
      <trkpt lat="43.40991" lon="6.69113">
        <ele>7</ele>
        <time>2016-10-08T10:32:43Z</time>
      </trkpt>
      <trkpt lat="43.40999" lon="6.69085">
        <ele>6</ele>
        <time>2016-10-08T10:32:47Z</time>
      </trkpt>
      <trkpt lat="43.40998" lon="6.69071">
        <ele>7</ele>
        <time>2016-10-08T10:32:49Z</time>
      </trkpt>
      <trkpt lat="43.40987" lon="6.69043">
        <ele>7</ele>
        <time>2016-10-08T10:32:53Z</time>
      </trkpt>
      <trkpt lat="43.40976" lon="6.69024">
        <ele>8</ele>
        <time>2016-10-08T10:32:56Z</time>
      </trkpt>
      <trkpt lat="43.40968" lon="6.69014">
        <ele>8</ele>
        <time>2016-10-08T10:32:58Z</time>
      </trkpt>
      <trkpt lat="43.40958" lon="6.69006">
        <ele>8</ele>
        <time>2016-10-08T10:33:00Z</time>
      </trkpt>
      <trkpt lat="43.40953" lon="6.69002">
        <ele>8</ele>
        <time>2016-10-08T10:33:01Z</time>
      </trkpt>
      <trkpt lat="43.40942" lon="6.68998">
        <ele>8</ele>
        <time>2016-10-08T10:33:03Z</time>
      </trkpt>
      <trkpt lat="43.4093" lon="6.68997">
        <ele>8</ele>
        <time>2016-10-08T10:33:05Z</time>
      </trkpt>
      <trkpt lat="43.40913" lon="6.68993">
        <ele>8</ele>
        <time>2016-10-08T10:33:08Z</time>
      </trkpt>
      <trkpt lat="43.40901" lon="6.68988">
        <ele>8</ele>
        <time>2016-10-08T10:33:10Z</time>
      </trkpt>
      <trkpt lat="43.40862" lon="6.68964">
        <ele>8</ele>
        <time>2016-10-08T10:33:17Z</time>
      </trkpt>
      <trkpt lat="43.40831" lon="6.68937">
        <ele>7</ele>
        <time>2016-10-08T10:33:23Z</time>
      </trkpt>
      <trkpt lat="43.40814" lon="6.68914">
        <ele>8</ele>
        <time>2016-10-08T10:33:27Z</time>
      </trkpt>
      <trkpt lat="43.40805" lon="6.68904">
        <ele>7</ele>
        <time>2016-10-08T10:33:29Z</time>
      </trkpt>
      <trkpt lat="43.40771" lon="6.68882">
        <ele>7</ele>
        <time>2016-10-08T10:33:35Z</time>
      </trkpt>
      <trkpt lat="43.40681" lon="6.68847">
        <ele>8</ele>
        <time>2016-10-08T10:33:50Z</time>
      </trkpt>
      <trkpt lat="43.40629" lon="6.68811">
        <ele>9</ele>
        <time>2016-10-08T10:33:59Z</time>
      </trkpt>
      <trkpt lat="43.40607" lon="6.68794">
        <ele>9</ele>
        <time>2016-10-08T10:34:03Z</time>
      </trkpt>
      <trkpt lat="43.40597" lon="6.68783">
        <ele>9</ele>
        <time>2016-10-08T10:34:05Z</time>
      </trkpt>
      <trkpt lat="43.40567" lon="6.68753">
        <ele>9</ele>
        <time>2016-10-08T10:34:11Z</time>
      </trkpt>
      <trkpt lat="43.40556" lon="6.68732">
        <ele>9</ele>
        <time>2016-10-08T10:34:14Z</time>
      </trkpt>
      <trkpt lat="43.40548" lon="6.68718">
        <ele>9</ele>
        <time>2016-10-08T10:34:16Z</time>
      </trkpt>
      <trkpt lat="43.40527" lon="6.68689">
        <ele>9</ele>
        <time>2016-10-08T10:34:21Z</time>
      </trkpt>
      <trkpt lat="43.40516" lon="6.68681">
        <ele>9</ele>
        <time>2016-10-08T10:34:23Z</time>
      </trkpt>
      <trkpt lat="43.40487" lon="6.68671">
        <ele>10</ele>
        <time>2016-10-08T10:34:28Z</time>
      </trkpt>
      <trkpt lat="43.40464" lon="6.68681">
        <ele>10</ele>
        <time>2016-10-08T10:34:32Z</time>
      </trkpt>
      <trkpt lat="43.40433" lon="6.68705">
        <ele>10</ele>
        <time>2016-10-08T10:34:38Z</time>
      </trkpt>
      <trkpt lat="43.40428" lon="6.68708">
        <ele>9</ele>
        <time>2016-10-08T10:34:39Z</time>
      </trkpt>
      <trkpt lat="43.40415" lon="6.68711">
        <ele>10</ele>
        <time>2016-10-08T10:34:41Z</time>
      </trkpt>
      <trkpt lat="43.40409" lon="6.6871">
        <ele>10</ele>
        <time>2016-10-08T10:34:42Z</time>
      </trkpt>
      <trkpt lat="43.40391" lon="6.68689">
        <ele>10</ele>
        <time>2016-10-08T10:34:46Z</time>
      </trkpt>
      <trkpt lat="43.40358" lon="6.68656">
        <ele>10</ele>
        <time>2016-10-08T10:34:53Z</time>
      </trkpt>
      <trkpt lat="43.40316" lon="6.6861">
        <ele>10</ele>
        <time>2016-10-08T10:35:02Z</time>
      </trkpt>
      <trkpt lat="43.4027" lon="6.68555">
        <ele>10</ele>
        <time>2016-10-08T10:35:12Z</time>
      </trkpt>
      <trkpt lat="43.40235" lon="6.68527">
        <ele>11</ele>
        <time>2016-10-08T10:35:19Z</time>
      </trkpt>
      <trkpt lat="43.40231" lon="6.68522">
        <ele>11</ele>
        <time>2016-10-08T10:35:20Z</time>
      </trkpt>
      <trkpt lat="43.40223" lon="6.68501">
        <ele>11</ele>
        <time>2016-10-08T10:35:23Z</time>
      </trkpt>
      <trkpt lat="43.4022" lon="6.68486">
        <ele>10</ele>
        <time>2016-10-08T10:35:25Z</time>
      </trkpt>
      <trkpt lat="43.40217" lon="6.68463">
        <ele>10</ele>
        <time>2016-10-08T10:35:28Z</time>
      </trkpt>
      <trkpt lat="43.40211" lon="6.68431">
        <ele>10</ele>
        <time>2016-10-08T10:35:32Z</time>
      </trkpt>
      <trkpt lat="43.40211" lon="6.68415">
        <ele>10</ele>
        <time>2016-10-08T10:35:34Z</time>
      </trkpt>
      <trkpt lat="43.40212" lon="6.68407">
        <ele>10</ele>
        <time>2016-10-08T10:35:35Z</time>
      </trkpt>
      <trkpt lat="43.40215" lon="6.68382">
        <ele>10</ele>
        <time>2016-10-08T10:35:38Z</time>
      </trkpt>
      <trkpt lat="43.40217" lon="6.68366">
        <ele>10</ele>
        <time>2016-10-08T10:35:40Z</time>
      </trkpt>
      <trkpt lat="43.40211" lon="6.68335">
        <ele>10</ele>
        <time>2016-10-08T10:35:44Z</time>
      </trkpt>
      <trkpt lat="43.40208" lon="6.68327">
        <ele>10</ele>
        <time>2016-10-08T10:35:45Z</time>
      </trkpt>
      <trkpt lat="43.402" lon="6.6828">
        <ele>11</ele>
        <time>2016-10-08T10:35:51Z</time>
      </trkpt>
      <trkpt lat="43.40186" lon="6.68265">
        <ele>11</ele>
        <time>2016-10-08T10:35:54Z</time>
      </trkpt>
      <trkpt lat="43.4017" lon="6.68252">
        <ele>12</ele>
        <time>2016-10-08T10:35:57Z</time>
      </trkpt>
      <trkpt lat="43.40156" lon="6.68239">
        <ele>12</ele>
        <time>2016-10-08T10:36:00Z</time>
      </trkpt>
      <trkpt lat="43.40138" lon="6.68236">
        <ele>12</ele>
        <time>2016-10-08T10:36:03Z</time>
      </trkpt>
      <trkpt lat="43.40132" lon="6.68235">
        <ele>12</ele>
        <time>2016-10-08T10:36:04Z</time>
      </trkpt>
      <trkpt lat="43.4012" lon="6.68233">
        <ele>12</ele>
        <time>2016-10-08T10:36:06Z</time>
      </trkpt>
      <trkpt lat="43.40109" lon="6.68226">
        <ele>12</ele>
        <time>2016-10-08T10:36:08Z</time>
      </trkpt>
      <trkpt lat="43.40092" lon="6.68204">
        <ele>13</ele>
        <time>2016-10-08T10:36:12Z</time>
      </trkpt>
      <trkpt lat="43.40087" lon="6.682">
        <ele>13</ele>
        <time>2016-10-08T10:36:13Z</time>
      </trkpt>
      <trkpt lat="43.40046" lon="6.68171">
        <ele>14</ele>
        <time>2016-10-08T10:36:21Z</time>
      </trkpt>
      <trkpt lat="43.40033" lon="6.68154">
        <ele>14</ele>
        <time>2016-10-08T10:36:24Z</time>
      </trkpt>
      <trkpt lat="43.40012" lon="6.68114">
        <ele>14</ele>
        <time>2016-10-08T10:36:30Z</time>
      </trkpt>
      <trkpt lat="43.40002" lon="6.68096">
        <ele>13</ele>
        <time>2016-10-08T10:36:33Z</time>
      </trkpt>
      <trkpt lat="43.39995" lon="6.68087">
        <ele>14</ele>
        <time>2016-10-08T10:36:35Z</time>
      </trkpt>
      <trkpt lat="43.39989" lon="6.68084">
        <ele>15</ele>
        <time>2016-10-08T10:36:36Z</time>
      </trkpt>
      <trkpt lat="43.39976" lon="6.68081">
        <ele>14</ele>
        <time>2016-10-08T10:36:38Z</time>
      </trkpt>
      <trkpt lat="43.39965" lon="6.68075">
        <ele>14</ele>
        <time>2016-10-08T10:36:40Z</time>
      </trkpt>
      <trkpt lat="43.39948" lon="6.68043">
        <ele>14</ele>
        <time>2016-10-08T10:36:45Z</time>
      </trkpt>
      <trkpt lat="43.39918" lon="6.68016">
        <ele>13</ele>
        <time>2016-10-08T10:36:51Z</time>
      </trkpt>
      <trkpt lat="43.39891" lon="6.67986">
        <ele>14</ele>
        <time>2016-10-08T10:36:57Z</time>
      </trkpt>
      <trkpt lat="43.39887" lon="6.6798">
        <ele>14</ele>
        <time>2016-10-08T10:36:58Z</time>
      </trkpt>
      <trkpt lat="43.3988" lon="6.67959">
        <ele>14</ele>
        <time>2016-10-08T10:37:01Z</time>
      </trkpt>
      <trkpt lat="43.39864" lon="6.67933">
        <ele>14</ele>
        <time>2016-10-08T10:37:05Z</time>
      </trkpt>
      <trkpt lat="43.39853" lon="6.67926">
        <ele>14</ele>
        <time>2016-10-08T10:37:07Z</time>
      </trkpt>
      <trkpt lat="43.39846" lon="6.67916">
        <ele>14</ele>
        <time>2016-10-08T10:37:09Z</time>
      </trkpt>
      <trkpt lat="43.39821" lon="6.67873">
        <ele>15</ele>
        <time>2016-10-08T10:37:16Z</time>
      </trkpt>
      <trkpt lat="43.39794" lon="6.67833">
        <ele>14</ele>
        <time>2016-10-08T10:37:23Z</time>
      </trkpt>
      <trkpt lat="43.39788" lon="6.67821">
        <ele>13</ele>
        <time>2016-10-08T10:37:25Z</time>
      </trkpt>
      <trkpt lat="43.3978" lon="6.678">
        <ele>13</ele>
        <time>2016-10-08T10:37:28Z</time>
      </trkpt>
      <trkpt lat="43.39776" lon="6.67794">
        <ele>13</ele>
        <time>2016-10-08T10:37:29Z</time>
      </trkpt>
      <trkpt lat="43.39767" lon="6.67785">
        <ele>14</ele>
        <time>2016-10-08T10:37:31Z</time>
      </trkpt>
      <trkpt lat="43.39757" lon="6.6778">
        <ele>14</ele>
        <time>2016-10-08T10:37:33Z</time>
      </trkpt>
      <trkpt lat="43.39742" lon="6.67766">
        <ele>15</ele>
        <time>2016-10-08T10:37:36Z</time>
      </trkpt>
      <trkpt lat="43.39724" lon="6.67726">
        <ele>15</ele>
        <time>2016-10-08T10:37:42Z</time>
      </trkpt>
      <trkpt lat="43.39712" lon="6.67682">
        <ele>15</ele>
        <time>2016-10-08T10:37:48Z</time>
      </trkpt>
      <trkpt lat="43.39697" lon="6.67635">
        <ele>15</ele>
        <time>2016-10-08T10:37:55Z</time>
      </trkpt>
      <trkpt lat="43.39694" lon="6.67582">
        <ele>15</ele>
        <time>2016-10-08T10:38:02Z</time>
      </trkpt>
      <trkpt lat="43.39701" lon="6.6755">
        <ele>15</ele>
        <time>2016-10-08T10:38:07Z</time>
      </trkpt>
      <trkpt lat="43.3971" lon="6.67522">
        <ele>15</ele>
        <time>2016-10-08T10:38:14Z</time>
      </trkpt>
      <trkpt lat="43.39711" lon="6.67511">
        <ele>15</ele>
        <time>2016-10-08T10:38:19Z</time>
      </trkpt>
      <trkpt lat="43.39706" lon="6.67501">
        <ele>15</ele>
        <time>2016-10-08T10:38:25Z</time>
      </trkpt>
      <trkpt lat="43.39695" lon="6.67493">
        <ele>15</ele>
        <time>2016-10-08T10:38:31Z</time>
      </trkpt>
      <trkpt lat="43.39686" lon="6.67488">
        <ele>14</ele>
        <time>2016-10-08T10:38:39Z</time>
      </trkpt>
      <trkpt lat="43.39678" lon="6.67485">
        <ele>14</ele>
        <time>2016-10-08T10:38:48Z</time>
      </trkpt>
      <trkpt lat="43.39674" lon="6.67471">
        <ele>14</ele>
        <time>2016-10-08T10:38:53Z</time>
      </trkpt>
      <trkpt lat="43.39678" lon="6.67469">
        <ele>15</ele>
        <time>2016-10-08T10:38:54Z</time>
      </trkpt>
      <trkpt lat="43.39681" lon="6.67469">
        <ele>15</ele>
        <time>2016-10-08T10:38:55Z</time>
      </trkpt>
      <trkpt lat="43.39689" lon="6.67472">
        <ele>15</ele>
        <time>2016-10-08T10:38:58Z</time>
      </trkpt>
      <trkpt lat="43.39694" lon="6.67471">
        <ele>15</ele>
        <time>2016-10-08T10:39:02Z</time>
      </trkpt>
      <trkpt lat="43.39693" lon="6.67471">
        <ele>15</ele>
        <time>2016-10-08T10:39:03Z</time>
      </trkpt>
      <trkpt lat="43.39693" lon="6.67471">
        <ele>15</ele>
        <time>2016-10-08T10:39:04Z</time>
      </trkpt>
      <trkpt lat="43.397" lon="6.67475">
        <ele>15</ele>
        <time>2016-10-08T10:39:24Z</time>
      </trkpt>
      <trkpt lat="43.39718" lon="6.67492">
        <ele>15</ele>
        <time>2016-10-08T10:39:38Z</time>
      </trkpt>
      <trkpt lat="43.39731" lon="6.67485">
        <ele>15</ele>
        <time>2016-10-08T10:39:45Z</time>
      </trkpt>
      <trkpt lat="43.39735" lon="6.67466">
        <ele>15</ele>
        <time>2016-10-08T10:39:49Z</time>
      </trkpt>
      <trkpt lat="43.39737" lon="6.67447">
        <ele>15</ele>
        <time>2016-10-08T10:39:53Z</time>
      </trkpt>
      <trkpt lat="43.39741" lon="6.67413">
        <ele>15</ele>
        <time>2016-10-08T10:39:59Z</time>
      </trkpt>
      <trkpt lat="43.39743" lon="6.67407">
        <ele>15</ele>
        <time>2016-10-08T10:40:00Z</time>
      </trkpt>
      <trkpt lat="43.39747" lon="6.6737">
        <ele>15</ele>
        <time>2016-10-08T10:40:05Z</time>
      </trkpt>
      <trkpt lat="43.39748" lon="6.67347">
        <ele>15</ele>
        <time>2016-10-08T10:40:08Z</time>
      </trkpt>
      <trkpt lat="43.3974" lon="6.6729">
        <ele>17</ele>
        <time>2016-10-08T10:40:16Z</time>
      </trkpt>
      <trkpt lat="43.39736" lon="6.67277">
        <ele>17</ele>
        <time>2016-10-08T10:40:18Z</time>
      </trkpt>
      <trkpt lat="43.39726" lon="6.67255">
        <ele>18</ele>
        <time>2016-10-08T10:40:22Z</time>
      </trkpt>
      <trkpt lat="43.39723" lon="6.67251">
        <ele>18</ele>
        <time>2016-10-08T10:40:23Z</time>
      </trkpt>
      <trkpt lat="43.39716" lon="6.67243">
        <ele>18</ele>
        <time>2016-10-08T10:40:25Z</time>
      </trkpt>
      <trkpt lat="43.39712" lon="6.67241">
        <ele>18</ele>
        <time>2016-10-08T10:40:26Z</time>
      </trkpt>
      <trkpt lat="43.39692" lon="6.67216">
        <ele>18</ele>
        <time>2016-10-08T10:40:32Z</time>
      </trkpt>
      <trkpt lat="43.39663" lon="6.67194">
        <ele>17</ele>
        <time>2016-10-08T10:40:38Z</time>
      </trkpt>
      <trkpt lat="43.39639" lon="6.67197">
        <ele>17</ele>
        <time>2016-10-08T10:40:42Z</time>
      </trkpt>
      <trkpt lat="43.39634" lon="6.67199">
        <ele>17</ele>
        <time>2016-10-08T10:40:43Z</time>
      </trkpt>
      <trkpt lat="43.3962" lon="6.67207">
        <ele>17</ele>
        <time>2016-10-08T10:40:46Z</time>
      </trkpt>
      <trkpt lat="43.3959" lon="6.67221">
        <ele>18</ele>
        <time>2016-10-08T10:40:52Z</time>
      </trkpt>
      <trkpt lat="43.39579" lon="6.6722">
        <ele>20</ele>
        <time>2016-10-08T10:40:54Z</time>
      </trkpt>
      <trkpt lat="43.39564" lon="6.67207">
        <ele>20</ele>
        <time>2016-10-08T10:40:57Z</time>
      </trkpt>
      <trkpt lat="43.39551" lon="6.67189">
        <ele>20</ele>
        <time>2016-10-08T10:41:00Z</time>
      </trkpt>
      <trkpt lat="43.39532" lon="6.67159">
        <ele>18</ele>
        <time>2016-10-08T10:41:05Z</time>
      </trkpt>
      <trkpt lat="43.39518" lon="6.67147">
        <ele>18</ele>
        <time>2016-10-08T10:41:08Z</time>
      </trkpt>
      <trkpt lat="43.39507" lon="6.67141">
        <ele>18</ele>
        <time>2016-10-08T10:41:10Z</time>
      </trkpt>
      <trkpt lat="43.39498" lon="6.67134">
        <ele>19</ele>
        <time>2016-10-08T10:41:12Z</time>
      </trkpt>
      <trkpt lat="43.39489" lon="6.67112">
        <ele>18</ele>
        <time>2016-10-08T10:41:15Z</time>
      </trkpt>
      <trkpt lat="43.39486" lon="6.67108">
        <ele>18</ele>
        <time>2016-10-08T10:41:16Z</time>
      </trkpt>
      <trkpt lat="43.39482" lon="6.67105">
        <ele>18</ele>
        <time>2016-10-08T10:41:17Z</time>
      </trkpt>
      <trkpt lat="43.3947" lon="6.671">
        <ele>18</ele>
        <time>2016-10-08T10:41:20Z</time>
      </trkpt>
      <trkpt lat="43.39466" lon="6.67098">
        <ele>19</ele>
        <time>2016-10-08T10:41:21Z</time>
      </trkpt>
      <trkpt lat="43.39461" lon="6.67091">
        <ele>19</ele>
        <time>2016-10-08T10:41:23Z</time>
      </trkpt>
      <trkpt lat="43.39445" lon="6.67071">
        <ele>18</ele>
        <time>2016-10-08T10:41:28Z</time>
      </trkpt>
      <trkpt lat="43.39433" lon="6.67045">
        <ele>19</ele>
        <time>2016-10-08T10:41:33Z</time>
      </trkpt>
      <trkpt lat="43.39427" lon="6.67035">
        <ele>19</ele>
        <time>2016-10-08T10:41:35Z</time>
      </trkpt>
      <trkpt lat="43.3942" lon="6.67025">
        <ele>19</ele>
        <time>2016-10-08T10:41:37Z</time>
      </trkpt>
      <trkpt lat="43.39415" lon="6.67016">
        <ele>21</ele>
        <time>2016-10-08T10:41:39Z</time>
      </trkpt>
      <trkpt lat="43.39414" lon="6.6701">
        <ele>21</ele>
        <time>2016-10-08T10:41:40Z</time>
      </trkpt>
      <trkpt lat="43.39398" lon="6.66975">
        <ele>22</ele>
        <time>2016-10-08T10:41:46Z</time>
      </trkpt>
      <trkpt lat="43.39395" lon="6.6697">
        <ele>22</ele>
        <time>2016-10-08T10:41:47Z</time>
      </trkpt>
      <trkpt lat="43.39378" lon="6.66952">
        <ele>22</ele>
        <time>2016-10-08T10:41:51Z</time>
      </trkpt>
      <trkpt lat="43.39311" lon="6.66899">
        <ele>20</ele>
        <time>2016-10-08T10:42:05Z</time>
      </trkpt>
      <trkpt lat="43.39286" lon="6.66873">
        <ele>21</ele>
        <time>2016-10-08T10:42:10Z</time>
      </trkpt>
      <trkpt lat="43.39276" lon="6.66854">
        <ele>21</ele>
        <time>2016-10-08T10:42:13Z</time>
      </trkpt>
      <trkpt lat="43.39273" lon="6.66833">
        <ele>22</ele>
        <time>2016-10-08T10:42:16Z</time>
      </trkpt>
      <trkpt lat="43.39276" lon="6.66797">
        <ele>23</ele>
        <time>2016-10-08T10:42:21Z</time>
      </trkpt>
      <trkpt lat="43.3929" lon="6.6677">
        <ele>24</ele>
        <time>2016-10-08T10:42:26Z</time>
      </trkpt>
      <trkpt lat="43.39295" lon="6.66756">
        <ele>25</ele>
        <time>2016-10-08T10:42:29Z</time>
      </trkpt>
      <trkpt lat="43.393" lon="6.66748">
        <ele>27</ele>
        <time>2016-10-08T10:42:31Z</time>
      </trkpt>
      <trkpt lat="43.39302" lon="6.66743">
        <ele>27</ele>
        <time>2016-10-08T10:42:32Z</time>
      </trkpt>
      <trkpt lat="43.39311" lon="6.66706">
        <ele>28</ele>
        <time>2016-10-08T10:42:41Z</time>
      </trkpt>
      <trkpt lat="43.39315" lon="6.66677">
        <ele>29</ele>
        <time>2016-10-08T10:42:50Z</time>
      </trkpt>
      <trkpt lat="43.39319" lon="6.66663">
        <ele>32</ele>
        <time>2016-10-08T10:42:54Z</time>
      </trkpt>
      <trkpt lat="43.39323" lon="6.6664">
        <ele>32</ele>
        <time>2016-10-08T10:43:01Z</time>
      </trkpt>
      <trkpt lat="43.39323" lon="6.66636">
        <ele>32</ele>
        <time>2016-10-08T10:43:02Z</time>
      </trkpt>
      <trkpt lat="43.39325" lon="6.66625">
        <ele>32</ele>
        <time>2016-10-08T10:43:05Z</time>
      </trkpt>
      <trkpt lat="43.3934" lon="6.66583">
        <ele>34</ele>
        <time>2016-10-08T10:43:16Z</time>
      </trkpt>
      <trkpt lat="43.39344" lon="6.66561">
        <ele>36</ele>
        <time>2016-10-08T10:43:21Z</time>
      </trkpt>
      <trkpt lat="43.39347" lon="6.66528">
        <ele>36</ele>
        <time>2016-10-08T10:43:30Z</time>
      </trkpt>
      <trkpt lat="43.39349" lon="6.66521">
        <ele>36</ele>
        <time>2016-10-08T10:43:32Z</time>
      </trkpt>
      <trkpt lat="43.39353" lon="6.66513">
        <ele>36</ele>
        <time>2016-10-08T10:43:35Z</time>
      </trkpt>
      <trkpt lat="43.39361" lon="6.66506">
        <ele>37</ele>
        <time>2016-10-08T10:43:38Z</time>
      </trkpt>
      <trkpt lat="43.39366" lon="6.66503">
        <ele>37</ele>
        <time>2016-10-08T10:43:40Z</time>
      </trkpt>
      <trkpt lat="43.39371" lon="6.66498">
        <ele>36</ele>
        <time>2016-10-08T10:43:42Z</time>
      </trkpt>
      <trkpt lat="43.3939" lon="6.66488">
        <ele>37</ele>
        <time>2016-10-08T10:43:49Z</time>
      </trkpt>
      <trkpt lat="43.39439" lon="6.66469">
        <ele>42</ele>
        <time>2016-10-08T10:44:06Z</time>
      </trkpt>
      <trkpt lat="43.39446" lon="6.66465">
        <ele>42</ele>
        <time>2016-10-08T10:44:09Z</time>
      </trkpt>
      <trkpt lat="43.3946" lon="6.66459">
        <ele>42</ele>
        <time>2016-10-08T10:44:15Z</time>
      </trkpt>
      <trkpt lat="43.39485" lon="6.66451">
        <ele>43</ele>
        <time>2016-10-08T10:44:25Z</time>
      </trkpt>
      <trkpt lat="43.39518" lon="6.66443">
        <ele>47</ele>
        <time>2016-10-08T10:44:37Z</time>
      </trkpt>
      <trkpt lat="43.39545" lon="6.66435">
        <ele>48</ele>
        <time>2016-10-08T10:44:49Z</time>
      </trkpt>
      <trkpt lat="43.39558" lon="6.66434">
        <ele>49</ele>
        <time>2016-10-08T10:44:55Z</time>
      </trkpt>
      <trkpt lat="43.39566" lon="6.66435">
        <ele>49</ele>
        <time>2016-10-08T10:44:58Z</time>
      </trkpt>
      <trkpt lat="43.39586" lon="6.66442">
        <ele>53</ele>
        <time>2016-10-08T10:45:06Z</time>
      </trkpt>
      <trkpt lat="43.396" lon="6.66442">
        <ele>53</ele>
        <time>2016-10-08T10:45:10Z</time>
      </trkpt>
      <trkpt lat="43.39612" lon="6.66441">
        <ele>54</ele>
        <time>2016-10-08T10:45:14Z</time>
      </trkpt>
      <trkpt lat="43.39635" lon="6.66434">
        <ele>55</ele>
        <time>2016-10-08T10:45:22Z</time>
      </trkpt>
      <trkpt lat="43.3966" lon="6.66418">
        <ele>57</ele>
        <time>2016-10-08T10:45:32Z</time>
      </trkpt>
      <trkpt lat="43.39672" lon="6.66415">
        <ele>59</ele>
        <time>2016-10-08T10:45:37Z</time>
      </trkpt>
      <trkpt lat="43.39678" lon="6.66416">
        <ele>59</ele>
        <time>2016-10-08T10:45:39Z</time>
      </trkpt>
      <trkpt lat="43.39684" lon="6.6642">
        <ele>59</ele>
        <time>2016-10-08T10:45:42Z</time>
      </trkpt>
      <trkpt lat="43.3969" lon="6.66429">
        <ele>60</ele>
        <time>2016-10-08T10:45:46Z</time>
      </trkpt>
      <trkpt lat="43.39693" lon="6.66438">
        <ele>60</ele>
        <time>2016-10-08T10:45:49Z</time>
      </trkpt>
      <trkpt lat="43.39695" lon="6.66441">
        <ele>60</ele>
        <time>2016-10-08T10:45:50Z</time>
      </trkpt>
      <trkpt lat="43.397" lon="6.66446">
        <ele>60</ele>
        <time>2016-10-08T10:45:52Z</time>
      </trkpt>
      <trkpt lat="43.39702" lon="6.66445">
        <ele>60</ele>
        <time>2016-10-08T10:45:53Z</time>
      </trkpt>
      <trkpt lat="43.39705" lon="6.66438">
        <ele>60</ele>
        <time>2016-10-08T10:45:56Z</time>
      </trkpt>
      <trkpt lat="43.39701" lon="6.66423">
        <ele>60</ele>
        <time>2016-10-08T10:46:01Z</time>
      </trkpt>
      <trkpt lat="43.397" lon="6.66419">
        <ele>60</ele>
        <time>2016-10-08T10:46:02Z</time>
      </trkpt>
      <trkpt lat="43.39704" lon="6.66398">
        <ele>61</ele>
        <time>2016-10-08T10:46:08Z</time>
      </trkpt>
      <trkpt lat="43.39708" lon="6.66391">
        <ele>61</ele>
        <time>2016-10-08T10:46:11Z</time>
      </trkpt>
      <trkpt lat="43.39712" lon="6.66387">
        <ele>61</ele>
        <time>2016-10-08T10:46:13Z</time>
      </trkpt>
      <trkpt lat="43.39717" lon="6.66386">
        <ele>62</ele>
        <time>2016-10-08T10:46:15Z</time>
      </trkpt>
      <trkpt lat="43.39727" lon="6.66388">
        <ele>62</ele>
        <time>2016-10-08T10:46:19Z</time>
      </trkpt>
      <trkpt lat="43.39746" lon="6.66399">
        <ele>63</ele>
        <time>2016-10-08T10:46:30Z</time>
      </trkpt>
      <trkpt lat="43.39764" lon="6.66406">
        <ele>66</ele>
        <time>2016-10-08T10:46:38Z</time>
      </trkpt>
      <trkpt lat="43.39773" lon="6.66408">
        <ele>66</ele>
        <time>2016-10-08T10:46:42Z</time>
      </trkpt>
      <trkpt lat="43.39779" lon="6.66405">
        <ele>67</ele>
        <time>2016-10-08T10:46:45Z</time>
      </trkpt>
      <trkpt lat="43.3979" lon="6.66391">
        <ele>67</ele>
        <time>2016-10-08T10:46:52Z</time>
      </trkpt>
      <trkpt lat="43.39793" lon="6.66386">
        <ele>67</ele>
        <time>2016-10-08T10:46:54Z</time>
      </trkpt>
      <trkpt lat="43.39796" lon="6.66378">
        <ele>67</ele>
        <time>2016-10-08T10:46:57Z</time>
      </trkpt>
      <trkpt lat="43.39797" lon="6.66372">
        <ele>68</ele>
        <time>2016-10-08T10:46:59Z</time>
      </trkpt>
      <trkpt lat="43.39798" lon="6.66361">
        <ele>68</ele>
        <time>2016-10-08T10:47:02Z</time>
      </trkpt>
      <trkpt lat="43.398" lon="6.66328">
        <ele>74</ele>
        <time>2016-10-08T10:47:10Z</time>
      </trkpt>
      <trkpt lat="43.39792" lon="6.66305">
        <ele>74</ele>
        <time>2016-10-08T10:47:15Z</time>
      </trkpt>
      <trkpt lat="43.39779" lon="6.6629">
        <ele>75</ele>
        <time>2016-10-08T10:47:21Z</time>
      </trkpt>
      <trkpt lat="43.39775" lon="6.66286">
        <ele>75</ele>
        <time>2016-10-08T10:47:23Z</time>
      </trkpt>
      <trkpt lat="43.39767" lon="6.66273">
        <ele>76</ele>
        <time>2016-10-08T10:47:28Z</time>
      </trkpt>
      <trkpt lat="43.39767" lon="6.66268">
        <ele>76</ele>
        <time>2016-10-08T10:47:30Z</time>
      </trkpt>
      <trkpt lat="43.39767" lon="6.66265">
        <ele>76</ele>
        <time>2016-10-08T10:47:31Z</time>
      </trkpt>
      <trkpt lat="43.3977" lon="6.66261">
        <ele>77</ele>
        <time>2016-10-08T10:47:33Z</time>
      </trkpt>
      <trkpt lat="43.39773" lon="6.6626">
        <ele>77</ele>
        <time>2016-10-08T10:47:35Z</time>
      </trkpt>
      <trkpt lat="43.39775" lon="6.6626">
        <ele>77</ele>
        <time>2016-10-08T10:47:36Z</time>
      </trkpt>
      <trkpt lat="43.3978" lon="6.66263">
        <ele>77</ele>
        <time>2016-10-08T10:47:39Z</time>
      </trkpt>
      <trkpt lat="43.39787" lon="6.66264">
        <ele>77</ele>
        <time>2016-10-08T10:47:43Z</time>
      </trkpt>
      <trkpt lat="43.39791" lon="6.66262">
        <ele>77</ele>
        <time>2016-10-08T10:47:45Z</time>
      </trkpt>
      <trkpt lat="43.39793" lon="6.6626">
        <ele>77</ele>
        <time>2016-10-08T10:47:46Z</time>
      </trkpt>
      <trkpt lat="43.39794" lon="6.66258">
        <ele>77</ele>
        <time>2016-10-08T10:47:47Z</time>
      </trkpt>
      <trkpt lat="43.39794" lon="6.66255">
        <ele>77</ele>
        <time>2016-10-08T10:47:48Z</time>
      </trkpt>
      <trkpt lat="43.39791" lon="6.66245">
        <ele>83</ele>
        <time>2016-10-08T10:47:51Z</time>
      </trkpt>
      <trkpt lat="43.39788" lon="6.66239">
        <ele>83</ele>
        <time>2016-10-08T10:47:53Z</time>
      </trkpt>
      <trkpt lat="43.39775" lon="6.66224">
        <ele>83</ele>
        <time>2016-10-08T10:48:00Z</time>
      </trkpt>
      <trkpt lat="43.39771" lon="6.66216">
        <ele>83</ele>
        <time>2016-10-08T10:48:03Z</time>
      </trkpt>
      <trkpt lat="43.39771" lon="6.66212">
        <ele>84</ele>
        <time>2016-10-08T10:48:04Z</time>
      </trkpt>
      <trkpt lat="43.39772" lon="6.66206">
        <ele>84</ele>
        <time>2016-10-08T10:48:06Z</time>
      </trkpt>
      <trkpt lat="43.39773" lon="6.66204">
        <ele>84</ele>
        <time>2016-10-08T10:48:07Z</time>
      </trkpt>
      <trkpt lat="43.39781" lon="6.66202">
        <ele>85</ele>
        <time>2016-10-08T10:48:11Z</time>
      </trkpt>
      <trkpt lat="43.39789" lon="6.66206">
        <ele>85</ele>
        <time>2016-10-08T10:48:15Z</time>
      </trkpt>
      <trkpt lat="43.39796" lon="6.66206">
        <ele>85</ele>
        <time>2016-10-08T10:48:18Z</time>
      </trkpt>
      <trkpt lat="43.39808" lon="6.66202">
        <ele>86</ele>
        <time>2016-10-08T10:48:23Z</time>
      </trkpt>
      <trkpt lat="43.3981" lon="6.662">
        <ele>86</ele>
        <time>2016-10-08T10:48:24Z</time>
      </trkpt>
      <trkpt lat="43.39814" lon="6.6619">
        <ele>88</ele>
        <time>2016-10-08T10:48:28Z</time>
      </trkpt>
      <trkpt lat="43.39822" lon="6.66177">
        <ele>90</ele>
        <time>2016-10-08T10:48:34Z</time>
      </trkpt>
      <trkpt lat="43.3983" lon="6.66162">
        <ele>95</ele>
        <time>2016-10-08T10:48:41Z</time>
      </trkpt>
      <trkpt lat="43.39856" lon="6.66126">
        <ele>98</ele>
        <time>2016-10-08T10:48:57Z</time>
      </trkpt>
      <trkpt lat="43.39869" lon="6.6611">
        <ele>98</ele>
        <time>2016-10-08T10:49:05Z</time>
      </trkpt>
      <trkpt lat="43.39875" lon="6.66101">
        <ele>98</ele>
        <time>2016-10-08T10:49:10Z</time>
      </trkpt>
      <trkpt lat="43.39883" lon="6.66087">
        <ele>98</ele>
        <time>2016-10-08T10:49:16Z</time>
      </trkpt>
      <trkpt lat="43.39885" lon="6.66081">
        <ele>106</ele>
        <time>2016-10-08T10:49:18Z</time>
      </trkpt>
      <trkpt lat="43.39893" lon="6.66067">
        <ele>105</ele>
        <time>2016-10-08T10:49:24Z</time>
      </trkpt>
      <trkpt lat="43.39898" lon="6.66056">
        <ele>106</ele>
        <time>2016-10-08T10:49:30Z</time>
      </trkpt>
      <trkpt lat="43.39901" lon="6.66049">
        <ele>107</ele>
        <time>2016-10-08T10:49:33Z</time>
      </trkpt>
      <trkpt lat="43.39902" lon="6.66037">
        <ele>108</ele>
        <time>2016-10-08T10:49:38Z</time>
      </trkpt>
      <trkpt lat="43.39904" lon="6.66029">
        <ele>108</ele>
        <time>2016-10-08T10:49:41Z</time>
      </trkpt>
      <trkpt lat="43.39908" lon="6.66009">
        <ele>109</ele>
        <time>2016-10-08T10:49:49Z</time>
      </trkpt>
      <trkpt lat="43.39908" lon="6.66006">
        <ele>109</ele>
        <time>2016-10-08T10:49:50Z</time>
      </trkpt>
      <trkpt lat="43.39913" lon="6.65981">
        <ele>112</ele>
        <time>2016-10-08T10:49:59Z</time>
      </trkpt>
      <trkpt lat="43.39914" lon="6.65966">
        <ele>114</ele>
        <time>2016-10-08T10:50:04Z</time>
      </trkpt>
      <trkpt lat="43.39913" lon="6.6596">
        <ele>114</ele>
        <time>2016-10-08T10:50:06Z</time>
      </trkpt>
      <trkpt lat="43.39913" lon="6.65936">
        <ele>115</ele>
        <time>2016-10-08T10:50:15Z</time>
      </trkpt>
      <trkpt lat="43.39914" lon="6.65933">
        <ele>115</ele>
        <time>2016-10-08T10:50:16Z</time>
      </trkpt>
      <trkpt lat="43.39913" lon="6.65922">
        <ele>115</ele>
        <time>2016-10-08T10:50:20Z</time>
      </trkpt>
      <trkpt lat="43.39913" lon="6.65897">
        <ele>116</ele>
        <time>2016-10-08T10:50:29Z</time>
      </trkpt>
      <trkpt lat="43.39912" lon="6.65888">
        <ele>117</ele>
        <time>2016-10-08T10:50:32Z</time>
      </trkpt>
      <trkpt lat="43.39906" lon="6.65857">
        <ele>118</ele>
        <time>2016-10-08T10:50:43Z</time>
      </trkpt>
      <trkpt lat="43.39906" lon="6.65854">
        <ele>118</ele>
        <time>2016-10-08T10:50:44Z</time>
      </trkpt>
      <trkpt lat="43.39912" lon="6.65838">
        <ele>121</ele>
        <time>2016-10-08T10:50:50Z</time>
      </trkpt>
      <trkpt lat="43.39915" lon="6.65834">
        <ele>122</ele>
        <time>2016-10-08T10:50:52Z</time>
      </trkpt>
      <trkpt lat="43.3993" lon="6.65819">
        <ele>123</ele>
        <time>2016-10-08T10:51:00Z</time>
      </trkpt>
      <trkpt lat="43.39957" lon="6.65798">
        <ele>124</ele>
        <time>2016-10-08T10:51:14Z</time>
      </trkpt>
      <trkpt lat="43.39987" lon="6.65787">
        <ele>125</ele>
        <time>2016-10-08T10:51:27Z</time>
      </trkpt>
      <trkpt lat="43.39999" lon="6.65778">
        <ele>126</ele>
        <time>2016-10-08T10:51:34Z</time>
      </trkpt>
      <trkpt lat="43.40008" lon="6.65768">
        <ele>124</ele>
        <time>2016-10-08T10:51:40Z</time>
      </trkpt>
      <trkpt lat="43.4002" lon="6.65746">
        <ele>129</ele>
        <time>2016-10-08T10:51:50Z</time>
      </trkpt>
      <trkpt lat="43.40024" lon="6.6573">
        <ele>128</ele>
        <time>2016-10-08T10:51:56Z</time>
      </trkpt>
      <trkpt lat="43.4003" lon="6.657">
        <ele>129</ele>
        <time>2016-10-08T10:52:07Z</time>
      </trkpt>
      <trkpt lat="43.40032" lon="6.65684">
        <ele>129</ele>
        <time>2016-10-08T10:52:13Z</time>
      </trkpt>
      <trkpt lat="43.40033" lon="6.65657">
        <ele>134</ele>
        <time>2016-10-08T10:52:23Z</time>
      </trkpt>
      <trkpt lat="43.40032" lon="6.65649">
        <ele>134</ele>
        <time>2016-10-08T10:52:26Z</time>
      </trkpt>
      <trkpt lat="43.40032" lon="6.65625">
        <ele>135</ele>
        <time>2016-10-08T10:52:36Z</time>
      </trkpt>
      <trkpt lat="43.40031" lon="6.65619">
        <ele>135</ele>
        <time>2016-10-08T10:52:39Z</time>
      </trkpt>
      <trkpt lat="43.40024" lon="6.65593">
        <ele>137</ele>
        <time>2016-10-08T10:52:50Z</time>
      </trkpt>
      <trkpt lat="43.40021" lon="6.65575">
        <ele>141</ele>
        <time>2016-10-08T10:52:58Z</time>
      </trkpt>
      <trkpt lat="43.40019" lon="6.65568">
        <ele>141</ele>
        <time>2016-10-08T10:53:01Z</time>
      </trkpt>
      <trkpt lat="43.40013" lon="6.65549">
        <ele>142</ele>
        <time>2016-10-08T10:53:08Z</time>
      </trkpt>
      <trkpt lat="43.40002" lon="6.65523">
        <ele>146</ele>
        <time>2016-10-08T10:53:19Z</time>
      </trkpt>
      <trkpt lat="43.39989" lon="6.65505">
        <ele>150</ele>
        <time>2016-10-08T10:53:28Z</time>
      </trkpt>
      <trkpt lat="43.39981" lon="6.65498">
        <ele>156</ele>
        <time>2016-10-08T10:53:33Z</time>
      </trkpt>
      <trkpt lat="43.39975" lon="6.65494">
        <ele>156</ele>
        <time>2016-10-08T10:53:36Z</time>
      </trkpt>
      <trkpt lat="43.39947" lon="6.65482">
        <ele>156</ele>
        <time>2016-10-08T10:53:49Z</time>
      </trkpt>
      <trkpt lat="43.39932" lon="6.65478">
        <ele>156</ele>
        <time>2016-10-08T10:53:56Z</time>
      </trkpt>
      <trkpt lat="43.39927" lon="6.65477">
        <ele>155</ele>
        <time>2016-10-08T10:53:58Z</time>
      </trkpt>
      <trkpt lat="43.39924" lon="6.65475">
        <ele>156</ele>
        <time>2016-10-08T10:54:00Z</time>
      </trkpt>
      <trkpt lat="43.39904" lon="6.65455">
        <ele>153</ele>
        <time>2016-10-08T10:54:11Z</time>
      </trkpt>
      <trkpt lat="43.39899" lon="6.65443">
        <ele>155</ele>
        <time>2016-10-08T10:54:16Z</time>
      </trkpt>
      <trkpt lat="43.39894" lon="6.65428">
        <ele>156</ele>
        <time>2016-10-08T10:54:22Z</time>
      </trkpt>
      <trkpt lat="43.39892" lon="6.6542">
        <ele>156</ele>
        <time>2016-10-08T10:54:25Z</time>
      </trkpt>
      <trkpt lat="43.39889" lon="6.6539">
        <ele>165</ele>
        <time>2016-10-08T10:54:35Z</time>
      </trkpt>
      <trkpt lat="43.39887" lon="6.65386">
        <ele>165</ele>
        <time>2016-10-08T10:54:37Z</time>
      </trkpt>
      <trkpt lat="43.3988" lon="6.65353">
        <ele>168</ele>
        <time>2016-10-08T10:54:48Z</time>
      </trkpt>
      <trkpt lat="43.39867" lon="6.65346">
        <ele>167</ele>
        <time>2016-10-08T10:54:55Z</time>
      </trkpt>
      <trkpt lat="43.39859" lon="6.65345">
        <ele>167</ele>
        <time>2016-10-08T10:54:58Z</time>
      </trkpt>
      <trkpt lat="43.39852" lon="6.65342">
        <ele>167</ele>
        <time>2016-10-08T10:55:01Z</time>
      </trkpt>
      <trkpt lat="43.39843" lon="6.65333">
        <ele>172</ele>
        <time>2016-10-08T10:55:08Z</time>
      </trkpt>
      <trkpt lat="43.39837" lon="6.65329">
        <ele>170</ele>
        <time>2016-10-08T10:55:11Z</time>
      </trkpt>
      <trkpt lat="43.39833" lon="6.65324">
        <ele>171</ele>
        <time>2016-10-08T10:55:14Z</time>
      </trkpt>
      <trkpt lat="43.39825" lon="6.65306">
        <ele>177</ele>
        <time>2016-10-08T10:55:21Z</time>
      </trkpt>
      <trkpt lat="43.39822" lon="6.65299">
        <ele>179</ele>
        <time>2016-10-08T10:55:24Z</time>
      </trkpt>
      <trkpt lat="43.39818" lon="6.65294">
        <ele>179</ele>
        <time>2016-10-08T10:55:26Z</time>
      </trkpt>
      <trkpt lat="43.39813" lon="6.65292">
        <ele>180</ele>
        <time>2016-10-08T10:55:28Z</time>
      </trkpt>
      <trkpt lat="43.39797" lon="6.65293">
        <ele>181</ele>
        <time>2016-10-08T10:55:35Z</time>
      </trkpt>
      <trkpt lat="43.39793" lon="6.65298">
        <ele>180</ele>
        <time>2016-10-08T10:55:37Z</time>
      </trkpt>
      <trkpt lat="43.39785" lon="6.65313">
        <ele>179</ele>
        <time>2016-10-08T10:55:42Z</time>
      </trkpt>
      <trkpt lat="43.39772" lon="6.65325">
        <ele>179</ele>
        <time>2016-10-08T10:55:48Z</time>
      </trkpt>
      <trkpt lat="43.39755" lon="6.65334">
        <ele>175</ele>
        <time>2016-10-08T10:55:55Z</time>
      </trkpt>
      <trkpt lat="43.39749" lon="6.65339">
        <ele>177</ele>
        <time>2016-10-08T10:55:58Z</time>
      </trkpt>
      <trkpt lat="43.39736" lon="6.65343">
        <ele>177</ele>
        <time>2016-10-08T10:56:03Z</time>
      </trkpt>
      <trkpt lat="43.39724" lon="6.65356">
        <ele>177</ele>
        <time>2016-10-08T10:56:08Z</time>
      </trkpt>
      <trkpt lat="43.39717" lon="6.65374">
        <ele>176</ele>
        <time>2016-10-08T10:56:13Z</time>
      </trkpt>
      <trkpt lat="43.3971" lon="6.65382">
        <ele>176</ele>
        <time>2016-10-08T10:56:16Z</time>
      </trkpt>
      <trkpt lat="43.39694" lon="6.654">
        <ele>175</ele>
        <time>2016-10-08T10:56:23Z</time>
      </trkpt>
      <trkpt lat="43.39683" lon="6.65408">
        <ele>175</ele>
        <time>2016-10-08T10:56:27Z</time>
      </trkpt>
      <trkpt lat="43.39677" lon="6.65409">
        <ele>175</ele>
        <time>2016-10-08T10:56:29Z</time>
      </trkpt>
      <trkpt lat="43.39672" lon="6.65409">
        <ele>175</ele>
        <time>2016-10-08T10:56:31Z</time>
      </trkpt>
      <trkpt lat="43.39655" lon="6.65404">
        <ele>175</ele>
        <time>2016-10-08T10:56:37Z</time>
      </trkpt>
      <trkpt lat="43.39648" lon="6.65399">
        <ele>175</ele>
        <time>2016-10-08T10:56:40Z</time>
      </trkpt>
      <trkpt lat="43.39614" lon="6.65362">
        <ele>177</ele>
        <time>2016-10-08T10:56:54Z</time>
      </trkpt>
      <trkpt lat="43.39584" lon="6.65325">
        <ele>185</ele>
        <time>2016-10-08T10:57:03Z</time>
      </trkpt>
      <trkpt lat="43.3956" lon="6.65303">
        <ele>184</ele>
        <time>2016-10-08T10:57:10Z</time>
      </trkpt>
      <trkpt lat="43.39531" lon="6.65285">
        <ele>185</ele>
        <time>2016-10-08T10:57:18Z</time>
      </trkpt>
      <trkpt lat="43.39525" lon="6.6528">
        <ele>185</ele>
        <time>2016-10-08T10:57:20Z</time>
      </trkpt>
      <trkpt lat="43.39494" lon="6.6526">
        <ele>184</ele>
        <time>2016-10-08T10:57:32Z</time>
      </trkpt>
      <trkpt lat="43.39487" lon="6.65254">
        <ele>184</ele>
        <time>2016-10-08T10:57:35Z</time>
      </trkpt>
      <trkpt lat="43.39479" lon="6.6525">
        <ele>191</ele>
        <time>2016-10-08T10:57:38Z</time>
      </trkpt>
      <trkpt lat="43.39474" lon="6.65243">
        <ele>191</ele>
        <time>2016-10-08T10:57:41Z</time>
      </trkpt>
      <trkpt lat="43.39466" lon="6.65237">
        <ele>191</ele>
        <time>2016-10-08T10:57:44Z</time>
      </trkpt>
      <trkpt lat="43.39457" lon="6.65228">
        <ele>191</ele>
        <time>2016-10-08T10:57:49Z</time>
      </trkpt>
      <trkpt lat="43.39458" lon="6.65222">
        <ele>192</ele>
        <time>2016-10-08T10:57:51Z</time>
      </trkpt>
      <trkpt lat="43.3946" lon="6.65219">
        <ele>192</ele>
        <time>2016-10-08T10:57:53Z</time>
      </trkpt>
      <trkpt lat="43.39465" lon="6.65216">
        <ele>192</ele>
        <time>2016-10-08T10:57:56Z</time>
      </trkpt>
      <trkpt lat="43.39469" lon="6.65216">
        <ele>193</ele>
        <time>2016-10-08T10:57:58Z</time>
      </trkpt>
      <trkpt lat="43.39472" lon="6.65216">
        <ele>193</ele>
        <time>2016-10-08T10:58:00Z</time>
      </trkpt>
      <trkpt lat="43.39482" lon="6.65215">
        <ele>193</ele>
        <time>2016-10-08T10:58:06Z</time>
      </trkpt>
      <trkpt lat="43.39493" lon="6.65214">
        <ele>194</ele>
        <time>2016-10-08T10:58:14Z</time>
      </trkpt>
      <trkpt lat="43.39506" lon="6.65212">
        <ele>201</ele>
        <time>2016-10-08T10:58:25Z</time>
      </trkpt>
      <trkpt lat="43.39514" lon="6.65213">
        <ele>202</ele>
        <time>2016-10-08T10:58:31Z</time>
      </trkpt>
      <trkpt lat="43.39521" lon="6.65213">
        <ele>202</ele>
        <time>2016-10-08T10:58:35Z</time>
      </trkpt>
      <trkpt lat="43.39539" lon="6.6521">
        <ele>204</ele>
        <time>2016-10-08T10:58:47Z</time>
      </trkpt>
      <trkpt lat="43.39556" lon="6.65213">
        <ele>205</ele>
        <time>2016-10-08T10:58:57Z</time>
      </trkpt>
      <trkpt lat="43.39565" lon="6.65212">
        <ele>205</ele>
        <time>2016-10-08T10:59:02Z</time>
      </trkpt>
      <trkpt lat="43.39579" lon="6.65213">
        <ele>206</ele>
        <time>2016-10-08T10:59:11Z</time>
      </trkpt>
      <trkpt lat="43.39588" lon="6.65212">
        <ele>212</ele>
        <time>2016-10-08T10:59:18Z</time>
      </trkpt>
      <trkpt lat="43.396" lon="6.65214">
        <ele>212</ele>
        <time>2016-10-08T10:59:26Z</time>
      </trkpt>
      <trkpt lat="43.3961" lon="6.65212">
        <ele>213</ele>
        <time>2016-10-08T10:59:33Z</time>
      </trkpt>
      <trkpt lat="43.39613" lon="6.65213">
        <ele>213</ele>
        <time>2016-10-08T10:59:35Z</time>
      </trkpt>
      <trkpt lat="43.39617" lon="6.65213">
        <ele>213</ele>
        <time>2016-10-08T10:59:38Z</time>
      </trkpt>
      <trkpt lat="43.39629" lon="6.65207">
        <ele>214</ele>
        <time>2016-10-08T10:59:49Z</time>
      </trkpt>
      <trkpt lat="43.39633" lon="6.65206">
        <ele>214</ele>
        <time>2016-10-08T10:59:52Z</time>
      </trkpt>
      <trkpt lat="43.39637" lon="6.65204">
        <ele>214</ele>
        <time>2016-10-08T10:59:55Z</time>
      </trkpt>
      <trkpt lat="43.39647" lon="6.65196">
        <ele>216</ele>
        <time>2016-10-08T11:00:04Z</time>
      </trkpt>
      <trkpt lat="43.3965" lon="6.65193">
        <ele>217</ele>
        <time>2016-10-08T11:00:07Z</time>
      </trkpt>
      <trkpt lat="43.39655" lon="6.65186">
        <ele>218</ele>
        <time>2016-10-08T11:00:13Z</time>
      </trkpt>
      <trkpt lat="43.39665" lon="6.65167">
        <ele>224</ele>
        <time>2016-10-08T11:00:26Z</time>
      </trkpt>
      <trkpt lat="43.3967" lon="6.65156">
        <ele>225</ele>
        <time>2016-10-08T11:00:32Z</time>
      </trkpt>
      <trkpt lat="43.39672" lon="6.65148">
        <ele>225</ele>
        <time>2016-10-08T11:00:37Z</time>
      </trkpt>
      <trkpt lat="43.39682" lon="6.65131">
        <ele>226</ele>
        <time>2016-10-08T11:00:47Z</time>
      </trkpt>
      <trkpt lat="43.3969" lon="6.65107">
        <ele>228</ele>
        <time>2016-10-08T11:00:59Z</time>
      </trkpt>
      <trkpt lat="43.39694" lon="6.65096">
        <ele>228</ele>
        <time>2016-10-08T11:01:03Z</time>
      </trkpt>
      <trkpt lat="43.39701" lon="6.65068">
        <ele>236</ele>
        <time>2016-10-08T11:01:14Z</time>
      </trkpt>
      <trkpt lat="43.39709" lon="6.65052">
        <ele>237</ele>
        <time>2016-10-08T11:01:22Z</time>
      </trkpt>
      <trkpt lat="43.3972" lon="6.6504">
        <ele>237</ele>
        <time>2016-10-08T11:01:29Z</time>
      </trkpt>
      <trkpt lat="43.39724" lon="6.65038">
        <ele>237</ele>
        <time>2016-10-08T11:01:31Z</time>
      </trkpt>
      <trkpt lat="43.39737" lon="6.65033">
        <ele>238</ele>
        <time>2016-10-08T11:01:38Z</time>
      </trkpt>
      <trkpt lat="43.3975" lon="6.6503">
        <ele>239</ele>
        <time>2016-10-08T11:01:45Z</time>
      </trkpt>
      <trkpt lat="43.39762" lon="6.6502">
        <ele>241</ele>
        <time>2016-10-08T11:01:54Z</time>
      </trkpt>
      <trkpt lat="43.39767" lon="6.65015">
        <ele>241</ele>
        <time>2016-10-08T11:01:58Z</time>
      </trkpt>
      <trkpt lat="43.39773" lon="6.65011">
        <ele>241</ele>
        <time>2016-10-08T11:02:02Z</time>
      </trkpt>
      <trkpt lat="43.39783" lon="6.65008">
        <ele>241</ele>
        <time>2016-10-08T11:02:08Z</time>
      </trkpt>
      <trkpt lat="43.3979" lon="6.65005">
        <ele>242</ele>
        <time>2016-10-08T11:02:12Z</time>
      </trkpt>
      <trkpt lat="43.39804" lon="6.65001">
        <ele>243</ele>
        <time>2016-10-08T11:02:22Z</time>
      </trkpt>
      <trkpt lat="43.3981" lon="6.65">
        <ele>244</ele>
        <time>2016-10-08T11:02:26Z</time>
      </trkpt>
      <trkpt lat="43.39815" lon="6.64999">
        <ele>252</ele>
        <time>2016-10-08T11:02:30Z</time>
      </trkpt>
      <trkpt lat="43.39822" lon="6.64996">
        <ele>252</ele>
        <time>2016-10-08T11:02:35Z</time>
      </trkpt>
      <trkpt lat="43.39827" lon="6.64996">
        <ele>252</ele>
        <time>2016-10-08T11:02:38Z</time>
      </trkpt>
      <trkpt lat="43.39836" lon="6.64992">
        <ele>255</ele>
        <time>2016-10-08T11:02:43Z</time>
      </trkpt>
      <trkpt lat="43.39844" lon="6.64988">
        <ele>257</ele>
        <time>2016-10-08T11:02:50Z</time>
      </trkpt>
      <trkpt lat="43.39858" lon="6.64977">
        <ele>260</ele>
        <time>2016-10-08T11:03:02Z</time>
      </trkpt>
      <trkpt lat="43.39867" lon="6.64971">
        <ele>261</ele>
        <time>2016-10-08T11:03:10Z</time>
      </trkpt>
      <trkpt lat="43.39869" lon="6.64969">
        <ele>261</ele>
        <time>2016-10-08T11:03:12Z</time>
      </trkpt>
      <trkpt lat="43.39874" lon="6.64965">
        <ele>262</ele>
        <time>2016-10-08T11:03:17Z</time>
      </trkpt>
      <trkpt lat="43.39896" lon="6.64957">
        <ele>264</ele>
        <time>2016-10-08T11:03:33Z</time>
      </trkpt>
      <trkpt lat="43.39908" lon="6.64954">
        <ele>265</ele>
        <time>2016-10-08T11:03:42Z</time>
      </trkpt>
      <trkpt lat="43.39913" lon="6.64954">
        <ele>265</ele>
        <time>2016-10-08T11:03:47Z</time>
      </trkpt>
      <trkpt lat="43.39918" lon="6.64952">
        <ele>271</ele>
        <time>2016-10-08T11:03:51Z</time>
      </trkpt>
      <trkpt lat="43.39919" lon="6.6495">
        <ele>272</ele>
        <time>2016-10-08T11:03:52Z</time>
      </trkpt>
      <trkpt lat="43.39925" lon="6.64947">
        <ele>272</ele>
        <time>2016-10-08T11:03:59Z</time>
      </trkpt>
      <trkpt lat="43.39936" lon="6.64935">
        <ele>274</ele>
        <time>2016-10-08T11:04:10Z</time>
      </trkpt>
      <trkpt lat="43.39942" lon="6.64931">
        <ele>275</ele>
        <time>2016-10-08T11:04:15Z</time>
      </trkpt>
      <trkpt lat="43.39947" lon="6.6493">
        <ele>275</ele>
        <time>2016-10-08T11:04:19Z</time>
      </trkpt>
      <trkpt lat="43.39957" lon="6.64932">
        <ele>276</ele>
        <time>2016-10-08T11:04:27Z</time>
      </trkpt>
      <trkpt lat="43.39966" lon="6.64932">
        <ele>277</ele>
        <time>2016-10-08T11:04:36Z</time>
      </trkpt>
      <trkpt lat="43.39973" lon="6.64932">
        <ele>278</ele>
        <time>2016-10-08T11:04:42Z</time>
      </trkpt>
      <trkpt lat="43.39983" lon="6.64936">
        <ele>280</ele>
        <time>2016-10-08T11:04:52Z</time>
      </trkpt>
      <trkpt lat="43.39986" lon="6.64936">
        <ele>280</ele>
        <time>2016-10-08T11:04:54Z</time>
      </trkpt>
      <trkpt lat="43.3999" lon="6.64938">
        <ele>280</ele>
        <time>2016-10-08T11:04:59Z</time>
      </trkpt>
      <trkpt lat="43.39993" lon="6.64938">
        <ele>280</ele>
        <time>2016-10-08T11:05:03Z</time>
      </trkpt>
      <trkpt lat="43.40004" lon="6.64937">
        <ele>286</ele>
        <time>2016-10-08T11:05:12Z</time>
      </trkpt>
      <trkpt lat="43.40007" lon="6.64935">
        <ele>286</ele>
        <time>2016-10-08T11:05:14Z</time>
      </trkpt>
      <trkpt lat="43.40008" lon="6.64936">
        <ele>286</ele>
        <time>2016-10-08T11:05:15Z</time>
      </trkpt>
      <trkpt lat="43.40013" lon="6.64935">
        <ele>285</ele>
        <time>2016-10-08T11:05:20Z</time>
      </trkpt>
      <trkpt lat="43.40024" lon="6.64933">
        <ele>285</ele>
        <time>2016-10-08T11:05:29Z</time>
      </trkpt>
      <trkpt lat="43.40032" lon="6.64928">
        <ele>285</ele>
        <time>2016-10-08T11:05:37Z</time>
      </trkpt>
      <trkpt lat="43.4004" lon="6.64918">
        <ele>286</ele>
        <time>2016-10-08T11:05:46Z</time>
      </trkpt>
      <trkpt lat="43.40045" lon="6.64915">
        <ele>299</ele>
        <time>2016-10-08T11:05:50Z</time>
      </trkpt>
      <trkpt lat="43.40049" lon="6.6491">
        <ele>299</ele>
        <time>2016-10-08T11:05:55Z</time>
      </trkpt>
      <trkpt lat="43.40055" lon="6.649">
        <ele>300</ele>
        <time>2016-10-08T11:06:03Z</time>
      </trkpt>
      <trkpt lat="43.40059" lon="6.64897">
        <ele>300</ele>
        <time>2016-10-08T11:06:07Z</time>
      </trkpt>
      <trkpt lat="43.40062" lon="6.64893">
        <ele>301</ele>
        <time>2016-10-08T11:06:10Z</time>
      </trkpt>
      <trkpt lat="43.40067" lon="6.6489">
        <ele>301</ele>
        <time>2016-10-08T11:06:14Z</time>
      </trkpt>
      <trkpt lat="43.40073" lon="6.6488">
        <ele>302</ele>
        <time>2016-10-08T11:06:22Z</time>
      </trkpt>
      <trkpt lat="43.4008" lon="6.64877">
        <ele>303</ele>
        <time>2016-10-08T11:06:27Z</time>
      </trkpt>
      <trkpt lat="43.40094" lon="6.64872">
        <ele>298</ele>
        <time>2016-10-08T11:06:35Z</time>
      </trkpt>
      <trkpt lat="43.40105" lon="6.64865">
        <ele>298</ele>
        <time>2016-10-08T11:06:40Z</time>
      </trkpt>
      <trkpt lat="43.40109" lon="6.64861">
        <ele>298</ele>
        <time>2016-10-08T11:06:44Z</time>
      </trkpt>
      <trkpt lat="43.4012" lon="6.64847">
        <ele>298</ele>
        <time>2016-10-08T11:06:50Z</time>
      </trkpt>
      <trkpt lat="43.40135" lon="6.64823">
        <ele>306</ele>
        <time>2016-10-08T11:06:57Z</time>
      </trkpt>
      <trkpt lat="43.40155" lon="6.6479">
        <ele>308</ele>
        <time>2016-10-08T11:07:04Z</time>
      </trkpt>
      <trkpt lat="43.40172" lon="6.64768">
        <ele>303</ele>
        <time>2016-10-08T11:07:08Z</time>
      </trkpt>
      <trkpt lat="43.40182" lon="6.6476">
        <ele>303</ele>
        <time>2016-10-08T11:07:10Z</time>
      </trkpt>
      <trkpt lat="43.40198" lon="6.64756">
        <ele>300</ele>
        <time>2016-10-08T11:07:12Z</time>
      </trkpt>
      <trkpt lat="43.4023" lon="6.64752">
        <ele>298</ele>
        <time>2016-10-08T11:07:16Z</time>
      </trkpt>
      <trkpt lat="43.40283" lon="6.64742">
        <ele>304</ele>
        <time>2016-10-08T11:07:23Z</time>
      </trkpt>
      <trkpt lat="43.40306" lon="6.64735">
        <ele>305</ele>
        <time>2016-10-08T11:07:28Z</time>
      </trkpt>
      <trkpt lat="43.40315" lon="6.64734">
        <ele>304</ele>
        <time>2016-10-08T11:07:30Z</time>
      </trkpt>
      <trkpt lat="43.40324" lon="6.64734">
        <ele>304</ele>
        <time>2016-10-08T11:07:32Z</time>
      </trkpt>
      <trkpt lat="43.40342" lon="6.64738">
        <ele>302</ele>
        <time>2016-10-08T11:07:35Z</time>
      </trkpt>
      <trkpt lat="43.40354" lon="6.64742">
        <ele>302</ele>
        <time>2016-10-08T11:07:37Z</time>
      </trkpt>
      <trkpt lat="43.40376" lon="6.64751">
        <ele>294</ele>
        <time>2016-10-08T11:07:40Z</time>
      </trkpt>
      <trkpt lat="43.40388" lon="6.64755">
        <ele>294</ele>
        <time>2016-10-08T11:07:42Z</time>
      </trkpt>
      <trkpt lat="43.40412" lon="6.64766">
        <ele>295</ele>
        <time>2016-10-08T11:07:46Z</time>
      </trkpt>
      <trkpt lat="43.40467" lon="6.64781">
        <ele>291</ele>
        <time>2016-10-08T11:07:55Z</time>
      </trkpt>
      <trkpt lat="43.4048" lon="6.64785">
        <ele>290</ele>
        <time>2016-10-08T11:07:57Z</time>
      </trkpt>
      <trkpt lat="43.40526" lon="6.64787">
        <ele>289</ele>
        <time>2016-10-08T11:08:03Z</time>
      </trkpt>
      <trkpt lat="43.4054" lon="6.64788">
        <ele>289</ele>
        <time>2016-10-08T11:08:05Z</time>
      </trkpt>
      <trkpt lat="43.40563" lon="6.64793">
        <ele>288</ele>
        <time>2016-10-08T11:08:09Z</time>
      </trkpt>
      <trkpt lat="43.4057" lon="6.64793">
        <ele>288</ele>
        <time>2016-10-08T11:08:11Z</time>
      </trkpt>
      <trkpt lat="43.40575" lon="6.64792">
        <ele>288</ele>
        <time>2016-10-08T11:08:12Z</time>
      </trkpt>
      <trkpt lat="43.40582" lon="6.64772">
        <ele>291</ele>
        <time>2016-10-08T11:08:21Z</time>
      </trkpt>
      <trkpt lat="43.40583" lon="6.64761">
        <ele>292</ele>
        <time>2016-10-08T11:08:27Z</time>
      </trkpt>
      <trkpt lat="43.40582" lon="6.64757">
        <ele>293</ele>
        <time>2016-10-08T11:08:29Z</time>
      </trkpt>
      <trkpt lat="43.40571" lon="6.64747">
        <ele>294</ele>
        <time>2016-10-08T11:08:39Z</time>
      </trkpt>
      <trkpt lat="43.40558" lon="6.64732">
        <ele>294</ele>
        <time>2016-10-08T11:08:53Z</time>
      </trkpt>
      <trkpt lat="43.40553" lon="6.6473">
        <ele>294</ele>
        <time>2016-10-08T11:08:57Z</time>
      </trkpt>
      <trkpt lat="43.40545" lon="6.64725">
        <ele>295</ele>
        <time>2016-10-08T11:09:42Z</time>
      </trkpt>
      <trkpt lat="43.40539" lon="6.64724">
        <ele>295</ele>
        <time>2016-10-08T11:09:44Z</time>
      </trkpt>
      <trkpt lat="43.40503" lon="6.64718">
        <ele>296</ele>
        <time>2016-10-08T11:09:50Z</time>
      </trkpt>
      <trkpt lat="43.40492" lon="6.64714">
        <ele>299</ele>
        <time>2016-10-08T11:09:55Z</time>
      </trkpt>
      <trkpt lat="43.40473" lon="6.64703">
        <ele>300</ele>
        <time>2016-10-08T11:09:59Z</time>
      </trkpt>
      <trkpt lat="43.40453" lon="6.64687">
        <ele>301</ele>
        <time>2016-10-08T11:10:09Z</time>
      </trkpt>
      <trkpt lat="43.40451" lon="6.64686">
        <ele>301</ele>
        <time>2016-10-08T11:10:10Z</time>
      </trkpt>
      <trkpt lat="43.40448" lon="6.64684">
        <ele>301</ele>
        <time>2016-10-08T11:10:12Z</time>
      </trkpt>
      <trkpt lat="43.40438" lon="6.64681">
        <ele>302</ele>
        <time>2016-10-08T11:10:16Z</time>
      </trkpt>
      <trkpt lat="43.40433" lon="6.64677">
        <ele>303</ele>
        <time>2016-10-08T11:10:19Z</time>
      </trkpt>
      <trkpt lat="43.40428" lon="6.64671">
        <ele>304</ele>
        <time>2016-10-08T11:10:23Z</time>
      </trkpt>
      <trkpt lat="43.40421" lon="6.6467">
        <ele>305</ele>
        <time>2016-10-08T11:10:27Z</time>
      </trkpt>
      <trkpt lat="43.404" lon="6.64663">
        <ele>305</ele>
        <time>2016-10-08T11:10:35Z</time>
      </trkpt>
      <trkpt lat="43.40378" lon="6.64659">
        <ele>306</ele>
        <time>2016-10-08T11:10:47Z</time>
      </trkpt>
      <trkpt lat="43.40364" lon="6.64662">
        <ele>307</ele>
        <time>2016-10-08T11:10:54Z</time>
      </trkpt>
      <trkpt lat="43.4036" lon="6.64664">
        <ele>308</ele>
        <time>2016-10-08T11:10:56Z</time>
      </trkpt>
      <trkpt lat="43.40348" lon="6.64672">
        <ele>310</ele>
        <time>2016-10-08T11:11:02Z</time>
      </trkpt>
      <trkpt lat="43.40331" lon="6.64678">
        <ele>312</ele>
        <time>2016-10-08T11:11:07Z</time>
      </trkpt>
      <trkpt lat="43.4032" lon="6.64678">
        <ele>311</ele>
        <time>2016-10-08T11:11:13Z</time>
      </trkpt>
      <trkpt lat="43.40313" lon="6.64675">
        <ele>311</ele>
        <time>2016-10-08T11:11:17Z</time>
      </trkpt>
      <trkpt lat="43.40302" lon="6.64673">
        <ele>310</ele>
        <time>2016-10-08T11:11:23Z</time>
      </trkpt>
      <trkpt lat="43.40283" lon="6.64662">
        <ele>314</ele>
        <time>2016-10-08T11:11:35Z</time>
      </trkpt>
      <trkpt lat="43.40265" lon="6.6465">
        <ele>314</ele>
        <time>2016-10-08T11:11:45Z</time>
      </trkpt>
      <trkpt lat="43.40257" lon="6.64647">
        <ele>314</ele>
        <time>2016-10-08T11:11:48Z</time>
      </trkpt>
      <trkpt lat="43.40246" lon="6.64646">
        <ele>315</ele>
        <time>2016-10-08T11:11:51Z</time>
      </trkpt>
      <trkpt lat="43.40222" lon="6.64646">
        <ele>314</ele>
        <time>2016-10-08T11:11:58Z</time>
      </trkpt>
      <trkpt lat="43.40194" lon="6.64647">
        <ele>314</ele>
        <time>2016-10-08T11:12:06Z</time>
      </trkpt>
      <trkpt lat="43.40173" lon="6.64649">
        <ele>315</ele>
        <time>2016-10-08T11:12:13Z</time>
      </trkpt>
      <trkpt lat="43.40153" lon="6.64659">
        <ele>312</ele>
        <time>2016-10-08T11:12:18Z</time>
      </trkpt>
      <trkpt lat="43.40143" lon="6.64667">
        <ele>316</ele>
        <time>2016-10-08T11:12:20Z</time>
      </trkpt>
      <trkpt lat="43.40121" lon="6.64698">
        <ele>315</ele>
        <time>2016-10-08T11:12:27Z</time>
      </trkpt>
      <trkpt lat="43.40104" lon="6.64708">
        <ele>315</ele>
        <time>2016-10-08T11:12:32Z</time>
      </trkpt>
      <trkpt lat="43.40087" lon="6.6472">
        <ele>316</ele>
        <time>2016-10-08T11:12:38Z</time>
      </trkpt>
      <trkpt lat="43.40063" lon="6.6475">
        <ele>315</ele>
        <time>2016-10-08T11:12:47Z</time>
      </trkpt>
      <trkpt lat="43.40053" lon="6.64771">
        <ele>315</ele>
        <time>2016-10-08T11:12:52Z</time>
      </trkpt>
      <trkpt lat="43.4005" lon="6.64775">
        <ele>314</ele>
        <time>2016-10-08T11:12:53Z</time>
      </trkpt>
      <trkpt lat="43.40045" lon="6.64787">
        <ele>314</ele>
        <time>2016-10-08T11:12:56Z</time>
      </trkpt>
      <trkpt lat="43.40038" lon="6.64804">
        <ele>313</ele>
        <time>2016-10-08T11:13:00Z</time>
      </trkpt>
      <trkpt lat="43.40034" lon="6.64821">
        <ele>313</ele>
        <time>2016-10-08T11:13:03Z</time>
      </trkpt>
      <trkpt lat="43.40032" lon="6.64825">
        <ele>312</ele>
        <time>2016-10-08T11:13:04Z</time>
      </trkpt>
      <trkpt lat="43.40029" lon="6.64828">
        <ele>312</ele>
        <time>2016-10-08T11:13:05Z</time>
      </trkpt>
      <trkpt lat="43.40022" lon="6.64828">
        <ele>312</ele>
        <time>2016-10-08T11:13:07Z</time>
      </trkpt>
      <trkpt lat="43.40016" lon="6.64826">
        <ele>311</ele>
        <time>2016-10-08T11:13:09Z</time>
      </trkpt>
      <trkpt lat="43.40003" lon="6.64824">
        <ele>310</ele>
        <time>2016-10-08T11:13:12Z</time>
      </trkpt>
      <trkpt lat="43.39989" lon="6.64818">
        <ele>303</ele>
        <time>2016-10-08T11:13:16Z</time>
      </trkpt>
      <trkpt lat="43.3997" lon="6.64828">
        <ele>300</ele>
        <time>2016-10-08T11:13:21Z</time>
      </trkpt>
      <trkpt lat="43.39945" lon="6.64833">
        <ele>292</ele>
        <time>2016-10-08T11:13:27Z</time>
      </trkpt>
      <trkpt lat="43.39938" lon="6.64836">
        <ele>291</ele>
        <time>2016-10-08T11:13:29Z</time>
      </trkpt>
      <trkpt lat="43.3993" lon="6.64838">
        <ele>290</ele>
        <time>2016-10-08T11:13:31Z</time>
      </trkpt>
      <trkpt lat="43.39919" lon="6.64837">
        <ele>289</ele>
        <time>2016-10-08T11:13:33Z</time>
      </trkpt>
      <trkpt lat="43.39903" lon="6.64838">
        <ele>282</ele>
        <time>2016-10-08T11:13:35Z</time>
      </trkpt>
      <trkpt lat="43.39895" lon="6.64842">
        <ele>279</ele>
        <time>2016-10-08T11:13:36Z</time>
      </trkpt>
      <trkpt lat="43.39888" lon="6.64846">
        <ele>277</ele>
        <time>2016-10-08T11:13:37Z</time>
      </trkpt>
      <trkpt lat="43.39883" lon="6.64851">
        <ele>276</ele>
        <time>2016-10-08T11:13:38Z</time>
      </trkpt>
      <trkpt lat="43.3988" lon="6.64854">
        <ele>276</ele>
        <time>2016-10-08T11:13:39Z</time>
      </trkpt>
      <trkpt lat="43.39879" lon="6.64858">
        <ele>275</ele>
        <time>2016-10-08T11:13:40Z</time>
      </trkpt>
      <trkpt lat="43.39879" lon="6.64867">
        <ele>275</ele>
        <time>2016-10-08T11:13:42Z</time>
      </trkpt>
      <trkpt lat="43.39878" lon="6.64872">
        <ele>275</ele>
        <time>2016-10-08T11:13:45Z</time>
      </trkpt>
      <trkpt lat="43.39875" lon="6.64877">
        <ele>275</ele>
        <time>2016-10-08T11:13:48Z</time>
      </trkpt>
      <trkpt lat="43.39868" lon="6.64882">
        <ele>274</ele>
        <time>2016-10-08T11:13:51Z</time>
      </trkpt>
      <trkpt lat="43.3986" lon="6.64885">
        <ele>273</ele>
        <time>2016-10-08T11:13:53Z</time>
      </trkpt>
      <trkpt lat="43.39856" lon="6.64889">
        <ele>273</ele>
        <time>2016-10-08T11:13:55Z</time>
      </trkpt>
      <trkpt lat="43.39851" lon="6.649">
        <ele>272</ele>
        <time>2016-10-08T11:13:59Z</time>
      </trkpt>
      <trkpt lat="43.39848" lon="6.64905">
        <ele>271</ele>
        <time>2016-10-08T11:14:02Z</time>
      </trkpt>
      <trkpt lat="43.39849" lon="6.64904">
        <ele>271</ele>
        <time>2016-10-08T11:14:03Z</time>
      </trkpt>
      <trkpt lat="43.3984" lon="6.64916">
        <ele>270</ele>
        <time>2016-10-08T11:15:43Z</time>
      </trkpt>
      <trkpt lat="43.39838" lon="6.64919">
        <ele>267</ele>
        <time>2016-10-08T11:15:44Z</time>
      </trkpt>
      <trkpt lat="43.39828" lon="6.6493">
        <ele>261</ele>
        <time>2016-10-08T11:15:50Z</time>
      </trkpt>
      <trkpt lat="43.39789" lon="6.64957">
        <ele>253</ele>
        <time>2016-10-08T11:16:57Z</time>
      </trkpt>
      <trkpt lat="43.39781" lon="6.64963">
        <ele>252</ele>
        <time>2016-10-08T11:17:03Z</time>
      </trkpt>
      <trkpt lat="43.39764" lon="6.6496">
        <ele>251</ele>
        <time>2016-10-08T11:18:06Z</time>
      </trkpt>
      <trkpt lat="43.39758" lon="6.64964">
        <ele>250</ele>
        <time>2016-10-08T11:18:12Z</time>
      </trkpt>
      <trkpt lat="43.39755" lon="6.64965">
        <ele>250</ele>
        <time>2016-10-08T11:18:15Z</time>
      </trkpt>
      <trkpt lat="43.39751" lon="6.64968">
        <ele>250</ele>
        <time>2016-10-08T11:19:39Z</time>
      </trkpt>
      <trkpt lat="43.39743" lon="6.64971">
        <ele>242</ele>
        <time>2016-10-08T11:19:50Z</time>
      </trkpt>
      <trkpt lat="43.39739" lon="6.64973">
        <ele>242</ele>
        <time>2016-10-08T11:21:31Z</time>
      </trkpt>
      <trkpt lat="43.39728" lon="6.64983">
        <ele>242</ele>
        <time>2016-10-08T11:21:40Z</time>
      </trkpt>
      <trkpt lat="43.39725" lon="6.64985">
        <ele>242</ele>
        <time>2016-10-08T11:22:35Z</time>
      </trkpt>
      <trkpt lat="43.39723" lon="6.64987">
        <ele>242</ele>
        <time>2016-10-08T11:22:38Z</time>
      </trkpt>
      <trkpt lat="43.39717" lon="6.64992">
        <ele>241</ele>
        <time>2016-10-08T11:23:23Z</time>
      </trkpt>
      <trkpt lat="43.39715" lon="6.64993">
        <ele>241</ele>
        <time>2016-10-08T11:23:24Z</time>
      </trkpt>
      <trkpt lat="43.3971" lon="6.64995">
        <ele>241</ele>
        <time>2016-10-08T11:23:31Z</time>
      </trkpt>
      <trkpt lat="43.39706" lon="6.65">
        <ele>239</ele>
        <time>2016-10-08T11:23:51Z</time>
      </trkpt>
      <trkpt lat="43.39697" lon="6.65005">
        <ele>239</ele>
        <time>2016-10-08T11:23:59Z</time>
      </trkpt>
      <trkpt lat="43.39687" lon="6.65017">
        <ele>239</ele>
        <time>2016-10-08T11:25:41Z</time>
      </trkpt>
      <trkpt lat="43.39687" lon="6.65018">
        <ele>239</ele>
        <time>2016-10-08T11:25:42Z</time>
      </trkpt>
      <trkpt lat="43.39686" lon="6.65018">
        <ele>239</ele>
        <time>2016-10-08T11:25:43Z</time>
      </trkpt>
      <trkpt lat="43.39501" lon="6.651">
        <ele>213</ele>
        <time>2016-10-08T11:47:24Z</time>
      </trkpt>
      <trkpt lat="43.39487" lon="6.65089">
        <ele>206</ele>
        <time>2016-10-08T11:47:39Z</time>
      </trkpt>
      <trkpt lat="43.39482" lon="6.65086">
        <ele>205</ele>
        <time>2016-10-08T11:47:43Z</time>
      </trkpt>
      <trkpt lat="43.39478" lon="6.65082">
        <ele>202</ele>
        <time>2016-10-08T11:47:46Z</time>
      </trkpt>
      <trkpt lat="43.39475" lon="6.65078">
        <ele>201</ele>
        <time>2016-10-08T11:47:48Z</time>
      </trkpt>
      <trkpt lat="43.39467" lon="6.65071">
        <ele>199</ele>
        <time>2016-10-08T11:47:52Z</time>
      </trkpt>
      <trkpt lat="43.39461" lon="6.65067">
        <ele>197</ele>
        <time>2016-10-08T11:47:55Z</time>
      </trkpt>
      <trkpt lat="43.39459" lon="6.65066">
        <ele>197</ele>
        <time>2016-10-08T11:47:56Z</time>
      </trkpt>
      <trkpt lat="43.39459" lon="6.65066">
        <ele>197</ele>
        <time>2016-10-08T11:47:57Z</time>
      </trkpt>
      <trkpt lat="43.39454" lon="6.6507">
        <ele>196</ele>
        <time>2016-10-08T11:48:27Z</time>
      </trkpt>
      <trkpt lat="43.39452" lon="6.65072">
        <ele>196</ele>
        <time>2016-10-08T11:48:28Z</time>
      </trkpt>
      <trkpt lat="43.39452" lon="6.65074">
        <ele>196</ele>
        <time>2016-10-08T11:48:31Z</time>
      </trkpt>
      <trkpt lat="43.39451" lon="6.65076">
        <ele>196</ele>
        <time>2016-10-08T11:48:41Z</time>
      </trkpt>
      <trkpt lat="43.39439" lon="6.6508">
        <ele>194</ele>
        <time>2016-10-08T11:48:47Z</time>
      </trkpt>
      <trkpt lat="43.39434" lon="6.65084">
        <ele>196</ele>
        <time>2016-10-08T11:48:49Z</time>
      </trkpt>
      <trkpt lat="43.3943" lon="6.65087">
        <ele>195</ele>
        <time>2016-10-08T11:48:51Z</time>
      </trkpt>
      <trkpt lat="43.39426" lon="6.65088">
        <ele>194</ele>
        <time>2016-10-08T11:48:53Z</time>
      </trkpt>
      <trkpt lat="43.39424" lon="6.65087">
        <ele>194</ele>
        <time>2016-10-08T11:48:54Z</time>
      </trkpt>
      <trkpt lat="43.39423" lon="6.65085">
        <ele>193</ele>
        <time>2016-10-08T11:48:55Z</time>
      </trkpt>
      <trkpt lat="43.39423" lon="6.65083">
        <ele>192</ele>
        <time>2016-10-08T11:48:56Z</time>
      </trkpt>
      <trkpt lat="43.39426" lon="6.65081">
        <ele>192</ele>
        <time>2016-10-08T11:48:58Z</time>
      </trkpt>
      <trkpt lat="43.39447" lon="6.65052">
        <ele>194</ele>
        <time>2016-10-08T11:49:07Z</time>
      </trkpt>
      <trkpt lat="43.39489" lon="6.6502">
        <ele>197</ele>
        <time>2016-10-08T11:49:20Z</time>
      </trkpt>
      <trkpt lat="43.39498" lon="6.64994">
        <ele>196</ele>
        <time>2016-10-08T11:49:25Z</time>
      </trkpt>
      <trkpt lat="43.39499" lon="6.64981">
        <ele>192</ele>
        <time>2016-10-08T11:49:27Z</time>
      </trkpt>
      <trkpt lat="43.39499" lon="6.64958">
        <ele>188</ele>
        <time>2016-10-08T11:49:30Z</time>
      </trkpt>
      <trkpt lat="43.39502" lon="6.64923">
        <ele>194</ele>
        <time>2016-10-08T11:49:34Z</time>
      </trkpt>
      <trkpt lat="43.39506" lon="6.64906">
        <ele>191</ele>
        <time>2016-10-08T11:49:36Z</time>
      </trkpt>
      <trkpt lat="43.39509" lon="6.64898">
        <ele>192</ele>
        <time>2016-10-08T11:49:37Z</time>
      </trkpt>
      <trkpt lat="43.39513" lon="6.64891">
        <ele>192</ele>
        <time>2016-10-08T11:49:38Z</time>
      </trkpt>
      <trkpt lat="43.39527" lon="6.64871">
        <ele>192</ele>
        <time>2016-10-08T11:49:41Z</time>
      </trkpt>
      <trkpt lat="43.39531" lon="6.64866">
        <ele>192</ele>
        <time>2016-10-08T11:49:42Z</time>
      </trkpt>
      <trkpt lat="43.39541" lon="6.64857">
        <ele>192</ele>
        <time>2016-10-08T11:49:44Z</time>
      </trkpt>
      <trkpt lat="43.39574" lon="6.64836">
        <ele>194</ele>
        <time>2016-10-08T11:49:51Z</time>
      </trkpt>
      <trkpt lat="43.39579" lon="6.64835">
        <ele>194</ele>
        <time>2016-10-08T11:49:52Z</time>
      </trkpt>
      <trkpt lat="43.39598" lon="6.64831">
        <ele>196</ele>
        <time>2016-10-08T11:49:57Z</time>
      </trkpt>
      <trkpt lat="43.39615" lon="6.64823">
        <ele>198</ele>
        <time>2016-10-08T11:50:02Z</time>
      </trkpt>
      <trkpt lat="43.39625" lon="6.64812">
        <ele>199</ele>
        <time>2016-10-08T11:50:05Z</time>
      </trkpt>
      <trkpt lat="43.39629" lon="6.64801">
        <ele>199</ele>
        <time>2016-10-08T11:50:07Z</time>
      </trkpt>
      <trkpt lat="43.39633" lon="6.6479">
        <ele>199</ele>
        <time>2016-10-08T11:50:09Z</time>
      </trkpt>
      <trkpt lat="43.39636" lon="6.64776">
        <ele>198</ele>
        <time>2016-10-08T11:50:11Z</time>
      </trkpt>
      <trkpt lat="43.39634" lon="6.64759">
        <ele>197</ele>
        <time>2016-10-08T11:50:13Z</time>
      </trkpt>
      <trkpt lat="43.39633" lon="6.6475">
        <ele>197</ele>
        <time>2016-10-08T11:50:14Z</time>
      </trkpt>
      <trkpt lat="43.39626" lon="6.64733">
        <ele>198</ele>
        <time>2016-10-08T11:50:16Z</time>
      </trkpt>
      <trkpt lat="43.39622" lon="6.64726">
        <ele>198</ele>
        <time>2016-10-08T11:50:17Z</time>
      </trkpt>
      <trkpt lat="43.39614" lon="6.64723">
        <ele>198</ele>
        <time>2016-10-08T11:50:18Z</time>
      </trkpt>
      <trkpt lat="43.39607" lon="6.64723">
        <ele>197</ele>
        <time>2016-10-08T11:50:19Z</time>
      </trkpt>
      <trkpt lat="43.396" lon="6.64725">
        <ele>197</ele>
        <time>2016-10-08T11:50:20Z</time>
      </trkpt>
      <trkpt lat="43.39581" lon="6.64736">
        <ele>192</ele>
        <time>2016-10-08T11:50:23Z</time>
      </trkpt>
      <trkpt lat="43.39573" lon="6.64738">
        <ele>192</ele>
        <time>2016-10-08T11:50:24Z</time>
      </trkpt>
      <trkpt lat="43.39566" lon="6.6474">
        <ele>192</ele>
        <time>2016-10-08T11:50:25Z</time>
      </trkpt>
      <trkpt lat="43.39558" lon="6.64741">
        <ele>192</ele>
        <time>2016-10-08T11:50:26Z</time>
      </trkpt>
      <trkpt lat="43.39551" lon="6.6474">
        <ele>193</ele>
        <time>2016-10-08T11:50:27Z</time>
      </trkpt>
      <trkpt lat="43.39532" lon="6.64735">
        <ele>192</ele>
        <time>2016-10-08T11:50:30Z</time>
      </trkpt>
      <trkpt lat="43.39494" lon="6.64736">
        <ele>187</ele>
        <time>2016-10-08T11:50:36Z</time>
      </trkpt>
      <trkpt lat="43.39474" lon="6.64738">
        <ele>188</ele>
        <time>2016-10-08T11:50:39Z</time>
      </trkpt>
      <trkpt lat="43.39449" lon="6.64738">
        <ele>187</ele>
        <time>2016-10-08T11:50:43Z</time>
      </trkpt>
      <trkpt lat="43.39438" lon="6.64738">
        <ele>186</ele>
        <time>2016-10-08T11:50:45Z</time>
      </trkpt>
      <trkpt lat="43.39421" lon="6.64731">
        <ele>185</ele>
        <time>2016-10-08T11:50:48Z</time>
      </trkpt>
      <trkpt lat="43.39398" lon="6.64714">
        <ele>184</ele>
        <time>2016-10-08T11:50:53Z</time>
      </trkpt>
      <trkpt lat="43.39391" lon="6.6471">
        <ele>184</ele>
        <time>2016-10-08T11:50:55Z</time>
      </trkpt>
      <trkpt lat="43.39381" lon="6.64701">
        <ele>185</ele>
        <time>2016-10-08T11:50:59Z</time>
      </trkpt>
      <trkpt lat="43.3935" lon="6.64666">
        <ele>189</ele>
        <time>2016-10-08T11:51:15Z</time>
      </trkpt>
      <trkpt lat="43.39341" lon="6.64654">
        <ele>189</ele>
        <time>2016-10-08T11:51:20Z</time>
      </trkpt>
      <trkpt lat="43.3934" lon="6.64651">
        <ele>189</ele>
        <time>2016-10-08T11:51:21Z</time>
      </trkpt>
      <trkpt lat="43.39339" lon="6.64642">
        <ele>189</ele>
        <time>2016-10-08T11:51:24Z</time>
      </trkpt>
      <trkpt lat="43.39341" lon="6.64628">
        <ele>188</ele>
        <time>2016-10-08T11:51:31Z</time>
      </trkpt>
      <trkpt lat="43.39344" lon="6.64626">
        <ele>188</ele>
        <time>2016-10-08T11:52:24Z</time>
      </trkpt>
      <trkpt lat="43.39358" lon="6.64615">
        <ele>188</ele>
        <time>2016-10-08T11:52:29Z</time>
      </trkpt>
      <trkpt lat="43.39371" lon="6.64609">
        <ele>187</ele>
        <time>2016-10-08T11:52:32Z</time>
      </trkpt>
      <trkpt lat="43.39426" lon="6.64591">
        <ele>189</ele>
        <time>2016-10-08T11:52:42Z</time>
      </trkpt>
      <trkpt lat="43.39438" lon="6.64582">
        <ele>186</ele>
        <time>2016-10-08T11:52:44Z</time>
      </trkpt>
      <trkpt lat="43.39455" lon="6.64567">
        <ele>188</ele>
        <time>2016-10-08T11:52:47Z</time>
      </trkpt>
      <trkpt lat="43.39465" lon="6.64555">
        <ele>188</ele>
        <time>2016-10-08T11:52:49Z</time>
      </trkpt>
      <trkpt lat="43.39488" lon="6.6452">
        <ele>188</ele>
        <time>2016-10-08T11:52:55Z</time>
      </trkpt>
      <trkpt lat="43.39491" lon="6.64513">
        <ele>188</ele>
        <time>2016-10-08T11:52:56Z</time>
      </trkpt>
      <trkpt lat="43.39495" lon="6.64497">
        <ele>186</ele>
        <time>2016-10-08T11:52:58Z</time>
      </trkpt>
      <trkpt lat="43.39513" lon="6.64447">
        <ele>189</ele>
        <time>2016-10-08T11:53:05Z</time>
      </trkpt>
      <trkpt lat="43.39528" lon="6.64428">
        <ele>189</ele>
        <time>2016-10-08T11:53:09Z</time>
      </trkpt>
      <trkpt lat="43.39568" lon="6.644">
        <ele>182</ele>
        <time>2016-10-08T11:53:18Z</time>
      </trkpt>
      <trkpt lat="43.39596" lon="6.64388">
        <ele>189</ele>
        <time>2016-10-08T11:53:23Z</time>
      </trkpt>
      <trkpt lat="43.39633" lon="6.64371">
        <ele>188</ele>
        <time>2016-10-08T11:53:30Z</time>
      </trkpt>
      <trkpt lat="43.39678" lon="6.64345">
        <ele>190</ele>
        <time>2016-10-08T11:53:38Z</time>
      </trkpt>
      <trkpt lat="43.39688" lon="6.64338">
        <ele>192</ele>
        <time>2016-10-08T11:53:40Z</time>
      </trkpt>
      <trkpt lat="43.397" lon="6.64333">
        <ele>178</ele>
        <time>2016-10-08T11:53:42Z</time>
      </trkpt>
      <trkpt lat="43.39731" lon="6.64324">
        <ele>181</ele>
        <time>2016-10-08T11:53:47Z</time>
      </trkpt>
      <trkpt lat="43.39743" lon="6.64319">
        <ele>183</ele>
        <time>2016-10-08T11:53:49Z</time>
      </trkpt>
      <trkpt lat="43.3977" lon="6.64312">
        <ele>184</ele>
        <time>2016-10-08T11:53:53Z</time>
      </trkpt>
      <trkpt lat="43.39784" lon="6.64309">
        <ele>183</ele>
        <time>2016-10-08T11:53:55Z</time>
      </trkpt>
      <trkpt lat="43.3983" lon="6.64309">
        <ele>185</ele>
        <time>2016-10-08T11:54:01Z</time>
      </trkpt>
      <trkpt lat="43.39838" lon="6.64308">
        <ele>190</ele>
        <time>2016-10-08T11:54:02Z</time>
      </trkpt>
      <trkpt lat="43.39845" lon="6.64306">
        <ele>190</ele>
        <time>2016-10-08T11:54:03Z</time>
      </trkpt>
      <trkpt lat="43.39856" lon="6.64296">
        <ele>189</ele>
        <time>2016-10-08T11:54:05Z</time>
      </trkpt>
      <trkpt lat="43.39858" lon="6.64288">
        <ele>188</ele>
        <time>2016-10-08T11:54:06Z</time>
      </trkpt>
      <trkpt lat="43.3986" lon="6.6427">
        <ele>186</ele>
        <time>2016-10-08T11:54:08Z</time>
      </trkpt>
      <trkpt lat="43.39863" lon="6.64261">
        <ele>186</ele>
        <time>2016-10-08T11:54:09Z</time>
      </trkpt>
      <trkpt lat="43.3988" lon="6.64235">
        <ele>179</ele>
        <time>2016-10-08T11:54:13Z</time>
      </trkpt>
      <trkpt lat="43.39893" lon="6.64223">
        <ele>179</ele>
        <time>2016-10-08T11:54:16Z</time>
      </trkpt>
      <trkpt lat="43.39904" lon="6.64217">
        <ele>180</ele>
        <time>2016-10-08T11:54:19Z</time>
      </trkpt>
      <trkpt lat="43.39913" lon="6.64215">
        <ele>180</ele>
        <time>2016-10-08T11:54:22Z</time>
      </trkpt>
      <trkpt lat="43.39919" lon="6.64214">
        <ele>188</ele>
        <time>2016-10-08T11:54:24Z</time>
      </trkpt>
      <trkpt lat="43.39929" lon="6.64215">
        <ele>188</ele>
        <time>2016-10-08T11:54:27Z</time>
      </trkpt>
      <trkpt lat="43.39939" lon="6.64218">
        <ele>188</ele>
        <time>2016-10-08T11:54:30Z</time>
      </trkpt>
      <trkpt lat="43.39961" lon="6.64219">
        <ele>190</ele>
        <time>2016-10-08T11:54:38Z</time>
      </trkpt>
      <trkpt lat="43.39975" lon="6.64218">
        <ele>190</ele>
        <time>2016-10-08T11:54:43Z</time>
      </trkpt>
      <trkpt lat="43.3999" lon="6.64214">
        <ele>191</ele>
        <time>2016-10-08T11:54:48Z</time>
      </trkpt>
      <trkpt lat="43.39999" lon="6.64211">
        <ele>191</ele>
        <time>2016-10-08T11:54:51Z</time>
      </trkpt>
      <trkpt lat="43.4003" lon="6.64198">
        <ele>193</ele>
        <time>2016-10-08T11:55:03Z</time>
      </trkpt>
      <trkpt lat="43.40032" lon="6.64196">
        <ele>193</ele>
        <time>2016-10-08T11:55:04Z</time>
      </trkpt>
      <trkpt lat="43.40035" lon="6.6419">
        <ele>193</ele>
        <time>2016-10-08T11:55:07Z</time>
      </trkpt>
      <trkpt lat="43.40041" lon="6.6418">
        <ele>193</ele>
        <time>2016-10-08T11:55:14Z</time>
      </trkpt>
      <trkpt lat="43.40042" lon="6.64173">
        <ele>192</ele>
        <time>2016-10-08T11:55:18Z</time>
      </trkpt>
      <trkpt lat="43.40043" lon="6.64166">
        <ele>191</ele>
        <time>2016-10-08T11:59:46Z</time>
      </trkpt>
      <trkpt lat="43.40041" lon="6.64156">
        <ele>191</ele>
        <time>2016-10-08T11:59:50Z</time>
      </trkpt>
      <trkpt lat="43.40028" lon="6.6415">
        <ele>191</ele>
        <time>2016-10-08T11:59:53Z</time>
      </trkpt>
      <trkpt lat="43.40001" lon="6.6414">
        <ele>191</ele>
        <time>2016-10-08T11:59:58Z</time>
      </trkpt>
      <trkpt lat="43.39996" lon="6.64137">
        <ele>189</ele>
        <time>2016-10-08T11:59:59Z</time>
      </trkpt>
      <trkpt lat="43.39989" lon="6.64134">
        <ele>188</ele>
        <time>2016-10-08T12:00:00Z</time>
      </trkpt>
      <trkpt lat="43.39975" lon="6.64127">
        <ele>188</ele>
        <time>2016-10-08T12:00:02Z</time>
      </trkpt>
      <trkpt lat="43.39969" lon="6.64122">
        <ele>188</ele>
        <time>2016-10-08T12:00:03Z</time>
      </trkpt>
      <trkpt lat="43.39956" lon="6.64107">
        <ele>188</ele>
        <time>2016-10-08T12:00:05Z</time>
      </trkpt>
      <trkpt lat="43.39949" lon="6.64099">
        <ele>187</ele>
        <time>2016-10-08T12:00:06Z</time>
      </trkpt>
      <trkpt lat="43.39941" lon="6.64094">
        <ele>186</ele>
        <time>2016-10-08T12:00:07Z</time>
      </trkpt>
      <trkpt lat="43.39925" lon="6.64085">
        <ele>185</ele>
        <time>2016-10-08T12:00:09Z</time>
      </trkpt>
      <trkpt lat="43.39918" lon="6.64079">
        <ele>187</ele>
        <time>2016-10-08T12:00:10Z</time>
      </trkpt>
      <trkpt lat="43.39889" lon="6.64048">
        <ele>190</ele>
        <time>2016-10-08T12:00:15Z</time>
      </trkpt>
      <trkpt lat="43.39873" lon="6.64048">
        <ele>190</ele>
        <time>2016-10-08T12:00:17Z</time>
      </trkpt>
      <trkpt lat="43.3986" lon="6.64055">
        <ele>188</ele>
        <time>2016-10-08T12:00:19Z</time>
      </trkpt>
      <trkpt lat="43.39856" lon="6.6406">
        <ele>187</ele>
        <time>2016-10-08T12:00:20Z</time>
      </trkpt>
      <trkpt lat="43.39832" lon="6.64068">
        <ele>183</ele>
        <time>2016-10-08T12:00:25Z</time>
      </trkpt>
      <trkpt lat="43.39805" lon="6.64067">
        <ele>185</ele>
        <time>2016-10-08T12:00:31Z</time>
      </trkpt>
      <trkpt lat="43.39787" lon="6.64065">
        <ele>186</ele>
        <time>2016-10-08T12:00:35Z</time>
      </trkpt>
      <trkpt lat="43.39782" lon="6.64063">
        <ele>186</ele>
        <time>2016-10-08T12:00:36Z</time>
      </trkpt>
      <trkpt lat="43.39768" lon="6.6407">
        <ele>184</ele>
        <time>2016-10-08T12:00:41Z</time>
      </trkpt>
      <trkpt lat="43.39769" lon="6.64075">
        <ele>183</ele>
        <time>2016-10-08T12:00:42Z</time>
      </trkpt>
      <trkpt lat="43.3978" lon="6.64086">
        <ele>173</ele>
        <time>2016-10-08T12:00:44Z</time>
      </trkpt>
      <trkpt lat="43.39785" lon="6.6409">
        <ele>172</ele>
        <time>2016-10-08T12:00:45Z</time>
      </trkpt>
      <trkpt lat="43.39792" lon="6.64093">
        <ele>172</ele>
        <time>2016-10-08T12:00:46Z</time>
      </trkpt>
      <trkpt lat="43.39798" lon="6.64094">
        <ele>172</ele>
        <time>2016-10-08T12:00:47Z</time>
      </trkpt>
      <trkpt lat="43.39805" lon="6.64096">
        <ele>172</ele>
        <time>2016-10-08T12:00:48Z</time>
      </trkpt>
      <trkpt lat="43.39811" lon="6.641">
        <ele>172</ele>
        <time>2016-10-08T12:00:49Z</time>
      </trkpt>
      <trkpt lat="43.39819" lon="6.64107">
        <ele>172</ele>
        <time>2016-10-08T12:00:50Z</time>
      </trkpt>
      <trkpt lat="43.39825" lon="6.64114">
        <ele>171</ele>
        <time>2016-10-08T12:00:51Z</time>
      </trkpt>
      <trkpt lat="43.39829" lon="6.64122">
        <ele>171</ele>
        <time>2016-10-08T12:00:52Z</time>
      </trkpt>
      <trkpt lat="43.39828" lon="6.64131">
        <ele>170</ele>
        <time>2016-10-08T12:00:53Z</time>
      </trkpt>
      <trkpt lat="43.39825" lon="6.64139">
        <ele>169</ele>
        <time>2016-10-08T12:00:54Z</time>
      </trkpt>
      <trkpt lat="43.3982" lon="6.64145">
        <ele>168</ele>
        <time>2016-10-08T12:00:55Z</time>
      </trkpt>
      <trkpt lat="43.39814" lon="6.64148">
        <ele>168</ele>
        <time>2016-10-08T12:00:56Z</time>
      </trkpt>
      <trkpt lat="43.39807" lon="6.64149">
        <ele>168</ele>
        <time>2016-10-08T12:00:57Z</time>
      </trkpt>
      <trkpt lat="43.39781" lon="6.6415">
        <ele>167</ele>
        <time>2016-10-08T12:01:00Z</time>
      </trkpt>
      <trkpt lat="43.39772" lon="6.64149">
        <ele>167</ele>
        <time>2016-10-08T12:01:01Z</time>
      </trkpt>
      <trkpt lat="43.39733" lon="6.6414">
        <ele>165</ele>
        <time>2016-10-08T12:01:06Z</time>
      </trkpt>
      <trkpt lat="43.3971" lon="6.64139">
        <ele>165</ele>
        <time>2016-10-08T12:01:09Z</time>
      </trkpt>
      <trkpt lat="43.39695" lon="6.64137">
        <ele>165</ele>
        <time>2016-10-08T12:01:11Z</time>
      </trkpt>
      <trkpt lat="43.39688" lon="6.64135">
        <ele>164</ele>
        <time>2016-10-08T12:01:12Z</time>
      </trkpt>
      <trkpt lat="43.39681" lon="6.64131">
        <ele>165</ele>
        <time>2016-10-08T12:01:13Z</time>
      </trkpt>
      <trkpt lat="43.39668" lon="6.64123">
        <ele>166</ele>
        <time>2016-10-08T12:01:15Z</time>
      </trkpt>
      <trkpt lat="43.39662" lon="6.64122">
        <ele>163</ele>
        <time>2016-10-08T12:01:16Z</time>
      </trkpt>
      <trkpt lat="43.39648" lon="6.64125">
        <ele>163</ele>
        <time>2016-10-08T12:01:18Z</time>
      </trkpt>
      <trkpt lat="43.39642" lon="6.6413">
        <ele>162</ele>
        <time>2016-10-08T12:01:19Z</time>
      </trkpt>
      <trkpt lat="43.39619" lon="6.64141">
        <ele>161</ele>
        <time>2016-10-08T12:01:22Z</time>
      </trkpt>
      <trkpt lat="43.39597" lon="6.64149">
        <ele>159</ele>
        <time>2016-10-08T12:01:25Z</time>
      </trkpt>
      <trkpt lat="43.39584" lon="6.64156">
        <ele>157</ele>
        <time>2016-10-08T12:01:27Z</time>
      </trkpt>
      <trkpt lat="43.39563" lon="6.64165">
        <ele>155</ele>
        <time>2016-10-08T12:01:30Z</time>
      </trkpt>
      <trkpt lat="43.39556" lon="6.6417">
        <ele>149</ele>
        <time>2016-10-08T12:01:31Z</time>
      </trkpt>
      <trkpt lat="43.39534" lon="6.64194">
        <ele>147</ele>
        <time>2016-10-08T12:01:35Z</time>
      </trkpt>
      <trkpt lat="43.39529" lon="6.64197">
        <ele>147</ele>
        <time>2016-10-08T12:01:36Z</time>
      </trkpt>
      <trkpt lat="43.39524" lon="6.64197">
        <ele>147</ele>
        <time>2016-10-08T12:01:37Z</time>
      </trkpt>
      <trkpt lat="43.39521" lon="6.64193">
        <ele>147</ele>
        <time>2016-10-08T12:01:38Z</time>
      </trkpt>
      <trkpt lat="43.39505" lon="6.64153">
        <ele>151</ele>
        <time>2016-10-08T12:01:44Z</time>
      </trkpt>
      <trkpt lat="43.395" lon="6.64147">
        <ele>152</ele>
        <time>2016-10-08T12:01:45Z</time>
      </trkpt>
      <trkpt lat="43.39495" lon="6.64141">
        <ele>154</ele>
        <time>2016-10-08T12:01:46Z</time>
      </trkpt>
      <trkpt lat="43.3949" lon="6.64138">
        <ele>154</ele>
        <time>2016-10-08T12:01:47Z</time>
      </trkpt>
      <trkpt lat="43.3948" lon="6.6414">
        <ele>155</ele>
        <time>2016-10-08T12:01:51Z</time>
      </trkpt>
      <trkpt lat="43.39473" lon="6.64149">
        <ele>155</ele>
        <time>2016-10-08T12:01:57Z</time>
      </trkpt>
      <trkpt lat="43.39472" lon="6.64151">
        <ele>154</ele>
        <time>2016-10-08T12:01:58Z</time>
      </trkpt>
      <trkpt lat="43.39471" lon="6.6416">
        <ele>154</ele>
        <time>2016-10-08T12:02:01Z</time>
      </trkpt>
      <trkpt lat="43.39471" lon="6.64167">
        <ele>154</ele>
        <time>2016-10-08T12:02:03Z</time>
      </trkpt>
      <trkpt lat="43.3947" lon="6.64175">
        <ele>148</ele>
        <time>2016-10-08T12:02:05Z</time>
      </trkpt>
      <trkpt lat="43.39462" lon="6.64198">
        <ele>147</ele>
        <time>2016-10-08T12:02:10Z</time>
      </trkpt>
      <trkpt lat="43.39445" lon="6.64212">
        <ele>147</ele>
        <time>2016-10-08T12:02:14Z</time>
      </trkpt>
      <trkpt lat="43.39441" lon="6.64214">
        <ele>147</ele>
        <time>2016-10-08T12:02:15Z</time>
      </trkpt>
      <trkpt lat="43.39411" lon="6.64223">
        <ele>150</ele>
        <time>2016-10-08T12:02:22Z</time>
      </trkpt>
      <trkpt lat="43.39377" lon="6.64244">
        <ele>151</ele>
        <time>2016-10-08T12:02:27Z</time>
      </trkpt>
      <trkpt lat="43.39354" lon="6.64256">
        <ele>143</ele>
        <time>2016-10-08T12:02:30Z</time>
      </trkpt>
      <trkpt lat="43.39347" lon="6.64261">
        <ele>143</ele>
        <time>2016-10-08T12:02:31Z</time>
      </trkpt>
      <trkpt lat="43.39343" lon="6.64268">
        <ele>142</ele>
        <time>2016-10-08T12:02:32Z</time>
      </trkpt>
      <trkpt lat="43.3934" lon="6.64285">
        <ele>140</ele>
        <time>2016-10-08T12:02:34Z</time>
      </trkpt>
      <trkpt lat="43.39337" lon="6.64295">
        <ele>139</ele>
        <time>2016-10-08T12:02:35Z</time>
      </trkpt>
      <trkpt lat="43.39332" lon="6.64304">
        <ele>138</ele>
        <time>2016-10-08T12:02:36Z</time>
      </trkpt>
      <trkpt lat="43.39319" lon="6.64317">
        <ele>136</ele>
        <time>2016-10-08T12:02:38Z</time>
      </trkpt>
      <trkpt lat="43.39304" lon="6.64326">
        <ele>137</ele>
        <time>2016-10-08T12:02:40Z</time>
      </trkpt>
      <trkpt lat="43.39295" lon="6.64328">
        <ele>137</ele>
        <time>2016-10-08T12:02:41Z</time>
      </trkpt>
      <trkpt lat="43.39281" lon="6.64334">
        <ele>134</ele>
        <time>2016-10-08T12:02:43Z</time>
      </trkpt>
      <trkpt lat="43.39275" lon="6.64339">
        <ele>134</ele>
        <time>2016-10-08T12:02:44Z</time>
      </trkpt>
      <trkpt lat="43.3927" lon="6.64344">
        <ele>134</ele>
        <time>2016-10-08T12:02:45Z</time>
      </trkpt>
      <trkpt lat="43.39267" lon="6.64351">
        <ele>134</ele>
        <time>2016-10-08T12:02:46Z</time>
      </trkpt>
      <trkpt lat="43.39267" lon="6.64359">
        <ele>134</ele>
        <time>2016-10-08T12:02:47Z</time>
      </trkpt>
      <trkpt lat="43.39265" lon="6.64368">
        <ele>135</ele>
        <time>2016-10-08T12:02:48Z</time>
      </trkpt>
      <trkpt lat="43.39261" lon="6.64384">
        <ele>135</ele>
        <time>2016-10-08T12:02:50Z</time>
      </trkpt>
      <trkpt lat="43.39258" lon="6.64389">
        <ele>136</ele>
        <time>2016-10-08T12:02:51Z</time>
      </trkpt>
      <trkpt lat="43.39244" lon="6.64397">
        <ele>135</ele>
        <time>2016-10-08T12:02:54Z</time>
      </trkpt>
      <trkpt lat="43.39238" lon="6.64397">
        <ele>135</ele>
        <time>2016-10-08T12:02:55Z</time>
      </trkpt>
      <trkpt lat="43.39227" lon="6.64397">
        <ele>134</ele>
        <time>2016-10-08T12:02:57Z</time>
      </trkpt>
      <trkpt lat="43.39222" lon="6.64396">
        <ele>134</ele>
        <time>2016-10-08T12:02:58Z</time>
      </trkpt>
      <trkpt lat="43.39195" lon="6.64396">
        <ele>133</ele>
        <time>2016-10-08T12:03:02Z</time>
      </trkpt>
      <trkpt lat="43.39171" lon="6.64409">
        <ele>132</ele>
        <time>2016-10-08T12:03:06Z</time>
      </trkpt>
      <trkpt lat="43.39135" lon="6.64423">
        <ele>135</ele>
        <time>2016-10-08T12:03:14Z</time>
      </trkpt>
      <trkpt lat="43.39097" lon="6.6444">
        <ele>134</ele>
        <time>2016-10-08T12:03:24Z</time>
      </trkpt>
      <trkpt lat="43.39089" lon="6.64444">
        <ele>134</ele>
        <time>2016-10-08T12:03:26Z</time>
      </trkpt>
      <trkpt lat="43.39062" lon="6.64463">
        <ele>132</ele>
        <time>2016-10-08T12:03:33Z</time>
      </trkpt>
      <trkpt lat="43.39031" lon="6.6449">
        <ele>132</ele>
        <time>2016-10-08T12:03:42Z</time>
      </trkpt>
      <trkpt lat="43.39012" lon="6.64508">
        <ele>137</ele>
        <time>2016-10-08T12:03:48Z</time>
      </trkpt>
      <trkpt lat="43.39003" lon="6.64514">
        <ele>137</ele>
        <time>2016-10-08T12:03:50Z</time>
      </trkpt>
      <trkpt lat="43.38988" lon="6.64521">
        <ele>129</ele>
        <time>2016-10-08T12:03:53Z</time>
      </trkpt>
      <trkpt lat="43.38972" lon="6.64533">
        <ele>128</ele>
        <time>2016-10-08T12:03:56Z</time>
      </trkpt>
      <trkpt lat="43.38969" lon="6.64539">
        <ele>128</ele>
        <time>2016-10-08T12:03:57Z</time>
      </trkpt>
      <trkpt lat="43.38966" lon="6.64545">
        <ele>128</ele>
        <time>2016-10-08T12:03:58Z</time>
      </trkpt>
      <trkpt lat="43.38964" lon="6.64553">
        <ele>128</ele>
        <time>2016-10-08T12:03:59Z</time>
      </trkpt>
      <trkpt lat="43.38962" lon="6.64566">
        <ele>128</ele>
        <time>2016-10-08T12:04:01Z</time>
      </trkpt>
      <trkpt lat="43.38962" lon="6.64583">
        <ele>129</ele>
        <time>2016-10-08T12:04:04Z</time>
      </trkpt>
      <trkpt lat="43.3896" lon="6.64605">
        <ele>138</ele>
        <time>2016-10-08T12:04:08Z</time>
      </trkpt>
      <trkpt lat="43.38957" lon="6.64624">
        <ele>140</ele>
        <time>2016-10-08T12:04:11Z</time>
      </trkpt>
      <trkpt lat="43.38952" lon="6.6464">
        <ele>140</ele>
        <time>2016-10-08T12:04:13Z</time>
      </trkpt>
      <trkpt lat="43.38947" lon="6.64647">
        <ele>140</ele>
        <time>2016-10-08T12:04:14Z</time>
      </trkpt>
      <trkpt lat="43.38942" lon="6.64651">
        <ele>139</ele>
        <time>2016-10-08T12:04:15Z</time>
      </trkpt>
      <trkpt lat="43.38928" lon="6.64656">
        <ele>137</ele>
        <time>2016-10-08T12:04:17Z</time>
      </trkpt>
      <trkpt lat="43.38904" lon="6.64669">
        <ele>137</ele>
        <time>2016-10-08T12:04:21Z</time>
      </trkpt>
      <trkpt lat="43.38883" lon="6.64685">
        <ele>138</ele>
        <time>2016-10-08T12:04:25Z</time>
      </trkpt>
      <trkpt lat="43.38872" lon="6.64694">
        <ele>138</ele>
        <time>2016-10-08T12:04:27Z</time>
      </trkpt>
      <trkpt lat="43.38862" lon="6.64704">
        <ele>139</ele>
        <time>2016-10-08T12:04:29Z</time>
      </trkpt>
      <trkpt lat="43.38836" lon="6.64705">
        <ele>137</ele>
        <time>2016-10-08T12:04:34Z</time>
      </trkpt>
      <trkpt lat="43.38806" lon="6.64703">
        <ele>128</ele>
        <time>2016-10-08T12:04:40Z</time>
      </trkpt>
      <trkpt lat="43.38796" lon="6.64704">
        <ele>127</ele>
        <time>2016-10-08T12:04:42Z</time>
      </trkpt>
      <trkpt lat="43.38783" lon="6.64707">
        <ele>127</ele>
        <time>2016-10-08T12:04:45Z</time>
      </trkpt>
      <trkpt lat="43.38776" lon="6.64712">
        <ele>127</ele>
        <time>2016-10-08T12:04:47Z</time>
      </trkpt>
      <trkpt lat="43.3877" lon="6.64722">
        <ele>127</ele>
        <time>2016-10-08T12:04:50Z</time>
      </trkpt>
      <trkpt lat="43.38767" lon="6.64731">
        <ele>128</ele>
        <time>2016-10-08T12:04:53Z</time>
      </trkpt>
      <trkpt lat="43.38765" lon="6.64742">
        <ele>128</ele>
        <time>2016-10-08T12:04:57Z</time>
      </trkpt>
      <trkpt lat="43.38766" lon="6.64751">
        <ele>135</ele>
        <time>2016-10-08T12:05:01Z</time>
      </trkpt>
      <trkpt lat="43.38768" lon="6.64762">
        <ele>137</ele>
        <time>2016-10-08T12:05:05Z</time>
      </trkpt>
      <trkpt lat="43.38767" lon="6.64781">
        <ele>140</ele>
        <time>2016-10-08T12:05:09Z</time>
      </trkpt>
      <trkpt lat="43.38758" lon="6.64815">
        <ele>142</ele>
        <time>2016-10-08T12:05:14Z</time>
      </trkpt>
      <trkpt lat="43.38755" lon="6.64822">
        <ele>142</ele>
        <time>2016-10-08T12:05:15Z</time>
      </trkpt>
      <trkpt lat="43.38738" lon="6.64841">
        <ele>139</ele>
        <time>2016-10-08T12:05:19Z</time>
      </trkpt>
      <trkpt lat="43.38701" lon="6.64853">
        <ele>135</ele>
        <time>2016-10-08T12:05:24Z</time>
      </trkpt>
      <trkpt lat="43.38675" lon="6.64856">
        <ele>130</ele>
        <time>2016-10-08T12:05:27Z</time>
      </trkpt>
      <trkpt lat="43.38667" lon="6.64857">
        <ele>130</ele>
        <time>2016-10-08T12:05:28Z</time>
      </trkpt>
      <trkpt lat="43.38659" lon="6.64861">
        <ele>117</ele>
        <time>2016-10-08T12:05:29Z</time>
      </trkpt>
      <trkpt lat="43.38637" lon="6.64875">
        <ele>117</ele>
        <time>2016-10-08T12:05:32Z</time>
      </trkpt>
      <trkpt lat="43.38621" lon="6.64884">
        <ele>116</ele>
        <time>2016-10-08T12:05:34Z</time>
      </trkpt>
      <trkpt lat="43.38613" lon="6.64888">
        <ele>116</ele>
        <time>2016-10-08T12:05:35Z</time>
      </trkpt>
      <trkpt lat="43.38591" lon="6.64908">
        <ele>114</ele>
        <time>2016-10-08T12:05:39Z</time>
      </trkpt>
      <trkpt lat="43.38584" lon="6.64916">
        <ele>113</ele>
        <time>2016-10-08T12:05:41Z</time>
      </trkpt>
      <trkpt lat="43.38583" lon="6.64921">
        <ele>111</ele>
        <time>2016-10-08T12:05:42Z</time>
      </trkpt>
      <trkpt lat="43.38584" lon="6.64957">
        <ele>122</ele>
        <time>2016-10-08T12:05:46Z</time>
      </trkpt>
      <trkpt lat="43.38583" lon="6.6498">
        <ele>120</ele>
        <time>2016-10-08T12:05:48Z</time>
      </trkpt>
      <trkpt lat="43.38584" lon="6.64992">
        <ele>116</ele>
        <time>2016-10-08T12:05:49Z</time>
      </trkpt>
      <trkpt lat="43.38586" lon="6.65015">
        <ele>118</ele>
        <time>2016-10-08T12:05:51Z</time>
      </trkpt>
      <trkpt lat="43.38588" lon="6.65051">
        <ele>121</ele>
        <time>2016-10-08T12:05:55Z</time>
      </trkpt>
      <trkpt lat="43.38588" lon="6.65059">
        <ele>120</ele>
        <time>2016-10-08T12:05:56Z</time>
      </trkpt>
      <trkpt lat="43.38586" lon="6.65068">
        <ele>118</ele>
        <time>2016-10-08T12:05:57Z</time>
      </trkpt>
      <trkpt lat="43.38583" lon="6.65076">
        <ele>114</ele>
        <time>2016-10-08T12:05:58Z</time>
      </trkpt>
      <trkpt lat="43.38579" lon="6.65084">
        <ele>108</ele>
        <time>2016-10-08T12:05:59Z</time>
      </trkpt>
      <trkpt lat="43.38573" lon="6.65089">
        <ele>106</ele>
        <time>2016-10-08T12:06:00Z</time>
      </trkpt>
      <trkpt lat="43.38555" lon="6.65102">
        <ele>102</ele>
        <time>2016-10-08T12:06:03Z</time>
      </trkpt>
      <trkpt lat="43.3855" lon="6.65109">
        <ele>101</ele>
        <time>2016-10-08T12:06:04Z</time>
      </trkpt>
      <trkpt lat="43.38537" lon="6.65132">
        <ele>100</ele>
        <time>2016-10-08T12:06:07Z</time>
      </trkpt>
      <trkpt lat="43.38529" lon="6.65151">
        <ele>99</ele>
        <time>2016-10-08T12:06:09Z</time>
      </trkpt>
      <trkpt lat="43.38525" lon="6.65159">
        <ele>98</ele>
        <time>2016-10-08T12:06:10Z</time>
      </trkpt>
      <trkpt lat="43.38505" lon="6.65179">
        <ele>95</ele>
        <time>2016-10-08T12:06:13Z</time>
      </trkpt>
      <trkpt lat="43.38499" lon="6.65186">
        <ele>84</ele>
        <time>2016-10-08T12:06:14Z</time>
      </trkpt>
      <trkpt lat="43.38494" lon="6.65193">
        <ele>82</ele>
        <time>2016-10-08T12:06:15Z</time>
      </trkpt>
      <trkpt lat="43.38491" lon="6.65203">
        <ele>81</ele>
        <time>2016-10-08T12:06:16Z</time>
      </trkpt>
      <trkpt lat="43.38489" lon="6.65213">
        <ele>80</ele>
        <time>2016-10-08T12:06:17Z</time>
      </trkpt>
      <trkpt lat="43.38489" lon="6.65224">
        <ele>81</ele>
        <time>2016-10-08T12:06:18Z</time>
      </trkpt>
      <trkpt lat="43.38489" lon="6.65234">
        <ele>82</ele>
        <time>2016-10-08T12:06:19Z</time>
      </trkpt>
      <trkpt lat="43.3849" lon="6.65256">
        <ele>82</ele>
        <time>2016-10-08T12:06:21Z</time>
      </trkpt>
      <trkpt lat="43.3849" lon="6.65268">
        <ele>78</ele>
        <time>2016-10-08T12:06:22Z</time>
      </trkpt>
      <trkpt lat="43.38483" lon="6.65297">
        <ele>73</ele>
        <time>2016-10-08T12:06:25Z</time>
      </trkpt>
      <trkpt lat="43.38483" lon="6.65305">
        <ele>72</ele>
        <time>2016-10-08T12:06:26Z</time>
      </trkpt>
      <trkpt lat="43.38484" lon="6.65346">
        <ele>68</ele>
        <time>2016-10-08T12:06:31Z</time>
      </trkpt>
      <trkpt lat="43.38486" lon="6.65354">
        <ele>66</ele>
        <time>2016-10-08T12:06:32Z</time>
      </trkpt>
      <trkpt lat="43.38488" lon="6.65361">
        <ele>66</ele>
        <time>2016-10-08T12:06:33Z</time>
      </trkpt>
      <trkpt lat="43.38491" lon="6.65367">
        <ele>65</ele>
        <time>2016-10-08T12:06:34Z</time>
      </trkpt>
      <trkpt lat="43.38497" lon="6.65372">
        <ele>65</ele>
        <time>2016-10-08T12:06:35Z</time>
      </trkpt>
      <trkpt lat="43.3851" lon="6.65383">
        <ele>75</ele>
        <time>2016-10-08T12:06:37Z</time>
      </trkpt>
      <trkpt lat="43.38515" lon="6.65389">
        <ele>74</ele>
        <time>2016-10-08T12:06:38Z</time>
      </trkpt>
      <trkpt lat="43.38517" lon="6.65394">
        <ele>74</ele>
        <time>2016-10-08T12:06:39Z</time>
      </trkpt>
      <trkpt lat="43.38517" lon="6.65397">
        <ele>73</ele>
        <time>2016-10-08T12:06:40Z</time>
      </trkpt>
      <trkpt lat="43.38513" lon="6.65399">
        <ele>73</ele>
        <time>2016-10-08T12:06:41Z</time>
      </trkpt>
      <trkpt lat="43.3851" lon="6.65399">
        <ele>72</ele>
        <time>2016-10-08T12:06:42Z</time>
      </trkpt>
      <trkpt lat="43.38495" lon="6.65386">
        <ele>63</ele>
        <time>2016-10-08T12:06:46Z</time>
      </trkpt>
      <trkpt lat="43.38473" lon="6.65362">
        <ele>63</ele>
        <time>2016-10-08T12:06:51Z</time>
      </trkpt>
      <trkpt lat="43.38462" lon="6.65337">
        <ele>63</ele>
        <time>2016-10-08T12:06:54Z</time>
      </trkpt>
      <trkpt lat="43.38456" lon="6.65318">
        <ele>67</ele>
        <time>2016-10-08T12:06:56Z</time>
      </trkpt>
      <trkpt lat="43.3845" lon="6.65297">
        <ele>68</ele>
        <time>2016-10-08T12:06:58Z</time>
      </trkpt>
      <trkpt lat="43.38446" lon="6.65276">
        <ele>68</ele>
        <time>2016-10-08T12:07:00Z</time>
      </trkpt>
      <trkpt lat="43.38443" lon="6.65267">
        <ele>68</ele>
        <time>2016-10-08T12:07:01Z</time>
      </trkpt>
      <trkpt lat="43.38436" lon="6.6525">
        <ele>66</ele>
        <time>2016-10-08T12:07:03Z</time>
      </trkpt>
      <trkpt lat="43.38432" lon="6.65234">
        <ele>69</ele>
        <time>2016-10-08T12:07:05Z</time>
      </trkpt>
      <trkpt lat="43.38431" lon="6.65226">
        <ele>70</ele>
        <time>2016-10-08T12:07:06Z</time>
      </trkpt>
      <trkpt lat="43.38429" lon="6.65192">
        <ele>71</ele>
        <time>2016-10-08T12:07:10Z</time>
      </trkpt>
      <trkpt lat="43.3842" lon="6.65143">
        <ele>70</ele>
        <time>2016-10-08T12:07:15Z</time>
      </trkpt>
      <trkpt lat="43.38419" lon="6.65122">
        <ele>70</ele>
        <time>2016-10-08T12:07:17Z</time>
      </trkpt>
      <trkpt lat="43.38421" lon="6.65099">
        <ele>68</ele>
        <time>2016-10-08T12:07:19Z</time>
      </trkpt>
      <trkpt lat="43.3842" lon="6.65087">
        <ele>64</ele>
        <time>2016-10-08T12:07:20Z</time>
      </trkpt>
      <trkpt lat="43.38418" lon="6.65076">
        <ele>65</ele>
        <time>2016-10-08T12:07:21Z</time>
      </trkpt>
      <trkpt lat="43.3841" lon="6.65057">
        <ele>64</ele>
        <time>2016-10-08T12:07:23Z</time>
      </trkpt>
      <trkpt lat="43.38407" lon="6.65048">
        <ele>64</ele>
        <time>2016-10-08T12:07:24Z</time>
      </trkpt>
      <trkpt lat="43.38402" lon="6.65028">
        <ele>65</ele>
        <time>2016-10-08T12:07:26Z</time>
      </trkpt>
      <trkpt lat="43.38399" lon="6.6502">
        <ele>65</ele>
        <time>2016-10-08T12:07:27Z</time>
      </trkpt>
      <trkpt lat="43.38395" lon="6.65013">
        <ele>65</ele>
        <time>2016-10-08T12:07:28Z</time>
      </trkpt>
      <trkpt lat="43.38386" lon="6.65">
        <ele>65</ele>
        <time>2016-10-08T12:07:30Z</time>
      </trkpt>
      <trkpt lat="43.38368" lon="6.64977">
        <ele>64</ele>
        <time>2016-10-08T12:07:34Z</time>
      </trkpt>
      <trkpt lat="43.38357" lon="6.64941">
        <ele>63</ele>
        <time>2016-10-08T12:07:38Z</time>
      </trkpt>
      <trkpt lat="43.38356" lon="6.6493">
        <ele>63</ele>
        <time>2016-10-08T12:07:39Z</time>
      </trkpt>
      <trkpt lat="43.38353" lon="6.64921">
        <ele>62</ele>
        <time>2016-10-08T12:07:40Z</time>
      </trkpt>
      <trkpt lat="43.38347" lon="6.64915">
        <ele>61</ele>
        <time>2016-10-08T12:07:41Z</time>
      </trkpt>
      <trkpt lat="43.38341" lon="6.64911">
        <ele>60</ele>
        <time>2016-10-08T12:07:42Z</time>
      </trkpt>
      <trkpt lat="43.38329" lon="6.64906">
        <ele>61</ele>
        <time>2016-10-08T12:07:44Z</time>
      </trkpt>
      <trkpt lat="43.38325" lon="6.64902">
        <ele>62</ele>
        <time>2016-10-08T12:07:45Z</time>
      </trkpt>
      <trkpt lat="43.38317" lon="6.64884">
        <ele>64</ele>
        <time>2016-10-08T12:07:48Z</time>
      </trkpt>
      <trkpt lat="43.38313" lon="6.64873">
        <ele>65</ele>
        <time>2016-10-08T12:07:50Z</time>
      </trkpt>
      <trkpt lat="43.38312" lon="6.64857">
        <ele>64</ele>
        <time>2016-10-08T12:07:53Z</time>
      </trkpt>
      <trkpt lat="43.38306" lon="6.6482">
        <ele>66</ele>
        <time>2016-10-08T12:07:58Z</time>
      </trkpt>
      <trkpt lat="43.38301" lon="6.6481">
        <ele>67</ele>
        <time>2016-10-08T12:08:01Z</time>
      </trkpt>
      <trkpt lat="43.38288" lon="6.64805">
        <ele>68</ele>
        <time>2016-10-08T12:08:11Z</time>
      </trkpt>
      <trkpt lat="43.3828" lon="6.64797">
        <ele>69</ele>
        <time>2016-10-08T12:08:35Z</time>
      </trkpt>
      <trkpt lat="43.38278" lon="6.64794">
        <ele>69</ele>
        <time>2016-10-08T12:08:36Z</time>
      </trkpt>
      <trkpt lat="43.38265" lon="6.64785">
        <ele>70</ele>
        <time>2016-10-08T12:08:41Z</time>
      </trkpt>
      <trkpt lat="43.38259" lon="6.64782">
        <ele>70</ele>
        <time>2016-10-08T12:08:43Z</time>
      </trkpt>
      <trkpt lat="43.38224" lon="6.64773">
        <ele>74</ele>
        <time>2016-10-08T12:08:54Z</time>
      </trkpt>
      <trkpt lat="43.38209" lon="6.64771">
        <ele>75</ele>
        <time>2016-10-08T12:09:05Z</time>
      </trkpt>
      <trkpt lat="43.38195" lon="6.64766">
        <ele>75</ele>
        <time>2016-10-08T12:09:18Z</time>
      </trkpt>
      <trkpt lat="43.38192" lon="6.64767">
        <ele>75</ele>
        <time>2016-10-08T12:09:22Z</time>
      </trkpt>
      <trkpt lat="43.3811" lon="6.64754">
        <ele>79</ele>
        <time>2016-10-08T12:10:59Z</time>
      </trkpt>
      <trkpt lat="43.38108" lon="6.64754">
        <ele>79</ele>
        <time>2016-10-08T12:11:00Z</time>
      </trkpt>
      <trkpt lat="43.38098" lon="6.64752">
        <ele>79</ele>
        <time>2016-10-08T12:11:04Z</time>
      </trkpt>
      <trkpt lat="43.38087" lon="6.64738">
        <ele>78</ele>
        <time>2016-10-08T12:11:09Z</time>
      </trkpt>
      <trkpt lat="43.38085" lon="6.64733">
        <ele>78</ele>
        <time>2016-10-08T12:11:10Z</time>
      </trkpt>
      <trkpt lat="43.3808" lon="6.64719">
        <ele>86</ele>
        <time>2016-10-08T12:11:13Z</time>
      </trkpt>
      <trkpt lat="43.38078" lon="6.64707">
        <ele>86</ele>
        <time>2016-10-08T12:11:15Z</time>
      </trkpt>
      <trkpt lat="43.38079" lon="6.64701">
        <ele>86</ele>
        <time>2016-10-08T12:11:16Z</time>
      </trkpt>
      <trkpt lat="43.38084" lon="6.64668">
        <ele>79</ele>
        <time>2016-10-08T12:11:21Z</time>
      </trkpt>
      <trkpt lat="43.38087" lon="6.64655">
        <ele>80</ele>
        <time>2016-10-08T12:11:23Z</time>
      </trkpt>
      <trkpt lat="43.38094" lon="6.64637">
        <ele>81</ele>
        <time>2016-10-08T12:11:26Z</time>
      </trkpt>
      <trkpt lat="43.38098" lon="6.646">
        <ele>81</ele>
        <time>2016-10-08T12:11:33Z</time>
      </trkpt>
      <trkpt lat="43.38102" lon="6.64587">
        <ele>81</ele>
        <time>2016-10-08T12:11:37Z</time>
      </trkpt>
      <trkpt lat="43.38104" lon="6.64587">
        <ele>81</ele>
        <time>2016-10-08T12:11:40Z</time>
      </trkpt>
      <trkpt lat="43.3811" lon="6.64586">
        <ele>82</ele>
        <time>2016-10-08T12:11:50Z</time>
      </trkpt>
      <trkpt lat="43.38112" lon="6.64586">
        <ele>82</ele>
        <time>2016-10-08T12:11:51Z</time>
      </trkpt>
      <trkpt lat="43.3812" lon="6.64589">
        <ele>82</ele>
        <time>2016-10-08T12:11:56Z</time>
      </trkpt>
      <trkpt lat="43.38129" lon="6.6459">
        <ele>82</ele>
        <time>2016-10-08T12:12:01Z</time>
      </trkpt>
      <trkpt lat="43.38132" lon="6.64586">
        <ele>83</ele>
        <time>2016-10-08T12:12:04Z</time>
      </trkpt>
      <trkpt lat="43.38136" lon="6.64579">
        <ele>83</ele>
        <time>2016-10-08T12:12:07Z</time>
      </trkpt>
      <trkpt lat="43.38138" lon="6.64577">
        <ele>84</ele>
        <time>2016-10-08T12:12:08Z</time>
      </trkpt>
      <trkpt lat="43.38152" lon="6.6457">
        <ele>84</ele>
        <time>2016-10-08T12:12:16Z</time>
      </trkpt>
      <trkpt lat="43.38173" lon="6.64547">
        <ele>89</ele>
        <time>2016-10-08T12:12:34Z</time>
      </trkpt>
      <trkpt lat="43.38174" lon="6.64545">
        <ele>90</ele>
        <time>2016-10-08T12:12:35Z</time>
      </trkpt>
      <trkpt lat="43.38179" lon="6.64526">
        <ele>90</ele>
        <time>2016-10-08T12:12:43Z</time>
      </trkpt>
      <trkpt lat="43.38184" lon="6.64523">
        <ele>90</ele>
        <time>2016-10-08T12:12:47Z</time>
      </trkpt>
      <trkpt lat="43.38186" lon="6.6451">
        <ele>90</ele>
        <time>2016-10-08T12:12:54Z</time>
      </trkpt>
      <trkpt lat="43.38186" lon="6.64504">
        <ele>90</ele>
        <time>2016-10-08T12:12:57Z</time>
      </trkpt>
      <trkpt lat="43.38187" lon="6.645">
        <ele>92</ele>
        <time>2016-10-08T12:12:59Z</time>
      </trkpt>
      <trkpt lat="43.38191" lon="6.64493">
        <ele>92</ele>
        <time>2016-10-08T12:13:03Z</time>
      </trkpt>
      <trkpt lat="43.38195" lon="6.64491">
        <ele>93</ele>
        <time>2016-10-08T12:13:06Z</time>
      </trkpt>
      <trkpt lat="43.38201" lon="6.64493">
        <ele>94</ele>
        <time>2016-10-08T12:13:10Z</time>
      </trkpt>
      <trkpt lat="43.38204" lon="6.64492">
        <ele>94</ele>
        <time>2016-10-08T12:13:12Z</time>
      </trkpt>
      <trkpt lat="43.38205" lon="6.6449">
        <ele>94</ele>
        <time>2016-10-08T12:13:13Z</time>
      </trkpt>
      <trkpt lat="43.38209" lon="6.64464">
        <ele>95</ele>
        <time>2016-10-08T12:13:22Z</time>
      </trkpt>
      <trkpt lat="43.38207" lon="6.64433">
        <ele>95</ele>
        <time>2016-10-08T12:13:29Z</time>
      </trkpt>
      <trkpt lat="43.38204" lon="6.64413">
        <ele>97</ele>
        <time>2016-10-08T12:13:33Z</time>
      </trkpt>
      <trkpt lat="43.38203" lon="6.64402">
        <ele>97</ele>
        <time>2016-10-08T12:13:35Z</time>
      </trkpt>
      <trkpt lat="43.38203" lon="6.64396">
        <ele>97</ele>
        <time>2016-10-08T12:13:36Z</time>
      </trkpt>
      <trkpt lat="43.38205" lon="6.6439">
        <ele>97</ele>
        <time>2016-10-08T12:13:37Z</time>
      </trkpt>
      <trkpt lat="43.38211" lon="6.64375">
        <ele>98</ele>
        <time>2016-10-08T12:13:40Z</time>
      </trkpt>
      <trkpt lat="43.38236" lon="6.64322">
        <ele>102</ele>
        <time>2016-10-08T12:13:49Z</time>
      </trkpt>
      <trkpt lat="43.38237" lon="6.64317">
        <ele>102</ele>
        <time>2016-10-08T12:13:50Z</time>
      </trkpt>
      <trkpt lat="43.38236" lon="6.64295">
        <ele>102</ele>
        <time>2016-10-08T12:13:54Z</time>
      </trkpt>
      <trkpt lat="43.38235" lon="6.64289">
        <ele>102</ele>
        <time>2016-10-08T12:13:55Z</time>
      </trkpt>
      <trkpt lat="43.38239" lon="6.64263">
        <ele>102</ele>
        <time>2016-10-08T12:14:00Z</time>
      </trkpt>
      <trkpt lat="43.38257" lon="6.64243">
        <ele>102</ele>
        <time>2016-10-08T12:14:08Z</time>
      </trkpt>
      <trkpt lat="43.38267" lon="6.6423">
        <ele>102</ele>
        <time>2016-10-08T12:14:14Z</time>
      </trkpt>
      <trkpt lat="43.3827" lon="6.64221">
        <ele>101</ele>
        <time>2016-10-08T12:14:17Z</time>
      </trkpt>
      <trkpt lat="43.38271" lon="6.64218">
        <ele>101</ele>
        <time>2016-10-08T12:14:18Z</time>
      </trkpt>
      <trkpt lat="43.38272" lon="6.64206">
        <ele>101</ele>
        <time>2016-10-08T12:14:21Z</time>
      </trkpt>
      <trkpt lat="43.38262" lon="6.6419">
        <ele>101</ele>
        <time>2016-10-08T12:14:25Z</time>
      </trkpt>
      <trkpt lat="43.38246" lon="6.64172">
        <ele>102</ele>
        <time>2016-10-08T12:14:29Z</time>
      </trkpt>
      <trkpt lat="43.38231" lon="6.64162">
        <ele>107</ele>
        <time>2016-10-08T12:14:32Z</time>
      </trkpt>
      <trkpt lat="43.38227" lon="6.64157">
        <ele>108</ele>
        <time>2016-10-08T12:14:33Z</time>
      </trkpt>
      <trkpt lat="43.38224" lon="6.64152">
        <ele>109</ele>
        <time>2016-10-08T12:14:34Z</time>
      </trkpt>
      <trkpt lat="43.38224" lon="6.64145">
        <ele>110</ele>
        <time>2016-10-08T12:14:35Z</time>
      </trkpt>
      <trkpt lat="43.38225" lon="6.64139">
        <ele>110</ele>
        <time>2016-10-08T12:14:36Z</time>
      </trkpt>
      <trkpt lat="43.3823" lon="6.64125">
        <ele>110</ele>
        <time>2016-10-08T12:14:38Z</time>
      </trkpt>
      <trkpt lat="43.38253" lon="6.64102">
        <ele>100</ele>
        <time>2016-10-08T12:14:43Z</time>
      </trkpt>
      <trkpt lat="43.38266" lon="6.64088">
        <ele>100</ele>
        <time>2016-10-08T12:14:46Z</time>
      </trkpt>
      <trkpt lat="43.38276" lon="6.64074">
        <ele>101</ele>
        <time>2016-10-08T12:14:49Z</time>
      </trkpt>
      <trkpt lat="43.3828" lon="6.6407">
        <ele>100</ele>
        <time>2016-10-08T12:14:50Z</time>
      </trkpt>
      <trkpt lat="43.38289" lon="6.64059">
        <ele>100</ele>
        <time>2016-10-08T12:14:53Z</time>
      </trkpt>
      <trkpt lat="43.38294" lon="6.64049">
        <ele>99</ele>
        <time>2016-10-08T12:14:56Z</time>
      </trkpt>
      <trkpt lat="43.38298" lon="6.64041">
        <ele>99</ele>
        <time>2016-10-08T12:14:59Z</time>
      </trkpt>
      <trkpt lat="43.38302" lon="6.64035">
        <ele>99</ele>
        <time>2016-10-08T12:15:01Z</time>
      </trkpt>
      <trkpt lat="43.38306" lon="6.64014">
        <ele>98</ele>
        <time>2016-10-08T12:15:07Z</time>
      </trkpt>
      <trkpt lat="43.38305" lon="6.63984">
        <ele>100</ele>
        <time>2016-10-08T12:15:14Z</time>
      </trkpt>
      <trkpt lat="43.38302" lon="6.6397">
        <ele>101</ele>
        <time>2016-10-08T12:15:18Z</time>
      </trkpt>
      <trkpt lat="43.38297" lon="6.63938">
        <ele>101</ele>
        <time>2016-10-08T12:15:26Z</time>
      </trkpt>
      <trkpt lat="43.38286" lon="6.63908">
        <ele>100</ele>
        <time>2016-10-08T12:15:33Z</time>
      </trkpt>
      <trkpt lat="43.38267" lon="6.63892">
        <ele>101</ele>
        <time>2016-10-08T12:15:39Z</time>
      </trkpt>
      <trkpt lat="43.38243" lon="6.63871">
        <ele>110</ele>
        <time>2016-10-08T12:15:47Z</time>
      </trkpt>
      <trkpt lat="43.38227" lon="6.63853">
        <ele>109</ele>
        <time>2016-10-08T12:15:53Z</time>
      </trkpt>
      <trkpt lat="43.3822" lon="6.63848">
        <ele>110</ele>
        <time>2016-10-08T12:15:56Z</time>
      </trkpt>
      <trkpt lat="43.38208" lon="6.63841">
        <ele>112</ele>
        <time>2016-10-08T12:16:02Z</time>
      </trkpt>
      <trkpt lat="43.38204" lon="6.63841">
        <ele>112</ele>
        <time>2016-10-08T12:16:05Z</time>
      </trkpt>
      <trkpt lat="43.38189" lon="6.63827">
        <ele>106</ele>
        <time>2016-10-08T12:16:15Z</time>
      </trkpt>
      <trkpt lat="43.38184" lon="6.63823">
        <ele>107</ele>
        <time>2016-10-08T12:16:19Z</time>
      </trkpt>
      <trkpt lat="43.38165" lon="6.63817">
        <ele>115</ele>
        <time>2016-10-08T12:16:30Z</time>
      </trkpt>
      <trkpt lat="43.38151" lon="6.63809">
        <ele>115</ele>
        <time>2016-10-08T12:16:38Z</time>
      </trkpt>
      <trkpt lat="43.38145" lon="6.63806">
        <ele>115</ele>
        <time>2016-10-08T12:16:41Z</time>
      </trkpt>
      <trkpt lat="43.38135" lon="6.63804">
        <ele>116</ele>
        <time>2016-10-08T12:16:48Z</time>
      </trkpt>
      <trkpt lat="43.3813" lon="6.63804">
        <ele>117</ele>
        <time>2016-10-08T12:16:50Z</time>
      </trkpt>
      <trkpt lat="43.38104" lon="6.63799">
        <ele>119</ele>
        <time>2016-10-08T12:17:03Z</time>
      </trkpt>
      <trkpt lat="43.381" lon="6.63797">
        <ele>119</ele>
        <time>2016-10-08T12:17:05Z</time>
      </trkpt>
      <trkpt lat="43.3808" lon="6.63786">
        <ele>128</ele>
        <time>2016-10-08T12:17:16Z</time>
      </trkpt>
      <trkpt lat="43.3807" lon="6.63776">
        <ele>127</ele>
        <time>2016-10-08T12:17:23Z</time>
      </trkpt>
      <trkpt lat="43.38064" lon="6.63773">
        <ele>127</ele>
        <time>2016-10-08T12:17:27Z</time>
      </trkpt>
      <trkpt lat="43.38049" lon="6.63774">
        <ele>129</ele>
        <time>2016-10-08T12:17:35Z</time>
      </trkpt>
      <trkpt lat="43.38042" lon="6.63773">
        <ele>130</ele>
        <time>2016-10-08T12:17:39Z</time>
      </trkpt>
      <trkpt lat="43.38019" lon="6.63763">
        <ele>131</ele>
        <time>2016-10-08T12:17:52Z</time>
      </trkpt>
      <trkpt lat="43.38011" lon="6.63759">
        <ele>131</ele>
        <time>2016-10-08T12:17:57Z</time>
      </trkpt>
      <trkpt lat="43.38008" lon="6.63756">
        <ele>131</ele>
        <time>2016-10-08T12:17:59Z</time>
      </trkpt>
      <trkpt lat="43.3798" lon="6.63752">
        <ele>137</ele>
        <time>2016-10-08T12:18:13Z</time>
      </trkpt>
      <trkpt lat="43.37968" lon="6.63753">
        <ele>139</ele>
        <time>2016-10-08T12:18:20Z</time>
      </trkpt>
      <trkpt lat="43.37949" lon="6.63758">
        <ele>140</ele>
        <time>2016-10-08T12:18:30Z</time>
      </trkpt>
      <trkpt lat="43.37935" lon="6.63759">
        <ele>140</ele>
        <time>2016-10-08T12:18:38Z</time>
      </trkpt>
      <trkpt lat="43.3792" lon="6.63763">
        <ele>139</ele>
        <time>2016-10-08T12:18:45Z</time>
      </trkpt>
      <trkpt lat="43.37899" lon="6.63765">
        <ele>145</ele>
        <time>2016-10-08T12:18:55Z</time>
      </trkpt>
      <trkpt lat="43.37888" lon="6.63765">
        <ele>147</ele>
        <time>2016-10-08T12:19:00Z</time>
      </trkpt>
      <trkpt lat="43.3788" lon="6.63766">
        <ele>148</ele>
        <time>2016-10-08T12:19:04Z</time>
      </trkpt>
      <trkpt lat="43.37861" lon="6.63763">
        <ele>149</ele>
        <time>2016-10-08T12:19:12Z</time>
      </trkpt>
      <trkpt lat="43.37853" lon="6.6376">
        <ele>148</ele>
        <time>2016-10-08T12:19:16Z</time>
      </trkpt>
      <trkpt lat="43.3782" lon="6.63758">
        <ele>153</ele>
        <time>2016-10-08T12:19:32Z</time>
      </trkpt>
      <trkpt lat="43.37811" lon="6.63756">
        <ele>155</ele>
        <time>2016-10-08T12:19:36Z</time>
      </trkpt>
      <trkpt lat="43.37794" lon="6.63749">
        <ele>149</ele>
        <time>2016-10-08T12:19:45Z</time>
      </trkpt>
      <trkpt lat="43.37789" lon="6.63748">
        <ele>149</ele>
        <time>2016-10-08T12:19:48Z</time>
      </trkpt>
      <trkpt lat="43.37767" lon="6.63747">
        <ele>153</ele>
        <time>2016-10-08T12:20:00Z</time>
      </trkpt>
      <trkpt lat="43.3776" lon="6.63744">
        <ele>154</ele>
        <time>2016-10-08T12:20:04Z</time>
      </trkpt>
      <trkpt lat="43.37755" lon="6.63736">
        <ele>153</ele>
        <time>2016-10-08T12:20:10Z</time>
      </trkpt>
      <trkpt lat="43.37753" lon="6.63729">
        <ele>152</ele>
        <time>2016-10-08T12:20:12Z</time>
      </trkpt>
      <trkpt lat="43.37751" lon="6.63711">
        <ele>150</ele>
        <time>2016-10-08T12:20:18Z</time>
      </trkpt>
      <trkpt lat="43.37747" lon="6.63702">
        <ele>160</ele>
        <time>2016-10-08T12:20:21Z</time>
      </trkpt>
      <trkpt lat="43.37736" lon="6.63693">
        <ele>160</ele>
        <time>2016-10-08T12:20:25Z</time>
      </trkpt>
      <trkpt lat="43.37734" lon="6.6369">
        <ele>160</ele>
        <time>2016-10-08T12:20:26Z</time>
      </trkpt>
      <trkpt lat="43.37704" lon="6.63626">
        <ele>160</ele>
        <time>2016-10-08T12:20:40Z</time>
      </trkpt>
      <trkpt lat="43.37704" lon="6.63614">
        <ele>159</ele>
        <time>2016-10-08T12:20:42Z</time>
      </trkpt>
      <trkpt lat="43.37709" lon="6.63605">
        <ele>159</ele>
        <time>2016-10-08T12:20:44Z</time>
      </trkpt>
      <trkpt lat="43.37723" lon="6.6359">
        <ele>155</ele>
        <time>2016-10-08T12:20:48Z</time>
      </trkpt>
      <trkpt lat="43.37727" lon="6.63555">
        <ele>157</ele>
        <time>2016-10-08T12:20:55Z</time>
      </trkpt>
      <trkpt lat="43.37728" lon="6.63523">
        <ele>157</ele>
        <time>2016-10-08T12:21:01Z</time>
      </trkpt>
      <trkpt lat="43.37736" lon="6.63487">
        <ele>157</ele>
        <time>2016-10-08T12:21:08Z</time>
      </trkpt>
      <trkpt lat="43.3774" lon="6.63454">
        <ele>159</ele>
        <time>2016-10-08T12:21:15Z</time>
      </trkpt>
      <trkpt lat="43.37737" lon="6.63437">
        <ele>158</ele>
        <time>2016-10-08T12:21:20Z</time>
      </trkpt>
      <trkpt lat="43.37725" lon="6.63411">
        <ele>158</ele>
        <time>2016-10-08T12:21:31Z</time>
      </trkpt>
      <trkpt lat="43.37716" lon="6.63378">
        <ele>159</ele>
        <time>2016-10-08T12:21:42Z</time>
      </trkpt>
      <trkpt lat="43.37715" lon="6.63371">
        <ele>159</ele>
        <time>2016-10-08T12:21:44Z</time>
      </trkpt>
      <trkpt lat="43.37707" lon="6.6336">
        <ele>160</ele>
        <time>2016-10-08T12:21:50Z</time>
      </trkpt>
      <trkpt lat="43.37699" lon="6.63359">
        <ele>160</ele>
        <time>2016-10-08T12:21:54Z</time>
      </trkpt>
      <trkpt lat="43.37684" lon="6.63362">
        <ele>161</ele>
        <time>2016-10-08T12:22:02Z</time>
      </trkpt>
      <trkpt lat="43.37657" lon="6.63365">
        <ele>167</ele>
        <time>2016-10-08T12:22:14Z</time>
      </trkpt>
      <trkpt lat="43.37647" lon="6.63367">
        <ele>168</ele>
        <time>2016-10-08T12:22:18Z</time>
      </trkpt>
      <trkpt lat="43.37645" lon="6.63368">
        <ele>168</ele>
        <time>2016-10-08T12:22:19Z</time>
      </trkpt>
      <trkpt lat="43.37645" lon="6.6337">
        <ele>168</ele>
        <time>2016-10-08T12:22:20Z</time>
      </trkpt>
      <trkpt lat="43.37646" lon="6.63375">
        <ele>168</ele>
        <time>2016-10-08T12:22:22Z</time>
      </trkpt>
      <trkpt lat="43.37652" lon="6.63383">
        <ele>169</ele>
        <time>2016-10-08T12:22:26Z</time>
      </trkpt>
      <trkpt lat="43.37657" lon="6.63389">
        <ele>169</ele>
        <time>2016-10-08T12:22:29Z</time>
      </trkpt>
      <trkpt lat="43.37667" lon="6.63405">
        <ele>167</ele>
        <time>2016-10-08T12:22:36Z</time>
      </trkpt>
      <trkpt lat="43.37673" lon="6.63411">
        <ele>168</ele>
        <time>2016-10-08T12:22:39Z</time>
      </trkpt>
      <trkpt lat="43.37674" lon="6.63413">
        <ele>168</ele>
        <time>2016-10-08T12:22:40Z</time>
      </trkpt>
      <trkpt lat="43.37677" lon="6.63421">
        <ele>168</ele>
        <time>2016-10-08T12:22:43Z</time>
      </trkpt>
      <trkpt lat="43.3768" lon="6.6344">
        <ele>166</ele>
        <time>2016-10-08T12:22:49Z</time>
      </trkpt>
      <trkpt lat="43.3768" lon="6.63446">
        <ele>166</ele>
        <time>2016-10-08T12:22:51Z</time>
      </trkpt>
      <trkpt lat="43.37679" lon="6.63469">
        <ele>166</ele>
        <time>2016-10-08T12:22:58Z</time>
      </trkpt>
      <trkpt lat="43.37674" lon="6.63494">
        <ele>171</ele>
        <time>2016-10-08T12:23:05Z</time>
      </trkpt>
      <trkpt lat="43.37672" lon="6.63502">
        <ele>172</ele>
        <time>2016-10-08T12:23:07Z</time>
      </trkpt>
      <trkpt lat="43.37639" lon="6.63565">
        <ele>178</ele>
        <time>2016-10-08T12:23:26Z</time>
      </trkpt>
      <trkpt lat="43.37632" lon="6.63577">
        <ele>179</ele>
        <time>2016-10-08T12:23:30Z</time>
      </trkpt>
      <trkpt lat="43.37627" lon="6.63581">
        <ele>180</ele>
        <time>2016-10-08T12:23:32Z</time>
      </trkpt>
      <trkpt lat="43.37621" lon="6.63585">
        <ele>182</ele>
        <time>2016-10-08T12:23:34Z</time>
      </trkpt>
      <trkpt lat="43.37608" lon="6.636">
        <ele>184</ele>
        <time>2016-10-08T12:23:40Z</time>
      </trkpt>
      <trkpt lat="43.37607" lon="6.63604">
        <ele>184</ele>
        <time>2016-10-08T12:23:41Z</time>
      </trkpt>
      <trkpt lat="43.37604" lon="6.63623">
        <ele>185</ele>
        <time>2016-10-08T12:23:47Z</time>
      </trkpt>
      <trkpt lat="43.37605" lon="6.63634">
        <ele>185</ele>
        <time>2016-10-08T12:23:51Z</time>
      </trkpt>
      <trkpt lat="43.37606" lon="6.63636">
        <ele>185</ele>
        <time>2016-10-08T12:23:52Z</time>
      </trkpt>
      <trkpt lat="43.37606" lon="6.63644">
        <ele>186</ele>
        <time>2016-10-08T12:23:55Z</time>
      </trkpt>
      <trkpt lat="43.37608" lon="6.63651">
        <ele>186</ele>
        <time>2016-10-08T12:23:58Z</time>
      </trkpt>
      <trkpt lat="43.37629" lon="6.63701">
        <ele>188</ele>
        <time>2016-10-08T12:24:18Z</time>
      </trkpt>
      <trkpt lat="43.37633" lon="6.63708">
        <ele>188</ele>
        <time>2016-10-08T12:24:21Z</time>
      </trkpt>
      <trkpt lat="43.37636" lon="6.63714">
        <ele>188</ele>
        <time>2016-10-08T12:24:24Z</time>
      </trkpt>
      <trkpt lat="43.37637" lon="6.6372">
        <ele>188</ele>
        <time>2016-10-08T12:24:27Z</time>
      </trkpt>
      <trkpt lat="43.37637" lon="6.63728">
        <ele>189</ele>
        <time>2016-10-08T12:24:31Z</time>
      </trkpt>
      <trkpt lat="43.37632" lon="6.63736">
        <ele>190</ele>
        <time>2016-10-08T12:24:35Z</time>
      </trkpt>
      <trkpt lat="43.37629" lon="6.6374">
        <ele>190</ele>
        <time>2016-10-08T12:24:37Z</time>
      </trkpt>
      <trkpt lat="43.37625" lon="6.63756">
        <ele>200</ele>
        <time>2016-10-08T12:24:43Z</time>
      </trkpt>
      <trkpt lat="43.3763" lon="6.63777">
        <ele>200</ele>
        <time>2016-10-08T12:24:52Z</time>
      </trkpt>
      <trkpt lat="43.37633" lon="6.63786">
        <ele>201</ele>
        <time>2016-10-08T12:24:56Z</time>
      </trkpt>
      <trkpt lat="43.37638" lon="6.63795">
        <ele>201</ele>
        <time>2016-10-08T12:25:00Z</time>
      </trkpt>
      <trkpt lat="43.37645" lon="6.63811">
        <ele>202</ele>
        <time>2016-10-08T12:25:08Z</time>
      </trkpt>
      <trkpt lat="43.37652" lon="6.63823">
        <ele>201</ele>
        <time>2016-10-08T12:25:14Z</time>
      </trkpt>
      <trkpt lat="43.37663" lon="6.63846">
        <ele>205</ele>
        <time>2016-10-08T12:25:25Z</time>
      </trkpt>
      <trkpt lat="43.37665" lon="6.63848">
        <ele>205</ele>
        <time>2016-10-08T12:25:26Z</time>
      </trkpt>
      <trkpt lat="43.3767" lon="6.63869">
        <ele>199</ele>
        <time>2016-10-08T12:25:35Z</time>
      </trkpt>
      <trkpt lat="43.37673" lon="6.63887">
        <ele>201</ele>
        <time>2016-10-08T12:25:43Z</time>
      </trkpt>
      <trkpt lat="43.37682" lon="6.6391">
        <ele>204</ele>
        <time>2016-10-08T12:25:53Z</time>
      </trkpt>
      <trkpt lat="43.37684" lon="6.63914">
        <ele>203</ele>
        <time>2016-10-08T12:25:54Z</time>
      </trkpt>
      <trkpt lat="43.37688" lon="6.63923">
        <ele>204</ele>
        <time>2016-10-08T12:25:59Z</time>
      </trkpt>
      <trkpt lat="43.37696" lon="6.63927">
        <ele>202</ele>
        <time>2016-10-08T12:26:04Z</time>
      </trkpt>
      <trkpt lat="43.37699" lon="6.6393">
        <ele>202</ele>
        <time>2016-10-08T12:26:06Z</time>
      </trkpt>
      <trkpt lat="43.37711" lon="6.63938">
        <ele>200</ele>
        <time>2016-10-08T12:26:11Z</time>
      </trkpt>
      <trkpt lat="43.37729" lon="6.63942">
        <ele>199</ele>
        <time>2016-10-08T12:26:15Z</time>
      </trkpt>
      <trkpt lat="43.37744" lon="6.63952">
        <ele>198</ele>
        <time>2016-10-08T12:26:19Z</time>
      </trkpt>
      <trkpt lat="43.37746" lon="6.63954">
        <ele>198</ele>
        <time>2016-10-08T12:26:20Z</time>
      </trkpt>
      <trkpt lat="43.37747" lon="6.63957">
        <ele>198</ele>
        <time>2016-10-08T12:26:21Z</time>
      </trkpt>
      <trkpt lat="43.37746" lon="6.63961">
        <ele>198</ele>
        <time>2016-10-08T12:26:22Z</time>
      </trkpt>
      <trkpt lat="43.37738" lon="6.63981">
        <ele>196</ele>
        <time>2016-10-08T12:26:26Z</time>
      </trkpt>
      <trkpt lat="43.37733" lon="6.63987">
        <ele>196</ele>
        <time>2016-10-08T12:26:27Z</time>
      </trkpt>
      <trkpt lat="43.3773" lon="6.63993">
        <ele>196</ele>
        <time>2016-10-08T12:26:28Z</time>
      </trkpt>
      <trkpt lat="43.37727" lon="6.63998">
        <ele>196</ele>
        <time>2016-10-08T12:26:29Z</time>
      </trkpt>
      <trkpt lat="43.37723" lon="6.64002">
        <ele>189</ele>
        <time>2016-10-08T12:26:30Z</time>
      </trkpt>
      <trkpt lat="43.37711" lon="6.64006">
        <ele>189</ele>
        <time>2016-10-08T12:26:33Z</time>
      </trkpt>
      <trkpt lat="43.37705" lon="6.64007">
        <ele>189</ele>
        <time>2016-10-08T12:26:35Z</time>
      </trkpt>
      <trkpt lat="43.37682" lon="6.64019">
        <ele>191</ele>
        <time>2016-10-08T12:26:46Z</time>
      </trkpt>
      <trkpt lat="43.37682" lon="6.64019">
        <ele>191</ele>
        <time>2016-10-08T12:26:47Z</time>
      </trkpt>
      <trkpt lat="43.3768" lon="6.64025">
        <ele>190</ele>
        <time>2016-10-08T12:27:22Z</time>
      </trkpt>
      <trkpt lat="43.37681" lon="6.64028">
        <ele>189</ele>
        <time>2016-10-08T12:27:23Z</time>
      </trkpt>
      <trkpt lat="43.37687" lon="6.64036">
        <ele>187</ele>
        <time>2016-10-08T12:27:26Z</time>
      </trkpt>
      <trkpt lat="43.37689" lon="6.64041">
        <ele>187</ele>
        <time>2016-10-08T12:27:28Z</time>
      </trkpt>
      <trkpt lat="43.37689" lon="6.64044">
        <ele>186</ele>
        <time>2016-10-08T12:27:29Z</time>
      </trkpt>
      <trkpt lat="43.37689" lon="6.64047">
        <ele>186</ele>
        <time>2016-10-08T12:27:30Z</time>
      </trkpt>
      <trkpt lat="43.37687" lon="6.6405">
        <ele>185</ele>
        <time>2016-10-08T12:27:31Z</time>
      </trkpt>
      <trkpt lat="43.37664" lon="6.64072">
        <ele>186</ele>
        <time>2016-10-08T12:27:36Z</time>
      </trkpt>
      <trkpt lat="43.37658" lon="6.64079">
        <ele>185</ele>
        <time>2016-10-08T12:27:37Z</time>
      </trkpt>
      <trkpt lat="43.37637" lon="6.64097">
        <ele>177</ele>
        <time>2016-10-08T12:27:41Z</time>
      </trkpt>
      <trkpt lat="43.37634" lon="6.641">
        <ele>177</ele>
        <time>2016-10-08T12:27:42Z</time>
      </trkpt>
      <trkpt lat="43.37633" lon="6.64105">
        <ele>177</ele>
        <time>2016-10-08T12:27:43Z</time>
      </trkpt>
      <trkpt lat="43.37634" lon="6.6411">
        <ele>176</ele>
        <time>2016-10-08T12:27:44Z</time>
      </trkpt>
      <trkpt lat="43.37636" lon="6.64113">
        <ele>176</ele>
        <time>2016-10-08T12:27:45Z</time>
      </trkpt>
      <trkpt lat="43.37665" lon="6.64117">
        <ele>174</ele>
        <time>2016-10-08T12:27:50Z</time>
      </trkpt>
      <trkpt lat="43.37672" lon="6.64117">
        <ele>166</ele>
        <time>2016-10-08T12:27:51Z</time>
      </trkpt>
      <trkpt lat="43.37678" lon="6.64116">
        <ele>166</ele>
        <time>2016-10-08T12:27:52Z</time>
      </trkpt>
      <trkpt lat="43.37694" lon="6.64104">
        <ele>167</ele>
        <time>2016-10-08T12:27:55Z</time>
      </trkpt>
      <trkpt lat="43.37699" lon="6.64102">
        <ele>167</ele>
        <time>2016-10-08T12:27:56Z</time>
      </trkpt>
      <trkpt lat="43.37729" lon="6.64099">
        <ele>165</ele>
        <time>2016-10-08T12:28:02Z</time>
      </trkpt>
      <trkpt lat="43.37735" lon="6.64098">
        <ele>165</ele>
        <time>2016-10-08T12:28:03Z</time>
      </trkpt>
      <trkpt lat="43.37756" lon="6.64088">
        <ele>165</ele>
        <time>2016-10-08T12:28:06Z</time>
      </trkpt>
      <trkpt lat="43.37763" lon="6.64086">
        <ele>162</ele>
        <time>2016-10-08T12:28:07Z</time>
      </trkpt>
      <trkpt lat="43.3777" lon="6.64085">
        <ele>160</ele>
        <time>2016-10-08T12:28:08Z</time>
      </trkpt>
      <trkpt lat="43.37784" lon="6.64085">
        <ele>156</ele>
        <time>2016-10-08T12:28:10Z</time>
      </trkpt>
      <trkpt lat="43.37792" lon="6.64084">
        <ele>155</ele>
        <time>2016-10-08T12:28:11Z</time>
      </trkpt>
      <trkpt lat="43.37815" lon="6.64078">
        <ele>167</ele>
        <time>2016-10-08T12:28:14Z</time>
      </trkpt>
      <trkpt lat="43.37833" lon="6.64076">
        <ele>162</ele>
        <time>2016-10-08T12:28:16Z</time>
      </trkpt>
      <trkpt lat="43.37855" lon="6.64067">
        <ele>164</ele>
        <time>2016-10-08T12:28:19Z</time>
      </trkpt>
      <trkpt lat="43.37861" lon="6.64067">
        <ele>164</ele>
        <time>2016-10-08T12:28:20Z</time>
      </trkpt>
      <trkpt lat="43.37865" lon="6.64069">
        <ele>164</ele>
        <time>2016-10-08T12:28:21Z</time>
      </trkpt>
      <trkpt lat="43.37887" lon="6.6408">
        <ele>162</ele>
        <time>2016-10-08T12:28:28Z</time>
      </trkpt>
      <trkpt lat="43.37895" lon="6.64081">
        <ele>160</ele>
        <time>2016-10-08T12:28:30Z</time>
      </trkpt>
      <trkpt lat="43.379" lon="6.64081">
        <ele>159</ele>
        <time>2016-10-08T12:28:31Z</time>
      </trkpt>
      <trkpt lat="43.37914" lon="6.64085">
        <ele>151</ele>
        <time>2016-10-08T12:28:34Z</time>
      </trkpt>
      <trkpt lat="43.37943" lon="6.641">
        <ele>144</ele>
        <time>2016-10-08T12:28:44Z</time>
      </trkpt>
      <trkpt lat="43.37957" lon="6.64103">
        <ele>143</ele>
        <time>2016-10-08T12:28:48Z</time>
      </trkpt>
      <trkpt lat="43.37964" lon="6.64107">
        <ele>143</ele>
        <time>2016-10-08T12:28:50Z</time>
      </trkpt>
      <trkpt lat="43.3798" lon="6.64119">
        <ele>142</ele>
        <time>2016-10-08T12:28:54Z</time>
      </trkpt>
      <trkpt lat="43.37996" lon="6.64127">
        <ele>140</ele>
        <time>2016-10-08T12:28:57Z</time>
      </trkpt>
      <trkpt lat="43.38004" lon="6.64132">
        <ele>140</ele>
        <time>2016-10-08T12:28:59Z</time>
      </trkpt>
      <trkpt lat="43.38013" lon="6.64139">
        <ele>139</ele>
        <time>2016-10-08T12:29:01Z</time>
      </trkpt>
      <trkpt lat="43.38032" lon="6.64156">
        <ele>138</ele>
        <time>2016-10-08T12:29:05Z</time>
      </trkpt>
      <trkpt lat="43.38042" lon="6.64164">
        <ele>138</ele>
        <time>2016-10-08T12:29:07Z</time>
      </trkpt>
      <trkpt lat="43.3805" lon="6.64173">
        <ele>126</ele>
        <time>2016-10-08T12:29:09Z</time>
      </trkpt>
      <trkpt lat="43.38055" lon="6.64181">
        <ele>126</ele>
        <time>2016-10-08T12:29:11Z</time>
      </trkpt>
      <trkpt lat="43.38059" lon="6.64191">
        <ele>125</ele>
        <time>2016-10-08T12:29:13Z</time>
      </trkpt>
      <trkpt lat="43.38063" lon="6.64207">
        <ele>124</ele>
        <time>2016-10-08T12:29:16Z</time>
      </trkpt>
      <trkpt lat="43.38063" lon="6.64213">
        <ele>123</ele>
        <time>2016-10-08T12:29:18Z</time>
      </trkpt>
      <trkpt lat="43.38065" lon="6.64217">
        <ele>123</ele>
        <time>2016-10-08T12:29:22Z</time>
      </trkpt>
      <trkpt lat="43.38065" lon="6.64218">
        <ele>123</ele>
        <time>2016-10-08T12:29:45Z</time>
      </trkpt>
      <trkpt lat="43.38066" lon="6.64221">
        <ele>122</ele>
        <time>2016-10-08T12:29:46Z</time>
      </trkpt>
      <trkpt lat="43.38065" lon="6.64243">
        <ele>121</ele>
        <time>2016-10-08T12:29:50Z</time>
      </trkpt>
      <trkpt lat="43.38064" lon="6.64252">
        <ele>113</ele>
        <time>2016-10-08T12:29:52Z</time>
      </trkpt>
      <trkpt lat="43.38067" lon="6.64259">
        <ele>113</ele>
        <time>2016-10-08T12:29:55Z</time>
      </trkpt>
      <trkpt lat="43.38067" lon="6.64262">
        <ele>113</ele>
        <time>2016-10-08T12:29:57Z</time>
      </trkpt>
      <trkpt lat="43.3807" lon="6.64269">
        <ele>112</ele>
        <time>2016-10-08T12:30:01Z</time>
      </trkpt>
      <trkpt lat="43.38072" lon="6.64271">
        <ele>112</ele>
        <time>2016-10-08T12:30:02Z</time>
      </trkpt>
      <trkpt lat="43.38078" lon="6.64274">
        <ele>112</ele>
        <time>2016-10-08T12:30:04Z</time>
      </trkpt>
      <trkpt lat="43.38081" lon="6.64274">
        <ele>112</ele>
        <time>2016-10-08T12:30:06Z</time>
      </trkpt>
      <trkpt lat="43.38085" lon="6.64277">
        <ele>110</ele>
        <time>2016-10-08T12:30:11Z</time>
      </trkpt>
      <trkpt lat="43.38099" lon="6.64276">
        <ele>109</ele>
        <time>2016-10-08T12:30:15Z</time>
      </trkpt>
      <trkpt lat="43.38104" lon="6.64272">
        <ele>109</ele>
        <time>2016-10-08T12:30:17Z</time>
      </trkpt>
      <trkpt lat="43.38118" lon="6.64263">
        <ele>108</ele>
        <time>2016-10-08T12:30:21Z</time>
      </trkpt>
      <trkpt lat="43.38123" lon="6.64262">
        <ele>108</ele>
        <time>2016-10-08T12:30:22Z</time>
      </trkpt>
      <trkpt lat="43.38127" lon="6.64263">
        <ele>107</ele>
        <time>2016-10-08T12:30:23Z</time>
      </trkpt>
      <trkpt lat="43.38136" lon="6.64265">
        <ele>106</ele>
        <time>2016-10-08T12:30:25Z</time>
      </trkpt>
      <trkpt lat="43.38142" lon="6.64264">
        <ele>106</ele>
        <time>2016-10-08T12:30:26Z</time>
      </trkpt>
      <trkpt lat="43.38148" lon="6.64262">
        <ele>106</ele>
        <time>2016-10-08T12:30:27Z</time>
      </trkpt>
      <trkpt lat="43.38154" lon="6.64259">
        <ele>106</ele>
        <time>2016-10-08T12:30:28Z</time>
      </trkpt>
      <trkpt lat="43.3817" lon="6.64247">
        <ele>106</ele>
        <time>2016-10-08T12:30:31Z</time>
      </trkpt>
      <trkpt lat="43.38184" lon="6.64239">
        <ele>106</ele>
        <time>2016-10-08T12:30:35Z</time>
      </trkpt>
      <trkpt lat="43.38188" lon="6.64236">
        <ele>106</ele>
        <time>2016-10-08T12:30:36Z</time>
      </trkpt>
      <trkpt lat="43.38196" lon="6.64224">
        <ele>107</ele>
        <time>2016-10-08T12:30:38Z</time>
      </trkpt>
      <trkpt lat="43.382" lon="6.6422">
        <ele>107</ele>
        <time>2016-10-08T12:30:39Z</time>
      </trkpt>
      <trkpt lat="43.38205" lon="6.6422">
        <ele>106</ele>
        <time>2016-10-08T12:30:40Z</time>
      </trkpt>
      <trkpt lat="43.3821" lon="6.64221">
        <ele>106</ele>
        <time>2016-10-08T12:30:41Z</time>
      </trkpt>
      <trkpt lat="43.38216" lon="6.64224">
        <ele>106</ele>
        <time>2016-10-08T12:30:42Z</time>
      </trkpt>
      <trkpt lat="43.3822" lon="6.6423">
        <ele>106</ele>
        <time>2016-10-08T12:30:43Z</time>
      </trkpt>
      <trkpt lat="43.38223" lon="6.64236">
        <ele>105</ele>
        <time>2016-10-08T12:30:44Z</time>
      </trkpt>
      <trkpt lat="43.38224" lon="6.64245">
        <ele>105</ele>
        <time>2016-10-08T12:30:45Z</time>
      </trkpt>
      <trkpt lat="43.38223" lon="6.64254">
        <ele>102</ele>
        <time>2016-10-08T12:30:46Z</time>
      </trkpt>
      <trkpt lat="43.38224" lon="6.64277">
        <ele>102</ele>
        <time>2016-10-08T12:30:49Z</time>
      </trkpt>
      <trkpt lat="43.38227" lon="6.6429">
        <ele>102</ele>
        <time>2016-10-08T12:30:51Z</time>
      </trkpt>
      <trkpt lat="43.38222" lon="6.64309">
        <ele>101</ele>
        <time>2016-10-08T12:30:55Z</time>
      </trkpt>
      <trkpt lat="43.38212" lon="6.64323">
        <ele>101</ele>
        <time>2016-10-08T12:30:58Z</time>
      </trkpt>
      <trkpt lat="43.38208" lon="6.64328">
        <ele>100</ele>
        <time>2016-10-08T12:30:59Z</time>
      </trkpt>
      <trkpt lat="43.38203" lon="6.64332">
        <ele>100</ele>
        <time>2016-10-08T12:31:00Z</time>
      </trkpt>
      <trkpt lat="43.3819" lon="6.6434">
        <ele>96</ele>
        <time>2016-10-08T12:31:02Z</time>
      </trkpt>
      <trkpt lat="43.38165" lon="6.64361">
        <ele>93</ele>
        <time>2016-10-08T12:31:06Z</time>
      </trkpt>
      <trkpt lat="43.3816" lon="6.64367">
        <ele>93</ele>
        <time>2016-10-08T12:31:07Z</time>
      </trkpt>
      <trkpt lat="43.38156" lon="6.64373">
        <ele>92</ele>
        <time>2016-10-08T12:31:08Z</time>
      </trkpt>
      <trkpt lat="43.38152" lon="6.64381">
        <ele>92</ele>
        <time>2016-10-08T12:31:09Z</time>
      </trkpt>
      <trkpt lat="43.38146" lon="6.64398">
        <ele>91</ele>
        <time>2016-10-08T12:31:11Z</time>
      </trkpt>
      <trkpt lat="43.38135" lon="6.64423">
        <ele>87</ele>
        <time>2016-10-08T12:31:14Z</time>
      </trkpt>
      <trkpt lat="43.3813" lon="6.64431">
        <ele>86</ele>
        <time>2016-10-08T12:31:15Z</time>
      </trkpt>
      <trkpt lat="43.38125" lon="6.64438">
        <ele>86</ele>
        <time>2016-10-08T12:31:16Z</time>
      </trkpt>
      <trkpt lat="43.38118" lon="6.64441">
        <ele>86</ele>
        <time>2016-10-08T12:31:17Z</time>
      </trkpt>
      <trkpt lat="43.38112" lon="6.64442">
        <ele>86</ele>
        <time>2016-10-08T12:31:18Z</time>
      </trkpt>
      <trkpt lat="43.38105" lon="6.6444">
        <ele>86</ele>
        <time>2016-10-08T12:31:19Z</time>
      </trkpt>
      <trkpt lat="43.38099" lon="6.64435">
        <ele>86</ele>
        <time>2016-10-08T12:31:20Z</time>
      </trkpt>
      <trkpt lat="43.38087" lon="6.64427">
        <ele>86</ele>
        <time>2016-10-08T12:31:22Z</time>
      </trkpt>
      <trkpt lat="43.38074" lon="6.64421">
        <ele>86</ele>
        <time>2016-10-08T12:31:24Z</time>
      </trkpt>
      <trkpt lat="43.38067" lon="6.6442">
        <ele>86</ele>
        <time>2016-10-08T12:31:25Z</time>
      </trkpt>
      <trkpt lat="43.3806" lon="6.6442">
        <ele>86</ele>
        <time>2016-10-08T12:31:26Z</time>
      </trkpt>
      <trkpt lat="43.38054" lon="6.64423">
        <ele>86</ele>
        <time>2016-10-08T12:31:27Z</time>
      </trkpt>
      <trkpt lat="43.38032" lon="6.64445">
        <ele>86</ele>
        <time>2016-10-08T12:31:31Z</time>
      </trkpt>
      <trkpt lat="43.37999" lon="6.64451">
        <ele>87</ele>
        <time>2016-10-08T12:31:36Z</time>
      </trkpt>
      <trkpt lat="43.37957" lon="6.64445">
        <ele>87</ele>
        <time>2016-10-08T12:31:43Z</time>
      </trkpt>
      <trkpt lat="43.37946" lon="6.64444">
        <ele>87</ele>
        <time>2016-10-08T12:31:45Z</time>
      </trkpt>
      <trkpt lat="43.37906" lon="6.64451">
        <ele>88</ele>
        <time>2016-10-08T12:31:52Z</time>
      </trkpt>
      <trkpt lat="43.3789" lon="6.64451">
        <ele>88</ele>
        <time>2016-10-08T12:31:55Z</time>
      </trkpt>
      <trkpt lat="43.3787" lon="6.64455">
        <ele>88</ele>
        <time>2016-10-08T12:31:59Z</time>
      </trkpt>
      <trkpt lat="43.37862" lon="6.64459">
        <ele>88</ele>
        <time>2016-10-08T12:32:01Z</time>
      </trkpt>
      <trkpt lat="43.37843" lon="6.64475">
        <ele>88</ele>
        <time>2016-10-08T12:32:06Z</time>
      </trkpt>
      <trkpt lat="43.37815" lon="6.64495">
        <ele>91</ele>
        <time>2016-10-08T12:32:14Z</time>
      </trkpt>
      <trkpt lat="43.37802" lon="6.64505">
        <ele>92</ele>
        <time>2016-10-08T12:32:18Z</time>
      </trkpt>
      <trkpt lat="43.37789" lon="6.64511">
        <ele>92</ele>
        <time>2016-10-08T12:32:22Z</time>
      </trkpt>
      <trkpt lat="43.3777" lon="6.64518">
        <ele>92</ele>
        <time>2016-10-08T12:32:28Z</time>
      </trkpt>
      <trkpt lat="43.37763" lon="6.64527">
        <ele>93</ele>
        <time>2016-10-08T12:32:32Z</time>
      </trkpt>
      <trkpt lat="43.37757" lon="6.64538">
        <ele>93</ele>
        <time>2016-10-08T12:32:37Z</time>
      </trkpt>
      <trkpt lat="43.37746" lon="6.64563">
        <ele>93</ele>
        <time>2016-10-08T12:32:47Z</time>
      </trkpt>
      <trkpt lat="43.3774" lon="6.64572">
        <ele>93</ele>
        <time>2016-10-08T12:32:51Z</time>
      </trkpt>
      <trkpt lat="43.37732" lon="6.64582">
        <ele>93</ele>
        <time>2016-10-08T12:32:56Z</time>
      </trkpt>
      <trkpt lat="43.37727" lon="6.64585">
        <ele>94</ele>
        <time>2016-10-08T12:32:58Z</time>
      </trkpt>
      <trkpt lat="43.37717" lon="6.64589">
        <ele>94</ele>
        <time>2016-10-08T12:33:01Z</time>
      </trkpt>
      <trkpt lat="43.37685" lon="6.64595">
        <ele>95</ele>
        <time>2016-10-08T12:33:11Z</time>
      </trkpt>
      <trkpt lat="43.37671" lon="6.64594">
        <ele>94</ele>
        <time>2016-10-08T12:33:16Z</time>
      </trkpt>
      <trkpt lat="43.37663" lon="6.6459">
        <ele>95</ele>
        <time>2016-10-08T12:33:19Z</time>
      </trkpt>
      <trkpt lat="43.37658" lon="6.64586">
        <ele>95</ele>
        <time>2016-10-08T12:33:21Z</time>
      </trkpt>
      <trkpt lat="43.37639" lon="6.64576">
        <ele>99</ele>
        <time>2016-10-08T12:33:27Z</time>
      </trkpt>
      <trkpt lat="43.37618" lon="6.64576">
        <ele>100</ele>
        <time>2016-10-08T12:33:32Z</time>
      </trkpt>
      <trkpt lat="43.37613" lon="6.64577">
        <ele>100</ele>
        <time>2016-10-08T12:33:33Z</time>
      </trkpt>
      <trkpt lat="43.37594" lon="6.64583">
        <ele>99</ele>
        <time>2016-10-08T12:33:37Z</time>
      </trkpt>
      <trkpt lat="43.37564" lon="6.64602">
        <ele>99</ele>
        <time>2016-10-08T12:33:44Z</time>
      </trkpt>
      <trkpt lat="43.37479" lon="6.6467">
        <ele>101</ele>
        <time>2016-10-08T12:34:07Z</time>
      </trkpt>
      <trkpt lat="43.37473" lon="6.64674">
        <ele>102</ele>
        <time>2016-10-08T12:34:09Z</time>
      </trkpt>
      <trkpt lat="43.37432" lon="6.64706">
        <ele>104</ele>
        <time>2016-10-08T12:34:22Z</time>
      </trkpt>
      <trkpt lat="43.37407" lon="6.64728">
        <ele>105</ele>
        <time>2016-10-08T12:34:30Z</time>
      </trkpt>
      <trkpt lat="43.37378" lon="6.64754">
        <ele>105</ele>
        <time>2016-10-08T12:34:39Z</time>
      </trkpt>
      <trkpt lat="43.37363" lon="6.64763">
        <ele>106</ele>
        <time>2016-10-08T12:34:43Z</time>
      </trkpt>
      <trkpt lat="43.37355" lon="6.64764">
        <ele>106</ele>
        <time>2016-10-08T12:34:45Z</time>
      </trkpt>
      <trkpt lat="43.37299" lon="6.64766">
        <ele>108</ele>
        <time>2016-10-08T12:35:00Z</time>
      </trkpt>
      <trkpt lat="43.37286" lon="6.64766">
        <ele>108</ele>
        <time>2016-10-08T12:35:03Z</time>
      </trkpt>
      <trkpt lat="43.37272" lon="6.64756">
        <ele>108</ele>
        <time>2016-10-08T12:35:08Z</time>
      </trkpt>
      <trkpt lat="43.37253" lon="6.64729">
        <ele>106</ele>
        <time>2016-10-08T12:35:16Z</time>
      </trkpt>
      <trkpt lat="43.37234" lon="6.64697">
        <ele>107</ele>
        <time>2016-10-08T12:35:24Z</time>
      </trkpt>
      <trkpt lat="43.3722" lon="6.64692">
        <ele>107</ele>
        <time>2016-10-08T12:35:28Z</time>
      </trkpt>
      <trkpt lat="43.37196" lon="6.64697">
        <ele>108</ele>
        <time>2016-10-08T12:35:35Z</time>
      </trkpt>
      <trkpt lat="43.37189" lon="6.647">
        <ele>108</ele>
        <time>2016-10-08T12:35:37Z</time>
      </trkpt>
      <trkpt lat="43.37173" lon="6.64707">
        <ele>108</ele>
        <time>2016-10-08T12:35:42Z</time>
      </trkpt>
      <trkpt lat="43.37155" lon="6.64718">
        <ele>110</ele>
        <time>2016-10-08T12:35:48Z</time>
      </trkpt>
      <trkpt lat="43.3711" lon="6.64737">
        <ele>110</ele>
        <time>2016-10-08T12:36:01Z</time>
      </trkpt>
      <trkpt lat="43.37087" lon="6.64754">
        <ele>107</ele>
        <time>2016-10-08T12:36:09Z</time>
      </trkpt>
      <trkpt lat="43.37056" lon="6.64769">
        <ele>110</ele>
        <time>2016-10-08T12:36:18Z</time>
      </trkpt>
      <trkpt lat="43.37033" lon="6.64772">
        <ele>111</ele>
        <time>2016-10-08T12:36:24Z</time>
      </trkpt>
      <trkpt lat="43.37022" lon="6.6477">
        <ele>110</ele>
        <time>2016-10-08T12:36:27Z</time>
      </trkpt>
      <trkpt lat="43.36972" lon="6.64756">
        <ele>111</ele>
        <time>2016-10-08T12:36:39Z</time>
      </trkpt>
      <trkpt lat="43.36943" lon="6.64758">
        <ele>112</ele>
        <time>2016-10-08T12:36:47Z</time>
      </trkpt>
      <trkpt lat="43.36933" lon="6.64761">
        <ele>112</ele>
        <time>2016-10-08T12:36:50Z</time>
      </trkpt>
      <trkpt lat="43.36926" lon="6.64764">
        <ele>112</ele>
        <time>2016-10-08T12:36:52Z</time>
      </trkpt>
      <trkpt lat="43.3691" lon="6.64774">
        <ele>115</ele>
        <time>2016-10-08T12:36:57Z</time>
      </trkpt>
      <trkpt lat="43.36888" lon="6.64791">
        <ele>116</ele>
        <time>2016-10-08T12:37:04Z</time>
      </trkpt>
      <trkpt lat="43.36877" lon="6.64811">
        <ele>117</ele>
        <time>2016-10-08T12:37:09Z</time>
      </trkpt>
      <trkpt lat="43.36873" lon="6.64837">
        <ele>120</ele>
        <time>2016-10-08T12:37:15Z</time>
      </trkpt>
      <trkpt lat="43.36867" lon="6.64853">
        <ele>120</ele>
        <time>2016-10-08T12:37:19Z</time>
      </trkpt>
      <trkpt lat="43.36865" lon="6.64855">
        <ele>121</ele>
        <time>2016-10-08T12:37:20Z</time>
      </trkpt>
      <trkpt lat="43.36861" lon="6.6486">
        <ele>121</ele>
        <time>2016-10-08T12:37:22Z</time>
      </trkpt>
      <trkpt lat="43.36858" lon="6.64861">
        <ele>121</ele>
        <time>2016-10-08T12:37:23Z</time>
      </trkpt>
      <trkpt lat="43.36841" lon="6.64863">
        <ele>121</ele>
        <time>2016-10-08T12:37:28Z</time>
      </trkpt>
      <trkpt lat="43.3683" lon="6.64868">
        <ele>123</ele>
        <time>2016-10-08T12:37:31Z</time>
      </trkpt>
      <trkpt lat="43.36794" lon="6.64875">
        <ele>124</ele>
        <time>2016-10-08T12:37:41Z</time>
      </trkpt>
      <trkpt lat="43.36787" lon="6.64875">
        <ele>124</ele>
        <time>2016-10-08T12:37:43Z</time>
      </trkpt>
      <trkpt lat="43.36758" lon="6.64875">
        <ele>125</ele>
        <time>2016-10-08T12:37:51Z</time>
      </trkpt>
      <trkpt lat="43.36727" lon="6.64881">
        <ele>125</ele>
        <time>2016-10-08T12:37:59Z</time>
      </trkpt>
      <trkpt lat="43.36699" lon="6.64894">
        <ele>125</ele>
        <time>2016-10-08T12:38:07Z</time>
      </trkpt>
      <trkpt lat="43.36649" lon="6.64919">
        <ele>125</ele>
        <time>2016-10-08T12:38:22Z</time>
      </trkpt>
      <trkpt lat="43.3662" lon="6.64937">
        <ele>126</ele>
        <time>2016-10-08T12:38:30Z</time>
      </trkpt>
      <trkpt lat="43.36591" lon="6.64957">
        <ele>127</ele>
        <time>2016-10-08T12:38:39Z</time>
      </trkpt>
      <trkpt lat="43.3658" lon="6.64968">
        <ele>126</ele>
        <time>2016-10-08T12:38:43Z</time>
      </trkpt>
      <trkpt lat="43.36573" lon="6.6498">
        <ele>127</ele>
        <time>2016-10-08T12:38:47Z</time>
      </trkpt>
      <trkpt lat="43.36568" lon="6.65007">
        <ele>129</ele>
        <time>2016-10-08T12:38:53Z</time>
      </trkpt>
      <trkpt lat="43.36569" lon="6.65028">
        <ele>130</ele>
        <time>2016-10-08T12:38:57Z</time>
      </trkpt>
      <trkpt lat="43.36577" lon="6.65097">
        <ele>133</ele>
        <time>2016-10-08T12:39:10Z</time>
      </trkpt>
      <trkpt lat="43.36585" lon="6.65119">
        <ele>138</ele>
        <time>2016-10-08T12:39:15Z</time>
      </trkpt>
      <trkpt lat="43.36587" lon="6.65128">
        <ele>139</ele>
        <time>2016-10-08T12:39:17Z</time>
      </trkpt>
      <trkpt lat="43.3659" lon="6.65186">
        <ele>139</ele>
        <time>2016-10-08T12:39:30Z</time>
      </trkpt>
      <trkpt lat="43.36591" lon="6.652">
        <ele>141</ele>
        <time>2016-10-08T12:39:33Z</time>
      </trkpt>
      <trkpt lat="43.3659" lon="6.65221">
        <ele>141</ele>
        <time>2016-10-08T12:39:37Z</time>
      </trkpt>
      <trkpt lat="43.36585" lon="6.65272">
        <ele>140</ele>
        <time>2016-10-08T12:39:48Z</time>
      </trkpt>
      <trkpt lat="43.36585" lon="6.65285">
        <ele>142</ele>
        <time>2016-10-08T12:39:51Z</time>
      </trkpt>
      <trkpt lat="43.36586" lon="6.65297">
        <ele>142</ele>
        <time>2016-10-08T12:39:54Z</time>
      </trkpt>
      <trkpt lat="43.36593" lon="6.65321">
        <ele>141</ele>
        <time>2016-10-08T12:40:00Z</time>
      </trkpt>
      <trkpt lat="43.36597" lon="6.65329">
        <ele>141</ele>
        <time>2016-10-08T12:40:02Z</time>
      </trkpt>
      <trkpt lat="43.36598" lon="6.65339">
        <ele>142</ele>
        <time>2016-10-08T12:40:04Z</time>
      </trkpt>
      <trkpt lat="43.36598" lon="6.65397">
        <ele>144</ele>
        <time>2016-10-08T12:40:15Z</time>
      </trkpt>
      <trkpt lat="43.366" lon="6.65436">
        <ele>145</ele>
        <time>2016-10-08T12:40:23Z</time>
      </trkpt>
      <trkpt lat="43.36604" lon="6.6547">
        <ele>147</ele>
        <time>2016-10-08T12:40:30Z</time>
      </trkpt>
      <trkpt lat="43.36608" lon="6.65483">
        <ele>147</ele>
        <time>2016-10-08T12:40:34Z</time>
      </trkpt>
      <trkpt lat="43.3661" lon="6.65492">
        <ele>148</ele>
        <time>2016-10-08T12:40:37Z</time>
      </trkpt>
      <trkpt lat="43.36615" lon="6.65509">
        <ele>148</ele>
        <time>2016-10-08T12:40:43Z</time>
      </trkpt>
      <trkpt lat="43.36619" lon="6.65519">
        <ele>148</ele>
        <time>2016-10-08T12:40:47Z</time>
      </trkpt>
      <trkpt lat="43.36619" lon="6.65523">
        <ele>148</ele>
        <time>2016-10-08T12:40:48Z</time>
      </trkpt>
      <trkpt lat="43.36619" lon="6.65531">
        <ele>149</ele>
        <time>2016-10-08T12:40:50Z</time>
      </trkpt>
      <trkpt lat="43.36613" lon="6.65558">
        <ele>149</ele>
        <time>2016-10-08T12:40:56Z</time>
      </trkpt>
      <trkpt lat="43.36614" lon="6.65581">
        <ele>149</ele>
        <time>2016-10-08T12:41:01Z</time>
      </trkpt>
      <trkpt lat="43.36618" lon="6.65599">
        <ele>149</ele>
        <time>2016-10-08T12:41:06Z</time>
      </trkpt>
      <trkpt lat="43.36622" lon="6.65608">
        <ele>149</ele>
        <time>2016-10-08T12:41:09Z</time>
      </trkpt>
      <trkpt lat="43.36629" lon="6.65622">
        <ele>149</ele>
        <time>2016-10-08T12:41:14Z</time>
      </trkpt>
      <trkpt lat="43.36641" lon="6.65658">
        <ele>149</ele>
        <time>2016-10-08T12:41:25Z</time>
      </trkpt>
      <trkpt lat="43.36648" lon="6.65676">
        <ele>151</ele>
        <time>2016-10-08T12:41:31Z</time>
      </trkpt>
      <trkpt lat="43.36671" lon="6.65722">
        <ele>157</ele>
        <time>2016-10-08T12:41:48Z</time>
      </trkpt>
      <trkpt lat="43.36677" lon="6.65733">
        <ele>156</ele>
        <time>2016-10-08T12:41:52Z</time>
      </trkpt>
      <trkpt lat="43.36683" lon="6.65746">
        <ele>156</ele>
        <time>2016-10-08T12:41:57Z</time>
      </trkpt>
      <trkpt lat="43.36685" lon="6.65758">
        <ele>156</ele>
        <time>2016-10-08T12:42:01Z</time>
      </trkpt>
      <trkpt lat="43.3668" lon="6.65778">
        <ele>157</ele>
        <time>2016-10-08T12:42:07Z</time>
      </trkpt>
      <trkpt lat="43.36675" lon="6.65787">
        <ele>157</ele>
        <time>2016-10-08T12:42:10Z</time>
      </trkpt>
      <trkpt lat="43.36671" lon="6.65797">
        <ele>157</ele>
        <time>2016-10-08T12:42:13Z</time>
      </trkpt>
      <trkpt lat="43.36657" lon="6.65824">
        <ele>156</ele>
        <time>2016-10-08T12:42:24Z</time>
      </trkpt>
      <trkpt lat="43.36655" lon="6.65836">
        <ele>159</ele>
        <time>2016-10-08T12:42:28Z</time>
      </trkpt>
      <trkpt lat="43.36651" lon="6.65859">
        <ele>162</ele>
        <time>2016-10-08T12:42:34Z</time>
      </trkpt>
      <trkpt lat="43.3666" lon="6.65874">
        <ele>163</ele>
        <time>2016-10-08T12:42:39Z</time>
      </trkpt>
      <trkpt lat="43.36665" lon="6.65873">
        <ele>163</ele>
        <time>2016-10-08T12:42:41Z</time>
      </trkpt>
      <trkpt lat="43.36685" lon="6.65863">
        <ele>159</ele>
        <time>2016-10-08T12:42:50Z</time>
      </trkpt>
      <trkpt lat="43.36693" lon="6.65858">
        <ele>159</ele>
        <time>2016-10-08T12:42:54Z</time>
      </trkpt>
      <trkpt lat="43.36703" lon="6.65857">
        <ele>160</ele>
        <time>2016-10-08T12:42:59Z</time>
      </trkpt>
      <trkpt lat="43.36707" lon="6.65858">
        <ele>160</ele>
        <time>2016-10-08T12:43:01Z</time>
      </trkpt>
      <trkpt lat="43.36709" lon="6.65859">
        <ele>160</ele>
        <time>2016-10-08T12:43:02Z</time>
      </trkpt>
      <trkpt lat="43.36713" lon="6.65864">
        <ele>161</ele>
        <time>2016-10-08T12:43:05Z</time>
      </trkpt>
      <trkpt lat="43.36723" lon="6.65886">
        <ele>162</ele>
        <time>2016-10-08T12:43:15Z</time>
      </trkpt>
      <trkpt lat="43.36728" lon="6.65902">
        <ele>162</ele>
        <time>2016-10-08T12:43:22Z</time>
      </trkpt>
      <trkpt lat="43.36731" lon="6.65909">
        <ele>163</ele>
        <time>2016-10-08T12:43:25Z</time>
      </trkpt>
      <trkpt lat="43.36736" lon="6.65933">
        <ele>167</ele>
        <time>2016-10-08T12:43:35Z</time>
      </trkpt>
      <trkpt lat="43.36741" lon="6.65947">
        <ele>167</ele>
        <time>2016-10-08T12:43:41Z</time>
      </trkpt>
      <trkpt lat="43.36744" lon="6.65967">
        <ele>169</ele>
        <time>2016-10-08T12:43:49Z</time>
      </trkpt>
      <trkpt lat="43.36745" lon="6.6597">
        <ele>169</ele>
        <time>2016-10-08T12:43:50Z</time>
      </trkpt>
      <trkpt lat="43.36751" lon="6.65992">
        <ele>172</ele>
        <time>2016-10-08T12:43:58Z</time>
      </trkpt>
      <trkpt lat="43.36753" lon="6.65997">
        <ele>172</ele>
        <time>2016-10-08T12:44:00Z</time>
      </trkpt>
      <trkpt lat="43.36756" lon="6.6602">
        <ele>172</ele>
        <time>2016-10-08T12:44:08Z</time>
      </trkpt>
      <trkpt lat="43.3676" lon="6.66039">
        <ele>172</ele>
        <time>2016-10-08T12:44:15Z</time>
      </trkpt>
      <trkpt lat="43.3676" lon="6.66058">
        <ele>174</ele>
        <time>2016-10-08T12:44:21Z</time>
      </trkpt>
      <trkpt lat="43.36759" lon="6.66061">
        <ele>174</ele>
        <time>2016-10-08T12:44:22Z</time>
      </trkpt>
      <trkpt lat="43.36759" lon="6.66089">
        <ele>176</ele>
        <time>2016-10-08T12:44:31Z</time>
      </trkpt>
      <trkpt lat="43.36761" lon="6.66106">
        <ele>173</ele>
        <time>2016-10-08T12:44:37Z</time>
      </trkpt>
      <trkpt lat="43.36762" lon="6.66119">
        <ele>172</ele>
        <time>2016-10-08T12:44:42Z</time>
      </trkpt>
      <trkpt lat="43.36764" lon="6.66132">
        <ele>172</ele>
        <time>2016-10-08T12:44:46Z</time>
      </trkpt>
      <trkpt lat="43.36765" lon="6.66152">
        <ele>173</ele>
        <time>2016-10-08T12:44:52Z</time>
      </trkpt>
      <trkpt lat="43.36763" lon="6.66163">
        <ele>175</ele>
        <time>2016-10-08T12:44:55Z</time>
      </trkpt>
      <trkpt lat="43.36762" lon="6.6617">
        <ele>175</ele>
        <time>2016-10-08T12:44:57Z</time>
      </trkpt>
      <trkpt lat="43.36761" lon="6.66178">
        <ele>174</ele>
        <time>2016-10-08T12:44:59Z</time>
      </trkpt>
      <trkpt lat="43.36752" lon="6.66201">
        <ele>173</ele>
        <time>2016-10-08T12:45:06Z</time>
      </trkpt>
      <trkpt lat="43.36749" lon="6.66206">
        <ele>184</ele>
        <time>2016-10-08T12:45:08Z</time>
      </trkpt>
      <trkpt lat="43.36736" lon="6.66228">
        <ele>184</ele>
        <time>2016-10-08T12:45:16Z</time>
      </trkpt>
      <trkpt lat="43.36723" lon="6.66243">
        <ele>185</ele>
        <time>2016-10-08T12:45:23Z</time>
      </trkpt>
      <trkpt lat="43.36713" lon="6.66244">
        <ele>185</ele>
        <time>2016-10-08T12:45:28Z</time>
      </trkpt>
      <trkpt lat="43.36706" lon="6.66243">
        <ele>186</ele>
        <time>2016-10-08T12:45:32Z</time>
      </trkpt>
      <trkpt lat="43.36701" lon="6.66254">
        <ele>187</ele>
        <time>2016-10-08T12:54:25Z</time>
      </trkpt>
      <trkpt lat="43.367" lon="6.66267">
        <ele>187</ele>
        <time>2016-10-08T12:54:28Z</time>
      </trkpt>
      <trkpt lat="43.367" lon="6.66271">
        <ele>187</ele>
        <time>2016-10-08T12:54:29Z</time>
      </trkpt>
      <trkpt lat="43.36699" lon="6.66275">
        <ele>187</ele>
        <time>2016-10-08T12:54:30Z</time>
      </trkpt>
      <trkpt lat="43.36697" lon="6.66278">
        <ele>187</ele>
        <time>2016-10-08T12:54:31Z</time>
      </trkpt>
      <trkpt lat="43.36681" lon="6.66286">
        <ele>187</ele>
        <time>2016-10-08T12:54:36Z</time>
      </trkpt>
      <trkpt lat="43.36678" lon="6.66289">
        <ele>187</ele>
        <time>2016-10-08T12:54:37Z</time>
      </trkpt>
      <trkpt lat="43.36677" lon="6.66293">
        <ele>187</ele>
        <time>2016-10-08T12:54:38Z</time>
      </trkpt>
      <trkpt lat="43.36675" lon="6.66329">
        <ele>187</ele>
        <time>2016-10-08T12:54:43Z</time>
      </trkpt>
      <trkpt lat="43.36676" lon="6.66351">
        <ele>186</ele>
        <time>2016-10-08T12:54:46Z</time>
      </trkpt>
      <trkpt lat="43.36674" lon="6.66367">
        <ele>185</ele>
        <time>2016-10-08T12:54:48Z</time>
      </trkpt>
      <trkpt lat="43.36675" lon="6.66375">
        <ele>185</ele>
        <time>2016-10-08T12:54:49Z</time>
      </trkpt>
      <trkpt lat="43.36678" lon="6.66389">
        <ele>185</ele>
        <time>2016-10-08T12:54:51Z</time>
      </trkpt>
      <trkpt lat="43.36679" lon="6.66396">
        <ele>185</ele>
        <time>2016-10-08T12:54:52Z</time>
      </trkpt>
      <trkpt lat="43.3668" lon="6.66415">
        <ele>184</ele>
        <time>2016-10-08T12:54:57Z</time>
      </trkpt>
      <trkpt lat="43.3668" lon="6.66422">
        <ele>181</ele>
        <time>2016-10-08T12:54:59Z</time>
      </trkpt>
      <trkpt lat="43.3668" lon="6.66425">
        <ele>181</ele>
        <time>2016-10-08T12:55:00Z</time>
      </trkpt>
      <trkpt lat="43.36682" lon="6.66427">
        <ele>181</ele>
        <time>2016-10-08T12:55:01Z</time>
      </trkpt>
      <trkpt lat="43.36683" lon="6.66433">
        <ele>180</ele>
        <time>2016-10-08T12:55:03Z</time>
      </trkpt>
      <trkpt lat="43.36683" lon="6.66437">
        <ele>180</ele>
        <time>2016-10-08T12:55:04Z</time>
      </trkpt>
      <trkpt lat="43.36684" lon="6.66441">
        <ele>179</ele>
        <time>2016-10-08T12:55:05Z</time>
      </trkpt>
      <trkpt lat="43.36684" lon="6.66447">
        <ele>178</ele>
        <time>2016-10-08T12:55:07Z</time>
      </trkpt>
      <trkpt lat="43.36684" lon="6.6646">
        <ele>177</ele>
        <time>2016-10-08T12:55:13Z</time>
      </trkpt>
      <trkpt lat="43.36687" lon="6.66474">
        <ele>176</ele>
        <time>2016-10-08T12:55:20Z</time>
      </trkpt>
      <trkpt lat="43.36688" lon="6.66484">
        <ele>176</ele>
        <time>2016-10-08T12:55:24Z</time>
      </trkpt>
      <trkpt lat="43.36688" lon="6.66486">
        <ele>176</ele>
        <time>2016-10-08T12:55:25Z</time>
      </trkpt>
      <trkpt lat="43.3669" lon="6.66491">
        <ele>175</ele>
        <time>2016-10-08T12:55:28Z</time>
      </trkpt>
      <trkpt lat="43.36689" lon="6.66502">
        <ele>169</ele>
        <time>2016-10-08T12:55:32Z</time>
      </trkpt>
      <trkpt lat="43.3669" lon="6.66506">
        <ele>169</ele>
        <time>2016-10-08T12:55:33Z</time>
      </trkpt>
      <trkpt lat="43.36693" lon="6.66516">
        <ele>168</ele>
        <time>2016-10-08T12:55:35Z</time>
      </trkpt>
      <trkpt lat="43.36694" lon="6.6652">
        <ele>168</ele>
        <time>2016-10-08T12:55:36Z</time>
      </trkpt>
      <trkpt lat="43.36695" lon="6.66533">
        <ele>167</ele>
        <time>2016-10-08T12:55:38Z</time>
      </trkpt>
      <trkpt lat="43.36698" lon="6.66555">
        <ele>166</ele>
        <time>2016-10-08T12:55:41Z</time>
      </trkpt>
      <trkpt lat="43.36703" lon="6.6657">
        <ele>165</ele>
        <time>2016-10-08T12:55:43Z</time>
      </trkpt>
      <trkpt lat="43.36705" lon="6.66583">
        <ele>158</ele>
        <time>2016-10-08T12:55:45Z</time>
      </trkpt>
      <trkpt lat="43.36708" lon="6.66588">
        <ele>157</ele>
        <time>2016-10-08T12:55:46Z</time>
      </trkpt>
      <trkpt lat="43.36714" lon="6.66614">
        <ele>155</ele>
        <time>2016-10-08T12:55:51Z</time>
      </trkpt>
      <trkpt lat="43.36717" lon="6.66618">
        <ele>155</ele>
        <time>2016-10-08T12:55:52Z</time>
      </trkpt>
      <trkpt lat="43.36718" lon="6.66625">
        <ele>154</ele>
        <time>2016-10-08T12:55:54Z</time>
      </trkpt>
      <trkpt lat="43.36721" lon="6.6663">
        <ele>154</ele>
        <time>2016-10-08T12:55:56Z</time>
      </trkpt>
      <trkpt lat="43.36725" lon="6.66645">
        <ele>152</ele>
        <time>2016-10-08T12:56:00Z</time>
      </trkpt>
      <trkpt lat="43.36724" lon="6.66649">
        <ele>152</ele>
        <time>2016-10-08T12:56:01Z</time>
      </trkpt>
      <trkpt lat="43.36728" lon="6.66659">
        <ele>150</ele>
        <time>2016-10-08T12:56:03Z</time>
      </trkpt>
      <trkpt lat="43.36729" lon="6.66665">
        <ele>149</ele>
        <time>2016-10-08T12:56:04Z</time>
      </trkpt>
      <trkpt lat="43.36731" lon="6.6668">
        <ele>143</ele>
        <time>2016-10-08T12:56:07Z</time>
      </trkpt>
      <trkpt lat="43.36732" lon="6.66715">
        <ele>140</ele>
        <time>2016-10-08T12:56:12Z</time>
      </trkpt>
      <trkpt lat="43.36731" lon="6.66728">
        <ele>138</ele>
        <time>2016-10-08T12:56:14Z</time>
      </trkpt>
      <trkpt lat="43.3673" lon="6.66753">
        <ele>130</ele>
        <time>2016-10-08T12:56:18Z</time>
      </trkpt>
      <trkpt lat="43.36729" lon="6.66767">
        <ele>130</ele>
        <time>2016-10-08T12:56:20Z</time>
      </trkpt>
      <trkpt lat="43.36725" lon="6.66782">
        <ele>130</ele>
        <time>2016-10-08T12:56:22Z</time>
      </trkpt>
      <trkpt lat="43.36725" lon="6.66788">
        <ele>129</ele>
        <time>2016-10-08T12:56:23Z</time>
      </trkpt>
      <trkpt lat="43.36733" lon="6.66813">
        <ele>127</ele>
        <time>2016-10-08T12:56:27Z</time>
      </trkpt>
      <trkpt lat="43.36733" lon="6.66819">
        <ele>126</ele>
        <time>2016-10-08T12:56:28Z</time>
      </trkpt>
      <trkpt lat="43.36735" lon="6.66832">
        <ele>125</ele>
        <time>2016-10-08T12:56:30Z</time>
      </trkpt>
      <trkpt lat="43.36735" lon="6.66839">
        <ele>123</ele>
        <time>2016-10-08T12:56:31Z</time>
      </trkpt>
      <trkpt lat="43.36731" lon="6.66849">
        <ele>123</ele>
        <time>2016-10-08T12:56:33Z</time>
      </trkpt>
      <trkpt lat="43.36721" lon="6.66862">
        <ele>124</ele>
        <time>2016-10-08T12:56:36Z</time>
      </trkpt>
      <trkpt lat="43.36716" lon="6.66864">
        <ele>124</ele>
        <time>2016-10-08T12:56:38Z</time>
      </trkpt>
      <trkpt lat="43.3671" lon="6.66865">
        <ele>124</ele>
        <time>2016-10-08T12:56:40Z</time>
      </trkpt>
      <trkpt lat="43.36705" lon="6.66867">
        <ele>125</ele>
        <time>2016-10-08T12:56:42Z</time>
      </trkpt>
      <trkpt lat="43.36703" lon="6.6687">
        <ele>125</ele>
        <time>2016-10-08T12:56:43Z</time>
      </trkpt>
      <trkpt lat="43.36703" lon="6.66872">
        <ele>125</ele>
        <time>2016-10-08T12:56:45Z</time>
      </trkpt>
      <trkpt lat="43.36711" lon="6.66911">
        <ele>124</ele>
        <time>2016-10-08T12:57:50Z</time>
      </trkpt>
      <trkpt lat="43.36711" lon="6.66917">
        <ele>123</ele>
        <time>2016-10-08T12:57:51Z</time>
      </trkpt>
      <trkpt lat="43.36713" lon="6.66935">
        <ele>123</ele>
        <time>2016-10-08T12:57:54Z</time>
      </trkpt>
      <trkpt lat="43.36715" lon="6.66955">
        <ele>122</ele>
        <time>2016-10-08T12:57:58Z</time>
      </trkpt>
      <trkpt lat="43.36713" lon="6.6697">
        <ele>122</ele>
        <time>2016-10-08T12:58:01Z</time>
      </trkpt>
      <trkpt lat="43.36712" lon="6.6698">
        <ele>122</ele>
        <time>2016-10-08T12:58:03Z</time>
      </trkpt>
      <trkpt lat="43.36706" lon="6.67006">
        <ele>121</ele>
        <time>2016-10-08T12:58:09Z</time>
      </trkpt>
      <trkpt lat="43.367" lon="6.67032">
        <ele>120</ele>
        <time>2016-10-08T12:58:14Z</time>
      </trkpt>
      <trkpt lat="43.36691" lon="6.67062">
        <ele>120</ele>
        <time>2016-10-08T12:58:19Z</time>
      </trkpt>
      <trkpt lat="43.36687" lon="6.67084">
        <ele>117</ele>
        <time>2016-10-08T12:58:24Z</time>
      </trkpt>
      <trkpt lat="43.36691" lon="6.67104">
        <ele>115</ele>
        <time>2016-10-08T12:58:30Z</time>
      </trkpt>
      <trkpt lat="43.36696" lon="6.67123">
        <ele>113</ele>
        <time>2016-10-08T12:58:33Z</time>
      </trkpt>
      <trkpt lat="43.367" lon="6.67141">
        <ele>112</ele>
        <time>2016-10-08T12:58:35Z</time>
      </trkpt>
      <trkpt lat="43.36701" lon="6.67161">
        <ele>112</ele>
        <time>2016-10-08T12:58:37Z</time>
      </trkpt>
      <trkpt lat="43.367" lon="6.67186">
        <ele>109</ele>
        <time>2016-10-08T12:58:40Z</time>
      </trkpt>
      <trkpt lat="43.36698" lon="6.672">
        <ele>109</ele>
        <time>2016-10-08T12:58:42Z</time>
      </trkpt>
      <trkpt lat="43.36693" lon="6.67212">
        <ele>109</ele>
        <time>2016-10-08T12:58:44Z</time>
      </trkpt>
      <trkpt lat="43.36679" lon="6.67218">
        <ele>109</ele>
        <time>2016-10-08T12:58:47Z</time>
      </trkpt>
      <trkpt lat="43.36673" lon="6.67222">
        <ele>109</ele>
        <time>2016-10-08T12:58:49Z</time>
      </trkpt>
      <trkpt lat="43.36672" lon="6.67226">
        <ele>109</ele>
        <time>2016-10-08T12:58:50Z</time>
      </trkpt>
      <trkpt lat="43.36667" lon="6.67246">
        <ele>112</ele>
        <time>2016-10-08T12:58:53Z</time>
      </trkpt>
      <trkpt lat="43.36665" lon="6.67262">
        <ele>113</ele>
        <time>2016-10-08T12:58:56Z</time>
      </trkpt>
      <trkpt lat="43.36664" lon="6.67279">
        <ele>115</ele>
        <time>2016-10-08T12:59:00Z</time>
      </trkpt>
      <trkpt lat="43.3666" lon="6.67294">
        <ele>116</ele>
        <time>2016-10-08T12:59:03Z</time>
      </trkpt>
      <trkpt lat="43.3666" lon="6.67299">
        <ele>116</ele>
        <time>2016-10-08T12:59:04Z</time>
      </trkpt>
      <trkpt lat="43.36667" lon="6.67311">
        <ele>115</ele>
        <time>2016-10-08T12:59:07Z</time>
      </trkpt>
      <trkpt lat="43.36682" lon="6.67327">
        <ele>110</ele>
        <time>2016-10-08T12:59:12Z</time>
      </trkpt>
      <trkpt lat="43.36688" lon="6.67332">
        <ele>109</ele>
        <time>2016-10-08T12:59:14Z</time>
      </trkpt>
      <trkpt lat="43.36691" lon="6.67336">
        <ele>112</ele>
        <time>2016-10-08T12:59:16Z</time>
      </trkpt>
      <trkpt lat="43.36708" lon="6.67368">
        <ele>113</ele>
        <time>2016-10-08T12:59:26Z</time>
      </trkpt>
      <trkpt lat="43.36711" lon="6.67383">
        <ele>114</ele>
        <time>2016-10-08T12:59:29Z</time>
      </trkpt>
      <trkpt lat="43.36712" lon="6.67387">
        <ele>114</ele>
        <time>2016-10-08T12:59:30Z</time>
      </trkpt>
      <trkpt lat="43.36711" lon="6.674">
        <ele>115</ele>
        <time>2016-10-08T12:59:33Z</time>
      </trkpt>
      <trkpt lat="43.36714" lon="6.67426">
        <ele>120</ele>
        <time>2016-10-08T12:59:38Z</time>
      </trkpt>
      <trkpt lat="43.36724" lon="6.67463">
        <ele>121</ele>
        <time>2016-10-08T12:59:44Z</time>
      </trkpt>
      <trkpt lat="43.3674" lon="6.6751">
        <ele>119</ele>
        <time>2016-10-08T12:59:51Z</time>
      </trkpt>
      <trkpt lat="43.36758" lon="6.67546">
        <ele>123</ele>
        <time>2016-10-08T12:59:58Z</time>
      </trkpt>
      <trkpt lat="43.36771" lon="6.67587">
        <ele>126</ele>
        <time>2016-10-08T13:00:06Z</time>
      </trkpt>
      <trkpt lat="43.36771" lon="6.67593">
        <ele>127</ele>
        <time>2016-10-08T13:00:08Z</time>
      </trkpt>
      <trkpt lat="43.36769" lon="6.67604">
        <ele>128</ele>
        <time>2016-10-08T13:00:12Z</time>
      </trkpt>
      <trkpt lat="43.36764" lon="6.67621">
        <ele>129</ele>
        <time>2016-10-08T13:00:18Z</time>
      </trkpt>
      <trkpt lat="43.36755" lon="6.67644">
        <ele>129</ele>
        <time>2016-10-08T13:00:26Z</time>
      </trkpt>
      <trkpt lat="43.3675" lon="6.67659">
        <ele>128</ele>
        <time>2016-10-08T13:00:32Z</time>
      </trkpt>
      <trkpt lat="43.3675" lon="6.67666">
        <ele>126</ele>
        <time>2016-10-08T13:00:35Z</time>
      </trkpt>
      <trkpt lat="43.36746" lon="6.6768">
        <ele>131</ele>
        <time>2016-10-08T13:00:41Z</time>
      </trkpt>
      <trkpt lat="43.36747" lon="6.67699">
        <ele>135</ele>
        <time>2016-10-08T13:00:47Z</time>
      </trkpt>
      <trkpt lat="43.3675" lon="6.67717">
        <ele>137</ele>
        <time>2016-10-08T13:00:54Z</time>
      </trkpt>
      <trkpt lat="43.36751" lon="6.67719">
        <ele>140</ele>
        <time>2016-10-08T13:00:56Z</time>
      </trkpt>
      <trkpt lat="43.36753" lon="6.67731">
        <ele>140</ele>
        <time>2016-10-08T13:01:01Z</time>
      </trkpt>
      <trkpt lat="43.36763" lon="6.6778">
        <ele>150</ele>
        <time>2016-10-08T13:01:21Z</time>
      </trkpt>
      <trkpt lat="43.36763" lon="6.67782">
        <ele>150</ele>
        <time>2016-10-08T13:01:22Z</time>
      </trkpt>
      <trkpt lat="43.36764" lon="6.6779">
        <ele>151</ele>
        <time>2016-10-08T13:01:26Z</time>
      </trkpt>
      <trkpt lat="43.36767" lon="6.678">
        <ele>152</ele>
        <time>2016-10-08T13:01:31Z</time>
      </trkpt>
      <trkpt lat="43.36767" lon="6.67805">
        <ele>153</ele>
        <time>2016-10-08T13:01:34Z</time>
      </trkpt>
      <trkpt lat="43.36768" lon="6.67807">
        <ele>153</ele>
        <time>2016-10-08T13:01:35Z</time>
      </trkpt>
      <trkpt lat="43.36769" lon="6.67823">
        <ele>153</ele>
        <time>2016-10-08T13:01:44Z</time>
      </trkpt>
      <trkpt lat="43.36769" lon="6.67828">
        <ele>153</ele>
        <time>2016-10-08T13:01:46Z</time>
      </trkpt>
      <trkpt lat="43.36768" lon="6.67832">
        <ele>153</ele>
        <time>2016-10-08T13:01:49Z</time>
      </trkpt>
      <trkpt lat="43.36769" lon="6.67837">
        <ele>157</ele>
        <time>2016-10-08T13:01:52Z</time>
      </trkpt>
      <trkpt lat="43.36768" lon="6.67846">
        <ele>157</ele>
        <time>2016-10-08T13:01:57Z</time>
      </trkpt>
      <trkpt lat="43.36766" lon="6.67849">
        <ele>157</ele>
        <time>2016-10-08T13:01:59Z</time>
      </trkpt>
      <trkpt lat="43.36765" lon="6.67856">
        <ele>158</ele>
        <time>2016-10-08T13:02:02Z</time>
      </trkpt>
      <trkpt lat="43.36766" lon="6.67859">
        <ele>158</ele>
        <time>2016-10-08T13:02:03Z</time>
      </trkpt>
      <trkpt lat="43.36763" lon="6.67879">
        <ele>159</ele>
        <time>2016-10-08T13:02:16Z</time>
      </trkpt>
      <trkpt lat="43.36765" lon="6.6789">
        <ele>159</ele>
        <time>2016-10-08T13:02:22Z</time>
      </trkpt>
      <trkpt lat="43.36767" lon="6.67895">
        <ele>159</ele>
        <time>2016-10-08T13:02:25Z</time>
      </trkpt>
      <trkpt lat="43.36771" lon="6.67902">
        <ele>160</ele>
        <time>2016-10-08T13:02:31Z</time>
      </trkpt>
      <trkpt lat="43.36772" lon="6.67904">
        <ele>160</ele>
        <time>2016-10-08T13:02:32Z</time>
      </trkpt>
      <trkpt lat="43.36773" lon="6.67916">
        <ele>160</ele>
        <time>2016-10-08T13:02:37Z</time>
      </trkpt>
      <trkpt lat="43.36773" lon="6.67922">
        <ele>159</ele>
        <time>2016-10-08T13:02:39Z</time>
      </trkpt>
      <trkpt lat="43.36773" lon="6.67925">
        <ele>159</ele>
        <time>2016-10-08T13:02:41Z</time>
      </trkpt>
      <trkpt lat="43.36771" lon="6.67932">
        <ele>159</ele>
        <time>2016-10-08T13:02:43Z</time>
      </trkpt>
      <trkpt lat="43.36756" lon="6.67966">
        <ele>157</ele>
        <time>2016-10-08T13:02:53Z</time>
      </trkpt>
      <trkpt lat="43.36748" lon="6.67988">
        <ele>158</ele>
        <time>2016-10-08T13:03:00Z</time>
      </trkpt>
      <trkpt lat="43.3671" lon="6.67999">
        <ele>165</ele>
        <time>2016-10-08T13:03:11Z</time>
      </trkpt>
      <trkpt lat="43.36702" lon="6.68012">
        <ele>163</ele>
        <time>2016-10-08T13:03:15Z</time>
      </trkpt>
      <trkpt lat="43.36698" lon="6.68031">
        <ele>163</ele>
        <time>2016-10-08T13:03:19Z</time>
      </trkpt>
      <trkpt lat="43.36699" lon="6.68044">
        <ele>162</ele>
        <time>2016-10-08T13:03:22Z</time>
      </trkpt>
      <trkpt lat="43.36703" lon="6.68062">
        <ele>161</ele>
        <time>2016-10-08T13:03:26Z</time>
      </trkpt>
      <trkpt lat="43.36715" lon="6.68092">
        <ele>156</ele>
        <time>2016-10-08T13:03:33Z</time>
      </trkpt>
      <trkpt lat="43.36724" lon="6.68124">
        <ele>154</ele>
        <time>2016-10-08T13:03:40Z</time>
      </trkpt>
      <trkpt lat="43.3672" lon="6.68149">
        <ele>153</ele>
        <time>2016-10-08T13:03:45Z</time>
      </trkpt>
      <trkpt lat="43.36713" lon="6.68171">
        <ele>149</ele>
        <time>2016-10-08T13:03:49Z</time>
      </trkpt>
      <trkpt lat="43.36708" lon="6.6818">
        <ele>149</ele>
        <time>2016-10-08T13:03:51Z</time>
      </trkpt>
      <trkpt lat="43.36706" lon="6.68184">
        <ele>149</ele>
        <time>2016-10-08T13:03:52Z</time>
      </trkpt>
      <trkpt lat="43.36692" lon="6.682">
        <ele>150</ele>
        <time>2016-10-08T13:03:56Z</time>
      </trkpt>
      <trkpt lat="43.3665" lon="6.68246">
        <ele>152</ele>
        <time>2016-10-08T13:04:09Z</time>
      </trkpt>
      <trkpt lat="43.36634" lon="6.68244">
        <ele>152</ele>
        <time>2016-10-08T13:04:17Z</time>
      </trkpt>
      <trkpt lat="43.36617" lon="6.68229">
        <ele>153</ele>
        <time>2016-10-08T13:04:22Z</time>
      </trkpt>
      <trkpt lat="43.36583" lon="6.68206">
        <ele>152</ele>
        <time>2016-10-08T13:04:31Z</time>
      </trkpt>
      <trkpt lat="43.36562" lon="6.68187">
        <ele>154</ele>
        <time>2016-10-08T13:04:36Z</time>
      </trkpt>
      <trkpt lat="43.36559" lon="6.68183">
        <ele>154</ele>
        <time>2016-10-08T13:04:37Z</time>
      </trkpt>
      <trkpt lat="43.36547" lon="6.68164">
        <ele>164</ele>
        <time>2016-10-08T13:04:41Z</time>
      </trkpt>
      <trkpt lat="43.36537" lon="6.68143">
        <ele>164</ele>
        <time>2016-10-08T13:04:45Z</time>
      </trkpt>
      <trkpt lat="43.3653" lon="6.68136">
        <ele>164</ele>
        <time>2016-10-08T13:04:47Z</time>
      </trkpt>
      <trkpt lat="43.36512" lon="6.68131">
        <ele>164</ele>
        <time>2016-10-08T13:04:51Z</time>
      </trkpt>
      <trkpt lat="43.36462" lon="6.68113">
        <ele>169</ele>
        <time>2016-10-08T13:05:02Z</time>
      </trkpt>
      <trkpt lat="43.36452" lon="6.68116">
        <ele>169</ele>
        <time>2016-10-08T13:05:04Z</time>
      </trkpt>
      <trkpt lat="43.36444" lon="6.68132">
        <ele>168</ele>
        <time>2016-10-08T13:05:07Z</time>
      </trkpt>
      <trkpt lat="43.36442" lon="6.68157">
        <ele>168</ele>
        <time>2016-10-08T13:05:11Z</time>
      </trkpt>
      <trkpt lat="43.36445" lon="6.68207">
        <ele>159</ele>
        <time>2016-10-08T13:05:19Z</time>
      </trkpt>
      <trkpt lat="43.36452" lon="6.68264">
        <ele>152</ele>
        <time>2016-10-08T13:05:28Z</time>
      </trkpt>
      <trkpt lat="43.36452" lon="6.68271">
        <ele>151</ele>
        <time>2016-10-08T13:05:29Z</time>
      </trkpt>
      <trkpt lat="43.36448" lon="6.68291">
        <ele>150</ele>
        <time>2016-10-08T13:05:32Z</time>
      </trkpt>
      <trkpt lat="43.36441" lon="6.6831">
        <ele>150</ele>
        <time>2016-10-08T13:05:35Z</time>
      </trkpt>
      <trkpt lat="43.36435" lon="6.6832">
        <ele>151</ele>
        <time>2016-10-08T13:05:37Z</time>
      </trkpt>
      <trkpt lat="43.36431" lon="6.68325">
        <ele>151</ele>
        <time>2016-10-08T13:05:38Z</time>
      </trkpt>
      <trkpt lat="43.36417" lon="6.68335">
        <ele>153</ele>
        <time>2016-10-08T13:05:41Z</time>
      </trkpt>
      <trkpt lat="43.36375" lon="6.68354">
        <ele>154</ele>
        <time>2016-10-08T13:05:49Z</time>
      </trkpt>
      <trkpt lat="43.36361" lon="6.68367">
        <ele>154</ele>
        <time>2016-10-08T13:05:52Z</time>
      </trkpt>
      <trkpt lat="43.36351" lon="6.68387">
        <ele>153</ele>
        <time>2016-10-08T13:05:55Z</time>
      </trkpt>
      <trkpt lat="43.36344" lon="6.68407">
        <ele>151</ele>
        <time>2016-10-08T13:05:58Z</time>
      </trkpt>
      <trkpt lat="43.36338" lon="6.68432">
        <ele>150</ele>
        <time>2016-10-08T13:06:01Z</time>
      </trkpt>
      <trkpt lat="43.36337" lon="6.68439">
        <ele>151</ele>
        <time>2016-10-08T13:06:02Z</time>
      </trkpt>
      <trkpt lat="43.36338" lon="6.68443">
        <ele>151</ele>
        <time>2016-10-08T13:06:03Z</time>
      </trkpt>
      <trkpt lat="43.36341" lon="6.68449">
        <ele>151</ele>
        <time>2016-10-08T13:06:05Z</time>
      </trkpt>
      <trkpt lat="43.36349" lon="6.68458">
        <ele>151</ele>
        <time>2016-10-08T13:06:09Z</time>
      </trkpt>
      <trkpt lat="43.36358" lon="6.68467">
        <ele>151</ele>
        <time>2016-10-08T13:06:13Z</time>
      </trkpt>
      <trkpt lat="43.36367" lon="6.68474">
        <ele>151</ele>
        <time>2016-10-08T13:06:16Z</time>
      </trkpt>
      <trkpt lat="43.36371" lon="6.6848">
        <ele>151</ele>
        <time>2016-10-08T13:06:18Z</time>
      </trkpt>
      <trkpt lat="43.36395" lon="6.68522">
        <ele>159</ele>
        <time>2016-10-08T13:06:31Z</time>
      </trkpt>
      <trkpt lat="43.36411" lon="6.68539">
        <ele>162</ele>
        <time>2016-10-08T13:06:37Z</time>
      </trkpt>
      <trkpt lat="43.36429" lon="6.68548">
        <ele>155</ele>
        <time>2016-10-08T13:06:43Z</time>
      </trkpt>
      <trkpt lat="43.36434" lon="6.68551">
        <ele>155</ele>
        <time>2016-10-08T13:06:45Z</time>
      </trkpt>
      <trkpt lat="43.36438" lon="6.68556">
        <ele>155</ele>
        <time>2016-10-08T13:06:47Z</time>
      </trkpt>
      <trkpt lat="43.36443" lon="6.6856">
        <ele>155</ele>
        <time>2016-10-08T13:06:49Z</time>
      </trkpt>
      <trkpt lat="43.3646" lon="6.68583">
        <ele>162</ele>
        <time>2016-10-08T13:06:56Z</time>
      </trkpt>
      <trkpt lat="43.36487" lon="6.68633">
        <ele>161</ele>
        <time>2016-10-08T13:07:07Z</time>
      </trkpt>
      <trkpt lat="43.36495" lon="6.68652">
        <ele>161</ele>
        <time>2016-10-08T13:07:10Z</time>
      </trkpt>
      <trkpt lat="43.36505" lon="6.68669">
        <ele>155</ele>
        <time>2016-10-08T13:07:13Z</time>
      </trkpt>
      <trkpt lat="43.36518" lon="6.68702">
        <ele>148</ele>
        <time>2016-10-08T13:07:18Z</time>
      </trkpt>
      <trkpt lat="43.36523" lon="6.68717">
        <ele>147</ele>
        <time>2016-10-08T13:07:20Z</time>
      </trkpt>
      <trkpt lat="43.36523" lon="6.6875">
        <ele>150</ele>
        <time>2016-10-08T13:07:24Z</time>
      </trkpt>
      <trkpt lat="43.3652" lon="6.68771">
        <ele>145</ele>
        <time>2016-10-08T13:07:27Z</time>
      </trkpt>
      <trkpt lat="43.36518" lon="6.68778">
        <ele>145</ele>
        <time>2016-10-08T13:07:28Z</time>
      </trkpt>
      <trkpt lat="43.36511" lon="6.68796">
        <ele>143</ele>
        <time>2016-10-08T13:07:31Z</time>
      </trkpt>
      <trkpt lat="43.36507" lon="6.688">
        <ele>143</ele>
        <time>2016-10-08T13:07:32Z</time>
      </trkpt>
      <trkpt lat="43.36492" lon="6.68807">
        <ele>153</ele>
        <time>2016-10-08T13:07:36Z</time>
      </trkpt>
      <trkpt lat="43.36476" lon="6.68807">
        <ele>155</ele>
        <time>2016-10-08T13:07:41Z</time>
      </trkpt>
      <trkpt lat="43.3647" lon="6.68815">
        <ele>154</ele>
        <time>2016-10-08T13:07:43Z</time>
      </trkpt>
      <trkpt lat="43.36464" lon="6.68822">
        <ele>154</ele>
        <time>2016-10-08T13:07:44Z</time>
      </trkpt>
      <trkpt lat="43.36452" lon="6.68831">
        <ele>155</ele>
        <time>2016-10-08T13:07:46Z</time>
      </trkpt>
      <trkpt lat="43.36447" lon="6.68834">
        <ele>142</ele>
        <time>2016-10-08T13:07:47Z</time>
      </trkpt>
      <trkpt lat="43.36436" lon="6.68834">
        <ele>144</ele>
        <time>2016-10-08T13:07:49Z</time>
      </trkpt>
      <trkpt lat="43.36409" lon="6.68836">
        <ele>152</ele>
        <time>2016-10-08T13:07:58Z</time>
      </trkpt>
      <trkpt lat="43.36402" lon="6.68838">
        <ele>152</ele>
        <time>2016-10-08T13:08:01Z</time>
      </trkpt>
      <trkpt lat="43.36398" lon="6.68841">
        <ele>152</ele>
        <time>2016-10-08T13:08:03Z</time>
      </trkpt>
      <trkpt lat="43.36378" lon="6.68849">
        <ele>154</ele>
        <time>2016-10-08T13:08:11Z</time>
      </trkpt>
      <trkpt lat="43.36372" lon="6.68859">
        <ele>154</ele>
        <time>2016-10-08T13:08:14Z</time>
      </trkpt>
      <trkpt lat="43.36365" lon="6.68872">
        <ele>153</ele>
        <time>2016-10-08T13:08:17Z</time>
      </trkpt>
      <trkpt lat="43.36355" lon="6.689">
        <ele>152</ele>
        <time>2016-10-08T13:08:24Z</time>
      </trkpt>
      <trkpt lat="43.36339" lon="6.68924">
        <ele>149</ele>
        <time>2016-10-08T13:08:30Z</time>
      </trkpt>
      <trkpt lat="43.36331" lon="6.68939">
        <ele>155</ele>
        <time>2016-10-08T13:08:36Z</time>
      </trkpt>
      <trkpt lat="43.36304" lon="6.68958">
        <ele>155</ele>
        <time>2016-10-08T13:08:44Z</time>
      </trkpt>
      <trkpt lat="43.363" lon="6.68973">
        <ele>154</ele>
        <time>2016-10-08T13:08:47Z</time>
      </trkpt>
      <trkpt lat="43.36296" lon="6.68984">
        <ele>154</ele>
        <time>2016-10-08T13:08:52Z</time>
      </trkpt>
      <trkpt lat="43.36291" lon="6.68996">
        <ele>155</ele>
        <time>2016-10-08T13:08:57Z</time>
      </trkpt>
      <trkpt lat="43.36288" lon="6.69005">
        <ele>155</ele>
        <time>2016-10-08T13:09:05Z</time>
      </trkpt>
      <trkpt lat="43.36287" lon="6.69006">
        <ele>156</ele>
        <time>2016-10-08T13:09:07Z</time>
      </trkpt>
      <trkpt lat="43.36249" lon="6.6909">
        <ele>178</ele>
        <time>2016-10-08T13:11:11Z</time>
      </trkpt>
      <trkpt lat="43.36243" lon="6.69111">
        <ele>185</ele>
        <time>2016-10-08T13:11:21Z</time>
      </trkpt>
      <trkpt lat="43.36239" lon="6.69149">
        <ele>186</ele>
        <time>2016-10-08T13:11:36Z</time>
      </trkpt>
      <trkpt lat="43.3624" lon="6.69155">
        <ele>185</ele>
        <time>2016-10-08T13:11:38Z</time>
      </trkpt>
      <trkpt lat="43.36239" lon="6.69157">
        <ele>184</ele>
        <time>2016-10-08T13:11:39Z</time>
      </trkpt>
      <trkpt lat="43.3624" lon="6.69177">
        <ele>189</ele>
        <time>2016-10-08T13:11:46Z</time>
      </trkpt>
      <trkpt lat="43.36248" lon="6.69203">
        <ele>194</ele>
        <time>2016-10-08T13:11:55Z</time>
      </trkpt>
      <trkpt lat="43.36247" lon="6.69226">
        <ele>195</ele>
        <time>2016-10-08T13:12:02Z</time>
      </trkpt>
      <trkpt lat="43.36244" lon="6.69244">
        <ele>193</ele>
        <time>2016-10-08T13:12:07Z</time>
      </trkpt>
      <trkpt lat="43.36245" lon="6.69247">
        <ele>192</ele>
        <time>2016-10-08T13:12:08Z</time>
      </trkpt>
      <trkpt lat="43.36246" lon="6.69249">
        <ele>192</ele>
        <time>2016-10-08T13:12:09Z</time>
      </trkpt>
      <trkpt lat="43.36246" lon="6.69254">
        <ele>195</ele>
        <time>2016-10-08T13:12:11Z</time>
      </trkpt>
      <trkpt lat="43.36248" lon="6.69265">
        <ele>199</ele>
        <time>2016-10-08T13:12:14Z</time>
      </trkpt>
      <trkpt lat="43.36252" lon="6.69272">
        <ele>188</ele>
        <time>2016-10-08T13:12:17Z</time>
      </trkpt>
      <trkpt lat="43.36282" lon="6.69306">
        <ele>187</ele>
        <time>2016-10-08T13:12:34Z</time>
      </trkpt>
      <trkpt lat="43.36286" lon="6.69313">
        <ele>187</ele>
        <time>2016-10-08T13:12:37Z</time>
      </trkpt>
      <trkpt lat="43.36296" lon="6.69325">
        <ele>186</ele>
        <time>2016-10-08T13:12:42Z</time>
      </trkpt>
      <trkpt lat="43.363" lon="6.69333">
        <ele>185</ele>
        <time>2016-10-08T13:12:45Z</time>
      </trkpt>
      <trkpt lat="43.36307" lon="6.69344">
        <ele>193</ele>
        <time>2016-10-08T13:12:51Z</time>
      </trkpt>
      <trkpt lat="43.36319" lon="6.69368">
        <ele>194</ele>
        <time>2016-10-08T13:13:04Z</time>
      </trkpt>
      <trkpt lat="43.36323" lon="6.69377">
        <ele>194</ele>
        <time>2016-10-08T13:13:09Z</time>
      </trkpt>
      <trkpt lat="43.36326" lon="6.69387">
        <ele>195</ele>
        <time>2016-10-08T13:13:15Z</time>
      </trkpt>
      <trkpt lat="43.36331" lon="6.694">
        <ele>195</ele>
        <time>2016-10-08T13:13:22Z</time>
      </trkpt>
      <trkpt lat="43.36333" lon="6.69411">
        <ele>195</ele>
        <time>2016-10-08T13:13:27Z</time>
      </trkpt>
      <trkpt lat="43.36331" lon="6.69448">
        <ele>196</ele>
        <time>2016-10-08T13:13:40Z</time>
      </trkpt>
      <trkpt lat="43.36326" lon="6.69462">
        <ele>196</ele>
        <time>2016-10-08T13:13:46Z</time>
      </trkpt>
      <trkpt lat="43.36325" lon="6.69468">
        <ele>196</ele>
        <time>2016-10-08T13:13:49Z</time>
      </trkpt>
      <trkpt lat="43.36323" lon="6.69473">
        <ele>196</ele>
        <time>2016-10-08T13:13:52Z</time>
      </trkpt>
      <trkpt lat="43.36321" lon="6.69475">
        <ele>196</ele>
        <time>2016-10-08T13:13:54Z</time>
      </trkpt>
      <trkpt lat="43.36318" lon="6.69475">
        <ele>196</ele>
        <time>2016-10-08T13:13:56Z</time>
      </trkpt>
      <trkpt lat="43.36309" lon="6.69463">
        <ele>197</ele>
        <time>2016-10-08T13:14:04Z</time>
      </trkpt>
      <trkpt lat="43.36305" lon="6.69454">
        <ele>197</ele>
        <time>2016-10-08T13:14:08Z</time>
      </trkpt>
      <trkpt lat="43.36302" lon="6.69451">
        <ele>198</ele>
        <time>2016-10-08T13:14:10Z</time>
      </trkpt>
      <trkpt lat="43.36299" lon="6.69445">
        <ele>198</ele>
        <time>2016-10-08T13:14:13Z</time>
      </trkpt>
      <trkpt lat="43.36289" lon="6.69432">
        <ele>200</ele>
        <time>2016-10-08T13:14:22Z</time>
      </trkpt>
      <trkpt lat="43.36275" lon="6.69419">
        <ele>203</ele>
        <time>2016-10-08T13:14:34Z</time>
      </trkpt>
      <trkpt lat="43.36272" lon="6.69416">
        <ele>203</ele>
        <time>2016-10-08T13:14:37Z</time>
      </trkpt>
      <trkpt lat="43.36267" lon="6.69406">
        <ele>204</ele>
        <time>2016-10-08T13:14:44Z</time>
      </trkpt>
      <trkpt lat="43.36264" lon="6.69404">
        <ele>204</ele>
        <time>2016-10-08T13:14:46Z</time>
      </trkpt>
      <trkpt lat="43.36263" lon="6.69401">
        <ele>204</ele>
        <time>2016-10-08T13:14:48Z</time>
      </trkpt>
      <trkpt lat="43.36256" lon="6.6939">
        <ele>203</ele>
        <time>2016-10-08T13:14:55Z</time>
      </trkpt>
      <trkpt lat="43.36254" lon="6.69386">
        <ele>203</ele>
        <time>2016-10-08T13:14:58Z</time>
      </trkpt>
      <trkpt lat="43.36251" lon="6.69384">
        <ele>202</ele>
        <time>2016-10-08T13:15:01Z</time>
      </trkpt>
      <trkpt lat="43.36226" lon="6.69369">
        <ele>211</ele>
        <time>2016-10-08T13:15:20Z</time>
      </trkpt>
      <trkpt lat="43.36211" lon="6.69354">
        <ele>212</ele>
        <time>2016-10-08T13:15:31Z</time>
      </trkpt>
      <trkpt lat="43.36209" lon="6.6935">
        <ele>212</ele>
        <time>2016-10-08T13:15:33Z</time>
      </trkpt>
      <trkpt lat="43.36203" lon="6.69342">
        <ele>213</ele>
        <time>2016-10-08T13:15:46Z</time>
      </trkpt>
      <trkpt lat="43.36194" lon="6.69329">
        <ele>214</ele>
        <time>2016-10-08T13:16:12Z</time>
      </trkpt>
      <trkpt lat="43.36181" lon="6.69316">
        <ele>215</ele>
        <time>2016-10-08T13:16:23Z</time>
      </trkpt>
      <trkpt lat="43.36166" lon="6.69307">
        <ele>224</ele>
        <time>2016-10-08T13:16:32Z</time>
      </trkpt>
      <trkpt lat="43.36155" lon="6.693">
        <ele>225</ele>
        <time>2016-10-08T13:16:41Z</time>
      </trkpt>
      <trkpt lat="43.36149" lon="6.69294">
        <ele>225</ele>
        <time>2016-10-08T13:16:47Z</time>
      </trkpt>
      <trkpt lat="43.36138" lon="6.69276">
        <ele>226</ele>
        <time>2016-10-08T13:17:02Z</time>
      </trkpt>
      <trkpt lat="43.36137" lon="6.69273">
        <ele>226</ele>
        <time>2016-10-08T13:17:06Z</time>
      </trkpt>
      <trkpt lat="43.36133" lon="6.69267">
        <ele>227</ele>
        <time>2016-10-08T13:17:12Z</time>
      </trkpt>
      <trkpt lat="43.36132" lon="6.69267">
        <ele>227</ele>
        <time>2016-10-08T13:17:13Z</time>
      </trkpt>
      <trkpt lat="43.36103" lon="6.69248">
        <ele>229</ele>
        <time>2016-10-08T13:17:59Z</time>
      </trkpt>
      <trkpt lat="43.36094" lon="6.69242">
        <ele>230</ele>
        <time>2016-10-08T13:18:06Z</time>
      </trkpt>
      <trkpt lat="43.36078" lon="6.69247">
        <ele>233</ele>
        <time>2016-10-08T13:18:12Z</time>
      </trkpt>
      <trkpt lat="43.36057" lon="6.69267">
        <ele>230</ele>
        <time>2016-10-08T13:18:18Z</time>
      </trkpt>
      <trkpt lat="43.36053" lon="6.69272">
        <ele>230</ele>
        <time>2016-10-08T13:18:19Z</time>
      </trkpt>
      <trkpt lat="43.3603" lon="6.69288">
        <ele>228</ele>
        <time>2016-10-08T13:18:23Z</time>
      </trkpt>
      <trkpt lat="43.36023" lon="6.6929">
        <ele>228</ele>
        <time>2016-10-08T13:18:24Z</time>
      </trkpt>
      <trkpt lat="43.36006" lon="6.69292">
        <ele>228</ele>
        <time>2016-10-08T13:18:26Z</time>
      </trkpt>
      <trkpt lat="43.3599" lon="6.69297">
        <ele>223</ele>
        <time>2016-10-08T13:18:28Z</time>
      </trkpt>
      <trkpt lat="43.35982" lon="6.69297">
        <ele>223</ele>
        <time>2016-10-08T13:18:29Z</time>
      </trkpt>
      <trkpt lat="43.35974" lon="6.69297">
        <ele>223</ele>
        <time>2016-10-08T13:18:30Z</time>
      </trkpt>
      <trkpt lat="43.35957" lon="6.69298">
        <ele>222</ele>
        <time>2016-10-08T13:18:32Z</time>
      </trkpt>
      <trkpt lat="43.35939" lon="6.69304">
        <ele>221</ele>
        <time>2016-10-08T13:18:34Z</time>
      </trkpt>
      <trkpt lat="43.3593" lon="6.69309">
        <ele>221</ele>
        <time>2016-10-08T13:18:35Z</time>
      </trkpt>
      <trkpt lat="43.35905" lon="6.69317">
        <ele>216</ele>
        <time>2016-10-08T13:18:38Z</time>
      </trkpt>
      <trkpt lat="43.35897" lon="6.69321">
        <ele>215</ele>
        <time>2016-10-08T13:18:39Z</time>
      </trkpt>
      <trkpt lat="43.3586" lon="6.69351">
        <ele>209</ele>
        <time>2016-10-08T13:18:45Z</time>
      </trkpt>
      <trkpt lat="43.35849" lon="6.69364">
        <ele>209</ele>
        <time>2016-10-08T13:18:47Z</time>
      </trkpt>
      <trkpt lat="43.35837" lon="6.69382">
        <ele>207</ele>
        <time>2016-10-08T13:18:50Z</time>
      </trkpt>
      <trkpt lat="43.35831" lon="6.69397">
        <ele>203</ele>
        <time>2016-10-08T13:18:52Z</time>
      </trkpt>
      <trkpt lat="43.35829" lon="6.69406">
        <ele>203</ele>
        <time>2016-10-08T13:18:53Z</time>
      </trkpt>
      <trkpt lat="43.35827" lon="6.69415">
        <ele>203</ele>
        <time>2016-10-08T13:18:54Z</time>
      </trkpt>
      <trkpt lat="43.35817" lon="6.69443">
        <ele>198</ele>
        <time>2016-10-08T13:18:57Z</time>
      </trkpt>
      <trkpt lat="43.35813" lon="6.6945">
        <ele>198</ele>
        <time>2016-10-08T13:18:58Z</time>
      </trkpt>
      <trkpt lat="43.3581" lon="6.69457">
        <ele>197</ele>
        <time>2016-10-08T13:18:59Z</time>
      </trkpt>
      <trkpt lat="43.35803" lon="6.69488">
        <ele>196</ele>
        <time>2016-10-08T13:19:03Z</time>
      </trkpt>
      <trkpt lat="43.35801" lon="6.69494">
        <ele>196</ele>
        <time>2016-10-08T13:19:04Z</time>
      </trkpt>
      <trkpt lat="43.35799" lon="6.69501">
        <ele>194</ele>
        <time>2016-10-08T13:19:06Z</time>
      </trkpt>
      <trkpt lat="43.35801" lon="6.69509">
        <ele>193</ele>
        <time>2016-10-08T13:19:09Z</time>
      </trkpt>
      <trkpt lat="43.35802" lon="6.69518">
        <ele>193</ele>
        <time>2016-10-08T13:19:11Z</time>
      </trkpt>
      <trkpt lat="43.35802" lon="6.69536">
        <ele>192</ele>
        <time>2016-10-08T13:19:14Z</time>
      </trkpt>
      <trkpt lat="43.35802" lon="6.69543">
        <ele>192</ele>
        <time>2016-10-08T13:19:15Z</time>
      </trkpt>
      <trkpt lat="43.35802" lon="6.69549">
        <ele>191</ele>
        <time>2016-10-08T13:19:16Z</time>
      </trkpt>
      <trkpt lat="43.35798" lon="6.69563">
        <ele>191</ele>
        <time>2016-10-08T13:19:18Z</time>
      </trkpt>
      <trkpt lat="43.35794" lon="6.69571">
        <ele>192</ele>
        <time>2016-10-08T13:19:19Z</time>
      </trkpt>
      <trkpt lat="43.35791" lon="6.6958">
        <ele>192</ele>
        <time>2016-10-08T13:19:20Z</time>
      </trkpt>
      <trkpt lat="43.35787" lon="6.69598">
        <ele>187</ele>
        <time>2016-10-08T13:19:22Z</time>
      </trkpt>
      <trkpt lat="43.35783" lon="6.69607">
        <ele>187</ele>
        <time>2016-10-08T13:19:23Z</time>
      </trkpt>
      <trkpt lat="43.35774" lon="6.69625">
        <ele>188</ele>
        <time>2016-10-08T13:19:25Z</time>
      </trkpt>
      <trkpt lat="43.3577" lon="6.69634">
        <ele>188</ele>
        <time>2016-10-08T13:19:26Z</time>
      </trkpt>
      <trkpt lat="43.35762" lon="6.69704">
        <ele>179</ele>
        <time>2016-10-08T13:19:33Z</time>
      </trkpt>
      <trkpt lat="43.35758" lon="6.69718">
        <ele>178</ele>
        <time>2016-10-08T13:19:35Z</time>
      </trkpt>
      <trkpt lat="43.35745" lon="6.69727">
        <ele>190</ele>
        <time>2016-10-08T13:19:38Z</time>
      </trkpt>
      <trkpt lat="43.35727" lon="6.69719">
        <ele>193</ele>
        <time>2016-10-08T13:19:42Z</time>
      </trkpt>
      <trkpt lat="43.35723" lon="6.69718">
        <ele>194</ele>
        <time>2016-10-08T13:19:43Z</time>
      </trkpt>
      <trkpt lat="43.35718" lon="6.69719">
        <ele>194</ele>
        <time>2016-10-08T13:19:44Z</time>
      </trkpt>
      <trkpt lat="43.35709" lon="6.69725">
        <ele>195</ele>
        <time>2016-10-08T13:19:46Z</time>
      </trkpt>
      <trkpt lat="43.35688" lon="6.69746">
        <ele>196</ele>
        <time>2016-10-08T13:19:52Z</time>
      </trkpt>
      <trkpt lat="43.35671" lon="6.69773">
        <ele>187</ele>
        <time>2016-10-08T13:19:58Z</time>
      </trkpt>
      <trkpt lat="43.35662" lon="6.69792">
        <ele>190</ele>
        <time>2016-10-08T13:20:02Z</time>
      </trkpt>
      <trkpt lat="43.35647" lon="6.69829">
        <ele>186</ele>
        <time>2016-10-08T13:20:08Z</time>
      </trkpt>
      <trkpt lat="43.3563" lon="6.69868">
        <ele>179</ele>
        <time>2016-10-08T13:20:13Z</time>
      </trkpt>
      <trkpt lat="43.35616" lon="6.69894">
        <ele>179</ele>
        <time>2016-10-08T13:20:16Z</time>
      </trkpt>
      <trkpt lat="43.35607" lon="6.69911">
        <ele>179</ele>
        <time>2016-10-08T13:20:18Z</time>
      </trkpt>
      <trkpt lat="43.356" lon="6.69928">
        <ele>175</ele>
        <time>2016-10-08T13:20:20Z</time>
      </trkpt>
      <trkpt lat="43.35583" lon="6.7001">
        <ele>173</ele>
        <time>2016-10-08T13:20:28Z</time>
      </trkpt>
      <trkpt lat="43.35578" lon="6.70029">
        <ele>172</ele>
        <time>2016-10-08T13:20:30Z</time>
      </trkpt>
      <trkpt lat="43.35573" lon="6.70044">
        <ele>172</ele>
        <time>2016-10-08T13:20:32Z</time>
      </trkpt>
      <trkpt lat="43.35571" lon="6.70052">
        <ele>173</ele>
        <time>2016-10-08T13:20:33Z</time>
      </trkpt>
      <trkpt lat="43.3557" lon="6.70059">
        <ele>173</ele>
        <time>2016-10-08T13:20:34Z</time>
      </trkpt>
      <trkpt lat="43.35573" lon="6.70072">
        <ele>174</ele>
        <time>2016-10-08T13:20:36Z</time>
      </trkpt>
      <trkpt lat="43.35578" lon="6.70087">
        <ele>178</ele>
        <time>2016-10-08T13:20:39Z</time>
      </trkpt>
      <trkpt lat="43.356" lon="6.70132">
        <ele>172</ele>
        <time>2016-10-08T13:20:49Z</time>
      </trkpt>
      <trkpt lat="43.35613" lon="6.70162">
        <ele>172</ele>
        <time>2016-10-08T13:20:55Z</time>
      </trkpt>
      <trkpt lat="43.35626" lon="6.70206">
        <ele>174</ele>
        <time>2016-10-08T13:21:02Z</time>
      </trkpt>
      <trkpt lat="43.35632" lon="6.70222">
        <ele>173</ele>
        <time>2016-10-08T13:21:05Z</time>
      </trkpt>
      <trkpt lat="43.35635" lon="6.70228">
        <ele>173</ele>
        <time>2016-10-08T13:21:06Z</time>
      </trkpt>
      <trkpt lat="43.35645" lon="6.7025">
        <ele>172</ele>
        <time>2016-10-08T13:21:10Z</time>
      </trkpt>
      <trkpt lat="43.35648" lon="6.70257">
        <ele>172</ele>
        <time>2016-10-08T13:21:11Z</time>
      </trkpt>
      <trkpt lat="43.35649" lon="6.70265">
        <ele>173</ele>
        <time>2016-10-08T13:21:12Z</time>
      </trkpt>
      <trkpt lat="43.35652" lon="6.7028">
        <ele>174</ele>
        <time>2016-10-08T13:21:14Z</time>
      </trkpt>
      <trkpt lat="43.35659" lon="6.70294">
        <ele>174</ele>
        <time>2016-10-08T13:21:16Z</time>
      </trkpt>
      <trkpt lat="43.35675" lon="6.70316">
        <ele>163</ele>
        <time>2016-10-08T13:21:21Z</time>
      </trkpt>
      <trkpt lat="43.3569" lon="6.70342">
        <ele>163</ele>
        <time>2016-10-08T13:21:26Z</time>
      </trkpt>
      <trkpt lat="43.35696" lon="6.70357">
        <ele>161</ele>
        <time>2016-10-08T13:21:29Z</time>
      </trkpt>
      <trkpt lat="43.35699" lon="6.70372">
        <ele>160</ele>
        <time>2016-10-08T13:21:32Z</time>
      </trkpt>
      <trkpt lat="43.35699" lon="6.70383">
        <ele>161</ele>
        <time>2016-10-08T13:21:34Z</time>
      </trkpt>
      <trkpt lat="43.35697" lon="6.70402">
        <ele>162</ele>
        <time>2016-10-08T13:21:37Z</time>
      </trkpt>
      <trkpt lat="43.35698" lon="6.70416">
        <ele>162</ele>
        <time>2016-10-08T13:21:39Z</time>
      </trkpt>
      <trkpt lat="43.357" lon="6.70424">
        <ele>164</ele>
        <time>2016-10-08T13:21:40Z</time>
      </trkpt>
      <trkpt lat="43.35702" lon="6.70431">
        <ele>164</ele>
        <time>2016-10-08T13:21:41Z</time>
      </trkpt>
      <trkpt lat="43.35708" lon="6.70442">
        <ele>163</ele>
        <time>2016-10-08T13:21:43Z</time>
      </trkpt>
      <trkpt lat="43.35714" lon="6.70451">
        <ele>162</ele>
        <time>2016-10-08T13:21:46Z</time>
      </trkpt>
      <trkpt lat="43.3572" lon="6.70461">
        <ele>162</ele>
        <time>2016-10-08T13:21:50Z</time>
      </trkpt>
      <trkpt lat="43.35727" lon="6.70469">
        <ele>162</ele>
        <time>2016-10-08T13:21:53Z</time>
      </trkpt>
      <trkpt lat="43.35737" lon="6.70478">
        <ele>161</ele>
        <time>2016-10-08T13:21:56Z</time>
      </trkpt>
      <trkpt lat="43.35745" lon="6.7048">
        <ele>161</ele>
        <time>2016-10-08T13:21:58Z</time>
      </trkpt>
      <trkpt lat="43.35749" lon="6.70479">
        <ele>161</ele>
        <time>2016-10-08T13:21:59Z</time>
      </trkpt>
      <trkpt lat="43.35762" lon="6.70479">
        <ele>148</ele>
        <time>2016-10-08T13:22:02Z</time>
      </trkpt>
      <trkpt lat="43.35767" lon="6.7048">
        <ele>148</ele>
        <time>2016-10-08T13:22:03Z</time>
      </trkpt>
      <trkpt lat="43.35777" lon="6.70485">
        <ele>146</ele>
        <time>2016-10-08T13:22:06Z</time>
      </trkpt>
      <trkpt lat="43.3578" lon="6.70489">
        <ele>146</ele>
        <time>2016-10-08T13:22:07Z</time>
      </trkpt>
      <trkpt lat="43.35788" lon="6.70492">
        <ele>144</ele>
        <time>2016-10-08T13:22:08Z</time>
      </trkpt>
      <trkpt lat="43.35794" lon="6.70495">
        <ele>143</ele>
        <time>2016-10-08T13:22:09Z</time>
      </trkpt>
      <trkpt lat="43.35803" lon="6.70508">
        <ele>147</ele>
        <time>2016-10-08T13:22:12Z</time>
      </trkpt>
      <trkpt lat="43.35814" lon="6.7052">
        <ele>146</ele>
        <time>2016-10-08T13:22:16Z</time>
      </trkpt>
      <trkpt lat="43.3583" lon="6.70535">
        <ele>145</ele>
        <time>2016-10-08T13:22:20Z</time>
      </trkpt>
      <trkpt lat="43.35833" lon="6.70539">
        <ele>146</ele>
        <time>2016-10-08T13:22:21Z</time>
      </trkpt>
      <trkpt lat="43.35836" lon="6.70545">
        <ele>133</ele>
        <time>2016-10-08T13:22:22Z</time>
      </trkpt>
      <trkpt lat="43.3584" lon="6.70549">
        <ele>134</ele>
        <time>2016-10-08T13:22:23Z</time>
      </trkpt>
      <trkpt lat="43.35855" lon="6.70563">
        <ele>133</ele>
        <time>2016-10-08T13:22:27Z</time>
      </trkpt>
      <trkpt lat="43.35873" lon="6.70565">
        <ele>131</ele>
        <time>2016-10-08T13:22:31Z</time>
      </trkpt>
      <trkpt lat="43.35882" lon="6.70565">
        <ele>130</ele>
        <time>2016-10-08T13:22:33Z</time>
      </trkpt>
      <trkpt lat="43.35885" lon="6.70567">
        <ele>129</ele>
        <time>2016-10-08T13:22:34Z</time>
      </trkpt>
      <trkpt lat="43.35889" lon="6.70571">
        <ele>129</ele>
        <time>2016-10-08T13:22:35Z</time>
      </trkpt>
      <trkpt lat="43.35894" lon="6.70575">
        <ele>128</ele>
        <time>2016-10-08T13:22:36Z</time>
      </trkpt>
      <trkpt lat="43.35909" lon="6.70589">
        <ele>126</ele>
        <time>2016-10-08T13:22:39Z</time>
      </trkpt>
      <trkpt lat="43.35918" lon="6.70596">
        <ele>121</ele>
        <time>2016-10-08T13:22:41Z</time>
      </trkpt>
      <trkpt lat="43.35921" lon="6.70596">
        <ele>120</ele>
        <time>2016-10-08T13:22:42Z</time>
      </trkpt>
      <trkpt lat="43.35926" lon="6.70594">
        <ele>120</ele>
        <time>2016-10-08T13:22:43Z</time>
      </trkpt>
      <trkpt lat="43.35937" lon="6.70584">
        <ele>119</ele>
        <time>2016-10-08T13:22:46Z</time>
      </trkpt>
      <trkpt lat="43.3594" lon="6.70582">
        <ele>117</ele>
        <time>2016-10-08T13:22:47Z</time>
      </trkpt>
      <trkpt lat="43.35943" lon="6.70581">
        <ele>117</ele>
        <time>2016-10-08T13:22:48Z</time>
      </trkpt>
      <trkpt lat="43.35946" lon="6.70581">
        <ele>116</ele>
        <time>2016-10-08T13:22:49Z</time>
      </trkpt>
      <trkpt lat="43.35958" lon="6.70589">
        <ele>116</ele>
        <time>2016-10-08T13:22:52Z</time>
      </trkpt>
      <trkpt lat="43.3596" lon="6.70589">
        <ele>116</ele>
        <time>2016-10-08T13:22:53Z</time>
      </trkpt>
      <trkpt lat="43.35963" lon="6.70587">
        <ele>116</ele>
        <time>2016-10-08T13:22:55Z</time>
      </trkpt>
      <trkpt lat="43.35959" lon="6.7058">
        <ele>114</ele>
        <time>2016-10-08T13:22:59Z</time>
      </trkpt>
      <trkpt lat="43.35941" lon="6.70567">
        <ele>116</ele>
        <time>2016-10-08T13:23:08Z</time>
      </trkpt>
      <trkpt lat="43.35937" lon="6.70566">
        <ele>117</ele>
        <time>2016-10-08T13:23:10Z</time>
      </trkpt>
      <trkpt lat="43.35932" lon="6.7056">
        <ele>117</ele>
        <time>2016-10-08T13:23:12Z</time>
      </trkpt>
      <trkpt lat="43.35927" lon="6.70555">
        <ele>117</ele>
        <time>2016-10-08T13:23:15Z</time>
      </trkpt>
      <trkpt lat="43.35921" lon="6.70551">
        <ele>117</ele>
        <time>2016-10-08T13:23:18Z</time>
      </trkpt>
      <trkpt lat="43.35916" lon="6.70544">
        <ele>127</ele>
        <time>2016-10-08T13:23:21Z</time>
      </trkpt>
      <trkpt lat="43.35904" lon="6.7053">
        <ele>126</ele>
        <time>2016-10-08T13:23:27Z</time>
      </trkpt>
      <trkpt lat="43.35898" lon="6.70526">
        <ele>127</ele>
        <time>2016-10-08T13:23:30Z</time>
      </trkpt>
      <trkpt lat="43.35887" lon="6.70522">
        <ele>128</ele>
        <time>2016-10-08T13:23:35Z</time>
      </trkpt>
      <trkpt lat="43.35875" lon="6.70523">
        <ele>129</ele>
        <time>2016-10-08T13:23:40Z</time>
      </trkpt>
      <trkpt lat="43.35868" lon="6.70519">
        <ele>130</ele>
        <time>2016-10-08T13:23:43Z</time>
      </trkpt>
      <trkpt lat="43.3585" lon="6.70501">
        <ele>133</ele>
        <time>2016-10-08T13:23:53Z</time>
      </trkpt>
      <trkpt lat="43.35842" lon="6.70492">
        <ele>131</ele>
        <time>2016-10-08T13:23:59Z</time>
      </trkpt>
      <trkpt lat="43.35838" lon="6.70489">
        <ele>131</ele>
        <time>2016-10-08T13:24:01Z</time>
      </trkpt>
      <trkpt lat="43.35834" lon="6.70485">
        <ele>130</ele>
        <time>2016-10-08T13:24:03Z</time>
      </trkpt>
      <trkpt lat="43.35819" lon="6.70472">
        <ele>139</ele>
        <time>2016-10-08T13:24:11Z</time>
      </trkpt>
      <trkpt lat="43.35805" lon="6.70463">
        <ele>140</ele>
        <time>2016-10-08T13:24:17Z</time>
      </trkpt>
      <trkpt lat="43.358" lon="6.70459">
        <ele>140</ele>
        <time>2016-10-08T13:24:20Z</time>
      </trkpt>
      <trkpt lat="43.35789" lon="6.70451">
        <ele>141</ele>
        <time>2016-10-08T13:24:27Z</time>
      </trkpt>
      <trkpt lat="43.35774" lon="6.70447">
        <ele>143</ele>
        <time>2016-10-08T13:24:34Z</time>
      </trkpt>
      <trkpt lat="43.35771" lon="6.70446">
        <ele>143</ele>
        <time>2016-10-08T13:24:35Z</time>
      </trkpt>
      <trkpt lat="43.35765" lon="6.70439">
        <ele>144</ele>
        <time>2016-10-08T13:24:38Z</time>
      </trkpt>
      <trkpt lat="43.35756" lon="6.70426">
        <ele>145</ele>
        <time>2016-10-08T13:24:43Z</time>
      </trkpt>
      <trkpt lat="43.35748" lon="6.70417">
        <ele>148</ele>
        <time>2016-10-08T13:24:49Z</time>
      </trkpt>
      <trkpt lat="43.35743" lon="6.70403">
        <ele>152</ele>
        <time>2016-10-08T13:24:56Z</time>
      </trkpt>
      <trkpt lat="43.35742" lon="6.70399">
        <ele>153</ele>
        <time>2016-10-08T13:24:57Z</time>
      </trkpt>
      <trkpt lat="43.35741" lon="6.70385">
        <ele>154</ele>
        <time>2016-10-08T13:25:02Z</time>
      </trkpt>
      <trkpt lat="43.35742" lon="6.70374">
        <ele>154</ele>
        <time>2016-10-08T13:25:05Z</time>
      </trkpt>
      <trkpt lat="43.35742" lon="6.70339">
        <ele>149</ele>
        <time>2016-10-08T13:25:17Z</time>
      </trkpt>
      <trkpt lat="43.35739" lon="6.70329">
        <ele>148</ele>
        <time>2016-10-08T13:25:20Z</time>
      </trkpt>
      <trkpt lat="43.35735" lon="6.70311">
        <ele>151</ele>
        <time>2016-10-08T13:25:27Z</time>
      </trkpt>
      <trkpt lat="43.35728" lon="6.70299">
        <ele>152</ele>
        <time>2016-10-08T13:25:33Z</time>
      </trkpt>
      <trkpt lat="43.3572" lon="6.70291">
        <ele>153</ele>
        <time>2016-10-08T13:25:38Z</time>
      </trkpt>
      <trkpt lat="43.35714" lon="6.70287">
        <ele>154</ele>
        <time>2016-10-08T13:25:41Z</time>
      </trkpt>
      <trkpt lat="43.35701" lon="6.70274">
        <ele>156</ele>
        <time>2016-10-08T13:25:47Z</time>
      </trkpt>
      <trkpt lat="43.35692" lon="6.70263">
        <ele>157</ele>
        <time>2016-10-08T13:25:51Z</time>
      </trkpt>
      <trkpt lat="43.35686" lon="6.70253">
        <ele>159</ele>
        <time>2016-10-08T13:25:55Z</time>
      </trkpt>
      <trkpt lat="43.35679" lon="6.70239">
        <ele>158</ele>
        <time>2016-10-08T13:26:00Z</time>
      </trkpt>
      <trkpt lat="43.35675" lon="6.70229">
        <ele>156</ele>
        <time>2016-10-08T13:26:03Z</time>
      </trkpt>
      <trkpt lat="43.35673" lon="6.70218">
        <ele>155</ele>
        <time>2016-10-08T13:26:06Z</time>
      </trkpt>
      <trkpt lat="43.35673" lon="6.70156">
        <ele>154</ele>
        <time>2016-10-08T13:26:17Z</time>
      </trkpt>
      <trkpt lat="43.35672" lon="6.70118">
        <ele>149</ele>
        <time>2016-10-08T13:26:23Z</time>
      </trkpt>
      <trkpt lat="43.35646" lon="6.70073">
        <ele>162</ele>
        <time>2016-10-08T13:26:33Z</time>
      </trkpt>
      <trkpt lat="43.3564" lon="6.70048">
        <ele>164</ele>
        <time>2016-10-08T13:26:38Z</time>
      </trkpt>
      <trkpt lat="43.35672" lon="6.69989">
        <ele>154</ele>
        <time>2016-10-08T13:26:49Z</time>
      </trkpt>
      <trkpt lat="43.35677" lon="6.69977">
        <ele>153</ele>
        <time>2016-10-08T13:26:51Z</time>
      </trkpt>
      <trkpt lat="43.35679" lon="6.69959">
        <ele>153</ele>
        <time>2016-10-08T13:26:54Z</time>
      </trkpt>
      <trkpt lat="43.35679" lon="6.69948">
        <ele>154</ele>
        <time>2016-10-08T13:26:56Z</time>
      </trkpt>
      <trkpt lat="43.35678" lon="6.69931">
        <ele>159</ele>
        <time>2016-10-08T13:26:59Z</time>
      </trkpt>
      <trkpt lat="43.3568" lon="6.69921">
        <ele>160</ele>
        <time>2016-10-08T13:27:01Z</time>
      </trkpt>
      <trkpt lat="43.3569" lon="6.69906">
        <ele>164</ele>
        <time>2016-10-08T13:27:04Z</time>
      </trkpt>
      <trkpt lat="43.35699" lon="6.69901">
        <ele>162</ele>
        <time>2016-10-08T13:27:06Z</time>
      </trkpt>
      <trkpt lat="43.35724" lon="6.69884">
        <ele>159</ele>
        <time>2016-10-08T13:27:10Z</time>
      </trkpt>
      <trkpt lat="43.35733" lon="6.69868">
        <ele>160</ele>
        <time>2016-10-08T13:27:12Z</time>
      </trkpt>
      <trkpt lat="43.35746" lon="6.69834">
        <ele>160</ele>
        <time>2016-10-08T13:27:16Z</time>
      </trkpt>
      <trkpt lat="43.35759" lon="6.69827">
        <ele>160</ele>
        <time>2016-10-08T13:27:18Z</time>
      </trkpt>
      <trkpt lat="43.35779" lon="6.69831">
        <ele>159</ele>
        <time>2016-10-08T13:27:21Z</time>
      </trkpt>
      <trkpt lat="43.35796" lon="6.69836">
        <ele>146</ele>
        <time>2016-10-08T13:27:23Z</time>
      </trkpt>
      <trkpt lat="43.35805" lon="6.69841">
        <ele>145</ele>
        <time>2016-10-08T13:27:24Z</time>
      </trkpt>
      <trkpt lat="43.35828" lon="6.69857">
        <ele>143</ele>
        <time>2016-10-08T13:27:27Z</time>
      </trkpt>
      <trkpt lat="43.35859" lon="6.69882">
        <ele>129</ele>
        <time>2016-10-08T13:27:31Z</time>
      </trkpt>
      <trkpt lat="43.35865" lon="6.69886">
        <ele>128</ele>
        <time>2016-10-08T13:27:32Z</time>
      </trkpt>
      <trkpt lat="43.35869" lon="6.69886">
        <ele>128</ele>
        <time>2016-10-08T13:27:33Z</time>
      </trkpt>
      <trkpt lat="43.35878" lon="6.69876">
        <ele>127</ele>
        <time>2016-10-08T13:27:35Z</time>
      </trkpt>
      <trkpt lat="43.35882" lon="6.69868">
        <ele>127</ele>
        <time>2016-10-08T13:27:36Z</time>
      </trkpt>
      <trkpt lat="43.35883" lon="6.69848">
        <ele>128</ele>
        <time>2016-10-08T13:27:38Z</time>
      </trkpt>
      <trkpt lat="43.35883" lon="6.69827">
        <ele>133</ele>
        <time>2016-10-08T13:27:40Z</time>
      </trkpt>
      <trkpt lat="43.35882" lon="6.69791">
        <ele>135</ele>
        <time>2016-10-08T13:27:43Z</time>
      </trkpt>
      <trkpt lat="43.35882" lon="6.69778">
        <ele>135</ele>
        <time>2016-10-08T13:27:44Z</time>
      </trkpt>
      <trkpt lat="43.35884" lon="6.69751">
        <ele>134</ele>
        <time>2016-10-08T13:27:46Z</time>
      </trkpt>
      <trkpt lat="43.35884" lon="6.69737">
        <ele>139</ele>
        <time>2016-10-08T13:27:47Z</time>
      </trkpt>
      <trkpt lat="43.35878" lon="6.69687">
        <ele>143</ele>
        <time>2016-10-08T13:27:51Z</time>
      </trkpt>
      <trkpt lat="43.35882" lon="6.69682">
        <ele>142</ele>
        <time>2016-10-08T13:27:52Z</time>
      </trkpt>
      <trkpt lat="43.35884" lon="6.69677">
        <ele>141</ele>
        <time>2016-10-08T13:27:53Z</time>
      </trkpt>
      <trkpt lat="43.35889" lon="6.69674">
        <ele>140</ele>
        <time>2016-10-08T13:27:54Z</time>
      </trkpt>
      <trkpt lat="43.35896" lon="6.69678">
        <ele>138</ele>
        <time>2016-10-08T13:27:55Z</time>
      </trkpt>
      <trkpt lat="43.35905" lon="6.69679">
        <ele>137</ele>
        <time>2016-10-08T13:27:56Z</time>
      </trkpt>
      <trkpt lat="43.35912" lon="6.6968">
        <ele>135</ele>
        <time>2016-10-08T13:27:57Z</time>
      </trkpt>
      <trkpt lat="43.35919" lon="6.69678">
        <ele>130</ele>
        <time>2016-10-08T13:27:58Z</time>
      </trkpt>
      <trkpt lat="43.35925" lon="6.69674">
        <ele>130</ele>
        <time>2016-10-08T13:27:59Z</time>
      </trkpt>
      <trkpt lat="43.35928" lon="6.69659">
        <ele>136</ele>
        <time>2016-10-08T13:28:00Z</time>
      </trkpt>
      <trkpt lat="43.35932" lon="6.69649">
        <ele>138</ele>
        <time>2016-10-08T13:28:01Z</time>
      </trkpt>
      <trkpt lat="43.35936" lon="6.69643">
        <ele>140</ele>
        <time>2016-10-08T13:28:02Z</time>
      </trkpt>
      <trkpt lat="43.3594" lon="6.6964">
        <ele>140</ele>
        <time>2016-10-08T13:28:03Z</time>
      </trkpt>
      <trkpt lat="43.35947" lon="6.69646">
        <ele>140</ele>
        <time>2016-10-08T13:28:05Z</time>
      </trkpt>
      <trkpt lat="43.35949" lon="6.6966">
        <ele>139</ele>
        <time>2016-10-08T13:28:07Z</time>
      </trkpt>
      <trkpt lat="43.35952" lon="6.69679">
        <ele>130</ele>
        <time>2016-10-08T13:28:09Z</time>
      </trkpt>
      <trkpt lat="43.35952" lon="6.69689">
        <ele>130</ele>
        <time>2016-10-08T13:28:10Z</time>
      </trkpt>
      <trkpt lat="43.35956" lon="6.69708">
        <ele>129</ele>
        <time>2016-10-08T13:28:12Z</time>
      </trkpt>
      <trkpt lat="43.35959" lon="6.69717">
        <ele>128</ele>
        <time>2016-10-08T13:28:13Z</time>
      </trkpt>
      <trkpt lat="43.35969" lon="6.69736">
        <ele>127</ele>
        <time>2016-10-08T13:28:15Z</time>
      </trkpt>
      <trkpt lat="43.35973" lon="6.69747">
        <ele>127</ele>
        <time>2016-10-08T13:28:16Z</time>
      </trkpt>
      <trkpt lat="43.35975" lon="6.69757">
        <ele>121</ele>
        <time>2016-10-08T13:28:17Z</time>
      </trkpt>
      <trkpt lat="43.35976" lon="6.69767">
        <ele>121</ele>
        <time>2016-10-08T13:28:18Z</time>
      </trkpt>
      <trkpt lat="43.3598" lon="6.69788">
        <ele>119</ele>
        <time>2016-10-08T13:28:20Z</time>
      </trkpt>
      <trkpt lat="43.35984" lon="6.69797">
        <ele>118</ele>
        <time>2016-10-08T13:28:21Z</time>
      </trkpt>
      <trkpt lat="43.35988" lon="6.69805">
        <ele>117</ele>
        <time>2016-10-08T13:28:22Z</time>
      </trkpt>
      <trkpt lat="43.36001" lon="6.6982">
        <ele>118</ele>
        <time>2016-10-08T13:28:24Z</time>
      </trkpt>
      <trkpt lat="43.36007" lon="6.69829">
        <ele>115</ele>
        <time>2016-10-08T13:28:25Z</time>
      </trkpt>
      <trkpt lat="43.36019" lon="6.69849">
        <ele>113</ele>
        <time>2016-10-08T13:28:27Z</time>
      </trkpt>
      <trkpt lat="43.36041" lon="6.69896">
        <ele>113</ele>
        <time>2016-10-08T13:28:31Z</time>
      </trkpt>
      <trkpt lat="43.36046" lon="6.69907">
        <ele>113</ele>
        <time>2016-10-08T13:28:32Z</time>
      </trkpt>
      <trkpt lat="43.36051" lon="6.69932">
        <ele>104</ele>
        <time>2016-10-08T13:28:34Z</time>
      </trkpt>
      <trkpt lat="43.36054" lon="6.69943">
        <ele>103</ele>
        <time>2016-10-08T13:28:35Z</time>
      </trkpt>
      <trkpt lat="43.36062" lon="6.69963">
        <ele>102</ele>
        <time>2016-10-08T13:28:37Z</time>
      </trkpt>
      <trkpt lat="43.36064" lon="6.69974">
        <ele>101</ele>
        <time>2016-10-08T13:28:38Z</time>
      </trkpt>
      <trkpt lat="43.36067" lon="6.69998">
        <ele>101</ele>
        <time>2016-10-08T13:28:40Z</time>
      </trkpt>
      <trkpt lat="43.36072" lon="6.70021">
        <ele>93</ele>
        <time>2016-10-08T13:28:42Z</time>
      </trkpt>
      <trkpt lat="43.3608" lon="6.70037">
        <ele>91</ele>
        <time>2016-10-08T13:28:44Z</time>
      </trkpt>
      <trkpt lat="43.36084" lon="6.70045">
        <ele>100</ele>
        <time>2016-10-08T13:28:45Z</time>
      </trkpt>
      <trkpt lat="43.36092" lon="6.70076">
        <ele>94</ele>
        <time>2016-10-08T13:28:48Z</time>
      </trkpt>
      <trkpt lat="43.36107" lon="6.70117">
        <ele>87</ele>
        <time>2016-10-08T13:28:52Z</time>
      </trkpt>
      <trkpt lat="43.36114" lon="6.70137">
        <ele>85</ele>
        <time>2016-10-08T13:28:54Z</time>
      </trkpt>
      <trkpt lat="43.36117" lon="6.70145">
        <ele>85</ele>
        <time>2016-10-08T13:28:55Z</time>
      </trkpt>
      <trkpt lat="43.36122" lon="6.70151">
        <ele>85</ele>
        <time>2016-10-08T13:28:56Z</time>
      </trkpt>
      <trkpt lat="43.36128" lon="6.70156">
        <ele>85</ele>
        <time>2016-10-08T13:28:57Z</time>
      </trkpt>
      <trkpt lat="43.36136" lon="6.70157">
        <ele>85</ele>
        <time>2016-10-08T13:28:58Z</time>
      </trkpt>
      <trkpt lat="43.36148" lon="6.70163">
        <ele>84</ele>
        <time>2016-10-08T13:29:00Z</time>
      </trkpt>
      <trkpt lat="43.36155" lon="6.70164">
        <ele>84</ele>
        <time>2016-10-08T13:29:01Z</time>
      </trkpt>
      <trkpt lat="43.36161" lon="6.70163">
        <ele>83</ele>
        <time>2016-10-08T13:29:02Z</time>
      </trkpt>
      <trkpt lat="43.36168" lon="6.70161">
        <ele>85</ele>
        <time>2016-10-08T13:29:03Z</time>
      </trkpt>
      <trkpt lat="43.36174" lon="6.70158">
        <ele>87</ele>
        <time>2016-10-08T13:29:04Z</time>
      </trkpt>
      <trkpt lat="43.36183" lon="6.7015">
        <ele>91</ele>
        <time>2016-10-08T13:29:06Z</time>
      </trkpt>
      <trkpt lat="43.36188" lon="6.70147">
        <ele>92</ele>
        <time>2016-10-08T13:29:07Z</time>
      </trkpt>
      <trkpt lat="43.36193" lon="6.70147">
        <ele>93</ele>
        <time>2016-10-08T13:29:08Z</time>
      </trkpt>
      <trkpt lat="43.36198" lon="6.70152">
        <ele>93</ele>
        <time>2016-10-08T13:29:09Z</time>
      </trkpt>
      <trkpt lat="43.3621" lon="6.70165">
        <ele>93</ele>
        <time>2016-10-08T13:29:12Z</time>
      </trkpt>
      <trkpt lat="43.36213" lon="6.7017">
        <ele>81</ele>
        <time>2016-10-08T13:29:13Z</time>
      </trkpt>
      <trkpt lat="43.36218" lon="6.7019">
        <ele>79</ele>
        <time>2016-10-08T13:29:16Z</time>
      </trkpt>
      <trkpt lat="43.3622" lon="6.70195">
        <ele>79</ele>
        <time>2016-10-08T13:29:17Z</time>
      </trkpt>
      <trkpt lat="43.36229" lon="6.70208">
        <ele>78</ele>
        <time>2016-10-08T13:29:20Z</time>
      </trkpt>
      <trkpt lat="43.36232" lon="6.70213">
        <ele>77</ele>
        <time>2016-10-08T13:29:21Z</time>
      </trkpt>
      <trkpt lat="43.36235" lon="6.70237">
        <ele>74</ele>
        <time>2016-10-08T13:29:24Z</time>
      </trkpt>
      <trkpt lat="43.3624" lon="6.70252">
        <ele>68</ele>
        <time>2016-10-08T13:29:26Z</time>
      </trkpt>
      <trkpt lat="43.36246" lon="6.70263">
        <ele>67</ele>
        <time>2016-10-08T13:29:28Z</time>
      </trkpt>
      <trkpt lat="43.36248" lon="6.70267">
        <ele>66</ele>
        <time>2016-10-08T13:29:29Z</time>
      </trkpt>
      <trkpt lat="43.36251" lon="6.70281">
        <ele>68</ele>
        <time>2016-10-08T13:29:31Z</time>
      </trkpt>
      <trkpt lat="43.36253" lon="6.70288">
        <ele>67</ele>
        <time>2016-10-08T13:29:32Z</time>
      </trkpt>
      <trkpt lat="43.36257" lon="6.70295">
        <ele>66</ele>
        <time>2016-10-08T13:29:33Z</time>
      </trkpt>
      <trkpt lat="43.36262" lon="6.703">
        <ele>66</ele>
        <time>2016-10-08T13:29:34Z</time>
      </trkpt>
      <trkpt lat="43.36272" lon="6.70309">
        <ele>65</ele>
        <time>2016-10-08T13:29:36Z</time>
      </trkpt>
      <trkpt lat="43.36282" lon="6.70311">
        <ele>66</ele>
        <time>2016-10-08T13:29:38Z</time>
      </trkpt>
      <trkpt lat="43.36292" lon="6.70307">
        <ele>66</ele>
        <time>2016-10-08T13:29:40Z</time>
      </trkpt>
      <trkpt lat="43.36298" lon="6.70304">
        <ele>67</ele>
        <time>2016-10-08T13:29:41Z</time>
      </trkpt>
      <trkpt lat="43.36303" lon="6.70298">
        <ele>67</ele>
        <time>2016-10-08T13:29:42Z</time>
      </trkpt>
      <trkpt lat="43.36316" lon="6.70278">
        <ele>69</ele>
        <time>2016-10-08T13:29:45Z</time>
      </trkpt>
      <trkpt lat="43.36321" lon="6.70279">
        <ele>70</ele>
        <time>2016-10-08T13:29:46Z</time>
      </trkpt>
      <trkpt lat="43.36325" lon="6.7028">
        <ele>70</ele>
        <time>2016-10-08T13:29:47Z</time>
      </trkpt>
      <trkpt lat="43.36339" lon="6.70298">
        <ele>71</ele>
        <time>2016-10-08T13:29:50Z</time>
      </trkpt>
      <trkpt lat="43.36342" lon="6.70304">
        <ele>71</ele>
        <time>2016-10-08T13:29:51Z</time>
      </trkpt>
      <trkpt lat="43.36343" lon="6.70311">
        <ele>70</ele>
        <time>2016-10-08T13:29:52Z</time>
      </trkpt>
      <trkpt lat="43.36343" lon="6.70336">
        <ele>63</ele>
        <time>2016-10-08T13:29:56Z</time>
      </trkpt>
      <trkpt lat="43.36341" lon="6.70364">
        <ele>61</ele>
        <time>2016-10-08T13:30:00Z</time>
      </trkpt>
      <trkpt lat="43.36342" lon="6.70387">
        <ele>59</ele>
        <time>2016-10-08T13:30:04Z</time>
      </trkpt>
      <trkpt lat="43.36341" lon="6.70394">
        <ele>59</ele>
        <time>2016-10-08T13:30:05Z</time>
      </trkpt>
      <trkpt lat="43.36336" lon="6.70408">
        <ele>56</ele>
        <time>2016-10-08T13:30:07Z</time>
      </trkpt>
      <trkpt lat="43.36335" lon="6.70415">
        <ele>55</ele>
        <time>2016-10-08T13:30:08Z</time>
      </trkpt>
      <trkpt lat="43.36335" lon="6.7044">
        <ele>51</ele>
        <time>2016-10-08T13:30:11Z</time>
      </trkpt>
      <trkpt lat="43.36334" lon="6.70448">
        <ele>50</ele>
        <time>2016-10-08T13:30:12Z</time>
      </trkpt>
      <trkpt lat="43.36331" lon="6.70467">
        <ele>45</ele>
        <time>2016-10-08T13:30:14Z</time>
      </trkpt>
      <trkpt lat="43.3633" lon="6.70475">
        <ele>45</ele>
        <time>2016-10-08T13:30:15Z</time>
      </trkpt>
      <trkpt lat="43.36331" lon="6.70489">
        <ele>44</ele>
        <time>2016-10-08T13:30:17Z</time>
      </trkpt>
      <trkpt lat="43.36335" lon="6.70499">
        <ele>43</ele>
        <time>2016-10-08T13:30:19Z</time>
      </trkpt>
      <trkpt lat="43.36337" lon="6.70502">
        <ele>42</ele>
        <time>2016-10-08T13:30:20Z</time>
      </trkpt>
      <trkpt lat="43.3634" lon="6.70504">
        <ele>41</ele>
        <time>2016-10-08T13:30:21Z</time>
      </trkpt>
      <trkpt lat="43.36382" lon="6.70516">
        <ele>39</ele>
        <time>2016-10-08T13:30:33Z</time>
      </trkpt>
      <trkpt lat="43.36389" lon="6.70516">
        <ele>39</ele>
        <time>2016-10-08T13:30:35Z</time>
      </trkpt>
      <trkpt lat="43.36396" lon="6.70508">
        <ele>40</ele>
        <time>2016-10-08T13:30:38Z</time>
      </trkpt>
      <trkpt lat="43.36398" lon="6.70506">
        <ele>41</ele>
        <time>2016-10-08T13:30:39Z</time>
      </trkpt>
      <trkpt lat="43.364" lon="6.70506">
        <ele>41</ele>
        <time>2016-10-08T13:30:40Z</time>
      </trkpt>
      <trkpt lat="43.36417" lon="6.70514">
        <ele>40</ele>
        <time>2016-10-08T13:30:44Z</time>
      </trkpt>
      <trkpt lat="43.36441" lon="6.70514">
        <ele>37</ele>
        <time>2016-10-08T13:30:49Z</time>
      </trkpt>
      <trkpt lat="43.36451" lon="6.7051">
        <ele>36</ele>
        <time>2016-10-08T13:30:51Z</time>
      </trkpt>
      <trkpt lat="43.36467" lon="6.70501">
        <ele>36</ele>
        <time>2016-10-08T13:30:54Z</time>
      </trkpt>
      <trkpt lat="43.36471" lon="6.70496">
        <ele>42</ele>
        <time>2016-10-08T13:30:55Z</time>
      </trkpt>
      <trkpt lat="43.36475" lon="6.7049">
        <ele>42</ele>
        <time>2016-10-08T13:30:56Z</time>
      </trkpt>
      <trkpt lat="43.36478" lon="6.70483">
        <ele>42</ele>
        <time>2016-10-08T13:30:57Z</time>
      </trkpt>
      <trkpt lat="43.36484" lon="6.70474">
        <ele>43</ele>
        <time>2016-10-08T13:30:59Z</time>
      </trkpt>
      <trkpt lat="43.36492" lon="6.70482">
        <ele>41</ele>
        <time>2016-10-08T13:31:01Z</time>
      </trkpt>
      <trkpt lat="43.365" lon="6.70491">
        <ele>38</ele>
        <time>2016-10-08T13:31:07Z</time>
      </trkpt>
      <trkpt lat="43.36502" lon="6.70492">
        <ele>36</ele>
        <time>2016-10-08T13:31:09Z</time>
      </trkpt>
      <trkpt lat="43.36509" lon="6.70493">
        <ele>36</ele>
        <time>2016-10-08T13:31:12Z</time>
      </trkpt>
      <trkpt lat="43.36524" lon="6.70498">
        <ele>37</ele>
        <time>2016-10-08T13:31:16Z</time>
      </trkpt>
      <trkpt lat="43.36529" lon="6.70502">
        <ele>31</ele>
        <time>2016-10-08T13:31:17Z</time>
      </trkpt>
      <trkpt lat="43.36533" lon="6.70504">
        <ele>31</ele>
        <time>2016-10-08T13:31:18Z</time>
      </trkpt>
      <trkpt lat="43.36538" lon="6.70505">
        <ele>31</ele>
        <time>2016-10-08T13:31:19Z</time>
      </trkpt>
      <trkpt lat="43.36544" lon="6.70504">
        <ele>31</ele>
        <time>2016-10-08T13:31:20Z</time>
      </trkpt>
      <trkpt lat="43.36561" lon="6.70496">
        <ele>36</ele>
        <time>2016-10-08T13:31:24Z</time>
      </trkpt>
      <trkpt lat="43.36564" lon="6.70494">
        <ele>35</ele>
        <time>2016-10-08T13:31:25Z</time>
      </trkpt>
      <trkpt lat="43.36571" lon="6.70494">
        <ele>35</ele>
        <time>2016-10-08T13:31:27Z</time>
      </trkpt>
      <trkpt lat="43.36574" lon="6.70503">
        <ele>31</ele>
        <time>2016-10-08T13:31:29Z</time>
      </trkpt>
      <trkpt lat="43.36574" lon="6.70509">
        <ele>31</ele>
        <time>2016-10-08T13:31:30Z</time>
      </trkpt>
      <trkpt lat="43.36573" lon="6.70514">
        <ele>31</ele>
        <time>2016-10-08T13:31:31Z</time>
      </trkpt>
      <trkpt lat="43.36568" lon="6.70528">
        <ele>30</ele>
        <time>2016-10-08T13:31:34Z</time>
      </trkpt>
      <trkpt lat="43.36568" lon="6.70545">
        <ele>29</ele>
        <time>2016-10-08T13:31:37Z</time>
      </trkpt>
      <trkpt lat="43.36568" lon="6.70552">
        <ele>28</ele>
        <time>2016-10-08T13:31:38Z</time>
      </trkpt>
      <trkpt lat="43.36571" lon="6.70565">
        <ele>27</ele>
        <time>2016-10-08T13:31:40Z</time>
      </trkpt>
      <trkpt lat="43.36576" lon="6.70579">
        <ele>26</ele>
        <time>2016-10-08T13:31:42Z</time>
      </trkpt>
      <trkpt lat="43.36583" lon="6.70603">
        <ele>23</ele>
        <time>2016-10-08T13:31:47Z</time>
      </trkpt>
      <trkpt lat="43.36592" lon="6.70616">
        <ele>23</ele>
        <time>2016-10-08T13:31:52Z</time>
      </trkpt>
      <trkpt lat="43.36609" lon="6.7063">
        <ele>23</ele>
        <time>2016-10-08T13:31:57Z</time>
      </trkpt>
      <trkpt lat="43.36636" lon="6.70666">
        <ele>23</ele>
        <time>2016-10-08T13:32:05Z</time>
      </trkpt>
      <trkpt lat="43.3664" lon="6.70669">
        <ele>21</ele>
        <time>2016-10-08T13:32:06Z</time>
      </trkpt>
      <trkpt lat="43.36651" lon="6.7067">
        <ele>22</ele>
        <time>2016-10-08T13:32:09Z</time>
      </trkpt>
      <trkpt lat="43.36672" lon="6.70657">
        <ele>22</ele>
        <time>2016-10-08T13:32:14Z</time>
      </trkpt>
      <trkpt lat="43.36682" lon="6.70655">
        <ele>21</ele>
        <time>2016-10-08T13:32:16Z</time>
      </trkpt>
      <trkpt lat="43.36686" lon="6.70656">
        <ele>21</ele>
        <time>2016-10-08T13:32:17Z</time>
      </trkpt>
      <trkpt lat="43.36692" lon="6.70661">
        <ele>20</ele>
        <time>2016-10-08T13:32:18Z</time>
      </trkpt>
      <trkpt lat="43.36696" lon="6.70666">
        <ele>20</ele>
        <time>2016-10-08T13:32:19Z</time>
      </trkpt>
      <trkpt lat="43.36704" lon="6.7068">
        <ele>19</ele>
        <time>2016-10-08T13:32:21Z</time>
      </trkpt>
      <trkpt lat="43.36714" lon="6.70702">
        <ele>18</ele>
        <time>2016-10-08T13:32:24Z</time>
      </trkpt>
      <trkpt lat="43.36717" lon="6.70706">
        <ele>18</ele>
        <time>2016-10-08T13:32:25Z</time>
      </trkpt>
      <trkpt lat="43.3672" lon="6.70707">
        <ele>18</ele>
        <time>2016-10-08T13:32:26Z</time>
      </trkpt>
      <trkpt lat="43.36724" lon="6.70704">
        <ele>18</ele>
        <time>2016-10-08T13:32:27Z</time>
      </trkpt>
      <trkpt lat="43.36725" lon="6.707">
        <ele>18</ele>
        <time>2016-10-08T13:32:28Z</time>
      </trkpt>
      <trkpt lat="43.36726" lon="6.7068">
        <ele>18</ele>
        <time>2016-10-08T13:32:31Z</time>
      </trkpt>
      <trkpt lat="43.3673" lon="6.70641">
        <ele>18</ele>
        <time>2016-10-08T13:32:36Z</time>
      </trkpt>
      <trkpt lat="43.36732" lon="6.70633">
        <ele>18</ele>
        <time>2016-10-08T13:32:37Z</time>
      </trkpt>
      <trkpt lat="43.36737" lon="6.70626">
        <ele>18</ele>
        <time>2016-10-08T13:32:38Z</time>
      </trkpt>
      <trkpt lat="43.36742" lon="6.70622">
        <ele>18</ele>
        <time>2016-10-08T13:32:39Z</time>
      </trkpt>
      <trkpt lat="43.36747" lon="6.70619">
        <ele>18</ele>
        <time>2016-10-08T13:32:40Z</time>
      </trkpt>
      <trkpt lat="43.36753" lon="6.70622">
        <ele>15</ele>
        <time>2016-10-08T13:32:41Z</time>
      </trkpt>
      <trkpt lat="43.36759" lon="6.70627">
        <ele>15</ele>
        <time>2016-10-08T13:32:42Z</time>
      </trkpt>
      <trkpt lat="43.36773" lon="6.70646">
        <ele>15</ele>
        <time>2016-10-08T13:32:45Z</time>
      </trkpt>
      <trkpt lat="43.36777" lon="6.70649">
        <ele>15</ele>
        <time>2016-10-08T13:32:46Z</time>
      </trkpt>
      <trkpt lat="43.36781" lon="6.70651">
        <ele>14</ele>
        <time>2016-10-08T13:32:47Z</time>
      </trkpt>
      <trkpt lat="43.36782" lon="6.70642">
        <ele>14</ele>
        <time>2016-10-08T13:32:48Z</time>
      </trkpt>
      <trkpt lat="43.36794" lon="6.70607">
        <ele>14</ele>
        <time>2016-10-08T13:32:53Z</time>
      </trkpt>
      <trkpt lat="43.36791" lon="6.70587">
        <ele>14</ele>
        <time>2016-10-08T13:32:56Z</time>
      </trkpt>
      <trkpt lat="43.3679" lon="6.70582">
        <ele>15</ele>
        <time>2016-10-08T13:32:57Z</time>
      </trkpt>
      <trkpt lat="43.36791" lon="6.70561">
        <ele>15</ele>
        <time>2016-10-08T13:33:01Z</time>
      </trkpt>
      <trkpt lat="43.36795" lon="6.7053">
        <ele>16</ele>
        <time>2016-10-08T13:33:06Z</time>
      </trkpt>
      <trkpt lat="43.36791" lon="6.70488">
        <ele>17</ele>
        <time>2016-10-08T13:33:12Z</time>
      </trkpt>
      <trkpt lat="43.36799" lon="6.70433">
        <ele>18</ele>
        <time>2016-10-08T13:33:21Z</time>
      </trkpt>
      <trkpt lat="43.36809" lon="6.70423">
        <ele>17</ele>
        <time>2016-10-08T13:33:24Z</time>
      </trkpt>
      <trkpt lat="43.36819" lon="6.70426">
        <ele>16</ele>
        <time>2016-10-08T13:33:27Z</time>
      </trkpt>
      <trkpt lat="43.36836" lon="6.70433">
        <ele>18</ele>
        <time>2016-10-08T13:33:34Z</time>
      </trkpt>
      <trkpt lat="43.36838" lon="6.70436">
        <ele>18</ele>
        <time>2016-10-08T13:33:35Z</time>
      </trkpt>
      <trkpt lat="43.36854" lon="6.70453">
        <ele>20</ele>
        <time>2016-10-08T13:33:44Z</time>
      </trkpt>
      <trkpt lat="43.3687" lon="6.70481">
        <ele>21</ele>
        <time>2016-10-08T13:33:56Z</time>
      </trkpt>
      <trkpt lat="43.36874" lon="6.7049">
        <ele>21</ele>
        <time>2016-10-08T13:33:59Z</time>
      </trkpt>
      <trkpt lat="43.36882" lon="6.70521">
        <ele>23</ele>
        <time>2016-10-08T13:34:11Z</time>
      </trkpt>
      <trkpt lat="43.36884" lon="6.7054">
        <ele>23</ele>
        <time>2016-10-08T13:34:21Z</time>
      </trkpt>
      <trkpt lat="43.36884" lon="6.70547">
        <ele>23</ele>
        <time>2016-10-08T13:34:26Z</time>
      </trkpt>
      <trkpt lat="43.36887" lon="6.7055">
        <ele>23</ele>
        <time>2016-10-08T13:34:30Z</time>
      </trkpt>
      <trkpt lat="43.36912" lon="6.7054">
        <ele>25</ele>
        <time>2016-10-08T13:34:55Z</time>
      </trkpt>
      <trkpt lat="43.36914" lon="6.70539">
        <ele>25</ele>
        <time>2016-10-08T13:34:57Z</time>
      </trkpt>
      <trkpt lat="43.36934" lon="6.70527">
        <ele>37</ele>
        <time>2016-10-08T13:35:17Z</time>
      </trkpt>
      <trkpt lat="43.36956" lon="6.70515">
        <ele>39</ele>
        <time>2016-10-08T13:35:35Z</time>
      </trkpt>
      <trkpt lat="43.36964" lon="6.70513">
        <ele>40</ele>
        <time>2016-10-08T13:35:40Z</time>
      </trkpt>
      <trkpt lat="43.36981" lon="6.70505">
        <ele>43</ele>
        <time>2016-10-08T13:35:51Z</time>
      </trkpt>
      <trkpt lat="43.36992" lon="6.70495">
        <ele>44</ele>
        <time>2016-10-08T13:35:59Z</time>
      </trkpt>
      <trkpt lat="43.36999" lon="6.70485">
        <ele>43</ele>
        <time>2016-10-08T13:36:05Z</time>
      </trkpt>
      <trkpt lat="43.37004" lon="6.70479">
        <ele>52</ele>
        <time>2016-10-08T13:36:09Z</time>
      </trkpt>
      <trkpt lat="43.37015" lon="6.70461">
        <ele>53</ele>
        <time>2016-10-08T13:36:18Z</time>
      </trkpt>
      <trkpt lat="43.37031" lon="6.70438">
        <ele>54</ele>
        <time>2016-10-08T13:36:29Z</time>
      </trkpt>
      <trkpt lat="43.37034" lon="6.70434">
        <ele>54</ele>
        <time>2016-10-08T13:36:31Z</time>
      </trkpt>
      <trkpt lat="43.37056" lon="6.70404">
        <ele>54</ele>
        <time>2016-10-08T13:36:46Z</time>
      </trkpt>
      <trkpt lat="43.37059" lon="6.70399">
        <ele>54</ele>
        <time>2016-10-08T13:36:48Z</time>
      </trkpt>
      <trkpt lat="43.37073" lon="6.70378">
        <ele>54</ele>
        <time>2016-10-08T13:36:57Z</time>
      </trkpt>
      <trkpt lat="43.37084" lon="6.7036">
        <ele>63</ele>
        <time>2016-10-08T13:37:03Z</time>
      </trkpt>
      <trkpt lat="43.37091" lon="6.7035">
        <ele>62</ele>
        <time>2016-10-08T13:37:06Z</time>
      </trkpt>
      <trkpt lat="43.37097" lon="6.70336">
        <ele>61</ele>
        <time>2016-10-08T13:37:09Z</time>
      </trkpt>
      <trkpt lat="43.37099" lon="6.70326">
        <ele>58</ele>
        <time>2016-10-08T13:37:11Z</time>
      </trkpt>
      <trkpt lat="43.37114" lon="6.7028">
        <ele>59</ele>
        <time>2016-10-08T13:37:19Z</time>
      </trkpt>
      <trkpt lat="43.37121" lon="6.70253">
        <ele>59</ele>
        <time>2016-10-08T13:37:25Z</time>
      </trkpt>
      <trkpt lat="43.37125" lon="6.7024">
        <ele>54</ele>
        <time>2016-10-08T13:37:29Z</time>
      </trkpt>
      <trkpt lat="43.37128" lon="6.70228">
        <ele>54</ele>
        <time>2016-10-08T13:37:33Z</time>
      </trkpt>
      <trkpt lat="43.37137" lon="6.70206">
        <ele>54</ele>
        <time>2016-10-08T13:37:42Z</time>
      </trkpt>
      <trkpt lat="43.37151" lon="6.7019">
        <ele>55</ele>
        <time>2016-10-08T13:37:51Z</time>
      </trkpt>
      <trkpt lat="43.37154" lon="6.70187">
        <ele>55</ele>
        <time>2016-10-08T13:37:53Z</time>
      </trkpt>
      <trkpt lat="43.37193" lon="6.70174">
        <ele>66</ele>
        <time>2016-10-08T13:38:11Z</time>
      </trkpt>
      <trkpt lat="43.37198" lon="6.70172">
        <ele>67</ele>
        <time>2016-10-08T13:38:14Z</time>
      </trkpt>
      <trkpt lat="43.37216" lon="6.70165">
        <ele>63</ele>
        <time>2016-10-08T13:38:24Z</time>
      </trkpt>
      <trkpt lat="43.37235" lon="6.7016">
        <ele>67</ele>
        <time>2016-10-08T13:38:34Z</time>
      </trkpt>
      <trkpt lat="43.3725" lon="6.70158">
        <ele>74</ele>
        <time>2016-10-08T13:38:43Z</time>
      </trkpt>
      <trkpt lat="43.37254" lon="6.70158">
        <ele>74</ele>
        <time>2016-10-08T13:38:45Z</time>
      </trkpt>
      <trkpt lat="43.3727" lon="6.70156">
        <ele>75</ele>
        <time>2016-10-08T13:38:54Z</time>
      </trkpt>
      <trkpt lat="43.3728" lon="6.70152">
        <ele>76</ele>
        <time>2016-10-08T13:39:00Z</time>
      </trkpt>
      <trkpt lat="43.37294" lon="6.70145">
        <ele>78</ele>
        <time>2016-10-08T13:39:09Z</time>
      </trkpt>
      <trkpt lat="43.37297" lon="6.70142">
        <ele>78</ele>
        <time>2016-10-08T13:39:11Z</time>
      </trkpt>
      <trkpt lat="43.37304" lon="6.70134">
        <ele>79</ele>
        <time>2016-10-08T13:39:17Z</time>
      </trkpt>
      <trkpt lat="43.37318" lon="6.70102">
        <ele>80</ele>
        <time>2016-10-08T13:39:39Z</time>
      </trkpt>
      <trkpt lat="43.37326" lon="6.70093">
        <ele>82</ele>
        <time>2016-10-08T13:39:47Z</time>
      </trkpt>
      <trkpt lat="43.37333" lon="6.70079">
        <ele>83</ele>
        <time>2016-10-08T13:39:56Z</time>
      </trkpt>
      <trkpt lat="43.3734" lon="6.70071">
        <ele>89</ele>
        <time>2016-10-08T13:40:03Z</time>
      </trkpt>
      <trkpt lat="43.3734" lon="6.70066">
        <ele>90</ele>
        <time>2016-10-08T13:40:06Z</time>
      </trkpt>
      <trkpt lat="43.3734" lon="6.70059">
        <ele>90</ele>
        <time>2016-10-08T13:40:09Z</time>
      </trkpt>
      <trkpt lat="43.37343" lon="6.7005">
        <ele>91</ele>
        <time>2016-10-08T13:40:15Z</time>
      </trkpt>
      <trkpt lat="43.37349" lon="6.7004">
        <ele>92</ele>
        <time>2016-10-08T13:40:22Z</time>
      </trkpt>
      <trkpt lat="43.37354" lon="6.70037">
        <ele>92</ele>
        <time>2016-10-08T13:40:26Z</time>
      </trkpt>
      <trkpt lat="43.3736" lon="6.70026">
        <ele>93</ele>
        <time>2016-10-08T13:40:36Z</time>
      </trkpt>
      <trkpt lat="43.37361" lon="6.7002">
        <ele>93</ele>
        <time>2016-10-08T13:40:40Z</time>
      </trkpt>
      <trkpt lat="43.37362" lon="6.70019">
        <ele>93</ele>
        <time>2016-10-08T13:40:42Z</time>
      </trkpt>
      <trkpt lat="43.37364" lon="6.70008">
        <ele>93</ele>
        <time>2016-10-08T13:40:50Z</time>
      </trkpt>
      <trkpt lat="43.37368" lon="6.70005">
        <ele>94</ele>
        <time>2016-10-08T13:40:56Z</time>
      </trkpt>
      <trkpt lat="43.37378" lon="6.70002">
        <ele>96</ele>
        <time>2016-10-08T13:41:02Z</time>
      </trkpt>
      <trkpt lat="43.37381" lon="6.70005">
        <ele>96</ele>
        <time>2016-10-08T13:41:05Z</time>
      </trkpt>
      <trkpt lat="43.37384" lon="6.7001">
        <ele>97</ele>
        <time>2016-10-08T13:41:08Z</time>
      </trkpt>
      <trkpt lat="43.37387" lon="6.70019">
        <ele>97</ele>
        <time>2016-10-08T13:41:12Z</time>
      </trkpt>
      <trkpt lat="43.37393" lon="6.7003">
        <ele>97</ele>
        <time>2016-10-08T13:41:19Z</time>
      </trkpt>
      <trkpt lat="43.37398" lon="6.70031">
        <ele>98</ele>
        <time>2016-10-08T13:41:22Z</time>
      </trkpt>
      <trkpt lat="43.37403" lon="6.70035">
        <ele>98</ele>
        <time>2016-10-08T13:41:26Z</time>
      </trkpt>
      <trkpt lat="43.37411" lon="6.70036">
        <ele>98</ele>
        <time>2016-10-08T13:41:31Z</time>
      </trkpt>
      <trkpt lat="43.37417" lon="6.70033">
        <ele>106</ele>
        <time>2016-10-08T13:41:35Z</time>
      </trkpt>
      <trkpt lat="43.37436" lon="6.70012">
        <ele>107</ele>
        <time>2016-10-08T13:41:49Z</time>
      </trkpt>
      <trkpt lat="43.37445" lon="6.7">
        <ele>110</ele>
        <time>2016-10-08T13:41:54Z</time>
      </trkpt>
      <trkpt lat="43.37449" lon="6.69992">
        <ele>110</ele>
        <time>2016-10-08T13:41:57Z</time>
      </trkpt>
      <trkpt lat="43.37479" lon="6.69954">
        <ele>112</ele>
        <time>2016-10-08T13:42:12Z</time>
      </trkpt>
      <trkpt lat="43.37487" lon="6.69947">
        <ele>112</ele>
        <time>2016-10-08T13:42:16Z</time>
      </trkpt>
      <trkpt lat="43.37491" lon="6.69943">
        <ele>112</ele>
        <time>2016-10-08T13:42:18Z</time>
      </trkpt>
      <trkpt lat="43.37498" lon="6.6994">
        <ele>113</ele>
        <time>2016-10-08T13:42:21Z</time>
      </trkpt>
      <trkpt lat="43.37505" lon="6.69939">
        <ele>117</ele>
        <time>2016-10-08T13:42:24Z</time>
      </trkpt>
      <trkpt lat="43.37508" lon="6.6994">
        <ele>117</ele>
        <time>2016-10-08T13:42:25Z</time>
      </trkpt>
      <trkpt lat="43.37514" lon="6.69944">
        <ele>117</ele>
        <time>2016-10-08T13:42:28Z</time>
      </trkpt>
      <trkpt lat="43.37522" lon="6.69958">
        <ele>117</ele>
        <time>2016-10-08T13:42:33Z</time>
      </trkpt>
      <trkpt lat="43.3753" lon="6.69981">
        <ele>117</ele>
        <time>2016-10-08T13:42:40Z</time>
      </trkpt>
      <trkpt lat="43.37534" lon="6.69989">
        <ele>117</ele>
        <time>2016-10-08T13:42:43Z</time>
      </trkpt>
      <trkpt lat="43.37541" lon="6.69995">
        <ele>118</ele>
        <time>2016-10-08T13:42:47Z</time>
      </trkpt>
      <trkpt lat="43.37553" lon="6.70001">
        <ele>113</ele>
        <time>2016-10-08T13:42:55Z</time>
      </trkpt>
      <trkpt lat="43.37566" lon="6.7">
        <ele>119</ele>
        <time>2016-10-08T13:43:03Z</time>
      </trkpt>
      <trkpt lat="43.37575" lon="6.69997">
        <ele>119</ele>
        <time>2016-10-08T13:43:07Z</time>
      </trkpt>
      <trkpt lat="43.37587" lon="6.69998">
        <ele>120</ele>
        <time>2016-10-08T13:43:12Z</time>
      </trkpt>
      <trkpt lat="43.3759" lon="6.69997">
        <ele>120</ele>
        <time>2016-10-08T13:43:14Z</time>
      </trkpt>
      <trkpt lat="43.37593" lon="6.69997">
        <ele>120</ele>
        <time>2016-10-08T13:43:16Z</time>
      </trkpt>
      <trkpt lat="43.37606" lon="6.69993">
        <ele>121</ele>
        <time>2016-10-08T13:43:22Z</time>
      </trkpt>
      <trkpt lat="43.37615" lon="6.69984">
        <ele>121</ele>
        <time>2016-10-08T13:43:25Z</time>
      </trkpt>
      <trkpt lat="43.37621" lon="6.69982">
        <ele>121</ele>
        <time>2016-10-08T13:43:26Z</time>
      </trkpt>
      <trkpt lat="43.37638" lon="6.69978">
        <ele>121</ele>
        <time>2016-10-08T13:43:30Z</time>
      </trkpt>
      <trkpt lat="43.37655" lon="6.69973">
        <ele>121</ele>
        <time>2016-10-08T13:43:35Z</time>
      </trkpt>
      <trkpt lat="43.37673" lon="6.69962">
        <ele>123</ele>
        <time>2016-10-08T13:43:40Z</time>
      </trkpt>
      <trkpt lat="43.37685" lon="6.69952">
        <ele>125</ele>
        <time>2016-10-08T13:43:43Z</time>
      </trkpt>
      <trkpt lat="43.37693" lon="6.69943">
        <ele>126</ele>
        <time>2016-10-08T13:43:45Z</time>
      </trkpt>
      <trkpt lat="43.37705" lon="6.69931">
        <ele>127</ele>
        <time>2016-10-08T13:43:48Z</time>
      </trkpt>
      <trkpt lat="43.37709" lon="6.6993">
        <ele>127</ele>
        <time>2016-10-08T13:43:49Z</time>
      </trkpt>
      <trkpt lat="43.37712" lon="6.69934">
        <ele>127</ele>
        <time>2016-10-08T13:43:50Z</time>
      </trkpt>
      <trkpt lat="43.37716" lon="6.69936">
        <ele>127</ele>
        <time>2016-10-08T13:43:51Z</time>
      </trkpt>
      <trkpt lat="43.37724" lon="6.69945">
        <ele>126</ele>
        <time>2016-10-08T13:43:56Z</time>
      </trkpt>
      <trkpt lat="43.37733" lon="6.69959">
        <ele>125</ele>
        <time>2016-10-08T13:44:03Z</time>
      </trkpt>
      <trkpt lat="43.37742" lon="6.69977">
        <ele>122</ele>
        <time>2016-10-08T13:44:11Z</time>
      </trkpt>
      <trkpt lat="43.37752" lon="6.69987">
        <ele>124</ele>
        <time>2016-10-08T13:44:19Z</time>
      </trkpt>
      <trkpt lat="43.37753" lon="6.69991">
        <ele>122</ele>
        <time>2016-10-08T13:44:23Z</time>
      </trkpt>
      <trkpt lat="43.37755" lon="6.69993">
        <ele>122</ele>
        <time>2016-10-08T13:44:26Z</time>
      </trkpt>
      <trkpt lat="43.37763" lon="6.69998">
        <ele>124</ele>
        <time>2016-10-08T13:44:36Z</time>
      </trkpt>
      <trkpt lat="43.37769" lon="6.69999">
        <ele>126</ele>
        <time>2016-10-08T13:44:38Z</time>
      </trkpt>
      <trkpt lat="43.37772" lon="6.70001">
        <ele>118</ele>
        <time>2016-10-08T13:44:40Z</time>
      </trkpt>
      <trkpt lat="43.37782" lon="6.70008">
        <ele>118</ele>
        <time>2016-10-08T13:44:46Z</time>
      </trkpt>
      <trkpt lat="43.37787" lon="6.70013">
        <ele>119</ele>
        <time>2016-10-08T13:44:50Z</time>
      </trkpt>
      <trkpt lat="43.37795" lon="6.70017">
        <ele>120</ele>
        <time>2016-10-08T13:44:55Z</time>
      </trkpt>
      <trkpt lat="43.37801" lon="6.70021">
        <ele>120</ele>
        <time>2016-10-08T13:44:59Z</time>
      </trkpt>
      <trkpt lat="43.37808" lon="6.70023">
        <ele>121</ele>
        <time>2016-10-08T13:45:05Z</time>
      </trkpt>
      <trkpt lat="43.37811" lon="6.70025">
        <ele>121</ele>
        <time>2016-10-08T13:45:07Z</time>
      </trkpt>
      <trkpt lat="43.37815" lon="6.70027">
        <ele>121</ele>
        <time>2016-10-08T13:45:09Z</time>
      </trkpt>
      <trkpt lat="43.37836" lon="6.7003">
        <ele>127</ele>
        <time>2016-10-08T13:45:19Z</time>
      </trkpt>
      <trkpt lat="43.3784" lon="6.70032">
        <ele>127</ele>
        <time>2016-10-08T13:45:21Z</time>
      </trkpt>
      <trkpt lat="43.37864" lon="6.70047">
        <ele>124</ele>
        <time>2016-10-08T13:45:30Z</time>
      </trkpt>
      <trkpt lat="43.37884" lon="6.70065">
        <ele>124</ele>
        <time>2016-10-08T13:45:36Z</time>
      </trkpt>
      <trkpt lat="43.37899" lon="6.70099">
        <ele>121</ele>
        <time>2016-10-08T13:45:42Z</time>
      </trkpt>
      <trkpt lat="43.37906" lon="6.70128">
        <ele>120</ele>
        <time>2016-10-08T13:45:47Z</time>
      </trkpt>
      <trkpt lat="43.37912" lon="6.70157">
        <ele>122</ele>
        <time>2016-10-08T13:45:59Z</time>
      </trkpt>
      <trkpt lat="43.37913" lon="6.7016">
        <ele>122</ele>
        <time>2016-10-08T13:46:02Z</time>
      </trkpt>
      <trkpt lat="43.37913" lon="6.70162">
        <ele>123</ele>
        <time>2016-10-08T13:46:05Z</time>
      </trkpt>
      <trkpt lat="43.37922" lon="6.7018">
        <ele>127</ele>
        <time>2016-10-08T13:50:04Z</time>
      </trkpt>
      <trkpt lat="43.37925" lon="6.70187">
        <ele>128</ele>
        <time>2016-10-08T13:50:07Z</time>
      </trkpt>
      <trkpt lat="43.37935" lon="6.702">
        <ele>130</ele>
        <time>2016-10-08T13:50:16Z</time>
      </trkpt>
      <trkpt lat="43.37944" lon="6.70208">
        <ele>131</ele>
        <time>2016-10-08T13:50:23Z</time>
      </trkpt>
      <trkpt lat="43.3795" lon="6.70212">
        <ele>131</ele>
        <time>2016-10-08T13:50:27Z</time>
      </trkpt>
      <trkpt lat="43.37953" lon="6.70218">
        <ele>132</ele>
        <time>2016-10-08T13:50:31Z</time>
      </trkpt>
      <trkpt lat="43.37953" lon="6.70222">
        <ele>132</ele>
        <time>2016-10-08T13:50:33Z</time>
      </trkpt>
      <trkpt lat="43.37957" lon="6.70232">
        <ele>133</ele>
        <time>2016-10-08T13:50:40Z</time>
      </trkpt>
      <trkpt lat="43.37958" lon="6.70242">
        <ele>133</ele>
        <time>2016-10-08T13:50:46Z</time>
      </trkpt>
      <trkpt lat="43.37957" lon="6.70246">
        <ele>133</ele>
        <time>2016-10-08T13:50:48Z</time>
      </trkpt>
      <trkpt lat="43.37957" lon="6.70249">
        <ele>133</ele>
        <time>2016-10-08T13:50:50Z</time>
      </trkpt>
      <trkpt lat="43.37956" lon="6.70264">
        <ele>136</ele>
        <time>2016-10-08T13:50:58Z</time>
      </trkpt>
      <trkpt lat="43.37959" lon="6.70277">
        <ele>137</ele>
        <time>2016-10-08T13:51:05Z</time>
      </trkpt>
      <trkpt lat="43.37964" lon="6.70293">
        <ele>137</ele>
        <time>2016-10-08T13:51:14Z</time>
      </trkpt>
      <trkpt lat="43.37967" lon="6.70299">
        <ele>137</ele>
        <time>2016-10-08T13:51:18Z</time>
      </trkpt>
      <trkpt lat="43.37974" lon="6.70303">
        <ele>138</ele>
        <time>2016-10-08T13:51:24Z</time>
      </trkpt>
      <trkpt lat="43.38003" lon="6.70295">
        <ele>143</ele>
        <time>2016-10-08T13:51:38Z</time>
      </trkpt>
      <trkpt lat="43.38033" lon="6.70291">
        <ele>143</ele>
        <time>2016-10-08T13:51:47Z</time>
      </trkpt>
      <trkpt lat="43.38051" lon="6.70294">
        <ele>143</ele>
        <time>2016-10-08T13:51:52Z</time>
      </trkpt>
      <trkpt lat="43.38091" lon="6.70297">
        <ele>140</ele>
        <time>2016-10-08T13:52:01Z</time>
      </trkpt>
      <trkpt lat="43.38103" lon="6.70301">
        <ele>140</ele>
        <time>2016-10-08T13:52:03Z</time>
      </trkpt>
      <trkpt lat="43.38128" lon="6.70315">
        <ele>139</ele>
        <time>2016-10-08T13:52:07Z</time>
      </trkpt>
      <trkpt lat="43.38143" lon="6.70321">
        <ele>138</ele>
        <time>2016-10-08T13:52:09Z</time>
      </trkpt>
      <trkpt lat="43.38155" lon="6.70329">
        <ele>138</ele>
        <time>2016-10-08T13:52:11Z</time>
      </trkpt>
      <trkpt lat="43.38173" lon="6.70342">
        <ele>136</ele>
        <time>2016-10-08T13:52:14Z</time>
      </trkpt>
      <trkpt lat="43.38189" lon="6.70359">
        <ele>134</ele>
        <time>2016-10-08T13:52:17Z</time>
      </trkpt>
      <trkpt lat="43.38196" lon="6.70363">
        <ele>133</ele>
        <time>2016-10-08T13:52:18Z</time>
      </trkpt>
      <trkpt lat="43.38203" lon="6.70366">
        <ele>133</ele>
        <time>2016-10-08T13:52:19Z</time>
      </trkpt>
      <trkpt lat="43.38216" lon="6.7037">
        <ele>132</ele>
        <time>2016-10-08T13:52:21Z</time>
      </trkpt>
      <trkpt lat="43.38221" lon="6.70375">
        <ele>132</ele>
        <time>2016-10-08T13:52:22Z</time>
      </trkpt>
      <trkpt lat="43.38225" lon="6.70381">
        <ele>132</ele>
        <time>2016-10-08T13:52:23Z</time>
      </trkpt>
      <trkpt lat="43.3823" lon="6.70387">
        <ele>132</ele>
        <time>2016-10-08T13:52:24Z</time>
      </trkpt>
      <trkpt lat="43.38236" lon="6.70392">
        <ele>132</ele>
        <time>2016-10-08T13:52:25Z</time>
      </trkpt>
      <trkpt lat="43.38243" lon="6.70397">
        <ele>132</ele>
        <time>2016-10-08T13:52:26Z</time>
      </trkpt>
      <trkpt lat="43.38258" lon="6.70402">
        <ele>126</ele>
        <time>2016-10-08T13:52:28Z</time>
      </trkpt>
      <trkpt lat="43.38274" lon="6.70406">
        <ele>124</ele>
        <time>2016-10-08T13:52:30Z</time>
      </trkpt>
      <trkpt lat="43.38282" lon="6.70409">
        <ele>123</ele>
        <time>2016-10-08T13:52:31Z</time>
      </trkpt>
      <trkpt lat="43.38291" lon="6.70424">
        <ele>127</ele>
        <time>2016-10-08T13:52:33Z</time>
      </trkpt>
      <trkpt lat="43.38297" lon="6.70437">
        <ele>126</ele>
        <time>2016-10-08T13:52:35Z</time>
      </trkpt>
      <trkpt lat="43.38303" lon="6.70447">
        <ele>126</ele>
        <time>2016-10-08T13:52:37Z</time>
      </trkpt>
      <trkpt lat="43.38319" lon="6.70461">
        <ele>126</ele>
        <time>2016-10-08T13:52:41Z</time>
      </trkpt>
      <trkpt lat="43.38327" lon="6.70466">
        <ele>126</ele>
        <time>2016-10-08T13:52:43Z</time>
      </trkpt>
      <trkpt lat="43.3835" lon="6.70483">
        <ele>122</ele>
        <time>2016-10-08T13:52:47Z</time>
      </trkpt>
      <trkpt lat="43.38354" lon="6.70491">
        <ele>122</ele>
        <time>2016-10-08T13:52:48Z</time>
      </trkpt>
      <trkpt lat="43.3836" lon="6.70506">
        <ele>121</ele>
        <time>2016-10-08T13:52:50Z</time>
      </trkpt>
      <trkpt lat="43.38364" lon="6.7051">
        <ele>121</ele>
        <time>2016-10-08T13:52:51Z</time>
      </trkpt>
      <trkpt lat="43.38369" lon="6.70512">
        <ele>120</ele>
        <time>2016-10-08T13:52:52Z</time>
      </trkpt>
      <trkpt lat="43.38385" lon="6.70512">
        <ele>118</ele>
        <time>2016-10-08T13:52:55Z</time>
      </trkpt>
      <trkpt lat="43.38393" lon="6.70513">
        <ele>118</ele>
        <time>2016-10-08T13:52:57Z</time>
      </trkpt>
      <trkpt lat="43.384" lon="6.70517">
        <ele>117</ele>
        <time>2016-10-08T13:52:59Z</time>
      </trkpt>
      <trkpt lat="43.38411" lon="6.70529">
        <ele>117</ele>
        <time>2016-10-08T13:53:03Z</time>
      </trkpt>
      <trkpt lat="43.38415" lon="6.70531">
        <ele>117</ele>
        <time>2016-10-08T13:53:04Z</time>
      </trkpt>
      <trkpt lat="43.3842" lon="6.70538">
        <ele>108</ele>
        <time>2016-10-08T13:53:06Z</time>
      </trkpt>
      <trkpt lat="43.38427" lon="6.70553">
        <ele>107</ele>
        <time>2016-10-08T13:53:09Z</time>
      </trkpt>
      <trkpt lat="43.38439" lon="6.7057">
        <ele>107</ele>
        <time>2016-10-08T13:53:13Z</time>
      </trkpt>
      <trkpt lat="43.38443" lon="6.70573">
        <ele>107</ele>
        <time>2016-10-08T13:53:14Z</time>
      </trkpt>
      <trkpt lat="43.38452" lon="6.70578">
        <ele>105</ele>
        <time>2016-10-08T13:53:16Z</time>
      </trkpt>
      <trkpt lat="43.38486" lon="6.70581">
        <ele>101</ele>
        <time>2016-10-08T13:53:23Z</time>
      </trkpt>
      <trkpt lat="43.3849" lon="6.70584">
        <ele>101</ele>
        <time>2016-10-08T13:53:24Z</time>
      </trkpt>
      <trkpt lat="43.38495" lon="6.70593">
        <ele>101</ele>
        <time>2016-10-08T13:53:26Z</time>
      </trkpt>
      <trkpt lat="43.38501" lon="6.70603">
        <ele>98</ele>
        <time>2016-10-08T13:53:28Z</time>
      </trkpt>
      <trkpt lat="43.38511" lon="6.70618">
        <ele>98</ele>
        <time>2016-10-08T13:53:31Z</time>
      </trkpt>
      <trkpt lat="43.38522" lon="6.70639">
        <ele>99</ele>
        <time>2016-10-08T13:53:35Z</time>
      </trkpt>
      <trkpt lat="43.38532" lon="6.70654">
        <ele>99</ele>
        <time>2016-10-08T13:53:39Z</time>
      </trkpt>
      <trkpt lat="43.38538" lon="6.70667">
        <ele>103</ele>
        <time>2016-10-08T13:53:42Z</time>
      </trkpt>
      <trkpt lat="43.38544" lon="6.70677">
        <ele>103</ele>
        <time>2016-10-08T13:53:45Z</time>
      </trkpt>
      <trkpt lat="43.3855" lon="6.70684">
        <ele>103</ele>
        <time>2016-10-08T13:53:50Z</time>
      </trkpt>
      <trkpt lat="43.38553" lon="6.70691">
        <ele>103</ele>
        <time>2016-10-08T13:53:55Z</time>
      </trkpt>
      <trkpt lat="43.38561" lon="6.70701">
        <ele>103</ele>
        <time>2016-10-08T13:54:03Z</time>
      </trkpt>
      <trkpt lat="43.38563" lon="6.70706">
        <ele>104</ele>
        <time>2016-10-08T13:54:06Z</time>
      </trkpt>
      <trkpt lat="43.38567" lon="6.70712">
        <ele>104</ele>
        <time>2016-10-08T13:54:10Z</time>
      </trkpt>
      <trkpt lat="43.38571" lon="6.70717">
        <ele>104</ele>
        <time>2016-10-08T13:54:13Z</time>
      </trkpt>
      <trkpt lat="43.38579" lon="6.70724">
        <ele>105</ele>
        <time>2016-10-08T13:54:20Z</time>
      </trkpt>
      <trkpt lat="43.38591" lon="6.70728">
        <ele>104</ele>
        <time>2016-10-08T13:54:28Z</time>
      </trkpt>
      <trkpt lat="43.38622" lon="6.70736">
        <ele>103</ele>
        <time>2016-10-08T13:54:43Z</time>
      </trkpt>
      <trkpt lat="43.38643" lon="6.70739">
        <ele>103</ele>
        <time>2016-10-08T13:54:53Z</time>
      </trkpt>
      <trkpt lat="43.38648" lon="6.70737">
        <ele>103</ele>
        <time>2016-10-08T13:54:56Z</time>
      </trkpt>
      <trkpt lat="43.3866" lon="6.70736">
        <ele>103</ele>
        <time>2016-10-08T13:55:02Z</time>
      </trkpt>
      <trkpt lat="43.38664" lon="6.70733">
        <ele>103</ele>
        <time>2016-10-08T13:55:04Z</time>
      </trkpt>
      <trkpt lat="43.38668" lon="6.70729">
        <ele>102</ele>
        <time>2016-10-08T13:55:06Z</time>
      </trkpt>
      <trkpt lat="43.38671" lon="6.70728">
        <ele>102</ele>
        <time>2016-10-08T13:55:07Z</time>
      </trkpt>
      <trkpt lat="43.38674" lon="6.70729">
        <ele>102</ele>
        <time>2016-10-08T13:55:08Z</time>
      </trkpt>
      <trkpt lat="43.38681" lon="6.70728">
        <ele>101</ele>
        <time>2016-10-08T13:55:10Z</time>
      </trkpt>
      <trkpt lat="43.38692" lon="6.70718">
        <ele>100</ele>
        <time>2016-10-08T13:55:18Z</time>
      </trkpt>
      <trkpt lat="43.387" lon="6.70716">
        <ele>100</ele>
        <time>2016-10-08T13:55:24Z</time>
      </trkpt>
      <trkpt lat="43.38705" lon="6.70717">
        <ele>100</ele>
        <time>2016-10-08T13:55:27Z</time>
      </trkpt>
      <trkpt lat="43.38708" lon="6.70719">
        <ele>100</ele>
        <time>2016-10-08T13:55:29Z</time>
      </trkpt>
      <trkpt lat="43.38714" lon="6.70722">
        <ele>100</ele>
        <time>2016-10-08T13:55:32Z</time>
      </trkpt>
      <trkpt lat="43.3872" lon="6.70722">
        <ele>100</ele>
        <time>2016-10-08T13:55:35Z</time>
      </trkpt>
      <trkpt lat="43.38733" lon="6.70719">
        <ele>100</ele>
        <time>2016-10-08T13:55:42Z</time>
      </trkpt>
      <trkpt lat="43.38751" lon="6.70709">
        <ele>98</ele>
        <time>2016-10-08T13:55:49Z</time>
      </trkpt>
      <trkpt lat="43.38769" lon="6.70693">
        <ele>97</ele>
        <time>2016-10-08T13:55:54Z</time>
      </trkpt>
      <trkpt lat="43.38774" lon="6.70691">
        <ele>97</ele>
        <time>2016-10-08T13:55:55Z</time>
      </trkpt>
      <trkpt lat="43.38786" lon="6.70687">
        <ele>97</ele>
        <time>2016-10-08T13:55:57Z</time>
      </trkpt>
      <trkpt lat="43.38791" lon="6.70683">
        <ele>97</ele>
        <time>2016-10-08T13:55:58Z</time>
      </trkpt>
      <trkpt lat="43.38809" lon="6.70672">
        <ele>96</ele>
        <time>2016-10-08T13:56:01Z</time>
      </trkpt>
      <trkpt lat="43.38834" lon="6.70667">
        <ele>95</ele>
        <time>2016-10-08T13:56:05Z</time>
      </trkpt>
      <trkpt lat="43.38859" lon="6.70651">
        <ele>93</ele>
        <time>2016-10-08T13:56:10Z</time>
      </trkpt>
      <trkpt lat="43.38865" lon="6.70645">
        <ele>93</ele>
        <time>2016-10-08T13:56:11Z</time>
      </trkpt>
      <trkpt lat="43.38873" lon="6.70633">
        <ele>93</ele>
        <time>2016-10-08T13:56:13Z</time>
      </trkpt>
      <trkpt lat="43.38879" lon="6.70623">
        <ele>93</ele>
        <time>2016-10-08T13:56:17Z</time>
      </trkpt>
      <trkpt lat="43.38881" lon="6.7062">
        <ele>93</ele>
        <time>2016-10-08T13:56:19Z</time>
      </trkpt>
      <trkpt lat="43.38885" lon="6.70612">
        <ele>93</ele>
        <time>2016-10-08T13:56:25Z</time>
      </trkpt>
      <trkpt lat="43.38895" lon="6.70604">
        <ele>94</ele>
        <time>2016-10-08T13:56:54Z</time>
      </trkpt>
      <trkpt lat="43.38928" lon="6.70576">
        <ele>91</ele>
        <time>2016-10-08T13:57:05Z</time>
      </trkpt>
      <trkpt lat="43.38932" lon="6.70574">
        <ele>90</ele>
        <time>2016-10-08T13:57:06Z</time>
      </trkpt>
      <trkpt lat="43.38944" lon="6.70563">
        <ele>88</ele>
        <time>2016-10-08T13:57:09Z</time>
      </trkpt>
      <trkpt lat="43.38946" lon="6.70562">
        <ele>87</ele>
        <time>2016-10-08T13:57:10Z</time>
      </trkpt>
      <trkpt lat="43.38963" lon="6.70571">
        <ele>86</ele>
        <time>2016-10-08T13:57:15Z</time>
      </trkpt>
      <trkpt lat="43.3897" lon="6.70576">
        <ele>85</ele>
        <time>2016-10-08T13:57:17Z</time>
      </trkpt>
      <trkpt lat="43.38972" lon="6.70577">
        <ele>85</ele>
        <time>2016-10-08T13:57:18Z</time>
      </trkpt>
      <trkpt lat="43.38975" lon="6.70575">
        <ele>84</ele>
        <time>2016-10-08T13:57:19Z</time>
      </trkpt>
      <trkpt lat="43.38977" lon="6.70572">
        <ele>84</ele>
        <time>2016-10-08T13:57:20Z</time>
      </trkpt>
      <trkpt lat="43.38978" lon="6.70567">
        <ele>84</ele>
        <time>2016-10-08T13:57:21Z</time>
      </trkpt>
      <trkpt lat="43.38977" lon="6.70559">
        <ele>84</ele>
        <time>2016-10-08T13:57:23Z</time>
      </trkpt>
      <trkpt lat="43.38978" lon="6.70556">
        <ele>84</ele>
        <time>2016-10-08T13:57:24Z</time>
      </trkpt>
      <trkpt lat="43.38981" lon="6.70551">
        <ele>84</ele>
        <time>2016-10-08T13:57:26Z</time>
      </trkpt>
      <trkpt lat="43.38993" lon="6.70537">
        <ele>83</ele>
        <time>2016-10-08T13:57:30Z</time>
      </trkpt>
      <trkpt lat="43.39" lon="6.70528">
        <ele>82</ele>
        <time>2016-10-08T13:57:33Z</time>
      </trkpt>
      <trkpt lat="43.39002" lon="6.70526">
        <ele>72</ele>
        <time>2016-10-08T13:57:34Z</time>
      </trkpt>
      <trkpt lat="43.39004" lon="6.70526">
        <ele>72</ele>
        <time>2016-10-08T13:57:35Z</time>
      </trkpt>
      <trkpt lat="43.39018" lon="6.70532">
        <ele>70</ele>
        <time>2016-10-08T13:57:42Z</time>
      </trkpt>
      <trkpt lat="43.39022" lon="6.70532">
        <ele>70</ele>
        <time>2016-10-08T13:57:44Z</time>
      </trkpt>
      <trkpt lat="43.39022" lon="6.70531">
        <ele>70</ele>
        <time>2016-10-08T13:57:45Z</time>
      </trkpt>
      <trkpt lat="43.39025" lon="6.70524">
        <ele>69</ele>
        <time>2016-10-08T13:58:25Z</time>
      </trkpt>
      <trkpt lat="43.39027" lon="6.70519">
        <ele>69</ele>
        <time>2016-10-08T13:58:26Z</time>
      </trkpt>
      <trkpt lat="43.39029" lon="6.70517">
        <ele>69</ele>
        <time>2016-10-08T13:58:27Z</time>
      </trkpt>
      <trkpt lat="43.39039" lon="6.70524">
        <ele>68</ele>
        <time>2016-10-08T13:58:30Z</time>
      </trkpt>
      <trkpt lat="43.39043" lon="6.70525">
        <ele>67</ele>
        <time>2016-10-08T13:58:31Z</time>
      </trkpt>
      <trkpt lat="43.39047" lon="6.70527">
        <ele>66</ele>
        <time>2016-10-08T13:58:32Z</time>
      </trkpt>
      <trkpt lat="43.39051" lon="6.7053">
        <ele>66</ele>
        <time>2016-10-08T13:58:33Z</time>
      </trkpt>
      <trkpt lat="43.39053" lon="6.70535">
        <ele>66</ele>
        <time>2016-10-08T13:58:34Z</time>
      </trkpt>
      <trkpt lat="43.39056" lon="6.70555">
        <ele>66</ele>
        <time>2016-10-08T13:58:37Z</time>
      </trkpt>
      <trkpt lat="43.39056" lon="6.70564">
        <ele>66</ele>
        <time>2016-10-08T13:58:38Z</time>
      </trkpt>
      <trkpt lat="43.39059" lon="6.70573">
        <ele>65</ele>
        <time>2016-10-08T13:58:39Z</time>
      </trkpt>
      <trkpt lat="43.39063" lon="6.70579">
        <ele>64</ele>
        <time>2016-10-08T13:58:40Z</time>
      </trkpt>
      <trkpt lat="43.39077" lon="6.70593">
        <ele>63</ele>
        <time>2016-10-08T13:58:43Z</time>
      </trkpt>
      <trkpt lat="43.39093" lon="6.70601">
        <ele>57</ele>
        <time>2016-10-08T13:58:47Z</time>
      </trkpt>
      <trkpt lat="43.39104" lon="6.70602">
        <ele>56</ele>
        <time>2016-10-08T13:58:49Z</time>
      </trkpt>
      <trkpt lat="43.39109" lon="6.70607">
        <ele>56</ele>
        <time>2016-10-08T13:58:50Z</time>
      </trkpt>
      <trkpt lat="43.39114" lon="6.70613">
        <ele>56</ele>
        <time>2016-10-08T13:58:51Z</time>
      </trkpt>
      <trkpt lat="43.39119" lon="6.70621">
        <ele>56</ele>
        <time>2016-10-08T13:58:52Z</time>
      </trkpt>
      <trkpt lat="43.39122" lon="6.7063">
        <ele>56</ele>
        <time>2016-10-08T13:58:53Z</time>
      </trkpt>
      <trkpt lat="43.39122" lon="6.70639">
        <ele>56</ele>
        <time>2016-10-08T13:58:54Z</time>
      </trkpt>
      <trkpt lat="43.39115" lon="6.70668">
        <ele>59</ele>
        <time>2016-10-08T13:58:58Z</time>
      </trkpt>
      <trkpt lat="43.39115" lon="6.70676">
        <ele>59</ele>
        <time>2016-10-08T13:58:59Z</time>
      </trkpt>
      <trkpt lat="43.39118" lon="6.70682">
        <ele>59</ele>
        <time>2016-10-08T13:59:00Z</time>
      </trkpt>
      <trkpt lat="43.39121" lon="6.70685">
        <ele>59</ele>
        <time>2016-10-08T13:59:01Z</time>
      </trkpt>
      <trkpt lat="43.39131" lon="6.70678">
        <ele>58</ele>
        <time>2016-10-08T13:59:03Z</time>
      </trkpt>
      <trkpt lat="43.3914" lon="6.7067">
        <ele>57</ele>
        <time>2016-10-08T13:59:05Z</time>
      </trkpt>
      <trkpt lat="43.39146" lon="6.7067">
        <ele>56</ele>
        <time>2016-10-08T13:59:06Z</time>
      </trkpt>
      <trkpt lat="43.39168" lon="6.70674">
        <ele>51</ele>
        <time>2016-10-08T13:59:10Z</time>
      </trkpt>
      <trkpt lat="43.39179" lon="6.70673">
        <ele>51</ele>
        <time>2016-10-08T13:59:12Z</time>
      </trkpt>
      <trkpt lat="43.39204" lon="6.70681">
        <ele>51</ele>
        <time>2016-10-08T13:59:17Z</time>
      </trkpt>
      <trkpt lat="43.39211" lon="6.70684">
        <ele>51</ele>
        <time>2016-10-08T13:59:19Z</time>
      </trkpt>
      <trkpt lat="43.39224" lon="6.70689">
        <ele>50</ele>
        <time>2016-10-08T13:59:24Z</time>
      </trkpt>
      <trkpt lat="43.39242" lon="6.70696">
        <ele>50</ele>
        <time>2016-10-08T13:59:35Z</time>
      </trkpt>
      <trkpt lat="43.39242" lon="6.70697">
        <ele>50</ele>
        <time>2016-10-08T13:59:58Z</time>
      </trkpt>
      <trkpt lat="43.39245" lon="6.70696">
        <ele>50</ele>
        <time>2016-10-08T13:59:59Z</time>
      </trkpt>
      <trkpt lat="43.39257" lon="6.70698">
        <ele>46</ele>
        <time>2016-10-08T14:00:03Z</time>
      </trkpt>
      <trkpt lat="43.39264" lon="6.70697">
        <ele>46</ele>
        <time>2016-10-08T14:00:06Z</time>
      </trkpt>
      <trkpt lat="43.39265" lon="6.70695">
        <ele>46</ele>
        <time>2016-10-08T14:00:07Z</time>
      </trkpt>
      <trkpt lat="43.39266" lon="6.70692">
        <ele>46</ele>
        <time>2016-10-08T14:00:08Z</time>
      </trkpt>
      <trkpt lat="43.39265" lon="6.70688">
        <ele>45</ele>
        <time>2016-10-08T14:00:09Z</time>
      </trkpt>
      <trkpt lat="43.39257" lon="6.70675">
        <ele>45</ele>
        <time>2016-10-08T14:00:12Z</time>
      </trkpt>
      <trkpt lat="43.39256" lon="6.7067">
        <ele>44</ele>
        <time>2016-10-08T14:00:13Z</time>
      </trkpt>
      <trkpt lat="43.39255" lon="6.70666">
        <ele>45</ele>
        <time>2016-10-08T14:00:14Z</time>
      </trkpt>
      <trkpt lat="43.39257" lon="6.70661">
        <ele>45</ele>
        <time>2016-10-08T14:00:15Z</time>
      </trkpt>
      <trkpt lat="43.39266" lon="6.70658">
        <ele>45</ele>
        <time>2016-10-08T14:00:18Z</time>
      </trkpt>
      <trkpt lat="43.39272" lon="6.70659">
        <ele>46</ele>
        <time>2016-10-08T14:00:25Z</time>
      </trkpt>
      <trkpt lat="43.39285" lon="6.70657">
        <ele>46</ele>
        <time>2016-10-08T14:02:00Z</time>
      </trkpt>
      <trkpt lat="43.39294" lon="6.70658">
        <ele>46</ele>
        <time>2016-10-08T14:02:03Z</time>
      </trkpt>
      <trkpt lat="43.39355" lon="6.70671">
        <ele>44</ele>
        <time>2016-10-08T14:02:16Z</time>
      </trkpt>
      <trkpt lat="43.39364" lon="6.7067">
        <ele>44</ele>
        <time>2016-10-08T14:02:18Z</time>
      </trkpt>
      <trkpt lat="43.39371" lon="6.7067">
        <ele>45</ele>
        <time>2016-10-08T14:02:20Z</time>
      </trkpt>
      <trkpt lat="43.39376" lon="6.70674">
        <ele>45</ele>
        <time>2016-10-08T14:02:22Z</time>
      </trkpt>
      <trkpt lat="43.39398" lon="6.70679">
        <ele>47</ele>
        <time>2016-10-08T14:02:28Z</time>
      </trkpt>
      <trkpt lat="43.39414" lon="6.7068">
        <ele>48</ele>
        <time>2016-10-08T14:02:37Z</time>
      </trkpt>
      <trkpt lat="43.39428" lon="6.70679">
        <ele>49</ele>
        <time>2016-10-08T14:02:44Z</time>
      </trkpt>
      <trkpt lat="43.39447" lon="6.70686">
        <ele>47</ele>
        <time>2016-10-08T14:02:52Z</time>
      </trkpt>
      <trkpt lat="43.39449" lon="6.70685">
        <ele>47</ele>
        <time>2016-10-08T14:02:53Z</time>
      </trkpt>
      <trkpt lat="43.39454" lon="6.70679">
        <ele>48</ele>
        <time>2016-10-08T14:02:56Z</time>
      </trkpt>
      <trkpt lat="43.39456" lon="6.70671">
        <ele>48</ele>
        <time>2016-10-08T14:03:00Z</time>
      </trkpt>
      <trkpt lat="43.3946" lon="6.70668">
        <ele>49</ele>
        <time>2016-10-08T14:03:03Z</time>
      </trkpt>
      <trkpt lat="43.39476" lon="6.70664">
        <ele>58</ele>
        <time>2016-10-08T14:03:09Z</time>
      </trkpt>
      <trkpt lat="43.3948" lon="6.70664">
        <ele>57</ele>
        <time>2016-10-08T14:03:10Z</time>
      </trkpt>
      <trkpt lat="43.39487" lon="6.70663">
        <ele>57</ele>
        <time>2016-10-08T14:03:13Z</time>
      </trkpt>
      <trkpt lat="43.39495" lon="6.70654">
        <ele>57</ele>
        <time>2016-10-08T14:03:18Z</time>
      </trkpt>
      <trkpt lat="43.39496" lon="6.70651">
        <ele>58</ele>
        <time>2016-10-08T14:03:19Z</time>
      </trkpt>
      <trkpt lat="43.39495" lon="6.70644">
        <ele>58</ele>
        <time>2016-10-08T14:03:22Z</time>
      </trkpt>
      <trkpt lat="43.39497" lon="6.70634">
        <ele>60</ele>
        <time>2016-10-08T14:03:27Z</time>
      </trkpt>
      <trkpt lat="43.39505" lon="6.70619">
        <ele>60</ele>
        <time>2016-10-08T14:03:34Z</time>
      </trkpt>
      <trkpt lat="43.39512" lon="6.70602">
        <ele>61</ele>
        <time>2016-10-08T14:03:40Z</time>
      </trkpt>
      <trkpt lat="43.39525" lon="6.70598">
        <ele>60</ele>
        <time>2016-10-08T14:03:46Z</time>
      </trkpt>
      <trkpt lat="43.39538" lon="6.70608">
        <ele>59</ele>
        <time>2016-10-08T14:03:51Z</time>
      </trkpt>
      <trkpt lat="43.39541" lon="6.70621">
        <ele>58</ele>
        <time>2016-10-08T14:03:54Z</time>
      </trkpt>
      <trkpt lat="43.39543" lon="6.70626">
        <ele>58</ele>
        <time>2016-10-08T14:03:55Z</time>
      </trkpt>
      <trkpt lat="43.39545" lon="6.7063">
        <ele>57</ele>
        <time>2016-10-08T14:03:56Z</time>
      </trkpt>
      <trkpt lat="43.39548" lon="6.70632">
        <ele>57</ele>
        <time>2016-10-08T14:03:57Z</time>
      </trkpt>
      <trkpt lat="43.39551" lon="6.70631">
        <ele>57</ele>
        <time>2016-10-08T14:03:58Z</time>
      </trkpt>
      <trkpt lat="43.39558" lon="6.70627">
        <ele>57</ele>
        <time>2016-10-08T14:04:00Z</time>
      </trkpt>
      <trkpt lat="43.39562" lon="6.70623">
        <ele>57</ele>
        <time>2016-10-08T14:04:01Z</time>
      </trkpt>
      <trkpt lat="43.39563" lon="6.70616">
        <ele>57</ele>
        <time>2016-10-08T14:04:02Z</time>
      </trkpt>
      <trkpt lat="43.39565" lon="6.70606">
        <ele>58</ele>
        <time>2016-10-08T14:04:06Z</time>
      </trkpt>
      <trkpt lat="43.3958" lon="6.70601">
        <ele>57</ele>
        <time>2016-10-08T14:04:28Z</time>
      </trkpt>
      <trkpt lat="43.39582" lon="6.70601">
        <ele>57</ele>
        <time>2016-10-08T14:04:29Z</time>
      </trkpt>
      <trkpt lat="43.39591" lon="6.70611">
        <ele>58</ele>
        <time>2016-10-08T14:04:36Z</time>
      </trkpt>
      <trkpt lat="43.39597" lon="6.70622">
        <ele>58</ele>
        <time>2016-10-08T14:04:41Z</time>
      </trkpt>
      <trkpt lat="43.39599" lon="6.7063">
        <ele>57</ele>
        <time>2016-10-08T14:04:43Z</time>
      </trkpt>
      <trkpt lat="43.39603" lon="6.70652">
        <ele>56</ele>
        <time>2016-10-08T14:04:50Z</time>
      </trkpt>
      <trkpt lat="43.39603" lon="6.70657">
        <ele>56</ele>
        <time>2016-10-08T14:04:52Z</time>
      </trkpt>
      <trkpt lat="43.39608" lon="6.70676">
        <ele>53</ele>
        <time>2016-10-08T14:05:00Z</time>
      </trkpt>
      <trkpt lat="43.39609" lon="6.7068">
        <ele>53</ele>
        <time>2016-10-08T14:05:02Z</time>
      </trkpt>
      <trkpt lat="43.39617" lon="6.70685">
        <ele>54</ele>
        <time>2016-10-08T14:05:06Z</time>
      </trkpt>
      <trkpt lat="43.39627" lon="6.7068">
        <ele>55</ele>
        <time>2016-10-08T14:05:12Z</time>
      </trkpt>
      <trkpt lat="43.39632" lon="6.70679">
        <ele>55</ele>
        <time>2016-10-08T14:05:15Z</time>
      </trkpt>
      <trkpt lat="43.39641" lon="6.70675">
        <ele>56</ele>
        <time>2016-10-08T14:05:22Z</time>
      </trkpt>
      <trkpt lat="43.39645" lon="6.70674">
        <ele>57</ele>
        <time>2016-10-08T14:05:25Z</time>
      </trkpt>
      <trkpt lat="43.39647" lon="6.70674">
        <ele>57</ele>
        <time>2016-10-08T14:05:26Z</time>
      </trkpt>
      <trkpt lat="43.39651" lon="6.70673">
        <ele>58</ele>
        <time>2016-10-08T14:05:28Z</time>
      </trkpt>
      <trkpt lat="43.39664" lon="6.70661">
        <ele>61</ele>
        <time>2016-10-08T14:05:36Z</time>
      </trkpt>
      <trkpt lat="43.39668" lon="6.70655">
        <ele>63</ele>
        <time>2016-10-08T14:05:39Z</time>
      </trkpt>
      <trkpt lat="43.39681" lon="6.70646">
        <ele>63</ele>
        <time>2016-10-08T14:05:45Z</time>
      </trkpt>
      <trkpt lat="43.39703" lon="6.70644">
        <ele>63</ele>
        <time>2016-10-08T14:05:52Z</time>
      </trkpt>
      <trkpt lat="43.39717" lon="6.70652">
        <ele>63</ele>
        <time>2016-10-08T14:05:57Z</time>
      </trkpt>
      <trkpt lat="43.39731" lon="6.70657">
        <ele>63</ele>
        <time>2016-10-08T14:06:01Z</time>
      </trkpt>
      <trkpt lat="43.39734" lon="6.70655">
        <ele>63</ele>
        <time>2016-10-08T14:06:02Z</time>
      </trkpt>
      <trkpt lat="43.39761" lon="6.70599">
        <ele>63</ele>
        <time>2016-10-08T14:06:13Z</time>
      </trkpt>
      <trkpt lat="43.39765" lon="6.70579">
        <ele>66</ele>
        <time>2016-10-08T14:06:17Z</time>
      </trkpt>
      <trkpt lat="43.39769" lon="6.70569">
        <ele>66</ele>
        <time>2016-10-08T14:06:19Z</time>
      </trkpt>
      <trkpt lat="43.39784" lon="6.70552">
        <ele>66</ele>
        <time>2016-10-08T14:06:23Z</time>
      </trkpt>
      <trkpt lat="43.39795" lon="6.70531">
        <ele>67</ele>
        <time>2016-10-08T14:06:27Z</time>
      </trkpt>
      <trkpt lat="43.39796" lon="6.70524">
        <ele>67</ele>
        <time>2016-10-08T14:06:28Z</time>
      </trkpt>
      <trkpt lat="43.3981" lon="6.70498">
        <ele>71</ele>
        <time>2016-10-08T14:06:33Z</time>
      </trkpt>
      <trkpt lat="43.39822" lon="6.70473">
        <ele>71</ele>
        <time>2016-10-08T14:06:39Z</time>
      </trkpt>
      <trkpt lat="43.39829" lon="6.70481">
        <ele>70</ele>
        <time>2016-10-08T14:06:42Z</time>
      </trkpt>
      <trkpt lat="43.39832" lon="6.70489">
        <ele>69</ele>
        <time>2016-10-08T14:06:45Z</time>
      </trkpt>
      <trkpt lat="43.39837" lon="6.70496">
        <ele>68</ele>
        <time>2016-10-08T14:06:48Z</time>
      </trkpt>
      <trkpt lat="43.39845" lon="6.70502">
        <ele>67</ele>
        <time>2016-10-08T14:06:52Z</time>
      </trkpt>
      <trkpt lat="43.39848" lon="6.70503">
        <ele>67</ele>
        <time>2016-10-08T14:06:54Z</time>
      </trkpt>
      <trkpt lat="43.39852" lon="6.70506">
        <ele>67</ele>
        <time>2016-10-08T14:06:56Z</time>
      </trkpt>
      <trkpt lat="43.39856" lon="6.70516">
        <ele>67</ele>
        <time>2016-10-08T14:07:00Z</time>
      </trkpt>
      <trkpt lat="43.39865" lon="6.70543">
        <ele>66</ele>
        <time>2016-10-08T14:07:07Z</time>
      </trkpt>
      <trkpt lat="43.39875" lon="6.70558">
        <ele>65</ele>
        <time>2016-10-08T14:07:12Z</time>
      </trkpt>
      <trkpt lat="43.39893" lon="6.70582">
        <ele>65</ele>
        <time>2016-10-08T14:07:20Z</time>
      </trkpt>
      <trkpt lat="43.39916" lon="6.70589">
        <ele>63</ele>
        <time>2016-10-08T14:07:28Z</time>
      </trkpt>
      <trkpt lat="43.39929" lon="6.7058">
        <ele>65</ele>
        <time>2016-10-08T14:07:34Z</time>
      </trkpt>
      <trkpt lat="43.3994" lon="6.70567">
        <ele>65</ele>
        <time>2016-10-08T14:07:39Z</time>
      </trkpt>
      <trkpt lat="43.39951" lon="6.70557">
        <ele>65</ele>
        <time>2016-10-08T14:07:43Z</time>
      </trkpt>
      <trkpt lat="43.39961" lon="6.70554">
        <ele>65</ele>
        <time>2016-10-08T14:07:47Z</time>
      </trkpt>
      <trkpt lat="43.3997" lon="6.70548">
        <ele>65</ele>
        <time>2016-10-08T14:07:51Z</time>
      </trkpt>
      <trkpt lat="43.39978" lon="6.70541">
        <ele>65</ele>
        <time>2016-10-08T14:07:54Z</time>
      </trkpt>
      <trkpt lat="43.39983" lon="6.70523">
        <ele>66</ele>
        <time>2016-10-08T14:07:59Z</time>
      </trkpt>
      <trkpt lat="43.39982" lon="6.70498">
        <ele>71</ele>
        <time>2016-10-08T14:08:05Z</time>
      </trkpt>
      <trkpt lat="43.39999" lon="6.70437">
        <ele>75</ele>
        <time>2016-10-08T14:08:20Z</time>
      </trkpt>
      <trkpt lat="43.4" lon="6.70431">
        <ele>75</ele>
        <time>2016-10-08T14:08:21Z</time>
      </trkpt>
      <trkpt lat="43.40002" lon="6.70426">
        <ele>73</ele>
        <time>2016-10-08T14:08:22Z</time>
      </trkpt>
      <trkpt lat="43.40004" lon="6.70422">
        <ele>74</ele>
        <time>2016-10-08T14:08:23Z</time>
      </trkpt>
      <trkpt lat="43.40007" lon="6.7042">
        <ele>74</ele>
        <time>2016-10-08T14:08:24Z</time>
      </trkpt>
      <trkpt lat="43.40011" lon="6.70419">
        <ele>73</ele>
        <time>2016-10-08T14:08:25Z</time>
      </trkpt>
      <trkpt lat="43.40013" lon="6.70421">
        <ele>72</ele>
        <time>2016-10-08T14:08:26Z</time>
      </trkpt>
      <trkpt lat="43.40031" lon="6.70424">
        <ele>69</ele>
        <time>2016-10-08T14:08:32Z</time>
      </trkpt>
      <trkpt lat="43.40041" lon="6.70422">
        <ele>68</ele>
        <time>2016-10-08T14:08:38Z</time>
      </trkpt>
      <trkpt lat="43.40051" lon="6.70416">
        <ele>73</ele>
        <time>2016-10-08T14:08:46Z</time>
      </trkpt>
      <trkpt lat="43.40064" lon="6.7042">
        <ele>67</ele>
        <time>2016-10-08T14:08:49Z</time>
      </trkpt>
      <trkpt lat="43.40067" lon="6.70424">
        <ele>66</ele>
        <time>2016-10-08T14:08:50Z</time>
      </trkpt>
      <trkpt lat="43.40069" lon="6.7043">
        <ele>66</ele>
        <time>2016-10-08T14:08:51Z</time>
      </trkpt>
      <trkpt lat="43.40079" lon="6.70445">
        <ele>66</ele>
        <time>2016-10-08T14:08:54Z</time>
      </trkpt>
      <trkpt lat="43.40082" lon="6.7045">
        <ele>66</ele>
        <time>2016-10-08T14:08:55Z</time>
      </trkpt>
      <trkpt lat="43.40084" lon="6.70456">
        <ele>62</ele>
        <time>2016-10-08T14:08:56Z</time>
      </trkpt>
      <trkpt lat="43.40084" lon="6.70461">
        <ele>62</ele>
        <time>2016-10-08T14:08:57Z</time>
      </trkpt>
      <trkpt lat="43.40086" lon="6.70469">
        <ele>62</ele>
        <time>2016-10-08T14:08:59Z</time>
      </trkpt>
      <trkpt lat="43.40092" lon="6.70467">
        <ele>62</ele>
        <time>2016-10-08T14:09:02Z</time>
      </trkpt>
      <trkpt lat="43.40097" lon="6.70468">
        <ele>62</ele>
        <time>2016-10-08T14:09:04Z</time>
      </trkpt>
      <trkpt lat="43.40099" lon="6.7047">
        <ele>62</ele>
        <time>2016-10-08T14:09:05Z</time>
      </trkpt>
      <trkpt lat="43.40101" lon="6.70475">
        <ele>61</ele>
        <time>2016-10-08T14:09:07Z</time>
      </trkpt>
      <trkpt lat="43.40102" lon="6.70478">
        <ele>61</ele>
        <time>2016-10-08T14:09:08Z</time>
      </trkpt>
      <trkpt lat="43.40105" lon="6.70493">
        <ele>61</ele>
        <time>2016-10-08T14:09:12Z</time>
      </trkpt>
      <trkpt lat="43.40108" lon="6.70506">
        <ele>60</ele>
        <time>2016-10-08T14:09:17Z</time>
      </trkpt>
      <trkpt lat="43.40113" lon="6.70516">
        <ele>60</ele>
        <time>2016-10-08T14:09:21Z</time>
      </trkpt>
      <trkpt lat="43.40114" lon="6.70519">
        <ele>60</ele>
        <time>2016-10-08T14:09:22Z</time>
      </trkpt>
      <trkpt lat="43.40115" lon="6.70528">
        <ele>60</ele>
        <time>2016-10-08T14:09:24Z</time>
      </trkpt>
      <trkpt lat="43.4012" lon="6.70542">
        <ele>59</ele>
        <time>2016-10-08T14:09:28Z</time>
      </trkpt>
      <trkpt lat="43.40125" lon="6.70543">
        <ele>59</ele>
        <time>2016-10-08T14:09:32Z</time>
      </trkpt>
      <trkpt lat="43.40133" lon="6.70551">
        <ele>59</ele>
        <time>2016-10-08T14:09:39Z</time>
      </trkpt>
      <trkpt lat="43.40136" lon="6.70562">
        <ele>59</ele>
        <time>2016-10-08T14:09:44Z</time>
      </trkpt>
      <trkpt lat="43.40142" lon="6.70572">
        <ele>59</ele>
        <time>2016-10-08T14:09:50Z</time>
      </trkpt>
      <trkpt lat="43.40147" lon="6.70576">
        <ele>59</ele>
        <time>2016-10-08T14:09:53Z</time>
      </trkpt>
      <trkpt lat="43.40153" lon="6.70583">
        <ele>59</ele>
        <time>2016-10-08T14:09:55Z</time>
      </trkpt>
      <trkpt lat="43.40161" lon="6.70602">
        <ele>56</ele>
        <time>2016-10-08T14:09:58Z</time>
      </trkpt>
      <trkpt lat="43.4017" lon="6.70625">
        <ele>54</ele>
        <time>2016-10-08T14:10:02Z</time>
      </trkpt>
      <trkpt lat="43.40173" lon="6.7063">
        <ele>54</ele>
        <time>2016-10-08T14:10:03Z</time>
      </trkpt>
      <trkpt lat="43.40181" lon="6.70638">
        <ele>53</ele>
        <time>2016-10-08T14:10:05Z</time>
      </trkpt>
      <trkpt lat="43.40186" lon="6.7066">
        <ele>53</ele>
        <time>2016-10-08T14:10:10Z</time>
      </trkpt>
      <trkpt lat="43.40196" lon="6.7068">
        <ele>51</ele>
        <time>2016-10-08T14:10:17Z</time>
      </trkpt>
      <trkpt lat="43.40201" lon="6.70696">
        <ele>50</ele>
        <time>2016-10-08T14:10:21Z</time>
      </trkpt>
      <trkpt lat="43.40202" lon="6.70699">
        <ele>50</ele>
        <time>2016-10-08T14:10:22Z</time>
      </trkpt>
      <trkpt lat="43.40206" lon="6.70703">
        <ele>50</ele>
        <time>2016-10-08T14:10:24Z</time>
      </trkpt>
      <trkpt lat="43.40209" lon="6.70709">
        <ele>50</ele>
        <time>2016-10-08T14:10:26Z</time>
      </trkpt>
      <trkpt lat="43.4021" lon="6.70712">
        <ele>50</ele>
        <time>2016-10-08T14:10:27Z</time>
      </trkpt>
      <trkpt lat="43.40211" lon="6.70722">
        <ele>50</ele>
        <time>2016-10-08T14:10:29Z</time>
      </trkpt>
      <trkpt lat="43.40208" lon="6.70746">
        <ele>50</ele>
        <time>2016-10-08T14:10:33Z</time>
      </trkpt>
      <trkpt lat="43.40207" lon="6.70768">
        <ele>47</ele>
        <time>2016-10-08T14:10:36Z</time>
      </trkpt>
      <trkpt lat="43.40203" lon="6.70789">
        <ele>47</ele>
        <time>2016-10-08T14:10:39Z</time>
      </trkpt>
      <trkpt lat="43.402" lon="6.70796">
        <ele>47</ele>
        <time>2016-10-08T14:10:40Z</time>
      </trkpt>
      <trkpt lat="43.40183" lon="6.70825">
        <ele>46</ele>
        <time>2016-10-08T14:10:45Z</time>
      </trkpt>
      <trkpt lat="43.40162" lon="6.70856">
        <ele>38</ele>
        <time>2016-10-08T14:10:51Z</time>
      </trkpt>
      <trkpt lat="43.4015" lon="6.7088">
        <ele>36</ele>
        <time>2016-10-08T14:10:55Z</time>
      </trkpt>
      <trkpt lat="43.40148" lon="6.70887">
        <ele>35</ele>
        <time>2016-10-08T14:10:56Z</time>
      </trkpt>
      <trkpt lat="43.40143" lon="6.70921">
        <ele>30</ele>
        <time>2016-10-08T14:11:03Z</time>
      </trkpt>
      <trkpt lat="43.40137" lon="6.70938">
        <ele>28</ele>
        <time>2016-10-08T14:11:08Z</time>
      </trkpt>
      <trkpt lat="43.40136" lon="6.70959">
        <ele>27</ele>
        <time>2016-10-08T14:11:12Z</time>
      </trkpt>
      <trkpt lat="43.40136" lon="6.70983">
        <ele>26</ele>
        <time>2016-10-08T14:11:15Z</time>
      </trkpt>
      <trkpt lat="43.40135" lon="6.71002">
        <ele>20</ele>
        <time>2016-10-08T14:11:18Z</time>
      </trkpt>
      <trkpt lat="43.40137" lon="6.71029">
        <ele>18</ele>
        <time>2016-10-08T14:11:22Z</time>
      </trkpt>
      <trkpt lat="43.40138" lon="6.71039">
        <ele>18</ele>
        <time>2016-10-08T14:11:24Z</time>
      </trkpt>
      <trkpt lat="43.40141" lon="6.71049">
        <ele>17</ele>
        <time>2016-10-08T14:11:26Z</time>
      </trkpt>
      <trkpt lat="43.40141" lon="6.71055">
        <ele>17</ele>
        <time>2016-10-08T14:11:27Z</time>
      </trkpt>
      <trkpt lat="43.40141" lon="6.71094">
        <ele>11</ele>
        <time>2016-10-08T14:11:34Z</time>
      </trkpt>
      <trkpt lat="43.40138" lon="6.71117">
        <ele>10</ele>
        <time>2016-10-08T14:11:37Z</time>
      </trkpt>
      <trkpt lat="43.40139" lon="6.71137">
        <ele>9</ele>
        <time>2016-10-08T14:11:39Z</time>
      </trkpt>
      <trkpt lat="43.4014" lon="6.71159">
        <ele>8</ele>
        <time>2016-10-08T14:11:41Z</time>
      </trkpt>
      <trkpt lat="43.40144" lon="6.71183">
        <ele>5</ele>
        <time>2016-10-08T14:11:43Z</time>
      </trkpt>
      <trkpt lat="43.40147" lon="6.71209">
        <ele>5</ele>
        <time>2016-10-08T14:11:45Z</time>
      </trkpt>
      <trkpt lat="43.40146" lon="6.7126">
        <ele>3</ele>
        <time>2016-10-08T14:11:50Z</time>
      </trkpt>
      <trkpt lat="43.40144" lon="6.71265">
        <ele>3</ele>
        <time>2016-10-08T14:11:51Z</time>
      </trkpt>
      <trkpt lat="43.40121" lon="6.71282">
        <ele>3</ele>
        <time>2016-10-08T14:11:57Z</time>
      </trkpt>
      <trkpt lat="43.40117" lon="6.71286">
        <ele>3</ele>
        <time>2016-10-08T14:11:58Z</time>
      </trkpt>
      <trkpt lat="43.40061" lon="6.7133">
        <ele>3</ele>
        <time>2016-10-08T14:12:12Z</time>
      </trkpt>
      <trkpt lat="43.4005" lon="6.71342">
        <ele>2</ele>
        <time>2016-10-08T14:12:15Z</time>
      </trkpt>
      <trkpt lat="43.40045" lon="6.71351">
        <ele>2</ele>
        <time>2016-10-08T14:12:17Z</time>
      </trkpt>
      <trkpt lat="43.40025" lon="6.71391">
        <ele>2</ele>
        <time>2016-10-08T14:12:25Z</time>
      </trkpt>
      <trkpt lat="43.4001" lon="6.71419">
        <ele>1</ele>
        <time>2016-10-08T14:12:31Z</time>
      </trkpt>
      <trkpt lat="43.39991" lon="6.71455">
        <ele>3</ele>
        <time>2016-10-08T14:12:39Z</time>
      </trkpt>
      <trkpt lat="43.39988" lon="6.71459">
        <ele>3</ele>
        <time>2016-10-08T14:12:40Z</time>
      </trkpt>
      <trkpt lat="43.39977" lon="6.71483">
        <ele>3</ele>
        <time>2016-10-08T14:12:44Z</time>
      </trkpt>
      <trkpt lat="43.39978" lon="6.71508">
        <ele>4</ele>
        <time>2016-10-08T14:12:48Z</time>
      </trkpt>
      <trkpt lat="43.39987" lon="6.71556">
        <ele>5</ele>
        <time>2016-10-08T14:12:55Z</time>
      </trkpt>
      <trkpt lat="43.3999" lon="6.71588">
        <ele>5</ele>
        <time>2016-10-08T14:13:00Z</time>
      </trkpt>
      <trkpt lat="43.39989" lon="6.71595">
        <ele>6</ele>
        <time>2016-10-08T14:13:01Z</time>
      </trkpt>
      <trkpt lat="43.39981" lon="6.71617">
        <ele>7</ele>
        <time>2016-10-08T14:13:05Z</time>
      </trkpt>
      <trkpt lat="43.39977" lon="6.71624">
        <ele>8</ele>
        <time>2016-10-08T14:13:07Z</time>
      </trkpt>
      <trkpt lat="43.39976" lon="6.7163">
        <ele>8</ele>
        <time>2016-10-08T14:13:09Z</time>
      </trkpt>
      <trkpt lat="43.39976" lon="6.71643">
        <ele>8</ele>
        <time>2016-10-08T14:13:15Z</time>
      </trkpt>
      <trkpt lat="43.39978" lon="6.71648">
        <ele>8</ele>
        <time>2016-10-08T14:13:18Z</time>
      </trkpt>
      <trkpt lat="43.39986" lon="6.7166">
        <ele>6</ele>
        <time>2016-10-08T14:13:38Z</time>
      </trkpt>
      <trkpt lat="43.39991" lon="6.71664">
        <ele>6</ele>
        <time>2016-10-08T14:13:44Z</time>
      </trkpt>
      <trkpt lat="43.39988" lon="6.71682">
        <ele>6</ele>
        <time>2016-10-08T14:13:56Z</time>
      </trkpt>
      <trkpt lat="43.39987" lon="6.71687">
        <ele>7</ele>
        <time>2016-10-08T14:13:58Z</time>
      </trkpt>
      <trkpt lat="43.39977" lon="6.71716">
        <ele>7</ele>
        <time>2016-10-08T14:14:05Z</time>
      </trkpt>
      <trkpt lat="43.39964" lon="6.71741">
        <ele>8</ele>
        <time>2016-10-08T14:14:12Z</time>
      </trkpt>
      <trkpt lat="43.39951" lon="6.71762">
        <ele>8</ele>
        <time>2016-10-08T14:14:19Z</time>
      </trkpt>
      <trkpt lat="43.39949" lon="6.71766">
        <ele>8</ele>
        <time>2016-10-08T14:14:20Z</time>
      </trkpt>
      <trkpt lat="43.39944" lon="6.71784">
        <ele>8</ele>
        <time>2016-10-08T14:14:24Z</time>
      </trkpt>
      <trkpt lat="43.3993" lon="6.71804">
        <ele>8</ele>
        <time>2016-10-08T14:14:30Z</time>
      </trkpt>
      <trkpt lat="43.39914" lon="6.71818">
        <ele>11</ele>
        <time>2016-10-08T14:14:35Z</time>
      </trkpt>
      <trkpt lat="43.39881" lon="6.71842">
        <ele>10</ele>
        <time>2016-10-08T14:14:43Z</time>
      </trkpt>
      <trkpt lat="43.3984" lon="6.71857">
        <ele>10</ele>
        <time>2016-10-08T14:14:52Z</time>
      </trkpt>
      <trkpt lat="43.39809" lon="6.71867">
        <ele>11</ele>
        <time>2016-10-08T14:14:59Z</time>
      </trkpt>
      <trkpt lat="43.3977" lon="6.71878">
        <ele>11</ele>
        <time>2016-10-08T14:15:08Z</time>
      </trkpt>
      <trkpt lat="43.39733" lon="6.7189">
        <ele>11</ele>
        <time>2016-10-08T14:15:17Z</time>
      </trkpt>
      <trkpt lat="43.39716" lon="6.71892">
        <ele>11</ele>
        <time>2016-10-08T14:15:21Z</time>
      </trkpt>
      <trkpt lat="43.39698" lon="6.71911">
        <ele>11</ele>
        <time>2016-10-08T14:15:27Z</time>
      </trkpt>
      <trkpt lat="43.39696" lon="6.7192">
        <ele>9</ele>
        <time>2016-10-08T14:15:28Z</time>
      </trkpt>
      <trkpt lat="43.39694" lon="6.71937">
        <ele>9</ele>
        <time>2016-10-08T14:15:30Z</time>
      </trkpt>
      <trkpt lat="43.39692" lon="6.71945">
        <ele>9</ele>
        <time>2016-10-08T14:15:31Z</time>
      </trkpt>
      <trkpt lat="43.39688" lon="6.71992">
        <ele>9</ele>
        <time>2016-10-08T14:15:37Z</time>
      </trkpt>
      <trkpt lat="43.39685" lon="6.72004">
        <ele>9</ele>
        <time>2016-10-08T14:15:39Z</time>
      </trkpt>
      <trkpt lat="43.39677" lon="6.72058">
        <ele>10</ele>
        <time>2016-10-08T14:15:46Z</time>
      </trkpt>
      <trkpt lat="43.3967" lon="6.72109">
        <ele>9</ele>
        <time>2016-10-08T14:15:53Z</time>
      </trkpt>
      <trkpt lat="43.3963" lon="6.72345">
        <ele>3</ele>
        <time>2016-10-08T14:16:25Z</time>
      </trkpt>
      <trkpt lat="43.39624" lon="6.72386">
        <ele>3</ele>
        <time>2016-10-08T14:16:32Z</time>
      </trkpt>
      <trkpt lat="43.39612" lon="6.7247">
        <ele>5</ele>
        <time>2016-10-08T14:16:46Z</time>
      </trkpt>
      <trkpt lat="43.39611" lon="6.72481">
        <ele>5</ele>
        <time>2016-10-08T14:16:48Z</time>
      </trkpt>
      <trkpt lat="43.39605" lon="6.72514">
        <ele>6</ele>
        <time>2016-10-08T14:16:54Z</time>
      </trkpt>
      <trkpt lat="43.39604" lon="6.72545">
        <ele>6</ele>
        <time>2016-10-08T14:16:59Z</time>
      </trkpt>
      <trkpt lat="43.39601" lon="6.72556">
        <ele>6</ele>
        <time>2016-10-08T14:17:01Z</time>
      </trkpt>
      <trkpt lat="43.39596" lon="6.72566">
        <ele>5</ele>
        <time>2016-10-08T14:17:03Z</time>
      </trkpt>
      <trkpt lat="43.39583" lon="6.72611">
        <ele>5</ele>
        <time>2016-10-08T14:17:11Z</time>
      </trkpt>
      <trkpt lat="43.39579" lon="6.72615">
        <ele>5</ele>
        <time>2016-10-08T14:17:12Z</time>
      </trkpt>
      <trkpt lat="43.3957" lon="6.72615">
        <ele>5</ele>
        <time>2016-10-08T14:17:14Z</time>
      </trkpt>
      <trkpt lat="43.39528" lon="6.72601">
        <ele>4</ele>
        <time>2016-10-08T14:17:23Z</time>
      </trkpt>
      <trkpt lat="43.39498" lon="6.72593">
        <ele>4</ele>
        <time>2016-10-08T14:17:30Z</time>
      </trkpt>
      <trkpt lat="43.39383" lon="6.72628">
        <ele>4</ele>
        <time>2016-10-08T14:17:57Z</time>
      </trkpt>
      <trkpt lat="43.39361" lon="6.72638">
        <ele>3</ele>
        <time>2016-10-08T14:18:03Z</time>
      </trkpt>
      <trkpt lat="43.39331" lon="6.72662">
        <ele>3</ele>
        <time>2016-10-08T14:18:10Z</time>
      </trkpt>
      <trkpt lat="43.39323" lon="6.72665">
        <ele>3</ele>
        <time>2016-10-08T14:18:12Z</time>
      </trkpt>
      <trkpt lat="43.3929" lon="6.72669">
        <ele>5</ele>
        <time>2016-10-08T14:18:20Z</time>
      </trkpt>
      <trkpt lat="43.39264" lon="6.72666">
        <ele>5</ele>
        <time>2016-10-08T14:18:26Z</time>
      </trkpt>
      <trkpt lat="43.39255" lon="6.72667">
        <ele>6</ele>
        <time>2016-10-08T14:18:28Z</time>
      </trkpt>
      <trkpt lat="43.39242" lon="6.72677">
        <ele>8</ele>
        <time>2016-10-08T14:18:32Z</time>
      </trkpt>
      <trkpt lat="43.39241" lon="6.72685">
        <ele>9</ele>
        <time>2016-10-08T14:18:34Z</time>
      </trkpt>
      <trkpt lat="43.39242" lon="6.72688">
        <ele>9</ele>
        <time>2016-10-08T14:18:35Z</time>
      </trkpt>
      <trkpt lat="43.39254" lon="6.72704">
        <ele>6</ele>
        <time>2016-10-08T14:18:39Z</time>
      </trkpt>
      <trkpt lat="43.39272" lon="6.7272">
        <ele>6</ele>
        <time>2016-10-08T14:18:45Z</time>
      </trkpt>
      <trkpt lat="43.39279" lon="6.72738">
        <ele>6</ele>
        <time>2016-10-08T14:18:49Z</time>
      </trkpt>
      <trkpt lat="43.3928" lon="6.72744">
        <ele>6</ele>
        <time>2016-10-08T14:18:50Z</time>
      </trkpt>
      <trkpt lat="43.39275" lon="6.72767">
        <ele>7</ele>
        <time>2016-10-08T14:18:54Z</time>
      </trkpt>
      <trkpt lat="43.39272" lon="6.72775">
        <ele>7</ele>
        <time>2016-10-08T14:18:56Z</time>
      </trkpt>
      <trkpt lat="43.39268" lon="6.72806">
        <ele>7</ele>
        <time>2016-10-08T14:19:04Z</time>
      </trkpt>
      <trkpt lat="43.39266" lon="6.72811">
        <ele>7</ele>
        <time>2016-10-08T14:19:05Z</time>
      </trkpt>
      <trkpt lat="43.39263" lon="6.72818">
        <ele>7</ele>
        <time>2016-10-08T14:19:07Z</time>
      </trkpt>
      <trkpt lat="43.3926" lon="6.72831">
        <ele>7</ele>
        <time>2016-10-08T14:19:11Z</time>
      </trkpt>
      <trkpt lat="43.39252" lon="6.72846">
        <ele>7</ele>
        <time>2016-10-08T14:19:20Z</time>
      </trkpt>
      <trkpt lat="43.39248" lon="6.72851">
        <ele>8</ele>
        <time>2016-10-08T14:19:25Z</time>
      </trkpt>
      <trkpt lat="43.39241" lon="6.72863">
        <ele>8</ele>
        <time>2016-10-08T14:19:34Z</time>
      </trkpt>
      <trkpt lat="43.39239" lon="6.72863">
        <ele>8</ele>
        <time>2016-10-08T14:19:35Z</time>
      </trkpt>
      <trkpt lat="43.39237" lon="6.72862">
        <ele>8</ele>
        <time>2016-10-08T14:19:37Z</time>
      </trkpt>
      <trkpt lat="43.39236" lon="6.72861">
        <ele>8</ele>
        <time>2016-10-08T14:19:39Z</time>
      </trkpt>
      <trkpt lat="43.39232" lon="6.72854">
        <ele>8</ele>
        <time>2016-10-08T14:19:46Z</time>
      </trkpt>
      <trkpt lat="43.39232" lon="6.72853">
        <ele>8</ele>
        <time>2016-10-08T14:19:48Z</time>
      </trkpt>
      <trkpt lat="43.39218" lon="6.72822">
        <ele>10</ele>
        <time>2016-10-08T14:20:22Z</time>
      </trkpt>
      <trkpt lat="43.39208" lon="6.72815">
        <ele>10</ele>
        <time>2016-10-08T14:20:30Z</time>
      </trkpt>
      <trkpt lat="43.39195" lon="6.7281">
        <ele>11</ele>
        <time>2016-10-08T14:20:36Z</time>
      </trkpt>
      <trkpt lat="43.39179" lon="6.72805">
        <ele>11</ele>
        <time>2016-10-08T14:20:42Z</time>
      </trkpt>
      <trkpt lat="43.39173" lon="6.72805">
        <ele>11</ele>
        <time>2016-10-08T14:20:44Z</time>
      </trkpt>
      <trkpt lat="43.39169" lon="6.72807">
        <ele>12</ele>
        <time>2016-10-08T14:20:46Z</time>
      </trkpt>
      <trkpt lat="43.39165" lon="6.7281">
        <ele>14</ele>
        <time>2016-10-08T14:20:49Z</time>
      </trkpt>
      <trkpt lat="43.39152" lon="6.7281">
        <ele>15</ele>
        <time>2016-10-08T14:20:55Z</time>
      </trkpt>
      <trkpt lat="43.39141" lon="6.72818">
        <ele>15</ele>
        <time>2016-10-08T14:20:59Z</time>
      </trkpt>
      <trkpt lat="43.39096" lon="6.72858">
        <ele>14</ele>
        <time>2016-10-08T14:21:16Z</time>
      </trkpt>
      <trkpt lat="43.39069" lon="6.72885">
        <ele>16</ele>
        <time>2016-10-08T14:21:25Z</time>
      </trkpt>
      <trkpt lat="43.39064" lon="6.72886">
        <ele>16</ele>
        <time>2016-10-08T14:21:26Z</time>
      </trkpt>
      <trkpt lat="43.39052" lon="6.72882">
        <ele>17</ele>
        <time>2016-10-08T14:21:29Z</time>
      </trkpt>
      <trkpt lat="43.39035" lon="6.72869">
        <ele>18</ele>
        <time>2016-10-08T14:21:34Z</time>
      </trkpt>
      <trkpt lat="43.38992" lon="6.7284">
        <ele>20</ele>
        <time>2016-10-08T14:21:47Z</time>
      </trkpt>
      <trkpt lat="43.38983" lon="6.72832">
        <ele>22</ele>
        <time>2016-10-08T14:21:50Z</time>
      </trkpt>
      <trkpt lat="43.38942" lon="6.72808">
        <ele>22</ele>
        <time>2016-10-08T14:22:02Z</time>
      </trkpt>
      <trkpt lat="43.38915" lon="6.72786">
        <ele>22</ele>
        <time>2016-10-08T14:22:10Z</time>
      </trkpt>
      <trkpt lat="43.38892" lon="6.72778">
        <ele>22</ele>
        <time>2016-10-08T14:22:16Z</time>
      </trkpt>
      <trkpt lat="43.38884" lon="6.72791">
        <ele>21</ele>
        <time>2016-10-08T14:22:19Z</time>
      </trkpt>
      <trkpt lat="43.38862" lon="6.72847">
        <ele>18</ele>
        <time>2016-10-08T14:22:28Z</time>
      </trkpt>
      <trkpt lat="43.38854" lon="6.72873">
        <ele>17</ele>
        <time>2016-10-08T14:22:31Z</time>
      </trkpt>
      <trkpt lat="43.38828" lon="6.72944">
        <ele>12</ele>
        <time>2016-10-08T14:22:38Z</time>
      </trkpt>
      <trkpt lat="43.38809" lon="6.72994">
        <ele>10</ele>
        <time>2016-10-08T14:22:44Z</time>
      </trkpt>
      <trkpt lat="43.388" lon="6.73013">
        <ele>9</ele>
        <time>2016-10-08T14:22:48Z</time>
      </trkpt>
      <trkpt lat="43.38795" lon="6.73018">
        <ele>9</ele>
        <time>2016-10-08T14:22:55Z</time>
      </trkpt>
      <trkpt lat="43.38798" lon="6.73019">
        <ele>9</ele>
        <time>2016-10-08T14:22:57Z</time>
      </trkpt>
      <trkpt lat="43.38804" lon="6.73023">
        <ele>9</ele>
        <time>2016-10-08T14:22:59Z</time>
      </trkpt>
      <trkpt lat="43.3881" lon="6.73037">
        <ele>9</ele>
        <time>2016-10-08T14:23:02Z</time>
      </trkpt>
      <trkpt lat="43.38826" lon="6.73059">
        <ele>9</ele>
        <time>2016-10-08T14:23:08Z</time>
      </trkpt>
      <trkpt lat="43.38831" lon="6.73054">
        <ele>9</ele>
        <time>2016-10-08T14:23:10Z</time>
      </trkpt>
      <trkpt lat="43.38834" lon="6.73035">
        <ele>10</ele>
        <time>2016-10-08T14:23:16Z</time>
      </trkpt>
      <trkpt lat="43.3884" lon="6.73017">
        <ele>11</ele>
        <time>2016-10-08T14:23:23Z</time>
      </trkpt>
      <trkpt lat="43.38843" lon="6.73021">
        <ele>11</ele>
        <time>2016-10-08T14:23:27Z</time>
      </trkpt>
      <trkpt lat="43.38851" lon="6.73032">
        <ele>10</ele>
        <time>2016-10-08T14:23:34Z</time>
      </trkpt>
      <trkpt lat="43.38853" lon="6.73034">
        <ele>10</ele>
        <time>2016-10-08T14:23:36Z</time>
      </trkpt>
      <trkpt lat="43.38859" lon="6.73048">
        <ele>10</ele>
        <time>2016-10-08T14:23:43Z</time>
      </trkpt>
      <trkpt lat="43.38878" lon="6.73055">
        <ele>9</ele>
        <time>2016-10-08T14:23:51Z</time>
      </trkpt>
      <trkpt lat="43.38897" lon="6.73069">
        <ele>8</ele>
        <time>2016-10-08T14:23:58Z</time>
      </trkpt>
      <trkpt lat="43.38907" lon="6.73068">
        <ele>8</ele>
        <time>2016-10-08T14:24:03Z</time>
      </trkpt>
      <trkpt lat="43.38921" lon="6.73059">
        <ele>9</ele>
        <time>2016-10-08T14:24:10Z</time>
      </trkpt>
      <trkpt lat="43.38926" lon="6.73056">
        <ele>9</ele>
        <time>2016-10-08T14:24:15Z</time>
      </trkpt>
      <trkpt lat="43.38931" lon="6.73058">
        <ele>9</ele>
        <time>2016-10-08T14:24:21Z</time>
      </trkpt>
      <trkpt lat="43.38936" lon="6.7308">
        <ele>8</ele>
        <time>2016-10-08T14:25:10Z</time>
      </trkpt>
      <trkpt lat="43.38939" lon="6.73105">
        <ele>7</ele>
        <time>2016-10-08T14:25:16Z</time>
      </trkpt>
      <trkpt lat="43.38945" lon="6.73111">
        <ele>7</ele>
        <time>2016-10-08T14:25:22Z</time>
      </trkpt>
      <trkpt lat="43.38953" lon="6.73122">
        <ele>7</ele>
        <time>2016-10-08T14:25:33Z</time>
      </trkpt>
      <trkpt lat="43.38961" lon="6.7314">
        <ele>7</ele>
        <time>2016-10-08T14:25:42Z</time>
      </trkpt>
      <trkpt lat="43.38965" lon="6.73149">
        <ele>7</ele>
        <time>2016-10-08T14:25:54Z</time>
      </trkpt>
      <trkpt lat="43.38967" lon="6.73156">
        <ele>7</ele>
        <time>2016-10-08T14:25:57Z</time>
      </trkpt>
      <trkpt lat="43.38972" lon="6.73163">
        <ele>7</ele>
        <time>2016-10-08T14:26:02Z</time>
      </trkpt>
      <trkpt lat="43.38971" lon="6.73176">
        <ele>6</ele>
        <time>2016-10-08T14:26:09Z</time>
      </trkpt>
      <trkpt lat="43.38975" lon="6.73175">
        <ele>6</ele>
        <time>2016-10-08T14:26:15Z</time>
      </trkpt>
      <trkpt lat="43.3898" lon="6.73167">
        <ele>6</ele>
        <time>2016-10-08T14:26:22Z</time>
      </trkpt>
      <trkpt lat="43.38984" lon="6.73168">
        <ele>6</ele>
        <time>2016-10-08T14:26:26Z</time>
      </trkpt>
      <trkpt lat="43.38986" lon="6.73171">
        <ele>6</ele>
        <time>2016-10-08T14:26:28Z</time>
      </trkpt>
      <trkpt lat="43.38996" lon="6.73187">
        <ele>6</ele>
        <time>2016-10-08T14:26:34Z</time>
      </trkpt>
      <trkpt lat="43.39004" lon="6.732">
        <ele>6</ele>
        <time>2016-10-08T14:26:40Z</time>
      </trkpt>
      <trkpt lat="43.39013" lon="6.73206">
        <ele>6</ele>
        <time>2016-10-08T14:26:46Z</time>
      </trkpt>
      <trkpt lat="43.39015" lon="6.73205">
        <ele>6</ele>
        <time>2016-10-08T14:26:47Z</time>
      </trkpt>
      <trkpt lat="43.39018" lon="6.73203">
        <ele>6</ele>
        <time>2016-10-08T14:26:52Z</time>
      </trkpt>
      <trkpt lat="43.39024" lon="6.73203">
        <ele>6</ele>
        <time>2016-10-08T14:27:01Z</time>
      </trkpt>
      <trkpt lat="43.39034" lon="6.73195">
        <ele>6</ele>
        <time>2016-10-08T14:27:07Z</time>
      </trkpt>
      <trkpt lat="43.39036" lon="6.73189">
        <ele>6</ele>
        <time>2016-10-08T14:27:10Z</time>
      </trkpt>
      <trkpt lat="43.39036" lon="6.73189">
        <ele>6</ele>
        <time>2016-10-08T14:27:11Z</time>
      </trkpt>
      <trkpt lat="43.39042" lon="6.73188">
        <ele>5</ele>
        <time>2016-10-08T14:27:26Z</time>
      </trkpt>
      <trkpt lat="43.39051" lon="6.73181">
        <ele>5</ele>
        <time>2016-10-08T14:27:32Z</time>
      </trkpt>
      <trkpt lat="43.39054" lon="6.73182">
        <ele>5</ele>
        <time>2016-10-08T14:27:33Z</time>
      </trkpt>
      <trkpt lat="43.39058" lon="6.73182">
        <ele>5</ele>
        <time>2016-10-08T14:27:35Z</time>
      </trkpt>
      <trkpt lat="43.39072" lon="6.73193">
        <ele>5</ele>
        <time>2016-10-08T14:27:42Z</time>
      </trkpt>
      <trkpt lat="43.39082" lon="6.73191">
        <ele>5</ele>
        <time>2016-10-08T14:27:47Z</time>
      </trkpt>
      <trkpt lat="43.39085" lon="6.73191">
        <ele>4</ele>
        <time>2016-10-08T14:27:48Z</time>
      </trkpt>
      <trkpt lat="43.39092" lon="6.73189">
        <ele>4</ele>
        <time>2016-10-08T14:27:50Z</time>
      </trkpt>
      <trkpt lat="43.39096" lon="6.73186">
        <ele>4</ele>
        <time>2016-10-08T14:27:51Z</time>
      </trkpt>
      <trkpt lat="43.39114" lon="6.73164">
        <ele>5</ele>
        <time>2016-10-08T14:27:57Z</time>
      </trkpt>
      <trkpt lat="43.39116" lon="6.73158">
        <ele>5</ele>
        <time>2016-10-08T14:27:58Z</time>
      </trkpt>
      <trkpt lat="43.39116" lon="6.73145">
        <ele>5</ele>
        <time>2016-10-08T14:28:01Z</time>
      </trkpt>
      <trkpt lat="43.39116" lon="6.73087">
        <ele>6</ele>
        <time>2016-10-08T14:28:14Z</time>
      </trkpt>
      <trkpt lat="43.3913" lon="6.73044">
        <ele>6</ele>
        <time>2016-10-08T14:28:22Z</time>
      </trkpt>
      <trkpt lat="43.39144" lon="6.73018">
        <ele>6</ele>
        <time>2016-10-08T14:28:25Z</time>
      </trkpt>
      <trkpt lat="43.39151" lon="6.72998">
        <ele>6</ele>
        <time>2016-10-08T14:28:27Z</time>
      </trkpt>
      <trkpt lat="43.39158" lon="6.72982">
        <ele>6</ele>
        <time>2016-10-08T14:28:30Z</time>
      </trkpt>
      <trkpt lat="43.39165" lon="6.72975">
        <ele>7</ele>
        <time>2016-10-08T14:28:35Z</time>
      </trkpt>
      <trkpt lat="43.39164" lon="6.72972">
        <ele>7</ele>
        <time>2016-10-08T14:28:39Z</time>
      </trkpt>
      <trkpt lat="43.39167" lon="6.72968">
        <ele>5</ele>
        <time>2016-10-08T14:35:30Z</time>
      </trkpt>
      <trkpt lat="43.39168" lon="6.72965">
        <ele>5</ele>
        <time>2016-10-08T14:35:31Z</time>
      </trkpt>
      <trkpt lat="43.39181" lon="6.7295">
        <ele>6</ele>
        <time>2016-10-08T14:35:37Z</time>
      </trkpt>
      <trkpt lat="43.39202" lon="6.72929">
        <ele>6</ele>
        <time>2016-10-08T14:35:46Z</time>
      </trkpt>
      <trkpt lat="43.39218" lon="6.72924">
        <ele>6</ele>
        <time>2016-10-08T14:35:55Z</time>
      </trkpt>
      <trkpt lat="43.39222" lon="6.7292">
        <ele>6</ele>
        <time>2016-10-08T14:36:04Z</time>
      </trkpt>
      <trkpt lat="43.39227" lon="6.72912">
        <ele>9</ele>
        <time>2016-10-08T14:36:22Z</time>
      </trkpt>
      <trkpt lat="43.3923" lon="6.72906">
        <ele>9</ele>
        <time>2016-10-08T14:36:23Z</time>
      </trkpt>
      <trkpt lat="43.39243" lon="6.72876">
        <ele>8</ele>
        <time>2016-10-08T14:36:29Z</time>
      </trkpt>
      <trkpt lat="43.39258" lon="6.72847">
        <ele>7</ele>
        <time>2016-10-08T14:36:37Z</time>
      </trkpt>
      <trkpt lat="43.39269" lon="6.72823">
        <ele>7</ele>
        <time>2016-10-08T14:36:45Z</time>
      </trkpt>
      <trkpt lat="43.39273" lon="6.72798">
        <ele>7</ele>
        <time>2016-10-08T14:36:51Z</time>
      </trkpt>
      <trkpt lat="43.3928" lon="6.72783">
        <ele>6</ele>
        <time>2016-10-08T14:36:56Z</time>
      </trkpt>
      <trkpt lat="43.39286" lon="6.72759">
        <ele>6</ele>
        <time>2016-10-08T14:37:03Z</time>
      </trkpt>
      <trkpt lat="43.39293" lon="6.72757">
        <ele>6</ele>
        <time>2016-10-08T14:37:08Z</time>
      </trkpt>
      <trkpt lat="43.39366" lon="6.72786">
        <ele>2</ele>
        <time>2016-10-08T14:37:27Z</time>
      </trkpt>
      <trkpt lat="43.39379" lon="6.72784">
        <ele>2</ele>
        <time>2016-10-08T14:37:32Z</time>
      </trkpt>
      <trkpt lat="43.39395" lon="6.72784">
        <ele>2</ele>
        <time>2016-10-08T14:37:38Z</time>
      </trkpt>
      <trkpt lat="43.39423" lon="6.72792">
        <ele>3.3</ele>
        <time>2016-10-08T14:37:45Z</time>
      </trkpt>
      <trkpt lat="43.39457" lon="6.72804">
        <ele>3.4</ele>
        <time>2016-10-08T14:37:53Z</time>
      </trkpt>
      <trkpt lat="43.39549" lon="6.7284">
        <ele>2.4</ele>
        <time>2016-10-08T14:38:11Z</time>
      </trkpt>
      <trkpt lat="43.39586" lon="6.72851">
        <ele>2.2</ele>
        <time>2016-10-08T14:38:18Z</time>
      </trkpt>
      <trkpt lat="43.39675" lon="6.72883">
        <ele>2.68</ele>
        <time>2016-10-08T14:38:35Z</time>
      </trkpt>
      <trkpt lat="43.39724" lon="6.72902">
        <ele>1.9</ele>
        <time>2016-10-08T14:38:44Z</time>
      </trkpt>
      <trkpt lat="43.39825" lon="6.72939">
        <ele>3</ele>
        <time>2016-10-08T14:39:03Z</time>
      </trkpt>
      <trkpt lat="43.39862" lon="6.72953">
        <ele>3</ele>
        <time>2016-10-08T14:39:10Z</time>
      </trkpt>
      <trkpt lat="43.39906" lon="6.72968">
        <ele>2</ele>
        <time>2016-10-08T14:39:18Z</time>
      </trkpt>
      <trkpt lat="43.39952" lon="6.72977">
        <ele>2</ele>
        <time>2016-10-08T14:39:26Z</time>
      </trkpt>
      <trkpt lat="43.40011" lon="6.72982">
        <ele>3</ele>
        <time>2016-10-08T14:39:36Z</time>
      </trkpt>
      <trkpt lat="43.40183" lon="6.72992">
        <ele>2</ele>
        <time>2016-10-08T14:40:06Z</time>
      </trkpt>
      <trkpt lat="43.40235" lon="6.72988">
        <ele>2</ele>
        <time>2016-10-08T14:40:15Z</time>
      </trkpt>
      <trkpt lat="43.40274" lon="6.72979">
        <ele>2</ele>
        <time>2016-10-08T14:40:22Z</time>
      </trkpt>
      <trkpt lat="43.40325" lon="6.72963">
        <ele>2</ele>
        <time>2016-10-08T14:40:31Z</time>
      </trkpt>
      <trkpt lat="43.40381" lon="6.72929">
        <ele>2</ele>
        <time>2016-10-08T14:40:41Z</time>
      </trkpt>
      <trkpt lat="43.40429" lon="6.72898">
        <ele>3</ele>
        <time>2016-10-08T14:40:50Z</time>
      </trkpt>
      <trkpt lat="43.40466" lon="6.7286">
        <ele>3</ele>
        <time>2016-10-08T14:40:58Z</time>
      </trkpt>
      <trkpt lat="43.40496" lon="6.72825">
        <ele>2</ele>
        <time>2016-10-08T14:41:05Z</time>
      </trkpt>
      <trkpt lat="43.40532" lon="6.72792">
        <ele>2</ele>
        <time>2016-10-08T14:41:12Z</time>
      </trkpt>
      <trkpt lat="43.40568" lon="6.7276">
        <ele>2</ele>
        <time>2016-10-08T14:41:19Z</time>
      </trkpt>
      <trkpt lat="43.40637" lon="6.72688">
        <ele>2</ele>
        <time>2016-10-08T14:41:33Z</time>
      </trkpt>
      <trkpt lat="43.40678" lon="6.7265">
        <ele>2</ele>
        <time>2016-10-08T14:41:41Z</time>
      </trkpt>
      <trkpt lat="43.40722" lon="6.72606">
        <ele>2</ele>
        <time>2016-10-08T14:41:50Z</time>
      </trkpt>
      <trkpt lat="43.40764" lon="6.72561">
        <ele>2</ele>
        <time>2016-10-08T14:41:59Z</time>
      </trkpt>
      <trkpt lat="43.40805" lon="6.72524">
        <ele>2</ele>
        <time>2016-10-08T14:42:07Z</time>
      </trkpt>
      <trkpt lat="43.40851" lon="6.72475">
        <ele>2</ele>
        <time>2016-10-08T14:42:17Z</time>
      </trkpt>
      <trkpt lat="43.40873" lon="6.72454">
        <ele>2</ele>
        <time>2016-10-08T14:42:22Z</time>
      </trkpt>
      <trkpt lat="43.40879" lon="6.7245">
        <ele>2</ele>
        <time>2016-10-08T14:42:23Z</time>
      </trkpt>
      <trkpt lat="43.40903" lon="6.72427">
        <ele>3</ele>
        <time>2016-10-08T14:42:28Z</time>
      </trkpt>
      <trkpt lat="43.40909" lon="6.72427">
        <ele>3</ele>
        <time>2016-10-08T14:42:29Z</time>
      </trkpt>
      <trkpt lat="43.40933" lon="6.72421">
        <ele>3</ele>
        <time>2016-10-08T14:42:33Z</time>
      </trkpt>
      <trkpt lat="43.40945" lon="6.72416">
        <ele>3</ele>
        <time>2016-10-08T14:42:35Z</time>
      </trkpt>
      <trkpt lat="43.40983" lon="6.72411">
        <ele>3</ele>
        <time>2016-10-08T14:42:41Z</time>
      </trkpt>
      <trkpt lat="43.41024" lon="6.72416">
        <ele>3</ele>
        <time>2016-10-08T14:42:48Z</time>
      </trkpt>
      <trkpt lat="43.41056" lon="6.72429">
        <ele>3</ele>
        <time>2016-10-08T14:42:54Z</time>
      </trkpt>
      <trkpt lat="43.41061" lon="6.72434">
        <ele>3</ele>
        <time>2016-10-08T14:42:55Z</time>
      </trkpt>
      <trkpt lat="43.41073" lon="6.72438">
        <ele>3</ele>
        <time>2016-10-08T14:42:58Z</time>
      </trkpt>
      <trkpt lat="43.41077" lon="6.72436">
        <ele>3</ele>
        <time>2016-10-08T14:42:59Z</time>
      </trkpt>
      <trkpt lat="43.41085" lon="6.72436">
        <ele>3</ele>
        <time>2016-10-08T14:43:01Z</time>
      </trkpt>
      <trkpt lat="43.41099" lon="6.72444">
        <ele>3</ele>
        <time>2016-10-08T14:43:04Z</time>
      </trkpt>
      <trkpt lat="43.41133" lon="6.72459">
        <ele>3</ele>
        <time>2016-10-08T14:43:10Z</time>
      </trkpt>
      <trkpt lat="43.41157" lon="6.72471">
        <ele>3</ele>
        <time>2016-10-08T14:43:16Z</time>
      </trkpt>
      <trkpt lat="43.41151" lon="6.72488">
        <ele>3</ele>
        <time>2016-10-08T14:43:20Z</time>
      </trkpt>
      <trkpt lat="43.41146" lon="6.72515">
        <ele>4</ele>
        <time>2016-10-08T14:43:25Z</time>
      </trkpt>
      <trkpt lat="43.4115" lon="6.72541">
        <ele>5</ele>
        <time>2016-10-08T14:43:30Z</time>
      </trkpt>
      <trkpt lat="43.41133" lon="6.72569">
        <ele>5</ele>
        <time>2016-10-08T14:43:36Z</time>
      </trkpt>
      <trkpt lat="43.41128" lon="6.72574">
        <ele>5</ele>
        <time>2016-10-08T14:43:37Z</time>
      </trkpt>
      <trkpt lat="43.41124" lon="6.72585">
        <ele>5</ele>
        <time>2016-10-08T14:43:39Z</time>
      </trkpt>
      <trkpt lat="43.41125" lon="6.72595">
        <ele>5</ele>
        <time>2016-10-08T14:43:41Z</time>
      </trkpt>
      <trkpt lat="43.41127" lon="6.726">
        <ele>5</ele>
        <time>2016-10-08T14:43:42Z</time>
      </trkpt>
      <trkpt lat="43.4116" lon="6.72639">
        <ele>6</ele>
        <time>2016-10-08T14:43:52Z</time>
      </trkpt>
      <trkpt lat="43.41177" lon="6.72666">
        <ele>8</ele>
        <time>2016-10-08T14:43:58Z</time>
      </trkpt>
      <trkpt lat="43.41197" lon="6.72699">
        <ele>8</ele>
        <time>2016-10-08T14:44:04Z</time>
      </trkpt>
      <trkpt lat="43.41196" lon="6.72725">
        <ele>8</ele>
        <time>2016-10-08T14:44:08Z</time>
      </trkpt>
      <trkpt lat="43.41191" lon="6.72738">
        <ele>8</ele>
        <time>2016-10-08T14:44:10Z</time>
      </trkpt>
      <trkpt lat="43.41186" lon="6.72757">
        <ele>7</ele>
        <time>2016-10-08T14:44:13Z</time>
      </trkpt>
      <trkpt lat="43.41175" lon="6.72786">
        <ele>6</ele>
        <time>2016-10-08T14:44:18Z</time>
      </trkpt>
      <trkpt lat="43.41175" lon="6.72813">
        <ele>5</ele>
        <time>2016-10-08T14:44:22Z</time>
      </trkpt>
      <trkpt lat="43.4118" lon="6.72823">
        <ele>5</ele>
        <time>2016-10-08T14:44:24Z</time>
      </trkpt>
      <trkpt lat="43.41194" lon="6.72829">
        <ele>5</ele>
        <time>2016-10-08T14:44:27Z</time>
      </trkpt>
      <trkpt lat="43.41199" lon="6.72832">
        <ele>5</ele>
        <time>2016-10-08T14:44:28Z</time>
      </trkpt>
      <trkpt lat="43.41225" lon="6.72858">
        <ele>4</ele>
        <time>2016-10-08T14:44:34Z</time>
      </trkpt>
      <trkpt lat="43.41237" lon="6.72874">
        <ele>4</ele>
        <time>2016-10-08T14:44:37Z</time>
      </trkpt>
      <trkpt lat="43.41242" lon="6.72891">
        <ele>4</ele>
        <time>2016-10-08T14:44:39Z</time>
      </trkpt>
      <trkpt lat="43.41248" lon="6.72959">
        <ele>3</ele>
        <time>2016-10-08T14:44:47Z</time>
      </trkpt>
      <trkpt lat="43.4125" lon="6.72967">
        <ele>3</ele>
        <time>2016-10-08T14:44:48Z</time>
      </trkpt>
      <trkpt lat="43.41257" lon="6.72982">
        <ele>3</ele>
        <time>2016-10-08T14:44:50Z</time>
      </trkpt>
      <trkpt lat="43.41257" lon="6.72997">
        <ele>3</ele>
        <time>2016-10-08T14:44:52Z</time>
      </trkpt>
      <trkpt lat="43.41254" lon="6.73003">
        <ele>3</ele>
        <time>2016-10-08T14:44:53Z</time>
      </trkpt>
      <trkpt lat="43.41241" lon="6.73018">
        <ele>3</ele>
        <time>2016-10-08T14:44:56Z</time>
      </trkpt>
      <trkpt lat="43.4121" lon="6.73057">
        <ele>2</ele>
        <time>2016-10-08T14:45:04Z</time>
      </trkpt>
      <trkpt lat="43.41188" lon="6.73086">
        <ele>2</ele>
        <time>2016-10-08T14:45:10Z</time>
      </trkpt>
      <trkpt lat="43.41169" lon="6.73131">
        <ele>3</ele>
        <time>2016-10-08T14:45:19Z</time>
      </trkpt>
      <trkpt lat="43.41175" lon="6.7314">
        <ele>3</ele>
        <time>2016-10-08T14:45:21Z</time>
      </trkpt>
      <trkpt lat="43.41186" lon="6.73155">
        <ele>3</ele>
        <time>2016-10-08T14:45:24Z</time>
      </trkpt>
      <trkpt lat="43.41213" lon="6.73187">
        <ele>4</ele>
        <time>2016-10-08T14:45:31Z</time>
      </trkpt>
      <trkpt lat="43.41218" lon="6.73198">
        <ele>4</ele>
        <time>2016-10-08T14:45:34Z</time>
      </trkpt>
      <trkpt lat="43.41206" lon="6.73224">
        <ele>4</ele>
        <time>2016-10-08T14:45:39Z</time>
      </trkpt>
      <trkpt lat="43.41193" lon="6.73245">
        <ele>4</ele>
        <time>2016-10-08T14:45:43Z</time>
      </trkpt>
      <trkpt lat="43.41143" lon="6.73355">
        <ele>1</ele>
        <time>2016-10-08T14:46:02Z</time>
      </trkpt>
      <trkpt lat="43.41123" lon="6.73416">
        <ele>1</ele>
        <time>2016-10-08T14:46:11Z</time>
      </trkpt>
      <trkpt lat="43.41115" lon="6.73445">
        <ele>2</ele>
        <time>2016-10-08T14:46:15Z</time>
      </trkpt>
      <trkpt lat="43.41117" lon="6.7346">
        <ele>2</ele>
        <time>2016-10-08T14:46:17Z</time>
      </trkpt>
      <trkpt lat="43.41129" lon="6.73473">
        <ele>2</ele>
        <time>2016-10-08T14:46:20Z</time>
      </trkpt>
      <trkpt lat="43.41134" lon="6.73477">
        <ele>2</ele>
        <time>2016-10-08T14:46:21Z</time>
      </trkpt>
      <trkpt lat="43.41161" lon="6.73503">
        <ele>3</ele>
        <time>2016-10-08T14:46:27Z</time>
      </trkpt>
      <trkpt lat="43.41179" lon="6.73518">
        <ele>3</ele>
        <time>2016-10-08T14:46:31Z</time>
      </trkpt>
      <trkpt lat="43.41188" lon="6.73524">
        <ele>3</ele>
        <time>2016-10-08T14:46:33Z</time>
      </trkpt>
      <trkpt lat="43.41198" lon="6.73529">
        <ele>3</ele>
        <time>2016-10-08T14:46:35Z</time>
      </trkpt>
      <trkpt lat="43.41215" lon="6.73529">
        <ele>3</ele>
        <time>2016-10-08T14:46:38Z</time>
      </trkpt>
      <trkpt lat="43.41229" lon="6.73518">
        <ele>3</ele>
        <time>2016-10-08T14:46:41Z</time>
      </trkpt>
      <trkpt lat="43.41251" lon="6.73491">
        <ele>3</ele>
        <time>2016-10-08T14:46:47Z</time>
      </trkpt>
      <trkpt lat="43.41254" lon="6.73482">
        <ele>3</ele>
        <time>2016-10-08T14:46:49Z</time>
      </trkpt>
      <trkpt lat="43.41258" lon="6.73476">
        <ele>3</ele>
        <time>2016-10-08T14:46:50Z</time>
      </trkpt>
      <trkpt lat="43.41266" lon="6.73473">
        <ele>3</ele>
        <time>2016-10-08T14:46:51Z</time>
      </trkpt>
      <trkpt lat="43.41286" lon="6.73482">
        <ele>3</ele>
        <time>2016-10-08T14:46:54Z</time>
      </trkpt>
      <trkpt lat="43.41357" lon="6.735">
        <ele>2</ele>
        <time>2016-10-08T14:47:06Z</time>
      </trkpt>
      <trkpt lat="43.41415" lon="6.73514">
        <ele>2</ele>
        <time>2016-10-08T14:47:16Z</time>
      </trkpt>
      <trkpt lat="43.41559" lon="6.7355">
        <ele>1</ele>
        <time>2016-10-08T14:47:41Z</time>
      </trkpt>
      <trkpt lat="43.41584" lon="6.73558">
        <ele>1</ele>
        <time>2016-10-08T14:47:46Z</time>
      </trkpt>
      <trkpt lat="43.41593" lon="6.73567">
        <ele>1</ele>
        <time>2016-10-08T14:47:48Z</time>
      </trkpt>
      <trkpt lat="43.41599" lon="6.73586">
        <ele>1</ele>
        <time>2016-10-08T14:47:51Z</time>
      </trkpt>
      <trkpt lat="43.41622" lon="6.73653">
        <ele>1</ele>
        <time>2016-10-08T14:48:01Z</time>
      </trkpt>
      <trkpt lat="43.41639" lon="6.7368">
        <ele>1</ele>
        <time>2016-10-08T14:48:06Z</time>
      </trkpt>
      <trkpt lat="43.4164" lon="6.73687">
        <ele>1</ele>
        <time>2016-10-08T14:48:07Z</time>
      </trkpt>
      <trkpt lat="43.41634" lon="6.73699">
        <ele>1</ele>
        <time>2016-10-08T14:48:09Z</time>
      </trkpt>
      <trkpt lat="43.41629" lon="6.73703">
        <ele>1</ele>
        <time>2016-10-08T14:48:10Z</time>
      </trkpt>
      <trkpt lat="43.41609" lon="6.73715">
        <ele>2</ele>
        <time>2016-10-08T14:48:14Z</time>
      </trkpt>
      <trkpt lat="43.4158" lon="6.73731">
        <ele>1</ele>
        <time>2016-10-08T14:48:20Z</time>
      </trkpt>
      <trkpt lat="43.41567" lon="6.73743">
        <ele>1</ele>
        <time>2016-10-08T14:48:23Z</time>
      </trkpt>
      <trkpt lat="43.41562" lon="6.73753">
        <ele>1</ele>
        <time>2016-10-08T14:48:25Z</time>
      </trkpt>
      <trkpt lat="43.41554" lon="6.73782">
        <ele>1</ele>
        <time>2016-10-08T14:48:30Z</time>
      </trkpt>
      <trkpt lat="43.41548" lon="6.73814">
        <ele>1</ele>
        <time>2016-10-08T14:48:35Z</time>
      </trkpt>
      <trkpt lat="43.4155" lon="6.73827">
        <ele>1</ele>
        <time>2016-10-08T14:48:37Z</time>
      </trkpt>
      <trkpt lat="43.41554" lon="6.73831">
        <ele>1</ele>
        <time>2016-10-08T14:48:38Z</time>
      </trkpt>
      <trkpt lat="43.41559" lon="6.73834">
        <ele>1</ele>
        <time>2016-10-08T14:48:39Z</time>
      </trkpt>
      <trkpt lat="43.41592" lon="6.73858">
        <ele>1</ele>
        <time>2016-10-08T14:48:47Z</time>
      </trkpt>
      <trkpt lat="43.41607" lon="6.73869">
        <ele>1</ele>
        <time>2016-10-08T14:48:53Z</time>
      </trkpt>
      <trkpt lat="43.41606" lon="6.73871">
        <ele>1</ele>
        <time>2016-10-08T14:48:55Z</time>
      </trkpt>
    </trkseg>
  </trk>
</gpx>